<?xml version="1.0" encoding="UTF-8"?><gpx version="1.0" creator="dbj" xmlns="http://www.topografix.com/GPX/1/0"><time>2020-01-06T08:30:06Z</time><bounds minlat="43.77518903" minlon="11.195697" maxlat="43.79110501" maxlon="11.22874198"/><wpt lat="43.780048024" lon="11.204947019"><name>Start Lat:43.78, Lon:11.2049</name><sym>Start</sym><ele>37</ele></wpt><trk><trkseg><trkpt lat="43.780048024" lon="11.204947019"><ele>37</ele><time>2020-01-06T08:30:06Z</time></trkpt>
<trkpt lat="43.780030003" lon="11.204950958"><ele>37</ele><time>2020-01-06T08:30:07Z</time></trkpt>
<trkpt lat="43.78000997" lon="11.204957999"><ele>37</ele><time>2020-01-06T08:30:08Z</time></trkpt>
<trkpt lat="43.779988009" lon="11.204966968"><ele>37</ele><time>2020-01-06T08:30:09Z</time></trkpt>
<trkpt lat="43.779964037" lon="11.204977026"><ele>37</ele><time>2020-01-06T08:30:10Z</time></trkpt>
<trkpt lat="43.77993797" lon="11.204988007"><ele>37</ele><time>2020-01-06T08:30:11Z</time></trkpt>
<trkpt lat="43.77991098" lon="11.204998987"><ele>37</ele><time>2020-01-06T08:30:12Z</time></trkpt>
<trkpt lat="43.779882984" lon="11.205009967"><ele>38</ele><time>2020-01-06T08:30:13Z</time></trkpt>
<trkpt lat="43.779852977" lon="11.205020025"><ele>38</ele><time>2020-01-06T08:30:14Z</time></trkpt>
<trkpt lat="43.77982297" lon="11.205028994"><ele>38</ele><time>2020-01-06T08:30:15Z</time></trkpt>
<trkpt lat="43.779792041" lon="11.205036035"><ele>38</ele><time>2020-01-06T08:30:16Z</time></trkpt>
<trkpt lat="43.779761028" lon="11.205039974"><ele>38</ele><time>2020-01-06T08:30:17Z</time></trkpt>
<trkpt lat="43.779729009" lon="11.205041986"><ele>38</ele><time>2020-01-06T08:30:18Z</time></trkpt>
<trkpt lat="43.779699001" lon="11.205041986"><ele>39</ele><time>2020-01-06T08:30:19Z</time></trkpt>
<trkpt lat="43.779668994" lon="11.205042992"><ele>39</ele><time>2020-01-06T08:30:20Z</time></trkpt>
<trkpt lat="43.77964301" lon="11.205045003"><ele>39</ele><time>2020-01-06T08:30:21Z</time></trkpt>
<trkpt lat="43.779618032" lon="11.205050033"><ele>39</ele><time>2020-01-06T08:30:22Z</time></trkpt>
<trkpt lat="43.779593976" lon="11.205059001"><ele>39</ele><time>2020-01-06T08:30:23Z</time></trkpt>
<trkpt lat="43.77957101" lon="11.205072999"><ele>39</ele><time>2020-01-06T08:30:24Z</time></trkpt>
<trkpt lat="43.779548965" lon="11.205093032"><ele>39</ele><time>2020-01-06T08:30:25Z</time></trkpt>
<trkpt lat="43.779528011" lon="11.20511801"><ele>39</ele><time>2020-01-06T08:30:26Z</time></trkpt>
<trkpt lat="43.779507978" lon="11.205149023"><ele>39</ele><time>2020-01-06T08:30:27Z</time></trkpt>
<trkpt lat="43.779490963" lon="11.20518297"><ele>40</ele><time>2020-01-06T08:30:28Z</time></trkpt>
<trkpt lat="43.779476965" lon="11.205222029"><ele>40</ele><time>2020-01-06T08:30:29Z</time></trkpt>
<trkpt lat="43.779464979" lon="11.205263017"><ele>40</ele><time>2020-01-06T08:30:30Z</time></trkpt>
<trkpt lat="43.779457016" lon="11.205307022"><ele>40</ele><time>2020-01-06T08:30:31Z</time></trkpt>
<trkpt lat="43.779448969" lon="11.20535396"><ele>40</ele><time>2020-01-06T08:30:32Z</time></trkpt>
<trkpt lat="43.779444024" lon="11.205401989"><ele>40</ele><time>2020-01-06T08:30:33Z</time></trkpt>
<trkpt lat="43.779438995" lon="11.205451023"><ele>40</ele><time>2020-01-06T08:30:34Z</time></trkpt>
<trkpt lat="43.779434972" lon="11.205500979"><ele>40</ele><time>2020-01-06T08:30:35Z</time></trkpt>
<trkpt lat="43.779431032" lon="11.205551019"><ele>40</ele><time>2020-01-06T08:30:36Z</time></trkpt>
<trkpt lat="43.779427009" lon="11.205599969"><ele>40</ele><time>2020-01-06T08:30:37Z</time></trkpt>
<trkpt lat="43.779422985" lon="11.205650009"><ele>40</ele><time>2020-01-06T08:30:38Z</time></trkpt>
<trkpt lat="43.77941804" lon="11.20569896"><ele>40</ele><time>2020-01-06T08:30:39Z</time></trkpt>
<trkpt lat="43.779414017" lon="11.205746988"><ele>40</ele><time>2020-01-06T08:30:40Z</time></trkpt>
<trkpt lat="43.779408988" lon="11.20579401"><ele>40</ele><time>2020-01-06T08:30:41Z</time></trkpt>
<trkpt lat="43.779403036" lon="11.205841033"><ele>40</ele><time>2020-01-06T08:30:42Z</time></trkpt>
<trkpt lat="43.779397001" lon="11.20588596"><ele>40</ele><time>2020-01-06T08:30:43Z</time></trkpt>
<trkpt lat="43.779390967" lon="11.205929965"><ele>40</ele><time>2020-01-06T08:30:44Z</time></trkpt>
<trkpt lat="43.77938401" lon="11.205972964"><ele>40</ele><time>2020-01-06T08:30:45Z</time></trkpt>
<trkpt lat="43.779375963" lon="11.206016969"><ele>40</ele><time>2020-01-06T08:30:46Z</time></trkpt>
<trkpt lat="43.779368" lon="11.206060974"><ele>40</ele><time>2020-01-06T08:30:47Z</time></trkpt>
<trkpt lat="43.779360037" lon="11.206106991"><ele>40</ele><time>2020-01-06T08:30:48Z</time></trkpt>
<trkpt lat="43.779351991" lon="11.206154013"><ele>40</ele><time>2020-01-06T08:30:49Z</time></trkpt>
<trkpt lat="43.779343022" lon="11.206202041"><ele>41</ele><time>2020-01-06T08:30:50Z</time></trkpt>
<trkpt lat="43.779334975" lon="11.20624898"><ele>41</ele><time>2020-01-06T08:30:51Z</time></trkpt>
<trkpt lat="43.779326007" lon="11.206294997"><ele>41</ele><time>2020-01-06T08:30:52Z</time></trkpt>
<trkpt lat="43.779317038" lon="11.206342019"><ele>41</ele><time>2020-01-06T08:30:53Z</time></trkpt>
<trkpt lat="43.779307986" lon="11.206388036"><ele>41</ele><time>2020-01-06T08:30:54Z</time></trkpt>
<trkpt lat="43.779299017" lon="11.206433969"><ele>41</ele><time>2020-01-06T08:30:55Z</time></trkpt>
<trkpt lat="43.779289965" lon="11.206478979"><ele>41</ele><time>2020-01-06T08:30:56Z</time></trkpt>
<trkpt lat="43.779280996" lon="11.206524996"><ele>41</ele><time>2020-01-06T08:30:57Z</time></trkpt>
<trkpt lat="43.779272027" lon="11.206570007"><ele>41</ele><time>2020-01-06T08:30:58Z</time></trkpt>
<trkpt lat="43.779262975" lon="11.206615018"><ele>41</ele><time>2020-01-06T08:30:59Z</time></trkpt>
<trkpt lat="43.779235985" lon="11.206750972"><ele>41</ele><time>2020-01-06T08:31:02Z</time></trkpt>
<trkpt lat="43.779227016" lon="11.206796989"><ele>41</ele><time>2020-01-06T08:31:03Z</time></trkpt>
<trkpt lat="43.779217964" lon="11.206842"><ele>41</ele><time>2020-01-06T08:31:04Z</time></trkpt>
<trkpt lat="43.779192986" lon="11.20697896"><ele>41</ele><time>2020-01-06T08:31:07Z</time></trkpt>
<trkpt lat="43.779185023" lon="11.207024977"><ele>41</ele><time>2020-01-06T08:31:08Z</time></trkpt>
<trkpt lat="43.779176977" lon="11.207070993"><ele>41</ele><time>2020-01-06T08:31:09Z</time></trkpt>
<trkpt lat="43.779169014" lon="11.20711701"><ele>41</ele><time>2020-01-06T08:31:10Z</time></trkpt>
<trkpt lat="43.779160967" lon="11.207163027"><ele>41</ele><time>2020-01-06T08:31:11Z</time></trkpt>
<trkpt lat="43.779153004" lon="11.207208959"><ele>41</ele><time>2020-01-06T08:31:12Z</time></trkpt>
<trkpt lat="43.779145041" lon="11.207254976"><ele>41</ele><time>2020-01-06T08:31:13Z</time></trkpt>
<trkpt lat="43.779138001" lon="11.207299987"><ele>41</ele><time>2020-01-06T08:31:14Z</time></trkpt>
<trkpt lat="43.779130038" lon="11.207346004"><ele>41</ele><time>2020-01-06T08:31:15Z</time></trkpt>
<trkpt lat="43.779122997" lon="11.207391014"><ele>41</ele><time>2020-01-06T08:31:16Z</time></trkpt>
<trkpt lat="43.779115034" lon="11.207435019"><ele>41</ele><time>2020-01-06T08:31:17Z</time></trkpt>
<trkpt lat="43.779108999" lon="11.20748003"><ele>41</ele><time>2020-01-06T08:31:18Z</time></trkpt>
<trkpt lat="43.779101958" lon="11.207524035"><ele>41</ele><time>2020-01-06T08:31:19Z</time></trkpt>
<trkpt lat="43.779096007" lon="11.207567034"><ele>41</ele><time>2020-01-06T08:31:20Z</time></trkpt>
<trkpt lat="43.779090978" lon="11.207610033"><ele>41</ele><time>2020-01-06T08:31:21Z</time></trkpt>
<trkpt lat="43.779086033" lon="11.207653033"><ele>41</ele><time>2020-01-06T08:31:22Z</time></trkpt>
<trkpt lat="43.779081004" lon="11.207696032"><ele>41</ele><time>2020-01-06T08:31:23Z</time></trkpt>
<trkpt lat="43.779075975" lon="11.207740037"><ele>41</ele><time>2020-01-06T08:31:24Z</time></trkpt>
<trkpt lat="43.779070023" lon="11.207784042"><ele>41</ele><time>2020-01-06T08:31:25Z</time></trkpt>
<trkpt lat="43.779063988" lon="11.207828969"><ele>41</ele><time>2020-01-06T08:31:26Z</time></trkpt>
<trkpt lat="43.779056026" lon="11.207874985"><ele>41</ele><time>2020-01-06T08:31:27Z</time></trkpt>
<trkpt lat="43.779047979" lon="11.207923014"><ele>41</ele><time>2020-01-06T08:31:28Z</time></trkpt>
<trkpt lat="43.779036999" lon="11.20797297"><ele>41</ele><time>2020-01-06T08:31:29Z</time></trkpt>
<trkpt lat="43.779026018" lon="11.20802301"><ele>41</ele><time>2020-01-06T08:31:30Z</time></trkpt>
<trkpt lat="43.77901596" lon="11.208073972"><ele>41</ele><time>2020-01-06T08:31:31Z</time></trkpt>
<trkpt lat="43.779006992" lon="11.208123006"><ele>41</ele><time>2020-01-06T08:31:32Z</time></trkpt>
<trkpt lat="43.778999029" lon="11.208170028"><ele>41</ele><time>2020-01-06T08:31:33Z</time></trkpt>
<trkpt lat="43.778994" lon="11.208216967"><ele>41</ele><time>2020-01-06T08:31:34Z</time></trkpt>
<trkpt lat="43.778987965" lon="11.208261978"><ele>41</ele><time>2020-01-06T08:31:35Z</time></trkpt>
<trkpt lat="43.778983019" lon="11.208307995"><ele>41</ele><time>2020-01-06T08:31:36Z</time></trkpt>
<trkpt lat="43.778976984" lon="11.208354011"><ele>41</ele><time>2020-01-06T08:31:37Z</time></trkpt>
<trkpt lat="43.778970027" lon="11.208400028"><ele>41</ele><time>2020-01-06T08:31:38Z</time></trkpt>
<trkpt lat="43.778963992" lon="11.208446966"><ele>41</ele><time>2020-01-06T08:31:39Z</time></trkpt>
<trkpt lat="43.778958041" lon="11.208493989"><ele>42</ele><time>2020-01-06T08:31:40Z</time></trkpt>
<trkpt lat="43.778951" lon="11.208540006"><ele>42</ele><time>2020-01-06T08:31:41Z</time></trkpt>
<trkpt lat="43.77894396" lon="11.208587028"><ele>42</ele><time>2020-01-06T08:31:42Z</time></trkpt>
<trkpt lat="43.778938008" lon="11.208633967"><ele>42</ele><time>2020-01-06T08:31:43Z</time></trkpt>
<trkpt lat="43.778931974" lon="11.208680989"><ele>42</ele><time>2020-01-06T08:31:44Z</time></trkpt>
<trkpt lat="43.778926022" lon="11.208728012"><ele>42</ele><time>2020-01-06T08:31:45Z</time></trkpt>
<trkpt lat="43.778920993" lon="11.208774028"><ele>42</ele><time>2020-01-06T08:31:46Z</time></trkpt>
<trkpt lat="43.778914958" lon="11.208820967"><ele>42</ele><time>2020-01-06T08:31:47Z</time></trkpt>
<trkpt lat="43.778911019" lon="11.208866984"><ele>42</ele><time>2020-01-06T08:31:48Z</time></trkpt>
<trkpt lat="43.778906995" lon="11.208913"><ele>42</ele><time>2020-01-06T08:31:49Z</time></trkpt>
<trkpt lat="43.778903978" lon="11.208958011"><ele>42</ele><time>2020-01-06T08:31:50Z</time></trkpt>
<trkpt lat="43.77890096" lon="11.209004028"><ele>42</ele><time>2020-01-06T08:31:51Z</time></trkpt>
<trkpt lat="43.778898027" lon="11.209049039"><ele>42</ele><time>2020-01-06T08:31:52Z</time></trkpt>
<trkpt lat="43.778896015" lon="11.209093966"><ele>42</ele><time>2020-01-06T08:31:53Z</time></trkpt>
<trkpt lat="43.778891992" lon="11.209138976"><ele>42</ele><time>2020-01-06T08:31:54Z</time></trkpt>
<trkpt lat="43.778887969" lon="11.209184993"><ele>42</ele><time>2020-01-06T08:31:55Z</time></trkpt>
<trkpt lat="43.778882017" lon="11.209230004"><ele>42</ele><time>2020-01-06T08:31:56Z</time></trkpt>
<trkpt lat="43.778873971" lon="11.209274009"><ele>42</ele><time>2020-01-06T08:31:57Z</time></trkpt>
<trkpt lat="43.778866008" lon="11.209316002"><ele>42</ele><time>2020-01-06T08:31:58Z</time></trkpt>
<trkpt lat="43.778855028" lon="11.209355984"><ele>42</ele><time>2020-01-06T08:31:59Z</time></trkpt>
<trkpt lat="43.778843964" lon="11.209395966"><ele>42</ele><time>2020-01-06T08:32:00Z</time></trkpt>
<trkpt lat="43.778829966" lon="11.209437037"><ele>42</ele><time>2020-01-06T08:32:01Z</time></trkpt>
<trkpt lat="43.778815968" lon="11.209478024"><ele>42</ele><time>2020-01-06T08:32:02Z</time></trkpt>
<trkpt lat="43.778799959" lon="11.209520018"><ele>42</ele><time>2020-01-06T08:32:03Z</time></trkpt>
<trkpt lat="43.778785039" lon="11.209562011"><ele>42</ele><time>2020-01-06T08:32:04Z</time></trkpt>
<trkpt lat="43.778771041" lon="11.209604004"><ele>42</ele><time>2020-01-06T08:32:05Z</time></trkpt>
<trkpt lat="43.778756959" lon="11.209647004"><ele>42</ele><time>2020-01-06T08:32:06Z</time></trkpt>
<trkpt lat="43.778743967" lon="11.209690003"><ele>42</ele><time>2020-01-06T08:32:07Z</time></trkpt>
<trkpt lat="43.778731981" lon="11.209733002"><ele>42</ele><time>2020-01-06T08:32:08Z</time></trkpt>
<trkpt lat="43.778719995" lon="11.209776001"><ele>42</ele><time>2020-01-06T08:32:09Z</time></trkpt>
<trkpt lat="43.778687976" lon="11.209912039"><ele>43</ele><time>2020-01-06T08:32:12Z</time></trkpt>
<trkpt lat="43.778676996" lon="11.209959984"><ele>43</ele><time>2020-01-06T08:32:13Z</time></trkpt>
<trkpt lat="43.778668027" lon="11.210008012"><ele>43</ele><time>2020-01-06T08:32:14Z</time></trkpt>
<trkpt lat="43.778657969" lon="11.210056962"><ele>43</ele><time>2020-01-06T08:32:15Z</time></trkpt>
<trkpt lat="43.778649" lon="11.210104991"><ele>43</ele><time>2020-01-06T08:32:16Z</time></trkpt>
<trkpt lat="43.778640032" lon="11.210154025"><ele>43</ele><time>2020-01-06T08:32:17Z</time></trkpt>
<trkpt lat="43.778631985" lon="11.210200964"><ele>43</ele><time>2020-01-06T08:32:18Z</time></trkpt>
<trkpt lat="43.778624022" lon="11.210247986"><ele>43</ele><time>2020-01-06T08:32:19Z</time></trkpt>
<trkpt lat="43.778615976" lon="11.210292997"><ele>43</ele><time>2020-01-06T08:32:20Z</time></trkpt>
<trkpt lat="43.778596027" lon="11.210421994"><ele>43</ele><time>2020-01-06T08:32:23Z</time></trkpt>
<trkpt lat="43.77858798" lon="11.210463988"><ele>43</ele><time>2020-01-06T08:32:24Z</time></trkpt>
<trkpt lat="43.778581023" lon="11.210505981"><ele>43</ele><time>2020-01-06T08:32:25Z</time></trkpt>
<trkpt lat="43.778572977" lon="11.210545963"><ele>43</ele><time>2020-01-06T08:32:26Z</time></trkpt>
<trkpt lat="43.778564008" lon="11.210584017"><ele>43</ele><time>2020-01-06T08:32:27Z</time></trkpt>
<trkpt lat="43.778554033" lon="11.210619975"><ele>43</ele><time>2020-01-06T08:32:28Z</time></trkpt>
<trkpt lat="43.778542969" lon="11.210655011"><ele>43</ele><time>2020-01-06T08:32:29Z</time></trkpt>
<trkpt lat="43.778530983" lon="11.210689964"><ele>43</ele><time>2020-01-06T08:32:30Z</time></trkpt>
<trkpt lat="43.778520003" lon="11.210723994"><ele>44</ele><time>2020-01-06T08:32:31Z</time></trkpt>
<trkpt lat="43.778509023" lon="11.210760036"><ele>44</ele><time>2020-01-06T08:32:32Z</time></trkpt>
<trkpt lat="43.778497959" lon="11.210798007"><ele>44</ele><time>2020-01-06T08:32:33Z</time></trkpt>
<trkpt lat="43.778487984" lon="11.210838994"><ele>44</ele><time>2020-01-06T08:32:34Z</time></trkpt>
<trkpt lat="43.778466024" lon="11.210980983"><ele>44</ele><time>2020-01-06T08:32:37Z</time></trkpt>
<trkpt lat="43.778459989" lon="11.211032029"><ele>44</ele><time>2020-01-06T08:32:38Z</time></trkpt>
<trkpt lat="43.778454959" lon="11.211082991"><ele>44</ele><time>2020-01-06T08:32:39Z</time></trkpt>
<trkpt lat="43.77845102" lon="11.211134037"><ele>44</ele><time>2020-01-06T08:32:40Z</time></trkpt>
<trkpt lat="43.778448002" lon="11.211183993"><ele>43</ele><time>2020-01-06T08:32:41Z</time></trkpt>
<trkpt lat="43.778444985" lon="11.211232021"><ele>43</ele><time>2020-01-06T08:32:42Z</time></trkpt>
<trkpt lat="43.778441967" lon="11.211278038"><ele>43</ele><time>2020-01-06T08:32:43Z</time></trkpt>
<trkpt lat="43.77844004" lon="11.211321037"><ele>43</ele><time>2020-01-06T08:32:44Z</time></trkpt>
<trkpt lat="43.778437022" lon="11.211362025"><ele>43</ele><time>2020-01-06T08:32:45Z</time></trkpt>
<trkpt lat="43.778432999" lon="11.211401001"><ele>43</ele><time>2020-01-06T08:32:46Z</time></trkpt>
<trkpt lat="43.77842797" lon="11.211439976"><ele>43</ele><time>2020-01-06T08:32:47Z</time></trkpt>
<trkpt lat="43.778422019" lon="11.21147803"><ele>43</ele><time>2020-01-06T08:32:48Z</time></trkpt>
<trkpt lat="43.778414978" lon="11.211516"><ele>43</ele><time>2020-01-06T08:32:49Z</time></trkpt>
<trkpt lat="43.778405003" lon="11.21155397"><ele>43</ele><time>2020-01-06T08:32:50Z</time></trkpt>
<trkpt lat="43.778395029" lon="11.21159303"><ele>43</ele><time>2020-01-06T08:32:51Z</time></trkpt>
<trkpt lat="43.778383965" lon="11.211633012"><ele>43</ele><time>2020-01-06T08:32:52Z</time></trkpt>
<trkpt lat="43.778371979" lon="11.211672993"><ele>43</ele><time>2020-01-06T08:32:53Z</time></trkpt>
<trkpt lat="43.778362004" lon="11.211714987"><ele>43</ele><time>2020-01-06T08:32:54Z</time></trkpt>
<trkpt lat="43.778353035" lon="11.21175698"><ele>43</ele><time>2020-01-06T08:32:55Z</time></trkpt>
<trkpt lat="43.778345995" lon="11.211799979"><ele>43</ele><time>2020-01-06T08:32:56Z</time></trkpt>
<trkpt lat="43.778341971" lon="11.21184499"><ele>43</ele><time>2020-01-06T08:32:57Z</time></trkpt>
<trkpt lat="43.77833996" lon="11.211891007"><ele>43</ele><time>2020-01-06T08:32:58Z</time></trkpt>
<trkpt lat="43.778339038" lon="11.211938029"><ele>43</ele><time>2020-01-06T08:32:59Z</time></trkpt>
<trkpt lat="43.778339038" lon="11.211983962"><ele>43</ele><time>2020-01-06T08:33:00Z</time></trkpt>
<trkpt lat="43.778338032" lon="11.212030984"><ele>43</ele><time>2020-01-06T08:33:01Z</time></trkpt>
<trkpt lat="43.778335014" lon="11.212078007"><ele>43</ele><time>2020-01-06T08:33:02Z</time></trkpt>
<trkpt lat="43.778330991" lon="11.212125029"><ele>43</ele><time>2020-01-06T08:33:03Z</time></trkpt>
<trkpt lat="43.778324034" lon="11.21217004"><ele>43</ele><time>2020-01-06T08:33:04Z</time></trkpt>
<trkpt lat="43.778313976" lon="11.212214967"><ele>43</ele><time>2020-01-06T08:33:05Z</time></trkpt>
<trkpt lat="43.77830199" lon="11.212258972"><ele>43</ele><time>2020-01-06T08:33:06Z</time></trkpt>
<trkpt lat="43.778288998" lon="11.212302977"><ele>43</ele><time>2020-01-06T08:33:07Z</time></trkpt>
<trkpt lat="43.778272988" lon="11.212345976"><ele>43</ele><time>2020-01-06T08:33:08Z</time></trkpt>
<trkpt lat="43.778256979" lon="11.21238797"><ele>43</ele><time>2020-01-06T08:33:09Z</time></trkpt>
<trkpt lat="43.778239042" lon="11.212429963"><ele>43</ele><time>2020-01-06T08:33:10Z</time></trkpt>
<trkpt lat="43.77822102" lon="11.21247204"><ele>43</ele><time>2020-01-06T08:33:11Z</time></trkpt>
<trkpt lat="43.778202999" lon="11.212513028"><ele>43</ele><time>2020-01-06T08:33:12Z</time></trkpt>
<trkpt lat="43.778183972" lon="11.212554015"><ele>43</ele><time>2020-01-06T08:33:13Z</time></trkpt>
<trkpt lat="43.778166035" lon="11.212595003"><ele>43</ele><time>2020-01-06T08:33:14Z</time></trkpt>
<trkpt lat="43.778148014" lon="11.21263599"><ele>43</ele><time>2020-01-06T08:33:15Z</time></trkpt>
<trkpt lat="43.778130999" lon="11.212675972"><ele>44</ele><time>2020-01-06T08:33:16Z</time></trkpt>
<trkpt lat="43.778114989" lon="11.212716959"><ele>44</ele><time>2020-01-06T08:33:17Z</time></trkpt>
<trkpt lat="43.77809898" lon="11.212758031"><ele>44</ele><time>2020-01-06T08:33:18Z</time></trkpt>
<trkpt lat="43.778084982" lon="11.212799018"><ele>44</ele><time>2020-01-06T08:33:19Z</time></trkpt>
<trkpt lat="43.77807199" lon="11.212840006"><ele>44</ele><time>2020-01-06T08:33:20Z</time></trkpt>
<trkpt lat="43.778060004" lon="11.212880993"><ele>44</ele><time>2020-01-06T08:33:21Z</time></trkpt>
<trkpt lat="43.778048018" lon="11.212922987"><ele>44</ele><time>2020-01-06T08:33:22Z</time></trkpt>
<trkpt lat="43.778036032" lon="11.212963974"><ele>44</ele><time>2020-01-06T08:33:23Z</time></trkpt>
<trkpt lat="43.778023962" lon="11.213005967"><ele>44</ele><time>2020-01-06T08:33:24Z</time></trkpt>
<trkpt lat="43.778011976" lon="11.213047039"><ele>44</ele><time>2020-01-06T08:33:25Z</time></trkpt>
<trkpt lat="43.777998984" lon="11.213089032"><ele>44</ele><time>2020-01-06T08:33:26Z</time></trkpt>
<trkpt lat="43.777985992" lon="11.21313002"><ele>44</ele><time>2020-01-06T08:33:27Z</time></trkpt>
<trkpt lat="43.777971994" lon="11.213172013"><ele>44</ele><time>2020-01-06T08:33:28Z</time></trkpt>
<trkpt lat="43.777957996" lon="11.213213"><ele>44</ele><time>2020-01-06T08:33:29Z</time></trkpt>
<trkpt lat="43.777942993" lon="11.213254994"><ele>44</ele><time>2020-01-06T08:33:30Z</time></trkpt>
<trkpt lat="43.777928995" lon="11.213295981"><ele>44</ele><time>2020-01-06T08:33:31Z</time></trkpt>
<trkpt lat="43.777913991" lon="11.213337975"><ele>44</ele><time>2020-01-06T08:33:32Z</time></trkpt>
<trkpt lat="43.777899994" lon="11.213379968"><ele>43</ele><time>2020-01-06T08:33:33Z</time></trkpt>
<trkpt lat="43.777885996" lon="11.213422967"><ele>43</ele><time>2020-01-06T08:33:34Z</time></trkpt>
<trkpt lat="43.777873004" lon="11.21346496"><ele>43</ele><time>2020-01-06T08:33:35Z</time></trkpt>
<trkpt lat="43.777860012" lon="11.21350796"><ele>43</ele><time>2020-01-06T08:33:36Z</time></trkpt>
<trkpt lat="43.77784702" lon="11.213550037"><ele>43</ele><time>2020-01-06T08:33:37Z</time></trkpt>
<trkpt lat="43.777833022" lon="11.21359203"><ele>43</ele><time>2020-01-06T08:33:38Z</time></trkpt>
<trkpt lat="43.777819024" lon="11.213633018"><ele>43</ele><time>2020-01-06T08:33:39Z</time></trkpt>
<trkpt lat="43.777805027" lon="11.213674005"><ele>43</ele><time>2020-01-06T08:33:40Z</time></trkpt>
<trkpt lat="43.777789017" lon="11.213712981"><ele>43</ele><time>2020-01-06T08:33:41Z</time></trkpt>
<trkpt lat="43.777773008" lon="11.213751035"><ele>43</ele><time>2020-01-06T08:33:42Z</time></trkpt>
<trkpt lat="43.777754987" lon="11.213787999"><ele>43</ele><time>2020-01-06T08:33:43Z</time></trkpt>
<trkpt lat="43.77773596" lon="11.213824963"><ele>43</ele><time>2020-01-06T08:33:44Z</time></trkpt>
<trkpt lat="43.777717017" lon="11.213861005"><ele>43</ele><time>2020-01-06T08:33:45Z</time></trkpt>
<trkpt lat="43.777696984" lon="11.21389797"><ele>43</ele><time>2020-01-06T08:33:46Z</time></trkpt>
<trkpt lat="43.777676029" lon="11.213934012"><ele>43</ele><time>2020-01-06T08:33:47Z</time></trkpt>
<trkpt lat="43.777653985" lon="11.213970976"><ele>43</ele><time>2020-01-06T08:33:48Z</time></trkpt>
<trkpt lat="43.777632024" lon="11.21400903"><ele>43</ele><time>2020-01-06T08:33:49Z</time></trkpt>
<trkpt lat="43.77760998" lon="11.214048006"><ele>42</ele><time>2020-01-06T08:33:50Z</time></trkpt>
<trkpt lat="43.777588019" lon="11.214086981"><ele>42</ele><time>2020-01-06T08:33:51Z</time></trkpt>
<trkpt lat="43.777567986" lon="11.214126041"><ele>42</ele><time>2020-01-06T08:33:52Z</time></trkpt>
<trkpt lat="43.777548959" lon="11.214165017"><ele>42</ele><time>2020-01-06T08:33:53Z</time></trkpt>
<trkpt lat="43.777531022" lon="11.214203993"><ele>42</ele><time>2020-01-06T08:33:54Z</time></trkpt>
<trkpt lat="43.777517024" lon="11.214241963"><ele>42</ele><time>2020-01-06T08:33:55Z</time></trkpt>
<trkpt lat="43.777505038" lon="11.214280017"><ele>42</ele><time>2020-01-06T08:33:56Z</time></trkpt>
<trkpt lat="43.77749498" lon="11.214317987"><ele>42</ele><time>2020-01-06T08:33:57Z</time></trkpt>
<trkpt lat="43.777486011" lon="11.214355035"><ele>42</ele><time>2020-01-06T08:33:58Z</time></trkpt>
<trkpt lat="43.777476959" lon="11.214391999"><ele>42</ele><time>2020-01-06T08:33:59Z</time></trkpt>
<trkpt lat="43.777466984" lon="11.214428041"><ele>42</ele><time>2020-01-06T08:34:00Z</time></trkpt>
<trkpt lat="43.777454998" lon="11.214465005"><ele>42</ele><time>2020-01-06T08:34:01Z</time></trkpt>
<trkpt lat="43.777438989" lon="11.21450197"><ele>42</ele><time>2020-01-06T08:34:02Z</time></trkpt>
<trkpt lat="43.777419962" lon="11.214540023"><ele>42</ele><time>2020-01-06T08:34:03Z</time></trkpt>
<trkpt lat="43.777396996" lon="11.214576988"><ele>42</ele><time>2020-01-06T08:34:04Z</time></trkpt>
<trkpt lat="43.777372018" lon="11.21461303"><ele>43</ele><time>2020-01-06T08:34:05Z</time></trkpt>
<trkpt lat="43.777346034" lon="11.214648988"><ele>43</ele><time>2020-01-06T08:34:06Z</time></trkpt>
<trkpt lat="43.777265986" lon="11.214750996"><ele>43</ele><time>2020-01-06T08:34:09Z</time></trkpt>
<trkpt lat="43.777240003" lon="11.214785026"><ele>43</ele><time>2020-01-06T08:34:10Z</time></trkpt>
<trkpt lat="43.777215024" lon="11.214819979"><ele>43</ele><time>2020-01-06T08:34:11Z</time></trkpt>
<trkpt lat="43.777190968" lon="11.214856021"><ele>43</ele><time>2020-01-06T08:34:12Z</time></trkpt>
<trkpt lat="43.777168002" lon="11.214891979"><ele>43</ele><time>2020-01-06T08:34:13Z</time></trkpt>
<trkpt lat="43.777146041" lon="11.214930033"><ele>43</ele><time>2020-01-06T08:34:14Z</time></trkpt>
<trkpt lat="43.777085021" lon="11.215047967"><ele>43</ele><time>2020-01-06T08:34:17Z</time></trkpt>
<trkpt lat="43.777065994" lon="11.21508996"><ele>43</ele><time>2020-01-06T08:34:18Z</time></trkpt>
<trkpt lat="43.777047973" lon="11.215132037"><ele>43</ele><time>2020-01-06T08:34:19Z</time></trkpt>
<trkpt lat="43.777030036" lon="11.215175036"><ele>43</ele><time>2020-01-06T08:34:20Z</time></trkpt>
<trkpt lat="43.777013021" lon="11.21521703"><ele>43</ele><time>2020-01-06T08:34:21Z</time></trkpt>
<trkpt lat="43.776994999" lon="11.215260029"><ele>43</ele><time>2020-01-06T08:34:22Z</time></trkpt>
<trkpt lat="43.776977984" lon="11.215301016"><ele>43</ele><time>2020-01-06T08:34:23Z</time></trkpt>
<trkpt lat="43.776959963" lon="11.215342004"><ele>43</ele><time>2020-01-06T08:34:24Z</time></trkpt>
<trkpt lat="43.776942026" lon="11.21538098"><ele>43</ele><time>2020-01-06T08:34:25Z</time></trkpt>
<trkpt lat="43.776924005" lon="11.215419034"><ele>43</ele><time>2020-01-06T08:34:26Z</time></trkpt>
<trkpt lat="43.776904978" lon="11.215454992"><ele>43</ele><time>2020-01-06T08:34:27Z</time></trkpt>
<trkpt lat="43.776885029" lon="11.215490028"><ele>43</ele><time>2020-01-06T08:34:28Z</time></trkpt>
<trkpt lat="43.776864996" lon="11.215524981"><ele>43</ele><time>2020-01-06T08:34:29Z</time></trkpt>
<trkpt lat="43.776845969" lon="11.215560017"><ele>43</ele><time>2020-01-06T08:34:30Z</time></trkpt>
<trkpt lat="43.77682602" lon="11.215595976"><ele>43</ele><time>2020-01-06T08:34:31Z</time></trkpt>
<trkpt lat="43.776805988" lon="11.215632018"><ele>43</ele><time>2020-01-06T08:34:32Z</time></trkpt>
<trkpt lat="43.776786039" lon="11.215668982"><ele>43</ele><time>2020-01-06T08:34:33Z</time></trkpt>
<trkpt lat="43.776767012" lon="11.215707036"><ele>43</ele><time>2020-01-06T08:34:34Z</time></trkpt>
<trkpt lat="43.776746979" lon="11.215746012"><ele>43</ele><time>2020-01-06T08:34:35Z</time></trkpt>
<trkpt lat="43.776728036" lon="11.215785993"><ele>43</ele><time>2020-01-06T08:34:36Z</time></trkpt>
<trkpt lat="43.776709009" lon="11.215825975"><ele>43</ele><time>2020-01-06T08:34:37Z</time></trkpt>
<trkpt lat="43.776689982" lon="11.21586604"><ele>43</ele><time>2020-01-06T08:34:38Z</time></trkpt>
<trkpt lat="43.776670033" lon="11.215907028"><ele>43</ele><time>2020-01-06T08:34:39Z</time></trkpt>
<trkpt lat="43.776651006" lon="11.21594701"><ele>43</ele><time>2020-01-06T08:34:40Z</time></trkpt>
<trkpt lat="43.776630973" lon="11.215987997"><ele>43</ele><time>2020-01-06T08:34:41Z</time></trkpt>
<trkpt lat="43.77661203" lon="11.216027979"><ele>43</ele><time>2020-01-06T08:34:42Z</time></trkpt>
<trkpt lat="43.776591998" lon="11.216067038"><ele>43</ele><time>2020-01-06T08:34:43Z</time></trkpt>
<trkpt lat="43.776571965" lon="11.216106014"><ele>43</ele><time>2020-01-06T08:34:44Z</time></trkpt>
<trkpt lat="43.776552016" lon="11.216142979"><ele>43</ele><time>2020-01-06T08:34:45Z</time></trkpt>
<trkpt lat="43.776531983" lon="11.216180027"><ele>43</ele><time>2020-01-06T08:34:46Z</time></trkpt>
<trkpt lat="43.776512034" lon="11.216214979"><ele>43</ele><time>2020-01-06T08:34:47Z</time></trkpt>
<trkpt lat="43.776490996" lon="11.21624901"><ele>43</ele><time>2020-01-06T08:34:48Z</time></trkpt>
<trkpt lat="43.776470041" lon="11.216282034"><ele>43</ele><time>2020-01-06T08:34:49Z</time></trkpt>
<trkpt lat="43.776449002" lon="11.216313969"><ele>43</ele><time>2020-01-06T08:34:50Z</time></trkpt>
<trkpt lat="43.776427964" lon="11.216345988"><ele>43</ele><time>2020-01-06T08:34:51Z</time></trkpt>
<trkpt lat="43.776407009" lon="11.216377001"><ele>43</ele><time>2020-01-06T08:34:52Z</time></trkpt>
<trkpt lat="43.776386976" lon="11.216410026"><ele>43</ele><time>2020-01-06T08:34:53Z</time></trkpt>
<trkpt lat="43.776367027" lon="11.216441961"><ele>43</ele><time>2020-01-06T08:34:54Z</time></trkpt>
<trkpt lat="43.776346995" lon="11.216475992"><ele>43</ele><time>2020-01-06T08:34:55Z</time></trkpt>
<trkpt lat="43.776327968" lon="11.216511028"><ele>43</ele><time>2020-01-06T08:34:56Z</time></trkpt>
<trkpt lat="43.776309025" lon="11.216547992"><ele>43</ele><time>2020-01-06T08:34:57Z</time></trkpt>
<trkpt lat="43.776291003" lon="11.21658504"><ele>43</ele><time>2020-01-06T08:34:58Z</time></trkpt>
<trkpt lat="43.776273988" lon="11.21662301"><ele>43</ele><time>2020-01-06T08:34:59Z</time></trkpt>
<trkpt lat="43.776256973" lon="11.216662992"><ele>44</ele><time>2020-01-06T08:35:00Z</time></trkpt>
<trkpt lat="43.776240963" lon="11.216703979"><ele>44</ele><time>2020-01-06T08:35:01Z</time></trkpt>
<trkpt lat="43.77622596" lon="11.216745973"><ele>43</ele><time>2020-01-06T08:35:02Z</time></trkpt>
<trkpt lat="43.77621104" lon="11.216788972"><ele>43</ele><time>2020-01-06T08:35:03Z</time></trkpt>
<trkpt lat="43.776195031" lon="11.216830965"><ele>43</ele><time>2020-01-06T08:35:04Z</time></trkpt>
<trkpt lat="43.776178015" lon="11.216871031"><ele>43</ele><time>2020-01-06T08:35:05Z</time></trkpt>
<trkpt lat="43.776159994" lon="11.216910006"><ele>43</ele><time>2020-01-06T08:35:06Z</time></trkpt>
<trkpt lat="43.776140967" lon="11.216946971"><ele>43</ele><time>2020-01-06T08:35:07Z</time></trkpt>
<trkpt lat="43.776084976" lon="11.217059037"><ele>43</ele><time>2020-01-06T08:35:10Z</time></trkpt>
<trkpt lat="43.776067039" lon="11.217098013"><ele>43</ele><time>2020-01-06T08:35:11Z</time></trkpt>
<trkpt lat="43.776050024" lon="11.217136988"><ele>43</ele><time>2020-01-06T08:35:12Z</time></trkpt>
<trkpt lat="43.776032003" lon="11.217175964"><ele>43</ele><time>2020-01-06T08:35:13Z</time></trkpt>
<trkpt lat="43.776014987" lon="11.217215024"><ele>43</ele><time>2020-01-06T08:35:14Z</time></trkpt>
<trkpt lat="43.775997972" lon="11.217254"><ele>43</ele><time>2020-01-06T08:35:15Z</time></trkpt>
<trkpt lat="43.775980035" lon="11.21729197"><ele>43</ele><time>2020-01-06T08:35:16Z</time></trkpt>
<trkpt lat="43.775961008" lon="11.217329018"><ele>43</ele><time>2020-01-06T08:35:17Z</time></trkpt>
<trkpt lat="43.775941981" lon="11.21736397"><ele>43</ele><time>2020-01-06T08:35:18Z</time></trkpt>
<trkpt lat="43.775923038" lon="11.217399007"><ele>43</ele><time>2020-01-06T08:35:19Z</time></trkpt>
<trkpt lat="43.775903005" lon="11.217434965"><ele>43</ele><time>2020-01-06T08:35:20Z</time></trkpt>
<trkpt lat="43.775882972" lon="11.217470001"><ele>43</ele><time>2020-01-06T08:35:21Z</time></trkpt>
<trkpt lat="43.775864029" lon="11.21750596"><ele>43</ele><time>2020-01-06T08:35:22Z</time></trkpt>
<trkpt lat="43.775845002" lon="11.217543008"><ele>43</ele><time>2020-01-06T08:35:23Z</time></trkpt>
<trkpt lat="43.775825975" lon="11.217580978"><ele>43</ele><time>2020-01-06T08:35:24Z</time></trkpt>
<trkpt lat="43.775808038" lon="11.217620037"><ele>43</ele><time>2020-01-06T08:35:25Z</time></trkpt>
<trkpt lat="43.775791023" lon="11.217662031"><ele>43</ele><time>2020-01-06T08:35:26Z</time></trkpt>
<trkpt lat="43.775774008" lon="11.217704024"><ele>43</ele><time>2020-01-06T08:35:27Z</time></trkpt>
<trkpt lat="43.775756992" lon="11.217747023"><ele>43</ele><time>2020-01-06T08:35:28Z</time></trkpt>
<trkpt lat="43.775740983" lon="11.217790022"><ele>43</ele><time>2020-01-06T08:35:29Z</time></trkpt>
<trkpt lat="43.775724974" lon="11.217833022"><ele>43</ele><time>2020-01-06T08:35:30Z</time></trkpt>
<trkpt lat="43.775707958" lon="11.217876021"><ele>43</ele><time>2020-01-06T08:35:31Z</time></trkpt>
<trkpt lat="43.775692033" lon="11.21791902"><ele>43</ele><time>2020-01-06T08:35:32Z</time></trkpt>
<trkpt lat="43.775675017" lon="11.217961013"><ele>43</ele><time>2020-01-06T08:35:33Z</time></trkpt>
<trkpt lat="43.775659008" lon="11.218003007"><ele>43</ele><time>2020-01-06T08:35:34Z</time></trkpt>
<trkpt lat="43.775641993" lon="11.218043994"><ele>43</ele><time>2020-01-06T08:35:35Z</time></trkpt>
<trkpt lat="43.775625983" lon="11.218084982"><ele>43</ele><time>2020-01-06T08:35:36Z</time></trkpt>
<trkpt lat="43.775609974" lon="11.218124963"><ele>43</ele><time>2020-01-06T08:35:37Z</time></trkpt>
<trkpt lat="43.775593964" lon="11.218166035"><ele>44</ele><time>2020-01-06T08:35:38Z</time></trkpt>
<trkpt lat="43.775578961" lon="11.218206016"><ele>44</ele><time>2020-01-06T08:35:39Z</time></trkpt>
<trkpt lat="43.775564041" lon="11.218245998"><ele>44</ele><time>2020-01-06T08:35:40Z</time></trkpt>
<trkpt lat="43.775549037" lon="11.21828598"><ele>44</ele><time>2020-01-06T08:35:41Z</time></trkpt>
<trkpt lat="43.77553504" lon="11.218325961"><ele>44</ele><time>2020-01-06T08:35:42Z</time></trkpt>
<trkpt lat="43.775521964" lon="11.218366027"><ele>44</ele><time>2020-01-06T08:35:43Z</time></trkpt>
<trkpt lat="43.775508972" lon="11.218407014"><ele>44</ele><time>2020-01-06T08:35:44Z</time></trkpt>
<trkpt lat="43.77549598" lon="11.218449008"><ele>44</ele><time>2020-01-06T08:35:45Z</time></trkpt>
<trkpt lat="43.775482988" lon="11.218492007"><ele>44</ele><time>2020-01-06T08:35:46Z</time></trkpt>
<trkpt lat="43.775471002" lon="11.218536012"><ele>44</ele><time>2020-01-06T08:35:47Z</time></trkpt>
<trkpt lat="43.775459016" lon="11.218580017"><ele>44</ele><time>2020-01-06T08:35:48Z</time></trkpt>
<trkpt lat="43.775446024" lon="11.218625028"><ele>44</ele><time>2020-01-06T08:35:49Z</time></trkpt>
<trkpt lat="43.775434038" lon="11.218669033"><ele>44</ele><time>2020-01-06T08:35:50Z</time></trkpt>
<trkpt lat="43.775420962" lon="11.21871396"><ele>44</ele><time>2020-01-06T08:35:51Z</time></trkpt>
<trkpt lat="43.77540797" lon="11.218756959"><ele>44</ele><time>2020-01-06T08:35:52Z</time></trkpt>
<trkpt lat="43.775394978" lon="11.218799036"><ele>44</ele><time>2020-01-06T08:35:53Z</time></trkpt>
<trkpt lat="43.775351979" lon="11.218917975"><ele>43</ele><time>2020-01-06T08:35:56Z</time></trkpt>
<trkpt lat="43.775336975" lon="11.218957035"><ele>43</ele><time>2020-01-06T08:35:57Z</time></trkpt>
<trkpt lat="43.775323983" lon="11.218996011"><ele>43</ele><time>2020-01-06T08:35:58Z</time></trkpt>
<trkpt lat="43.775310991" lon="11.219034987"><ele>43</ele><time>2020-01-06T08:35:59Z</time></trkpt>
<trkpt lat="43.775300011" lon="11.219075974"><ele>43</ele><time>2020-01-06T08:36:00Z</time></trkpt>
<trkpt lat="43.775290037" lon="11.219118973"><ele>43</ele><time>2020-01-06T08:36:01Z</time></trkpt>
<trkpt lat="43.775280984" lon="11.219162978"><ele>43</ele><time>2020-01-06T08:36:02Z</time></trkpt>
<trkpt lat="43.775273021" lon="11.219207989"><ele>43</ele><time>2020-01-06T08:36:03Z</time></trkpt>
<trkpt lat="43.775266986" lon="11.219254006"><ele>43</ele><time>2020-01-06T08:36:04Z</time></trkpt>
<trkpt lat="43.775261035" lon="11.219300022"><ele>43</ele><time>2020-01-06T08:36:05Z</time></trkpt>
<trkpt lat="43.775256006" lon="11.219346039"><ele>43</ele><time>2020-01-06T08:36:06Z</time></trkpt>
<trkpt lat="43.775251983" lon="11.219390966"><ele>43</ele><time>2020-01-06T08:36:07Z</time></trkpt>
<trkpt lat="43.775247959" lon="11.219435977"><ele>43</ele><time>2020-01-06T08:36:08Z</time></trkpt>
<trkpt lat="43.77524402" lon="11.219478976"><ele>43</ele><time>2020-01-06T08:36:09Z</time></trkpt>
<trkpt lat="43.775239997" lon="11.219521975"><ele>43</ele><time>2020-01-06T08:36:10Z</time></trkpt>
<trkpt lat="43.775235973" lon="11.219563968"><ele>43</ele><time>2020-01-06T08:36:11Z</time></trkpt>
<trkpt lat="43.775231028" lon="11.219605962"><ele>43</ele><time>2020-01-06T08:36:12Z</time></trkpt>
<trkpt lat="43.775227005" lon="11.219648039"><ele>43</ele><time>2020-01-06T08:36:13Z</time></trkpt>
<trkpt lat="43.775222981" lon="11.219690032"><ele>43</ele><time>2020-01-06T08:36:14Z</time></trkpt>
<trkpt lat="43.775218036" lon="11.219734037"><ele>43</ele><time>2020-01-06T08:36:15Z</time></trkpt>
<trkpt lat="43.775213007" lon="11.219777958"><ele>43</ele><time>2020-01-06T08:36:16Z</time></trkpt>
<trkpt lat="43.775207978" lon="11.219822969"><ele>43</ele><time>2020-01-06T08:36:17Z</time></trkpt>
<trkpt lat="43.775203032" lon="11.219868986"><ele>43</ele><time>2020-01-06T08:36:18Z</time></trkpt>
<trkpt lat="43.775199009" lon="11.219913997"><ele>43</ele><time>2020-01-06T08:36:19Z</time></trkpt>
<trkpt lat="43.775194986" lon="11.219959008"><ele>43</ele><time>2020-01-06T08:36:20Z</time></trkpt>
<trkpt lat="43.775191968" lon="11.220003013"><ele>43</ele><time>2020-01-06T08:36:21Z</time></trkpt>
<trkpt lat="43.77519004" lon="11.220046012"><ele>43</ele><time>2020-01-06T08:36:22Z</time></trkpt>
<trkpt lat="43.775189035" lon="11.220088005"><ele>43</ele><time>2020-01-06T08:36:23Z</time></trkpt>
<trkpt lat="43.775189035" lon="11.220129998"><ele>43</ele><time>2020-01-06T08:36:24Z</time></trkpt>
<trkpt lat="43.775189035" lon="11.22016998"><ele>43</ele><time>2020-01-06T08:36:25Z</time></trkpt>
<trkpt lat="43.775189035" lon="11.220210968"><ele>43</ele><time>2020-01-06T08:36:26Z</time></trkpt>
<trkpt lat="43.775190962" lon="11.220252039"><ele>43</ele><time>2020-01-06T08:36:27Z</time></trkpt>
<trkpt lat="43.775191968" lon="11.220294032"><ele>43</ele><time>2020-01-06T08:36:28Z</time></trkpt>
<trkpt lat="43.77519398" lon="11.220337031"><ele>43</ele><time>2020-01-06T08:36:29Z</time></trkpt>
<trkpt lat="43.775196997" lon="11.220381036"><ele>43</ele><time>2020-01-06T08:36:30Z</time></trkpt>
<trkpt lat="43.775199009" lon="11.220427975"><ele>43</ele><time>2020-01-06T08:36:31Z</time></trkpt>
<trkpt lat="43.775207978" lon="11.220575999"><ele>43</ele><time>2020-01-06T08:36:34Z</time></trkpt>
<trkpt lat="43.775212001" lon="11.220626039"><ele>44</ele><time>2020-01-06T08:36:35Z</time></trkpt>
<trkpt lat="43.77521703" lon="11.220677001"><ele>44</ele><time>2020-01-06T08:36:36Z</time></trkpt>
<trkpt lat="43.775221976" lon="11.220727963"><ele>44</ele><time>2020-01-06T08:36:37Z</time></trkpt>
<trkpt lat="43.775227005" lon="11.220778003"><ele>44</ele><time>2020-01-06T08:36:38Z</time></trkpt>
<trkpt lat="43.775233962" lon="11.220827959"><ele>44</ele><time>2020-01-06T08:36:39Z</time></trkpt>
<trkpt lat="43.775241002" lon="11.220875988"><ele>44</ele><time>2020-01-06T08:36:40Z</time></trkpt>
<trkpt lat="43.775248965" lon="11.22092301"><ele>44</ele><time>2020-01-06T08:36:41Z</time></trkpt>
<trkpt lat="43.775257012" lon="11.220969027"><ele>44</ele><time>2020-01-06T08:36:42Z</time></trkpt>
<trkpt lat="43.775265981" lon="11.221014038"><ele>44</ele><time>2020-01-06T08:36:43Z</time></trkpt>
<trkpt lat="43.775276039" lon="11.221057959"><ele>44</ele><time>2020-01-06T08:36:44Z</time></trkpt>
<trkpt lat="43.775287019" lon="11.221101042"><ele>44</ele><time>2020-01-06T08:36:45Z</time></trkpt>
<trkpt lat="43.775299005" lon="11.221142029"><ele>44</ele><time>2020-01-06T08:36:46Z</time></trkpt>
<trkpt lat="43.775309986" lon="11.221182011"><ele>44</ele><time>2020-01-06T08:36:47Z</time></trkpt>
<trkpt lat="43.775321972" lon="11.221220987"><ele>44</ele><time>2020-01-06T08:36:48Z</time></trkpt>
<trkpt lat="43.775334042" lon="11.221259963"><ele>45</ele><time>2020-01-06T08:36:49Z</time></trkpt>
<trkpt lat="43.775346028" lon="11.221298017"><ele>45</ele><time>2020-01-06T08:36:50Z</time></trkpt>
<trkpt lat="43.775356002" lon="11.221334981"><ele>45</ele><time>2020-01-06T08:36:51Z</time></trkpt>
<trkpt lat="43.77538098" lon="11.221447969"><ele>45</ele><time>2020-01-06T08:36:54Z</time></trkpt>
<trkpt lat="43.775388021" lon="11.221485017"><ele>45</ele><time>2020-01-06T08:36:55Z</time></trkpt>
<trkpt lat="43.775394978" lon="11.221521981"><ele>45</ele><time>2020-01-06T08:36:56Z</time></trkpt>
<trkpt lat="43.77540403" lon="11.221559029"><ele>45</ele><time>2020-01-06T08:36:57Z</time></trkpt>
<trkpt lat="43.775414005" lon="11.221595993"><ele>45</ele><time>2020-01-06T08:36:58Z</time></trkpt>
<trkpt lat="43.775426997" lon="11.221632035"><ele>45</ele><time>2020-01-06T08:36:59Z</time></trkpt>
<trkpt lat="43.775443006" lon="11.221669"><ele>45</ele><time>2020-01-06T08:37:00Z</time></trkpt>
<trkpt lat="43.775461027" lon="11.221704036"><ele>45</ele><time>2020-01-06T08:37:01Z</time></trkpt>
<trkpt lat="43.775481982" lon="11.221737983"><ele>45</ele><time>2020-01-06T08:37:02Z</time></trkpt>
<trkpt lat="43.775504027" lon="11.221770002"><ele>45</ele><time>2020-01-06T08:37:03Z</time></trkpt>
<trkpt lat="43.775525987" lon="11.221801015"><ele>46</ele><time>2020-01-06T08:37:04Z</time></trkpt>
<trkpt lat="43.775549037" lon="11.221831022"><ele>46</ele><time>2020-01-06T08:37:05Z</time></trkpt>
<trkpt lat="43.775568986" lon="11.221862035"><ele>46</ele><time>2020-01-06T08:37:06Z</time></trkpt>
<trkpt lat="43.775586002" lon="11.221895982"><ele>46</ele><time>2020-01-06T08:37:07Z</time></trkpt>
<trkpt lat="43.775596982" lon="11.221934035"><ele>46</ele><time>2020-01-06T08:37:08Z</time></trkpt>
<trkpt lat="43.775604023" lon="11.221976029"><ele>46</ele><time>2020-01-06T08:37:09Z</time></trkpt>
<trkpt lat="43.775607962" lon="11.22202104"><ele>46</ele><time>2020-01-06T08:37:10Z</time></trkpt>
<trkpt lat="43.775607962" lon="11.222067978"><ele>46</ele><time>2020-01-06T08:37:11Z</time></trkpt>
<trkpt lat="43.775606034" lon="11.222117012"><ele>46</ele><time>2020-01-06T08:37:12Z</time></trkpt>
<trkpt lat="43.775603017" lon="11.222166969"><ele>46</ele><time>2020-01-06T08:37:13Z</time></trkpt>
<trkpt lat="43.775598994" lon="11.222217008"><ele>46</ele><time>2020-01-06T08:37:14Z</time></trkpt>
<trkpt lat="43.775593964" lon="11.222266965"><ele>47</ele><time>2020-01-06T08:37:15Z</time></trkpt>
<trkpt lat="43.775590025" lon="11.222317005"><ele>47</ele><time>2020-01-06T08:37:16Z</time></trkpt>
<trkpt lat="43.775584996" lon="11.222365033"><ele>47</ele><time>2020-01-06T08:37:17Z</time></trkpt>
<trkpt lat="43.775580972" lon="11.222413983"><ele>47</ele><time>2020-01-06T08:37:18Z</time></trkpt>
<trkpt lat="43.775576027" lon="11.222461006"><ele>47</ele><time>2020-01-06T08:37:19Z</time></trkpt>
<trkpt lat="43.775570998" lon="11.222508028"><ele>47</ele><time>2020-01-06T08:37:20Z</time></trkpt>
<trkpt lat="43.775565969" lon="11.222553039"><ele>47</ele><time>2020-01-06T08:37:21Z</time></trkpt>
<trkpt lat="43.775560018" lon="11.222597966"><ele>47</ele><time>2020-01-06T08:37:22Z</time></trkpt>
<trkpt lat="43.775554989" lon="11.222641971"><ele>47</ele><time>2020-01-06T08:37:23Z</time></trkpt>
<trkpt lat="43.775549037" lon="11.22268497"><ele>46</ele><time>2020-01-06T08:37:24Z</time></trkpt>
<trkpt lat="43.775543002" lon="11.222726963"><ele>46</ele><time>2020-01-06T08:37:25Z</time></trkpt>
<trkpt lat="43.775536967" lon="11.222769041"><ele>46</ele><time>2020-01-06T08:37:26Z</time></trkpt>
<trkpt lat="43.77553001" lon="11.222811034"><ele>46</ele><time>2020-01-06T08:37:27Z</time></trkpt>
<trkpt lat="43.77552297" lon="11.222852021"><ele>46</ele><time>2020-01-06T08:37:28Z</time></trkpt>
<trkpt lat="43.775516013" lon="11.222894015"><ele>46</ele><time>2020-01-06T08:37:29Z</time></trkpt>
<trkpt lat="43.775492962" lon="11.223022006"><ele>46</ele><time>2020-01-06T08:37:32Z</time></trkpt>
<trkpt lat="43.775485" lon="11.223065006"><ele>46</ele><time>2020-01-06T08:37:33Z</time></trkpt>
<trkpt lat="43.775476031" lon="11.223108005"><ele>46</ele><time>2020-01-06T08:37:34Z</time></trkpt>
<trkpt lat="43.775466979" lon="11.223151004"><ele>46</ele><time>2020-01-06T08:37:35Z</time></trkpt>
<trkpt lat="43.77545801" lon="11.223195009"><ele>45</ele><time>2020-01-06T08:37:36Z</time></trkpt>
<trkpt lat="43.775448035" lon="11.223238008"><ele>45</ele><time>2020-01-06T08:37:37Z</time></trkpt>
<trkpt lat="43.775437977" lon="11.223281007"><ele>45</ele><time>2020-01-06T08:37:38Z</time></trkpt>
<trkpt lat="43.775426997" lon="11.223325012"><ele>45</ele><time>2020-01-06T08:37:39Z</time></trkpt>
<trkpt lat="43.775417022" lon="11.223368011"><ele>45</ele><time>2020-01-06T08:37:40Z</time></trkpt>
<trkpt lat="43.775405958" lon="11.223412016"><ele>45</ele><time>2020-01-06T08:37:41Z</time></trkpt>
<trkpt lat="43.775394978" lon="11.223455016"><ele>45</ele><time>2020-01-06T08:37:42Z</time></trkpt>
<trkpt lat="43.775385004" lon="11.223499021"><ele>45</ele><time>2020-01-06T08:37:43Z</time></trkpt>
<trkpt lat="43.775376035" lon="11.223544031"><ele>45</ele><time>2020-01-06T08:37:44Z</time></trkpt>
<trkpt lat="43.775366982" lon="11.223588036"><ele>45</ele><time>2020-01-06T08:37:45Z</time></trkpt>
<trkpt lat="43.77535902" lon="11.223632963"><ele>45</ele><time>2020-01-06T08:37:46Z</time></trkpt>
<trkpt lat="43.775351979" lon="11.223676968"><ele>45</ele><time>2020-01-06T08:37:47Z</time></trkpt>
<trkpt lat="43.775346028" lon="11.223720973"><ele>45</ele><time>2020-01-06T08:37:48Z</time></trkpt>
<trkpt lat="43.775340999" lon="11.223763973"><ele>45</ele><time>2020-01-06T08:37:49Z</time></trkpt>
<trkpt lat="43.775338987" lon="11.223805966"><ele>45</ele><time>2020-01-06T08:37:50Z</time></trkpt>
<trkpt lat="43.775337981" lon="11.223847037"><ele>45</ele><time>2020-01-06T08:37:51Z</time></trkpt>
<trkpt lat="43.775338987" lon="11.223886013"><ele>45</ele><time>2020-01-06T08:37:52Z</time></trkpt>
<trkpt lat="43.775338987" lon="11.223923983"><ele>45</ele><time>2020-01-06T08:37:53Z</time></trkpt>
<trkpt lat="43.775337981" lon="11.223962037"><ele>45</ele><time>2020-01-06T08:37:54Z</time></trkpt>
<trkpt lat="43.775336975" lon="11.223999001"><ele>45</ele><time>2020-01-06T08:37:55Z</time></trkpt>
<trkpt lat="43.775360025" lon="11.224094974"><ele>45</ele><time>2020-01-06T08:37:58Z</time></trkpt>
<trkpt lat="43.775378969" lon="11.224112995"><ele>45</ele><time>2020-01-06T08:37:59Z</time></trkpt>
<trkpt lat="43.775403025" lon="11.224123975"><ele>45</ele><time>2020-01-06T08:38:00Z</time></trkpt>
<trkpt lat="43.775430014" lon="11.224131016"><ele>46</ele><time>2020-01-06T08:38:01Z</time></trkpt>
<trkpt lat="43.775457004" lon="11.224137973"><ele>46</ele><time>2020-01-06T08:38:02Z</time></trkpt>
<trkpt lat="43.775485" lon="11.22414602"><ele>46</ele><time>2020-01-06T08:38:03Z</time></trkpt>
<trkpt lat="43.775511989" lon="11.224155994"><ele>46</ele><time>2020-01-06T08:38:04Z</time></trkpt>
<trkpt lat="43.775537973" lon="11.22416798"><ele>46</ele><time>2020-01-06T08:38:05Z</time></trkpt>
<trkpt lat="43.775564041" lon="11.224179966"><ele>46</ele><time>2020-01-06T08:38:06Z</time></trkpt>
<trkpt lat="43.775590025" lon="11.224192036"><ele>47</ele><time>2020-01-06T08:38:07Z</time></trkpt>
<trkpt lat="43.775615003" lon="11.224204022"><ele>47</ele><time>2020-01-06T08:38:08Z</time></trkpt>
<trkpt lat="43.775638975" lon="11.224216009"><ele>47</ele><time>2020-01-06T08:38:09Z</time></trkpt>
<trkpt lat="43.775663031" lon="11.224226989"><ele>47</ele><time>2020-01-06T08:38:10Z</time></trkpt>
<trkpt lat="43.775687004" lon="11.224237969"><ele>47</ele><time>2020-01-06T08:38:11Z</time></trkpt>
<trkpt lat="43.775708964" lon="11.224247022"><ele>47</ele><time>2020-01-06T08:38:12Z</time></trkpt>
<trkpt lat="43.775731008" lon="11.224253979"><ele>47</ele><time>2020-01-06T08:38:13Z</time></trkpt>
<trkpt lat="43.775752969" lon="11.224260014"><ele>48</ele><time>2020-01-06T08:38:14Z</time></trkpt>
<trkpt lat="43.775774008" lon="11.224265965"><ele>48</ele><time>2020-01-06T08:38:15Z</time></trkpt>
<trkpt lat="43.775794962" lon="11.224272"><ele>48</ele><time>2020-01-06T08:38:16Z</time></trkpt>
<trkpt lat="43.775817007" lon="11.224279962"><ele>48</ele><time>2020-01-06T08:38:17Z</time></trkpt>
<trkpt lat="43.775839973" lon="11.224291027"><ele>48</ele><time>2020-01-06T08:38:18Z</time></trkpt>
<trkpt lat="43.775864029" lon="11.224302007"><ele>48</ele><time>2020-01-06T08:38:19Z</time></trkpt>
<trkpt lat="43.775888002" lon="11.22430997"><ele>48</ele><time>2020-01-06T08:38:20Z</time></trkpt>
<trkpt lat="43.775909962" lon="11.224311981"><ele>48</ele><time>2020-01-06T08:38:21Z</time></trkpt>
<trkpt lat="43.775931001" lon="11.224305024"><ele>48</ele><time>2020-01-06T08:38:22Z</time></trkpt>
<trkpt lat="43.775949022" lon="11.224291027"><ele>48</ele><time>2020-01-06T08:38:23Z</time></trkpt>
<trkpt lat="43.775981041" lon="11.224242998"><ele>48</ele><time>2020-01-06T08:38:25Z</time></trkpt>
<trkpt lat="43.775993027" lon="11.224210979"><ele>48</ele><time>2020-01-06T08:38:26Z</time></trkpt>
<trkpt lat="43.776003001" lon="11.224177033"><ele>48</ele><time>2020-01-06T08:38:27Z</time></trkpt>
<trkpt lat="43.776010964" lon="11.224139985"><ele>48</ele><time>2020-01-06T08:38:28Z</time></trkpt>
<trkpt lat="43.776016999" lon="11.224102015"><ele>48</ele><time>2020-01-06T08:38:29Z</time></trkpt>
<trkpt lat="43.776020017" lon="11.224063039"><ele>48</ele><time>2020-01-06T08:38:30Z</time></trkpt>
<trkpt lat="43.776023034" lon="11.224023979"><ele>48</ele><time>2020-01-06T08:38:31Z</time></trkpt>
<trkpt lat="43.77602404" lon="11.223983997"><ele>48</ele><time>2020-01-06T08:38:32Z</time></trkpt>
<trkpt lat="43.776025968" lon="11.223944016"><ele>48</ele><time>2020-01-06T08:38:33Z</time></trkpt>
<trkpt lat="43.776026974" lon="11.223904034"><ele>48</ele><time>2020-01-06T08:38:34Z</time></trkpt>
<trkpt lat="43.776029991" lon="11.223863969"><ele>48</ele><time>2020-01-06T08:38:35Z</time></trkpt>
<trkpt lat="43.776034014" lon="11.223823987"><ele>48</ele><time>2020-01-06T08:38:36Z</time></trkpt>
<trkpt lat="43.77603896" lon="11.223785011"><ele>48</ele><time>2020-01-06T08:38:37Z</time></trkpt>
<trkpt lat="43.776047006" lon="11.223745029"><ele>48</ele><time>2020-01-06T08:38:38Z</time></trkpt>
<trkpt lat="43.776055975" lon="11.22370597"><ele>48</ele><time>2020-01-06T08:38:39Z</time></trkpt>
<trkpt lat="43.776067039" lon="11.223665988"><ele>48</ele><time>2020-01-06T08:38:40Z</time></trkpt>
<trkpt lat="43.776079025" lon="11.223626006"><ele>48</ele><time>2020-01-06T08:38:41Z</time></trkpt>
<trkpt lat="43.776092017" lon="11.223586025"><ele>48</ele><time>2020-01-06T08:38:42Z</time></trkpt>
<trkpt lat="43.776107021" lon="11.223545959"><ele>49</ele><time>2020-01-06T08:38:43Z</time></trkpt>
<trkpt lat="43.776122024" lon="11.223503966"><ele>49</ele><time>2020-01-06T08:38:44Z</time></trkpt>
<trkpt lat="43.77613904" lon="11.223462978"><ele>49</ele><time>2020-01-06T08:38:45Z</time></trkpt>
<trkpt lat="43.776155971" lon="11.223421991"><ele>49</ele><time>2020-01-06T08:38:46Z</time></trkpt>
<trkpt lat="43.776173992" lon="11.223382009"><ele>49</ele><time>2020-01-06T08:38:47Z</time></trkpt>
<trkpt lat="43.776192013" lon="11.223344039"><ele>49</ele><time>2020-01-06T08:38:48Z</time></trkpt>
<trkpt lat="43.776210034" lon="11.223307997"><ele>49</ele><time>2020-01-06T08:38:49Z</time></trkpt>
<trkpt lat="43.776227972" lon="11.223273966"><ele>49</ele><time>2020-01-06T08:38:50Z</time></trkpt>
<trkpt lat="43.776244987" lon="11.223243959"><ele>49</ele><time>2020-01-06T08:38:51Z</time></trkpt>
<trkpt lat="43.776262002" lon="11.22321697"><ele>49</ele><time>2020-01-06T08:38:52Z</time></trkpt>
<trkpt lat="43.776278012" lon="11.223192997"><ele>50</ele><time>2020-01-06T08:38:53Z</time></trkpt>
<trkpt lat="43.776296033" lon="11.223170031"><ele>50</ele><time>2020-01-06T08:38:54Z</time></trkpt>
<trkpt lat="43.776315982" lon="11.223144969"><ele>50</ele><time>2020-01-06T08:38:55Z</time></trkpt>
<trkpt lat="43.77633702" lon="11.223119991"><ele>50</ele><time>2020-01-06T08:38:56Z</time></trkpt>
<trkpt lat="43.776360992" lon="11.223094007"><ele>50</ele><time>2020-01-06T08:38:57Z</time></trkpt>
<trkpt lat="43.77638597" lon="11.223070035"><ele>50</ele><time>2020-01-06T08:38:58Z</time></trkpt>
<trkpt lat="43.776412038" lon="11.223048996"><ele>50</ele><time>2020-01-06T08:38:59Z</time></trkpt>
<trkpt lat="43.776439028" lon="11.223032987"><ele>50</ele><time>2020-01-06T08:39:00Z</time></trkpt>
<trkpt lat="43.776466018" lon="11.223018989"><ele>50</ele><time>2020-01-06T08:39:01Z</time></trkpt>
<trkpt lat="43.776494013" lon="11.223009015"><ele>50</ele><time>2020-01-06T08:39:02Z</time></trkpt>
<trkpt lat="43.776522009" lon="11.223001974"><ele>50</ele><time>2020-01-06T08:39:03Z</time></trkpt>
<trkpt lat="43.77655101" lon="11.222997028"><ele>50</ele><time>2020-01-06T08:39:04Z</time></trkpt>
<trkpt lat="43.776579006" lon="11.222995017"><ele>50</ele><time>2020-01-06T08:39:05Z</time></trkpt>
<trkpt lat="43.776607001" lon="11.222996023"><ele>51</ele><time>2020-01-06T08:39:06Z</time></trkpt>
<trkpt lat="43.776660981" lon="11.22300298"><ele>51</ele><time>2020-01-06T08:39:08Z</time></trkpt>
<trkpt lat="43.77668797" lon="11.223011026"><ele>51</ele><time>2020-01-06T08:39:09Z</time></trkpt>
<trkpt lat="43.776714038" lon="11.223023012"><ele>51</ele><time>2020-01-06T08:39:10Z</time></trkpt>
<trkpt lat="43.776740022" lon="11.223038016"><ele>50</ele><time>2020-01-06T08:39:11Z</time></trkpt>
<trkpt lat="43.776765" lon="11.223056959"><ele>50</ele><time>2020-01-06T08:39:12Z</time></trkpt>
<trkpt lat="43.776789978" lon="11.223081015"><ele>50</ele><time>2020-01-06T08:39:13Z</time></trkpt>
<trkpt lat="43.77681504" lon="11.223110016"><ele>50</ele><time>2020-01-06T08:39:14Z</time></trkpt>
<trkpt lat="43.776839012" lon="11.223142035"><ele>50</ele><time>2020-01-06T08:39:15Z</time></trkpt>
<trkpt lat="43.776862985" lon="11.223175982"><ele>50</ele><time>2020-01-06T08:39:16Z</time></trkpt>
<trkpt lat="43.776887041" lon="11.223209007"><ele>49</ele><time>2020-01-06T08:39:17Z</time></trkpt>
<trkpt lat="43.776911013" lon="11.223241026"><ele>49</ele><time>2020-01-06T08:39:18Z</time></trkpt>
<trkpt lat="43.776933979" lon="11.223272039"><ele>49</ele><time>2020-01-06T08:39:19Z</time></trkpt>
<trkpt lat="43.776956024" lon="11.223303974"><ele>49</ele><time>2020-01-06T08:39:20Z</time></trkpt>
<trkpt lat="43.776976978" lon="11.223336998"><ele>49</ele><time>2020-01-06T08:39:21Z</time></trkpt>
<trkpt lat="43.776996005" lon="11.223373041"><ele>48</ele><time>2020-01-06T08:39:22Z</time></trkpt>
<trkpt lat="43.777014026" lon="11.223411011"><ele>48</ele><time>2020-01-06T08:39:23Z</time></trkpt>
<trkpt lat="43.77702903" lon="11.223450992"><ele>48</ele><time>2020-01-06T08:39:24Z</time></trkpt>
<trkpt lat="43.777041016" lon="11.223492986"><ele>47</ele><time>2020-01-06T08:39:25Z</time></trkpt>
<trkpt lat="43.777050991" lon="11.223535985"><ele>47</ele><time>2020-01-06T08:39:26Z</time></trkpt>
<trkpt lat="43.777059037" lon="11.223578984"><ele>47</ele><time>2020-01-06T08:39:27Z</time></trkpt>
<trkpt lat="43.777062977" lon="11.223621983"><ele>46</ele><time>2020-01-06T08:39:28Z</time></trkpt>
<trkpt lat="43.777064988" lon="11.223664982"><ele>46</ele><time>2020-01-06T08:39:29Z</time></trkpt>
<trkpt lat="43.777064988" lon="11.22370597"><ele>46</ele><time>2020-01-06T08:39:30Z</time></trkpt>
<trkpt lat="43.777063983" lon="11.223746035"><ele>46</ele><time>2020-01-06T08:39:31Z</time></trkpt>
<trkpt lat="43.777062977" lon="11.223780988"><ele>46</ele><time>2020-01-06T08:39:32Z</time></trkpt>
<trkpt lat="43.777064988" lon="11.223813007"><ele>45</ele><time>2020-01-06T08:39:33Z</time></trkpt>
<trkpt lat="43.777068006" lon="11.223837985"><ele>45</ele><time>2020-01-06T08:39:34Z</time></trkpt>
<trkpt lat="43.777074041" lon="11.223853994"><ele>45</ele><time>2020-01-06T08:39:35Z</time></trkpt>
<trkpt lat="43.777083009" lon="11.223860029"><ele>45</ele><time>2020-01-06T08:39:36Z</time></trkpt>
<trkpt lat="43.777106982" lon="11.223833039"><ele>45</ele><time>2020-01-06T08:39:38Z</time></trkpt>
<trkpt lat="43.777121985" lon="11.22380496"><ele>45</ele><time>2020-01-06T08:39:39Z</time></trkpt>
<trkpt lat="43.777137995" lon="11.223769002"><ele>45</ele><time>2020-01-06T08:39:40Z</time></trkpt>
<trkpt lat="43.77715501" lon="11.223727008"><ele>45</ele><time>2020-01-06T08:39:41Z</time></trkpt>
<trkpt lat="43.777171019" lon="11.223680992"><ele>45</ele><time>2020-01-06T08:39:42Z</time></trkpt>
<trkpt lat="43.777187029" lon="11.223633969"><ele>45</ele><time>2020-01-06T08:39:43Z</time></trkpt>
<trkpt lat="43.777201027" lon="11.223586025"><ele>45</ele><time>2020-01-06T08:39:44Z</time></trkpt>
<trkpt lat="43.777215024" lon="11.223539002"><ele>45</ele><time>2020-01-06T08:39:45Z</time></trkpt>
<trkpt lat="43.777228016" lon="11.22349198"><ele>45</ele><time>2020-01-06T08:39:46Z</time></trkpt>
<trkpt lat="43.777240003" lon="11.223445041"><ele>45</ele><time>2020-01-06T08:39:47Z</time></trkpt>
<trkpt lat="43.777252994" lon="11.223399024"><ele>45</ele><time>2020-01-06T08:39:48Z</time></trkpt>
<trkpt lat="43.777264981" lon="11.223354014"><ele>45</ele><time>2020-01-06T08:39:49Z</time></trkpt>
<trkpt lat="43.777277973" lon="11.223310009"><ele>45</ele><time>2020-01-06T08:39:50Z</time></trkpt>
<trkpt lat="43.77729197" lon="11.223267009"><ele>45</ele><time>2020-01-06T08:39:51Z</time></trkpt>
<trkpt lat="43.777305968" lon="11.22322401"><ele>45</ele><time>2020-01-06T08:39:52Z</time></trkpt>
<trkpt lat="43.777320972" lon="11.223182017"><ele>45</ele><time>2020-01-06T08:39:53Z</time></trkpt>
<trkpt lat="43.777336981" lon="11.223141029"><ele>45</ele><time>2020-01-06T08:39:54Z</time></trkpt>
<trkpt lat="43.777352991" lon="11.223099036"><ele>45</ele><time>2020-01-06T08:39:55Z</time></trkpt>
<trkpt lat="43.777369" lon="11.223057965"><ele>45</ele><time>2020-01-06T08:39:56Z</time></trkpt>
<trkpt lat="43.777385009" lon="11.223015971"><ele>45</ele><time>2020-01-06T08:39:57Z</time></trkpt>
<trkpt lat="43.777402025" lon="11.222973978"><ele>45</ele><time>2020-01-06T08:39:58Z</time></trkpt>
<trkpt lat="43.777418034" lon="11.222931985"><ele>45</ele><time>2020-01-06T08:39:59Z</time></trkpt>
<trkpt lat="43.777434966" lon="11.222890997"><ele>45</ele><time>2020-01-06T08:40:00Z</time></trkpt>
<trkpt lat="43.777451981" lon="11.222849004"><ele>45</ele><time>2020-01-06T08:40:01Z</time></trkpt>
<trkpt lat="43.777468996" lon="11.222809022"><ele>45</ele><time>2020-01-06T08:40:02Z</time></trkpt>
<trkpt lat="43.777487017" lon="11.222769963"><ele>45</ele><time>2020-01-06T08:40:03Z</time></trkpt>
<trkpt lat="43.777505038" lon="11.222736016"><ele>45</ele><time>2020-01-06T08:40:04Z</time></trkpt>
<trkpt lat="43.777524987" lon="11.222706009"><ele>45</ele><time>2020-01-06T08:40:05Z</time></trkpt>
<trkpt lat="43.777546026" lon="11.222682958"><ele>45</ele><time>2020-01-06T08:40:06Z</time></trkpt>
<trkpt lat="43.777567986" lon="11.222666027"><ele>46</ele><time>2020-01-06T08:40:07Z</time></trkpt>
<trkpt lat="43.777591037" lon="11.222654963"><ele>46</ele><time>2020-01-06T08:40:08Z</time></trkpt>
<trkpt lat="43.777614003" lon="11.222652029"><ele>46</ele><time>2020-01-06T08:40:09Z</time></trkpt>
<trkpt lat="43.777658008" lon="11.222660998"><ele>46</ele><time>2020-01-06T08:40:11Z</time></trkpt>
<trkpt lat="43.777678963" lon="11.222664015"><ele>46</ele><time>2020-01-06T08:40:12Z</time></trkpt>
<trkpt lat="43.777698996" lon="11.222658986"><ele>46</ele><time>2020-01-06T08:40:13Z</time></trkpt>
<trkpt lat="43.777717017" lon="11.222647"><ele>46</ele><time>2020-01-06T08:40:14Z</time></trkpt>
<trkpt lat="43.777734032" lon="11.222628979"><ele>46</ele><time>2020-01-06T08:40:15Z</time></trkpt>
<trkpt lat="43.777750041" lon="11.222605007"><ele>46</ele><time>2020-01-06T08:40:16Z</time></trkpt>
<trkpt lat="43.777794968" lon="11.22251004"><ele>46</ele><time>2020-01-06T08:40:19Z</time></trkpt>
<trkpt lat="43.777809972" lon="11.222471986"><ele>46</ele><time>2020-01-06T08:40:20Z</time></trkpt>
<trkpt lat="43.777825981" lon="11.22243301"><ele>46</ele><time>2020-01-06T08:40:21Z</time></trkpt>
<trkpt lat="43.777875016" lon="11.22231097"><ele>46</ele><time>2020-01-06T08:40:24Z</time></trkpt>
<trkpt lat="43.777892031" lon="11.22226797"><ele>46</ele><time>2020-01-06T08:40:25Z</time></trkpt>
<trkpt lat="43.77790804" lon="11.222224971"><ele>46</ele><time>2020-01-06T08:40:26Z</time></trkpt>
<trkpt lat="43.777924972" lon="11.222181972"><ele>46</ele><time>2020-01-06T08:40:27Z</time></trkpt>
<trkpt lat="43.777940981" lon="11.222138973"><ele>46</ele><time>2020-01-06T08:40:28Z</time></trkpt>
<trkpt lat="43.777955985" lon="11.222095974"><ele>46</ele><time>2020-01-06T08:40:29Z</time></trkpt>
<trkpt lat="43.777969982" lon="11.22205398"><ele>46</ele><time>2020-01-06T08:40:30Z</time></trkpt>
<trkpt lat="43.777982974" lon="11.222011987"><ele>46</ele><time>2020-01-06T08:40:31Z</time></trkpt>
<trkpt lat="43.777994039" lon="11.221972005"><ele>46</ele><time>2020-01-06T08:40:32Z</time></trkpt>
<trkpt lat="43.778003007" lon="11.221932024"><ele>46</ele><time>2020-01-06T08:40:33Z</time></trkpt>
<trkpt lat="43.77801097" lon="11.221891958"><ele>46</ele><time>2020-01-06T08:40:34Z</time></trkpt>
<trkpt lat="43.778019017" lon="11.221849965"><ele>46</ele><time>2020-01-06T08:40:35Z</time></trkpt>
<trkpt lat="43.778024968" lon="11.22180596"><ele>46</ele><time>2020-01-06T08:40:36Z</time></trkpt>
<trkpt lat="43.778032009" lon="11.221760027"><ele>46</ele><time>2020-01-06T08:40:37Z</time></trkpt>
<trkpt lat="43.778040977" lon="11.221713005"><ele>46</ele><time>2020-01-06T08:40:38Z</time></trkpt>
<trkpt lat="43.778076014" lon="11.221577972"><ele>46</ele><time>2020-01-06T08:40:41Z</time></trkpt>
<trkpt lat="43.778091017" lon="11.221534973"><ele>46</ele><time>2020-01-06T08:40:42Z</time></trkpt>
<trkpt lat="43.778106021" lon="11.221490968"><ele>46</ele><time>2020-01-06T08:40:43Z</time></trkpt>
<trkpt lat="43.77812203" lon="11.221446041"><ele>46</ele><time>2020-01-06T08:40:44Z</time></trkpt>
<trkpt lat="43.77813804" lon="11.221402036"><ele>46</ele><time>2020-01-06T08:40:45Z</time></trkpt>
<trkpt lat="43.778154971" lon="11.221358031"><ele>46</ele><time>2020-01-06T08:40:46Z</time></trkpt>
<trkpt lat="43.778170981" lon="11.221314026"><ele>46</ele><time>2020-01-06T08:40:47Z</time></trkpt>
<trkpt lat="43.77818699" lon="11.221270021"><ele>46</ele><time>2020-01-06T08:40:48Z</time></trkpt>
<trkpt lat="43.778202999" lon="11.221228028"><ele>46</ele><time>2020-01-06T08:40:49Z</time></trkpt>
<trkpt lat="43.778219009" lon="11.221186034"><ele>46</ele><time>2020-01-06T08:40:50Z</time></trkpt>
<trkpt lat="43.778234012" lon="11.221144963"><ele>46</ele><time>2020-01-06T08:40:51Z</time></trkpt>
<trkpt lat="43.778249016" lon="11.221104981"><ele>46</ele><time>2020-01-06T08:40:52Z</time></trkpt>
<trkpt lat="43.77826402" lon="11.221065"><ele>46</ele><time>2020-01-06T08:40:53Z</time></trkpt>
<trkpt lat="43.778279023" lon="11.221026024"><ele>46</ele><time>2020-01-06T08:40:54Z</time></trkpt>
<trkpt lat="43.778293021" lon="11.22098797"><ele>46</ele><time>2020-01-06T08:40:55Z</time></trkpt>
<trkpt lat="43.778308025" lon="11.220948994"><ele>46</ele><time>2020-01-06T08:40:56Z</time></trkpt>
<trkpt lat="43.778322022" lon="11.220911024"><ele>46</ele><time>2020-01-06T08:40:57Z</time></trkpt>
<trkpt lat="43.778337026" lon="11.22087297"><ele>46</ele><time>2020-01-06T08:40:58Z</time></trkpt>
<trkpt lat="43.778351024" lon="11.220835"><ele>46</ele><time>2020-01-06T08:40:59Z</time></trkpt>
<trkpt lat="43.778366027" lon="11.22079703"><ele>46</ele><time>2020-01-06T08:41:00Z</time></trkpt>
<trkpt lat="43.778380025" lon="11.220757971"><ele>46</ele><time>2020-01-06T08:41:01Z</time></trkpt>
<trkpt lat="43.778395029" lon="11.220720001"><ele>46</ele><time>2020-01-06T08:41:02Z</time></trkpt>
<trkpt lat="43.778409027" lon="11.220682031"><ele>46</ele><time>2020-01-06T08:41:03Z</time></trkpt>
<trkpt lat="43.77842403" lon="11.220642971"><ele>46</ele><time>2020-01-06T08:41:04Z</time></trkpt>
<trkpt lat="43.778438028" lon="11.220603995"><ele>46</ele><time>2020-01-06T08:41:05Z</time></trkpt>
<trkpt lat="43.778452026" lon="11.220564013"><ele>46</ele><time>2020-01-06T08:41:06Z</time></trkpt>
<trkpt lat="43.778467029" lon="11.220525037"><ele>46</ele><time>2020-01-06T08:41:07Z</time></trkpt>
<trkpt lat="43.778481027" lon="11.220483966"><ele>45</ele><time>2020-01-06T08:41:08Z</time></trkpt>
<trkpt lat="43.778495025" lon="11.220443984"><ele>45</ele><time>2020-01-06T08:41:09Z</time></trkpt>
<trkpt lat="43.778510028" lon="11.220401991"><ele>45</ele><time>2020-01-06T08:41:10Z</time></trkpt>
<trkpt lat="43.778524026" lon="11.220361004"><ele>45</ele><time>2020-01-06T08:41:11Z</time></trkpt>
<trkpt lat="43.778538024" lon="11.220318004"><ele>45</ele><time>2020-01-06T08:41:12Z</time></trkpt>
<trkpt lat="43.778552022" lon="11.220275005"><ele>45</ele><time>2020-01-06T08:41:13Z</time></trkpt>
<trkpt lat="43.77856602" lon="11.220232006"><ele>45</ele><time>2020-01-06T08:41:14Z</time></trkpt>
<trkpt lat="43.778580017" lon="11.220188001"><ele>45</ele><time>2020-01-06T08:41:15Z</time></trkpt>
<trkpt lat="43.778595021" lon="11.220145002"><ele>45</ele><time>2020-01-06T08:41:16Z</time></trkpt>
<trkpt lat="43.778610025" lon="11.220102003"><ele>45</ele><time>2020-01-06T08:41:17Z</time></trkpt>
<trkpt lat="43.778626034" lon="11.22006001"><ele>45</ele><time>2020-01-06T08:41:18Z</time></trkpt>
<trkpt lat="43.778642965" lon="11.220018016"><ele>45</ele><time>2020-01-06T08:41:19Z</time></trkpt>
<trkpt lat="43.778659981" lon="11.219977029"><ele>44</ele><time>2020-01-06T08:41:20Z</time></trkpt>
<trkpt lat="43.778678002" lon="11.219936041"><ele>44</ele><time>2020-01-06T08:41:21Z</time></trkpt>
<trkpt lat="43.778696023" lon="11.219896981"><ele>44</ele><time>2020-01-06T08:41:22Z</time></trkpt>
<trkpt lat="43.77871396" lon="11.219858006"><ele>44</ele><time>2020-01-06T08:41:23Z</time></trkpt>
<trkpt lat="43.778730975" lon="11.21981903"><ele>44</ele><time>2020-01-06T08:41:24Z</time></trkpt>
<trkpt lat="43.778747991" lon="11.219780976"><ele>44</ele><time>2020-01-06T08:41:25Z</time></trkpt>
<trkpt lat="43.778765006" lon="11.219743006"><ele>44</ele><time>2020-01-06T08:41:26Z</time></trkpt>
<trkpt lat="43.77878001" lon="11.219705036"><ele>43</ele><time>2020-01-06T08:41:27Z</time></trkpt>
<trkpt lat="43.778795013" lon="11.219666982"><ele>43</ele><time>2020-01-06T08:41:28Z</time></trkpt>
<trkpt lat="43.778809011" lon="11.219629012"><ele>43</ele><time>2020-01-06T08:41:29Z</time></trkpt>
<trkpt lat="43.778822003" lon="11.219590958"><ele>43</ele><time>2020-01-06T08:41:30Z</time></trkpt>
<trkpt lat="43.778834995" lon="11.219551982"><ele>43</ele><time>2020-01-06T08:41:31Z</time></trkpt>
<trkpt lat="43.778848993" lon="11.219513007"><ele>43</ele><time>2020-01-06T08:41:32Z</time></trkpt>
<trkpt lat="43.778861985" lon="11.219473025"><ele>43</ele><time>2020-01-06T08:41:33Z</time></trkpt>
<trkpt lat="43.778875982" lon="11.219432037"><ele>43</ele><time>2020-01-06T08:41:34Z</time></trkpt>
<trkpt lat="43.778890986" lon="11.21938996"><ele>42</ele><time>2020-01-06T08:41:35Z</time></trkpt>
<trkpt lat="43.77890599" lon="11.219347967"><ele>42</ele><time>2020-01-06T08:41:36Z</time></trkpt>
<trkpt lat="43.778921999" lon="11.219304968"><ele>42</ele><time>2020-01-06T08:41:37Z</time></trkpt>
<trkpt lat="43.778938008" lon="11.219262974"><ele>42</ele><time>2020-01-06T08:41:38Z</time></trkpt>
<trkpt lat="43.778953012" lon="11.219220981"><ele>42</ele><time>2020-01-06T08:41:39Z</time></trkpt>
<trkpt lat="43.778969022" lon="11.219180999"><ele>42</ele><time>2020-01-06T08:41:40Z</time></trkpt>
<trkpt lat="43.778984025" lon="11.219142023"><ele>42</ele><time>2020-01-06T08:41:41Z</time></trkpt>
<trkpt lat="43.778999029" lon="11.219104975"><ele>42</ele><time>2020-01-06T08:41:42Z</time></trkpt>
<trkpt lat="43.779013027" lon="11.219068011"><ele>42</ele><time>2020-01-06T08:41:43Z</time></trkpt>
<trkpt lat="43.77902803" lon="11.219030963"><ele>42</ele><time>2020-01-06T08:41:44Z</time></trkpt>
<trkpt lat="43.779042028" lon="11.218991987"><ele>42</ele><time>2020-01-06T08:41:45Z</time></trkpt>
<trkpt lat="43.779056026" lon="11.218949994"><ele>42</ele><time>2020-01-06T08:41:46Z</time></trkpt>
<trkpt lat="43.779071029" lon="11.218906995"><ele>42</ele><time>2020-01-06T08:41:47Z</time></trkpt>
<trkpt lat="43.779086033" lon="11.21886299"><ele>42</ele><time>2020-01-06T08:41:48Z</time></trkpt>
<trkpt lat="43.779100031" lon="11.218819991"><ele>42</ele><time>2020-01-06T08:41:49Z</time></trkpt>
<trkpt lat="43.77911604" lon="11.218779003"><ele>42</ele><time>2020-01-06T08:41:50Z</time></trkpt>
<trkpt lat="43.779132972" lon="11.218740027"><ele>42</ele><time>2020-01-06T08:41:51Z</time></trkpt>
<trkpt lat="43.779151998" lon="11.218705997"><ele>42</ele><time>2020-01-06T08:41:52Z</time></trkpt>
<trkpt lat="43.779173959" lon="11.218674984"><ele>42</ele><time>2020-01-06T08:41:53Z</time></trkpt>
<trkpt lat="43.779198015" lon="11.218647994"><ele>42</ele><time>2020-01-06T08:41:54Z</time></trkpt>
<trkpt lat="43.779223999" lon="11.21862201"><ele>42</ele><time>2020-01-06T08:41:55Z</time></trkpt>
<trkpt lat="43.779247971" lon="11.218597032"><ele>42</ele><time>2020-01-06T08:41:56Z</time></trkpt>
<trkpt lat="43.779271021" lon="11.218569959"><ele>42</ele><time>2020-01-06T08:41:57Z</time></trkpt>
<trkpt lat="43.779292982" lon="11.218541041"><ele>42</ele><time>2020-01-06T08:41:58Z</time></trkpt>
<trkpt lat="43.779312009" lon="11.218508016"><ele>42</ele><time>2020-01-06T08:41:59Z</time></trkpt>
<trkpt lat="43.779327013" lon="11.218471974"><ele>42</ele><time>2020-01-06T08:42:00Z</time></trkpt>
<trkpt lat="43.779340005" lon="11.218432998"><ele>42</ele><time>2020-01-06T08:42:01Z</time></trkpt>
<trkpt lat="43.779351991" lon="11.218392011"><ele>42</ele><time>2020-01-06T08:42:02Z</time></trkpt>
<trkpt lat="43.779363977" lon="11.218349012"><ele>42</ele><time>2020-01-06T08:42:03Z</time></trkpt>
<trkpt lat="43.779376969" lon="11.218307018"><ele>42</ele><time>2020-01-06T08:42:04Z</time></trkpt>
<trkpt lat="43.779390967" lon="11.218264019"><ele>42</ele><time>2020-01-06T08:42:05Z</time></trkpt>
<trkpt lat="43.779404964" lon="11.218222026"><ele>42</ele><time>2020-01-06T08:42:06Z</time></trkpt>
<trkpt lat="43.779419968" lon="11.218179027"><ele>42</ele><time>2020-01-06T08:42:07Z</time></trkpt>
<trkpt lat="43.779434972" lon="11.218137033"><ele>42</ele><time>2020-01-06T08:42:08Z</time></trkpt>
<trkpt lat="43.779448969" lon="11.218094034"><ele>42</ele><time>2020-01-06T08:42:09Z</time></trkpt>
<trkpt lat="43.779462967" lon="11.218052041"><ele>42</ele><time>2020-01-06T08:42:10Z</time></trkpt>
<trkpt lat="43.779475959" lon="11.218009042"><ele>42</ele><time>2020-01-06T08:42:11Z</time></trkpt>
<trkpt lat="43.779488029" lon="11.217966964"><ele>42</ele><time>2020-01-06T08:42:12Z</time></trkpt>
<trkpt lat="43.779501021" lon="11.217923965"><ele>42</ele><time>2020-01-06T08:42:13Z</time></trkpt>
<trkpt lat="43.779513007" lon="11.217882978"><ele>42</ele><time>2020-01-06T08:42:14Z</time></trkpt>
<trkpt lat="43.779525999" lon="11.21784199"><ele>42</ele><time>2020-01-06T08:42:15Z</time></trkpt>
<trkpt lat="43.779539997" lon="11.217801003"><ele>42</ele><time>2020-01-06T08:42:16Z</time></trkpt>
<trkpt lat="43.779553995" lon="11.217762027"><ele>42</ele><time>2020-01-06T08:42:17Z</time></trkpt>
<trkpt lat="43.779570004" lon="11.217723973"><ele>42</ele><time>2020-01-06T08:42:18Z</time></trkpt>
<trkpt lat="43.779587019" lon="11.217686003"><ele>42</ele><time>2020-01-06T08:42:19Z</time></trkpt>
<trkpt lat="43.779605962" lon="11.217649961"><ele>42</ele><time>2020-01-06T08:42:20Z</time></trkpt>
<trkpt lat="43.779624989" lon="11.217614003"><ele>42</ele><time>2020-01-06T08:42:21Z</time></trkpt>
<trkpt lat="43.779644016" lon="11.217578966"><ele>42</ele><time>2020-01-06T08:42:22Z</time></trkpt>
<trkpt lat="43.779662037" lon="11.217544014"><ele>42</ele><time>2020-01-06T08:42:23Z</time></trkpt>
<trkpt lat="43.779678969" lon="11.217507971"><ele>42</ele><time>2020-01-06T08:42:24Z</time></trkpt>
<trkpt lat="43.779694978" lon="11.217472013"><ele>42</ele><time>2020-01-06T08:42:25Z</time></trkpt>
<trkpt lat="43.779708976" lon="11.217434965"><ele>42</ele><time>2020-01-06T08:42:26Z</time></trkpt>
<trkpt lat="43.779720962" lon="11.217396995"><ele>42</ele><time>2020-01-06T08:42:27Z</time></trkpt>
<trkpt lat="43.779733032" lon="11.217359025"><ele>42</ele><time>2020-01-06T08:42:28Z</time></trkpt>
<trkpt lat="43.779745018" lon="11.21731896"><ele>41</ele><time>2020-01-06T08:42:29Z</time></trkpt>
<trkpt lat="43.779759016" lon="11.217278978"><ele>41</ele><time>2020-01-06T08:42:30Z</time></trkpt>
<trkpt lat="43.779772008" lon="11.217238996"><ele>41</ele><time>2020-01-06T08:42:31Z</time></trkpt>
<trkpt lat="43.779781982" lon="11.217199014"><ele>41</ele><time>2020-01-06T08:42:32Z</time></trkpt>
<trkpt lat="43.779788017" lon="11.217160039"><ele>41</ele><time>2020-01-06T08:42:33Z</time></trkpt>
<trkpt lat="43.779787011" lon="11.217122991"><ele>42</ele><time>2020-01-06T08:42:34Z</time></trkpt>
<trkpt lat="43.779781982" lon="11.217087032"><ele>42</ele><time>2020-01-06T08:42:35Z</time></trkpt>
<trkpt lat="43.779777037" lon="11.217049984"><ele>42</ele><time>2020-01-06T08:42:36Z</time></trkpt>
<trkpt lat="43.779777037" lon="11.217011008"><ele>42</ele><time>2020-01-06T08:42:37Z</time></trkpt>
<trkpt lat="43.779786006" lon="11.216968009"><ele>42</ele><time>2020-01-06T08:42:38Z</time></trkpt>
<trkpt lat="43.779801009" lon="11.216922998"><ele>42</ele><time>2020-01-06T08:42:39Z</time></trkpt>
<trkpt lat="43.779818024" lon="11.216875976"><ele>42</ele><time>2020-01-06T08:42:40Z</time></trkpt>
<trkpt lat="43.779835962" lon="11.216830965"><ele>42</ele><time>2020-01-06T08:42:41Z</time></trkpt>
<trkpt lat="43.779853983" lon="11.216786038"><ele>42</ele><time>2020-01-06T08:42:42Z</time></trkpt>
<trkpt lat="43.779870998" lon="11.216743039"><ele>42</ele><time>2020-01-06T08:42:43Z</time></trkpt>
<trkpt lat="43.779888013" lon="11.216700962"><ele>42</ele><time>2020-01-06T08:42:44Z</time></trkpt>
<trkpt lat="43.779905029" lon="11.216658968"><ele>42</ele><time>2020-01-06T08:42:45Z</time></trkpt>
<trkpt lat="43.779921038" lon="11.216617981"><ele>42</ele><time>2020-01-06T08:42:46Z</time></trkpt>
<trkpt lat="43.779936964" lon="11.216577999"><ele>42</ele><time>2020-01-06T08:42:47Z</time></trkpt>
<trkpt lat="43.779952973" lon="11.216539023"><ele>42</ele><time>2020-01-06T08:42:48Z</time></trkpt>
<trkpt lat="43.779968983" lon="11.216499964"><ele>42</ele><time>2020-01-06T08:42:49Z</time></trkpt>
<trkpt lat="43.779984992" lon="11.216460988"><ele>42</ele><time>2020-01-06T08:42:50Z</time></trkpt>
<trkpt lat="43.779999996" lon="11.216423018"><ele>42</ele><time>2020-01-06T08:42:51Z</time></trkpt>
<trkpt lat="43.780016005" lon="11.216384964"><ele>42</ele><time>2020-01-06T08:42:52Z</time></trkpt>
<trkpt lat="43.780031009" lon="11.216346994"><ele>42</ele><time>2020-01-06T08:42:53Z</time></trkpt>
<trkpt lat="43.780046012" lon="11.216309024"><ele>42</ele><time>2020-01-06T08:42:54Z</time></trkpt>
<trkpt lat="43.780062022" lon="11.216271976"><ele>42</ele><time>2020-01-06T08:42:55Z</time></trkpt>
<trkpt lat="43.780077025" lon="11.216234006"><ele>42</ele><time>2020-01-06T08:42:56Z</time></trkpt>
<trkpt lat="43.780092029" lon="11.216196036"><ele>42</ele><time>2020-01-06T08:42:57Z</time></trkpt>
<trkpt lat="43.780108038" lon="11.216156976"><ele>42</ele><time>2020-01-06T08:42:58Z</time></trkpt>
<trkpt lat="43.780122958" lon="11.216119006"><ele>42</ele><time>2020-01-06T08:42:59Z</time></trkpt>
<trkpt lat="43.780138968" lon="11.216079025"><ele>42</ele><time>2020-01-06T08:43:00Z</time></trkpt>
<trkpt lat="43.780154977" lon="11.216038959"><ele>42</ele><time>2020-01-06T08:43:01Z</time></trkpt>
<trkpt lat="43.780171992" lon="11.215997972"><ele>42</ele><time>2020-01-06T08:43:02Z</time></trkpt>
<trkpt lat="43.780189008" lon="11.215955978"><ele>42</ele><time>2020-01-06T08:43:03Z</time></trkpt>
<trkpt lat="43.780206023" lon="11.215913985"><ele>41</ele><time>2020-01-06T08:43:04Z</time></trkpt>
<trkpt lat="43.780223038" lon="11.215870986"><ele>41</ele><time>2020-01-06T08:43:05Z</time></trkpt>
<trkpt lat="43.780239969" lon="11.215827987"><ele>41</ele><time>2020-01-06T08:43:06Z</time></trkpt>
<trkpt lat="43.780256985" lon="11.215784987"><ele>41</ele><time>2020-01-06T08:43:07Z</time></trkpt>
<trkpt lat="43.780274" lon="11.215741988"><ele>41</ele><time>2020-01-06T08:43:08Z</time></trkpt>
<trkpt lat="43.780291015" lon="11.215701001"><ele>41</ele><time>2020-01-06T08:43:09Z</time></trkpt>
<trkpt lat="43.780308031" lon="11.215660013"><ele>41</ele><time>2020-01-06T08:43:10Z</time></trkpt>
<trkpt lat="43.78032404" lon="11.215621037"><ele>41</ele><time>2020-01-06T08:43:11Z</time></trkpt>
<trkpt lat="43.780338038" lon="11.215584995"><ele>41</ele><time>2020-01-06T08:43:12Z</time></trkpt>
<trkpt lat="43.780352036" lon="11.215550965"><ele>41</ele><time>2020-01-06T08:43:13Z</time></trkpt>
<trkpt lat="43.780363016" lon="11.215520035"><ele>41</ele><time>2020-01-06T08:43:14Z</time></trkpt>
<trkpt lat="43.780373996" lon="11.215491034"><ele>41</ele><time>2020-01-06T08:43:15Z</time></trkpt>
<trkpt lat="43.780385982" lon="11.215460021"><ele>41</ele><time>2020-01-06T08:43:16Z</time></trkpt>
<trkpt lat="43.780398974" lon="11.215426996"><ele>41</ele><time>2020-01-06T08:43:17Z</time></trkpt>
<trkpt lat="43.780413978" lon="11.215390032"><ele>41</ele><time>2020-01-06T08:43:18Z</time></trkpt>
<trkpt lat="43.780430993" lon="11.215348039"><ele>41</ele><time>2020-01-06T08:43:19Z</time></trkpt>
<trkpt lat="43.780449014" lon="11.215304034"><ele>41</ele><time>2020-01-06T08:43:20Z</time></trkpt>
<trkpt lat="43.780468963" lon="11.215257011"><ele>41</ele><time>2020-01-06T08:43:21Z</time></trkpt>
<trkpt lat="43.780488996" lon="11.215209989"><ele>41</ele><time>2020-01-06T08:43:22Z</time></trkpt>
<trkpt lat="43.780509029" lon="11.215163972"><ele>41</ele><time>2020-01-06T08:43:23Z</time></trkpt>
<trkpt lat="43.780528978" lon="11.215118039"><ele>41</ele><time>2020-01-06T08:43:24Z</time></trkpt>
<trkpt lat="43.780548004" lon="11.21507504"><ele>41</ele><time>2020-01-06T08:43:25Z</time></trkpt>
<trkpt lat="43.780566026" lon="11.215034975"><ele>41</ele><time>2020-01-06T08:43:26Z</time></trkpt>
<trkpt lat="43.780583963" lon="11.214994993"><ele>41</ele><time>2020-01-06T08:43:27Z</time></trkpt>
<trkpt lat="43.780600978" lon="11.214958029"><ele>40</ele><time>2020-01-06T08:43:28Z</time></trkpt>
<trkpt lat="43.780617993" lon="11.214920981"><ele>40</ele><time>2020-01-06T08:43:29Z</time></trkpt>
<trkpt lat="43.780634003" lon="11.214885022"><ele>40</ele><time>2020-01-06T08:43:30Z</time></trkpt>
<trkpt lat="43.780650012" lon="11.214849986"><ele>40</ele><time>2020-01-06T08:43:31Z</time></trkpt>
<trkpt lat="43.780667027" lon="11.214814028"><ele>40</ele><time>2020-01-06T08:43:32Z</time></trkpt>
<trkpt lat="43.780683037" lon="11.214778991"><ele>40</ele><time>2020-01-06T08:43:33Z</time></trkpt>
<trkpt lat="43.780698963" lon="11.214743033"><ele>40</ele><time>2020-01-06T08:43:34Z</time></trkpt>
<trkpt lat="43.780715978" lon="11.214706991"><ele>40</ele><time>2020-01-06T08:43:35Z</time></trkpt>
<trkpt lat="43.780732993" lon="11.214671033"><ele>40</ele><time>2020-01-06T08:43:36Z</time></trkpt>
<trkpt lat="43.780750008" lon="11.21463499"><ele>40</ele><time>2020-01-06T08:43:37Z</time></trkpt>
<trkpt lat="43.780767024" lon="11.214599032"><ele>40</ele><time>2020-01-06T08:43:38Z</time></trkpt>
<trkpt lat="43.780784961" lon="11.21456299"><ele>40</ele><time>2020-01-06T08:43:39Z</time></trkpt>
<trkpt lat="43.780802982" lon="11.214527031"><ele>40</ele><time>2020-01-06T08:43:40Z</time></trkpt>
<trkpt lat="43.780822009" lon="11.214490989"><ele>40</ele><time>2020-01-06T08:43:41Z</time></trkpt>
<trkpt lat="43.780841036" lon="11.214456037"><ele>40</ele><time>2020-01-06T08:43:42Z</time></trkpt>
<trkpt lat="43.780859979" lon="11.214419995"><ele>40</ele><time>2020-01-06T08:43:43Z</time></trkpt>
<trkpt lat="43.780879006" lon="11.214384958"><ele>39</ele><time>2020-01-06T08:43:44Z</time></trkpt>
<trkpt lat="43.780898033" lon="11.214349"><ele>39</ele><time>2020-01-06T08:43:45Z</time></trkpt>
<trkpt lat="43.780917982" lon="11.214313041"><ele>39</ele><time>2020-01-06T08:43:46Z</time></trkpt>
<trkpt lat="43.780937009" lon="11.214276999"><ele>39</ele><time>2020-01-06T08:43:47Z</time></trkpt>
<trkpt lat="43.780956035" lon="11.214240035"><ele>39</ele><time>2020-01-06T08:43:48Z</time></trkpt>
<trkpt lat="43.780975984" lon="11.214202987"><ele>39</ele><time>2020-01-06T08:43:49Z</time></trkpt>
<trkpt lat="43.780995011" lon="11.214165017"><ele>39</ele><time>2020-01-06T08:43:50Z</time></trkpt>
<trkpt lat="43.781014038" lon="11.214126963"><ele>38</ele><time>2020-01-06T08:43:51Z</time></trkpt>
<trkpt lat="43.781032981" lon="11.214087987"><ele>38</ele><time>2020-01-06T08:43:52Z</time></trkpt>
<trkpt lat="43.781051002" lon="11.214049011"><ele>38</ele><time>2020-01-06T08:43:53Z</time></trkpt>
<trkpt lat="43.781069024" lon="11.21400903"><ele>38</ele><time>2020-01-06T08:43:54Z</time></trkpt>
<trkpt lat="43.781087967" lon="11.213967958"><ele>38</ele><time>2020-01-06T08:43:55Z</time></trkpt>
<trkpt lat="43.781105988" lon="11.213928983"><ele>38</ele><time>2020-01-06T08:43:56Z</time></trkpt>
<trkpt lat="43.781125015" lon="11.213892018"><ele>38</ele><time>2020-01-06T08:43:57Z</time></trkpt>
<trkpt lat="43.781144042" lon="11.213856982"><ele>38</ele><time>2020-01-06T08:43:58Z</time></trkpt>
<trkpt lat="43.78116399" lon="11.213824041"><ele>38</ele><time>2020-01-06T08:43:59Z</time></trkpt>
<trkpt lat="43.781184023" lon="11.213792022"><ele>38</ele><time>2020-01-06T08:44:00Z</time></trkpt>
<trkpt lat="43.781202966" lon="11.213758998"><ele>38</ele><time>2020-01-06T08:44:01Z</time></trkpt>
<trkpt lat="43.781220987" lon="11.213723961"><ele>38</ele><time>2020-01-06T08:44:02Z</time></trkpt>
<trkpt lat="43.781239009" lon="11.213686997"><ele>38</ele><time>2020-01-06T08:44:03Z</time></trkpt>
<trkpt lat="43.78125703" lon="11.213650033"><ele>38</ele><time>2020-01-06T08:44:04Z</time></trkpt>
<trkpt lat="43.781273961" lon="11.213610973"><ele>38</ele><time>2020-01-06T08:44:05Z</time></trkpt>
<trkpt lat="43.781289971" lon="11.213571997"><ele>38</ele><time>2020-01-06T08:44:06Z</time></trkpt>
<trkpt lat="43.781306986" lon="11.213533022"><ele>38</ele><time>2020-01-06T08:44:07Z</time></trkpt>
<trkpt lat="43.781324001" lon="11.213493962"><ele>38</ele><time>2020-01-06T08:44:08Z</time></trkpt>
<trkpt lat="43.781341016" lon="11.213455992"><ele>38</ele><time>2020-01-06T08:44:09Z</time></trkpt>
<trkpt lat="43.781358032" lon="11.213418022"><ele>38</ele><time>2020-01-06T08:44:10Z</time></trkpt>
<trkpt lat="43.781375969" lon="11.213379968"><ele>38</ele><time>2020-01-06T08:44:11Z</time></trkpt>
<trkpt lat="43.78139399" lon="11.213343004"><ele>38</ele><time>2020-01-06T08:44:12Z</time></trkpt>
<trkpt lat="43.781412011" lon="11.213306962"><ele>38</ele><time>2020-01-06T08:44:13Z</time></trkpt>
<trkpt lat="43.781430032" lon="11.213269997"><ele>38</ele><time>2020-01-06T08:44:14Z</time></trkpt>
<trkpt lat="43.781447969" lon="11.213234039"><ele>38</ele><time>2020-01-06T08:44:15Z</time></trkpt>
<trkpt lat="43.781466996" lon="11.213197997"><ele>38</ele><time>2020-01-06T08:44:16Z</time></trkpt>
<trkpt lat="43.781485017" lon="11.21316296"><ele>38</ele><time>2020-01-06T08:44:17Z</time></trkpt>
<trkpt lat="43.78150396" lon="11.213127002"><ele>38</ele><time>2020-01-06T08:44:18Z</time></trkpt>
<trkpt lat="43.781522987" lon="11.213091966"><ele>38</ele><time>2020-01-06T08:44:19Z</time></trkpt>
<trkpt lat="43.781542014" lon="11.213057013"><ele>38</ele><time>2020-01-06T08:44:20Z</time></trkpt>
<trkpt lat="43.781561041" lon="11.213021977"><ele>38</ele><time>2020-01-06T08:44:21Z</time></trkpt>
<trkpt lat="43.781579984" lon="11.212987024"><ele>38</ele><time>2020-01-06T08:44:22Z</time></trkpt>
<trkpt lat="43.781599011" lon="11.212951988"><ele>38</ele><time>2020-01-06T08:44:23Z</time></trkpt>
<trkpt lat="43.781618038" lon="11.212917035"><ele>38</ele><time>2020-01-06T08:44:24Z</time></trkpt>
<trkpt lat="43.781636981" lon="11.212881999"><ele>38</ele><time>2020-01-06T08:44:25Z</time></trkpt>
<trkpt lat="43.781655002" lon="11.212846963"><ele>38</ele><time>2020-01-06T08:44:26Z</time></trkpt>
<trkpt lat="43.781674029" lon="11.21281201"><ele>38</ele><time>2020-01-06T08:44:27Z</time></trkpt>
<trkpt lat="43.781692972" lon="11.212776974"><ele>38</ele><time>2020-01-06T08:44:28Z</time></trkpt>
<trkpt lat="43.781710993" lon="11.212741015"><ele>38</ele><time>2020-01-06T08:44:29Z</time></trkpt>
<trkpt lat="43.781729015" lon="11.212705979"><ele>38</ele><time>2020-01-06T08:44:30Z</time></trkpt>
<trkpt lat="43.78174603" lon="11.212671027"><ele>38</ele><time>2020-01-06T08:44:31Z</time></trkpt>
<trkpt lat="43.781762961" lon="11.21263599"><ele>38</ele><time>2020-01-06T08:44:32Z</time></trkpt>
<trkpt lat="43.781779977" lon="11.212601038"><ele>38</ele><time>2020-01-06T08:44:33Z</time></trkpt>
<trkpt lat="43.781795986" lon="11.212564996"><ele>38</ele><time>2020-01-06T08:44:34Z</time></trkpt>
<trkpt lat="43.781813001" lon="11.212529037"><ele>38</ele><time>2020-01-06T08:44:35Z</time></trkpt>
<trkpt lat="43.781829011" lon="11.212491989"><ele>38</ele><time>2020-01-06T08:44:36Z</time></trkpt>
<trkpt lat="43.78184502" lon="11.212455025"><ele>38</ele><time>2020-01-06T08:44:37Z</time></trkpt>
<trkpt lat="43.78186103" lon="11.212415965"><ele>37</ele><time>2020-01-06T08:44:38Z</time></trkpt>
<trkpt lat="43.781877961" lon="11.212375984"><ele>37</ele><time>2020-01-06T08:44:39Z</time></trkpt>
<trkpt lat="43.781894976" lon="11.212336002"><ele>37</ele><time>2020-01-06T08:44:40Z</time></trkpt>
<trkpt lat="43.781911992" lon="11.212294009"><ele>37</ele><time>2020-01-06T08:44:41Z</time></trkpt>
<trkpt lat="43.781929007" lon="11.212253021"><ele>37</ele><time>2020-01-06T08:44:42Z</time></trkpt>
<trkpt lat="43.781946022" lon="11.212211028"><ele>37</ele><time>2020-01-06T08:44:43Z</time></trkpt>
<trkpt lat="43.781963959" lon="11.21217004"><ele>36</ele><time>2020-01-06T08:44:44Z</time></trkpt>
<trkpt lat="43.78198198" lon="11.212128969"><ele>36</ele><time>2020-01-06T08:44:45Z</time></trkpt>
<trkpt lat="43.781998996" lon="11.212088987"><ele>36</ele><time>2020-01-06T08:44:46Z</time></trkpt>
<trkpt lat="43.782017017" lon="11.212050011"><ele>36</ele><time>2020-01-06T08:44:47Z</time></trkpt>
<trkpt lat="43.78203596" lon="11.212012041"><ele>36</ele><time>2020-01-06T08:44:48Z</time></trkpt>
<trkpt lat="43.782053981" lon="11.211973988"><ele>36</ele><time>2020-01-06T08:44:49Z</time></trkpt>
<trkpt lat="43.782073008" lon="11.211936017"><ele>36</ele><time>2020-01-06T08:44:50Z</time></trkpt>
<trkpt lat="43.782091029" lon="11.211897964"><ele>35</ele><time>2020-01-06T08:44:51Z</time></trkpt>
<trkpt lat="43.782109972" lon="11.211859994"><ele>35</ele><time>2020-01-06T08:44:52Z</time></trkpt>
<trkpt lat="43.782128999" lon="11.211821018"><ele>35</ele><time>2020-01-06T08:44:53Z</time></trkpt>
<trkpt lat="43.782149032" lon="11.211781958"><ele>35</ele><time>2020-01-06T08:44:54Z</time></trkpt>
<trkpt lat="43.782167975" lon="11.211742982"><ele>35</ele><time>2020-01-06T08:44:55Z</time></trkpt>
<trkpt lat="43.782187002" lon="11.211703001"><ele>35</ele><time>2020-01-06T08:44:56Z</time></trkpt>
<trkpt lat="43.782206029" lon="11.211663019"><ele>35</ele><time>2020-01-06T08:44:57Z</time></trkpt>
<trkpt lat="43.782224972" lon="11.211623959"><ele>35</ele><time>2020-01-06T08:44:58Z</time></trkpt>
<trkpt lat="43.782242993" lon="11.211583978"><ele>35</ele><time>2020-01-06T08:44:59Z</time></trkpt>
<trkpt lat="43.782260008" lon="11.211545002"><ele>35</ele><time>2020-01-06T08:45:00Z</time></trkpt>
<trkpt lat="43.782278029" lon="11.211506026"><ele>35</ele><time>2020-01-06T08:45:01Z</time></trkpt>
<trkpt lat="43.782294039" lon="11.211466966"><ele>35</ele><time>2020-01-06T08:45:02Z</time></trkpt>
<trkpt lat="43.782309964" lon="11.21142799"><ele>35</ele><time>2020-01-06T08:45:03Z</time></trkpt>
<trkpt lat="43.782324968" lon="11.211389014"><ele>35</ele><time>2020-01-06T08:45:04Z</time></trkpt>
<trkpt lat="43.782339972" lon="11.211350039"><ele>35</ele><time>2020-01-06T08:45:05Z</time></trkpt>
<trkpt lat="43.782353969" lon="11.211311985"><ele>35</ele><time>2020-01-06T08:45:06Z</time></trkpt>
<trkpt lat="43.782366961" lon="11.211272003"><ele>36</ele><time>2020-01-06T08:45:07Z</time></trkpt>
<trkpt lat="43.782380037" lon="11.211233027"><ele>36</ele><time>2020-01-06T08:45:08Z</time></trkpt>
<trkpt lat="43.782393029" lon="11.211192962"><ele>36</ele><time>2020-01-06T08:45:09Z</time></trkpt>
<trkpt lat="43.782405015" lon="11.211153986"><ele>36</ele><time>2020-01-06T08:45:10Z</time></trkpt>
<trkpt lat="43.782418007" lon="11.21111501"><ele>36</ele><time>2020-01-06T08:45:11Z</time></trkpt>
<trkpt lat="43.782429993" lon="11.211076034"><ele>36</ele><time>2020-01-06T08:45:12Z</time></trkpt>
<trkpt lat="43.782442985" lon="11.21103798"><ele>36</ele><time>2020-01-06T08:45:13Z</time></trkpt>
<trkpt lat="43.782454971" lon="11.211001016"><ele>36</ele><time>2020-01-06T08:45:14Z</time></trkpt>
<trkpt lat="43.782468969" lon="11.210964974"><ele>37</ele><time>2020-01-06T08:45:15Z</time></trkpt>
<trkpt lat="43.782482967" lon="11.210930021"><ele>37</ele><time>2020-01-06T08:45:16Z</time></trkpt>
<trkpt lat="43.78249797" lon="11.210896997"><ele>37</ele><time>2020-01-06T08:45:17Z</time></trkpt>
<trkpt lat="43.782512974" lon="11.210862966"><ele>37</ele><time>2020-01-06T08:45:18Z</time></trkpt>
<trkpt lat="43.782528983" lon="11.210831031"><ele>37</ele><time>2020-01-06T08:45:19Z</time></trkpt>
<trkpt lat="43.782545999" lon="11.210798007"><ele>37</ele><time>2020-01-06T08:45:20Z</time></trkpt>
<trkpt lat="43.78256402" lon="11.210765988"><ele>37</ele><time>2020-01-06T08:45:21Z</time></trkpt>
<trkpt lat="43.782582963" lon="11.210732041"><ele>37</ele><time>2020-01-06T08:45:22Z</time></trkpt>
<trkpt lat="43.78260199" lon="11.210699016"><ele>37</ele><time>2020-01-06T08:45:23Z</time></trkpt>
<trkpt lat="43.782622023" lon="11.21066398"><ele>37</ele><time>2020-01-06T08:45:24Z</time></trkpt>
<trkpt lat="43.782641971" lon="11.210629027"><ele>37</ele><time>2020-01-06T08:45:25Z</time></trkpt>
<trkpt lat="43.78266301" lon="11.210593991"><ele>37</ele><time>2020-01-06T08:45:26Z</time></trkpt>
<trkpt lat="43.782683965" lon="11.210558033"><ele>37</ele><time>2020-01-06T08:45:27Z</time></trkpt>
<trkpt lat="43.782703998" lon="11.21052199"><ele>37</ele><time>2020-01-06T08:45:28Z</time></trkpt>
<trkpt lat="43.782725036" lon="11.210485026"><ele>37</ele><time>2020-01-06T08:45:29Z</time></trkpt>
<trkpt lat="43.782744985" lon="11.210447978"><ele>37</ele><time>2020-01-06T08:45:30Z</time></trkpt>
<trkpt lat="43.782765018" lon="11.21041202"><ele>37</ele><time>2020-01-06T08:45:31Z</time></trkpt>
<trkpt lat="43.782783961" lon="11.210373966"><ele>37</ele><time>2020-01-06T08:45:32Z</time></trkpt>
<trkpt lat="43.782802988" lon="11.210337002"><ele>37</ele><time>2020-01-06T08:45:33Z</time></trkpt>
<trkpt lat="43.782821009" lon="11.210299032"><ele>37</ele><time>2020-01-06T08:45:34Z</time></trkpt>
<trkpt lat="43.782838024" lon="11.210259972"><ele>37</ele><time>2020-01-06T08:45:35Z</time></trkpt>
<trkpt lat="43.782854034" lon="11.21021999"><ele>37</ele><time>2020-01-06T08:45:36Z</time></trkpt>
<trkpt lat="43.782869037" lon="11.210180009"><ele>37</ele><time>2020-01-06T08:45:37Z</time></trkpt>
<trkpt lat="43.782884041" lon="11.210138015"><ele>37</ele><time>2020-01-06T08:45:38Z</time></trkpt>
<trkpt lat="43.782898039" lon="11.210096022"><ele>37</ele><time>2020-01-06T08:45:39Z</time></trkpt>
<trkpt lat="43.782912036" lon="11.210053023"><ele>37</ele><time>2020-01-06T08:45:40Z</time></trkpt>
<trkpt lat="43.782926034" lon="11.21001103"><ele>37</ele><time>2020-01-06T08:45:41Z</time></trkpt>
<trkpt lat="43.782940032" lon="11.209969958"><ele>37</ele><time>2020-01-06T08:45:42Z</time></trkpt>
<trkpt lat="43.782955036" lon="11.209929977"><ele>38</ele><time>2020-01-06T08:45:43Z</time></trkpt>
<trkpt lat="43.782970039" lon="11.209893012"><ele>38</ele><time>2020-01-06T08:45:44Z</time></trkpt>
<trkpt lat="43.782987976" lon="11.20985697"><ele>38</ele><time>2020-01-06T08:45:45Z</time></trkpt>
<trkpt lat="43.783005998" lon="11.209823024"><ele>38</ele><time>2020-01-06T08:45:46Z</time></trkpt>
<trkpt lat="43.783025024" lon="11.209791005"><ele>38</ele><time>2020-01-06T08:45:47Z</time></trkpt>
<trkpt lat="43.783045979" lon="11.209759992"><ele>38</ele><time>2020-01-06T08:45:48Z</time></trkpt>
<trkpt lat="43.783066012" lon="11.209728979"><ele>38</ele><time>2020-01-06T08:45:49Z</time></trkpt>
<trkpt lat="43.783087973" lon="11.209697966"><ele>38</ele><time>2020-01-06T08:45:50Z</time></trkpt>
<trkpt lat="43.783109011" lon="11.209667036"><ele>38</ele><time>2020-01-06T08:45:51Z</time></trkpt>
<trkpt lat="43.783130972" lon="11.209634012"><ele>38</ele><time>2020-01-06T08:45:52Z</time></trkpt>
<trkpt lat="43.783153016" lon="11.209599981"><ele>38</ele><time>2020-01-06T08:45:53Z</time></trkpt>
<trkpt lat="43.783173971" lon="11.209566034"><ele>38</ele><time>2020-01-06T08:45:54Z</time></trkpt>
<trkpt lat="43.783195009" lon="11.209529992"><ele>38</ele><time>2020-01-06T08:45:55Z</time></trkpt>
<trkpt lat="43.783214958" lon="11.209493028"><ele>38</ele><time>2020-01-06T08:45:56Z</time></trkpt>
<trkpt lat="43.783234991" lon="11.209454974"><ele>38</ele><time>2020-01-06T08:45:57Z</time></trkpt>
<trkpt lat="43.783253012" lon="11.209417004"><ele>38</ele><time>2020-01-06T08:45:58Z</time></trkpt>
<trkpt lat="43.783271033" lon="11.209377022"><ele>38</ele><time>2020-01-06T08:45:59Z</time></trkpt>
<trkpt lat="43.783286959" lon="11.209336035"><ele>38</ele><time>2020-01-06T08:46:00Z</time></trkpt>
<trkpt lat="43.783301041" lon="11.209294042"><ele>39</ele><time>2020-01-06T08:46:01Z</time></trkpt>
<trkpt lat="43.783315038" lon="11.209251964"><ele>39</ele><time>2020-01-06T08:46:02Z</time></trkpt>
<trkpt lat="43.783327024" lon="11.209209971"><ele>39</ele><time>2020-01-06T08:46:03Z</time></trkpt>
<trkpt lat="43.783339011" lon="11.209166972"><ele>39</ele><time>2020-01-06T08:46:04Z</time></trkpt>
<trkpt lat="43.783348985" lon="11.209123973"><ele>39</ele><time>2020-01-06T08:46:05Z</time></trkpt>
<trkpt lat="43.783358959" lon="11.209080974"><ele>39</ele><time>2020-01-06T08:46:06Z</time></trkpt>
<trkpt lat="43.783367006" lon="11.20903898"><ele>39</ele><time>2020-01-06T08:46:07Z</time></trkpt>
<trkpt lat="43.783375975" lon="11.208996987"><ele>39</ele><time>2020-01-06T08:46:08Z</time></trkpt>
<trkpt lat="43.783384021" lon="11.208955999"><ele>39</ele><time>2020-01-06T08:46:09Z</time></trkpt>
<trkpt lat="43.783391984" lon="11.208915012"><ele>39</ele><time>2020-01-06T08:46:10Z</time></trkpt>
<trkpt lat="43.783400031" lon="11.20887503"><ele>39</ele><time>2020-01-06T08:46:11Z</time></trkpt>
<trkpt lat="43.783408999" lon="11.208834965"><ele>39</ele><time>2020-01-06T08:46:12Z</time></trkpt>
<trkpt lat="43.78341998" lon="11.208795989"><ele>39</ele><time>2020-01-06T08:46:13Z</time></trkpt>
<trkpt lat="43.78343096" lon="11.208757013"><ele>39</ele><time>2020-01-06T08:46:14Z</time></trkpt>
<trkpt lat="43.783444036" lon="11.208719965"><ele>39</ele><time>2020-01-06T08:46:15Z</time></trkpt>
<trkpt lat="43.783458034" lon="11.208681995"><ele>39</ele><time>2020-01-06T08:46:16Z</time></trkpt>
<trkpt lat="43.783473959" lon="11.208645031"><ele>39</ele><time>2020-01-06T08:46:17Z</time></trkpt>
<trkpt lat="43.783489969" lon="11.208608989"><ele>39</ele><time>2020-01-06T08:46:18Z</time></trkpt>
<trkpt lat="43.78350799" lon="11.208572024"><ele>39</ele><time>2020-01-06T08:46:19Z</time></trkpt>
<trkpt lat="43.783526011" lon="11.208534976"><ele>39</ele><time>2020-01-06T08:46:20Z</time></trkpt>
<trkpt lat="43.783544032" lon="11.208499018"><ele>39</ele><time>2020-01-06T08:46:21Z</time></trkpt>
<trkpt lat="43.783562975" lon="11.208460964"><ele>39</ele><time>2020-01-06T08:46:22Z</time></trkpt>
<trkpt lat="43.783582002" lon="11.208424"><ele>39</ele><time>2020-01-06T08:46:23Z</time></trkpt>
<trkpt lat="43.783601029" lon="11.208387036"><ele>39</ele><time>2020-01-06T08:46:24Z</time></trkpt>
<trkpt lat="43.783619972" lon="11.208349988"><ele>39</ele><time>2020-01-06T08:46:25Z</time></trkpt>
<trkpt lat="43.783640005" lon="11.208313024"><ele>39</ele><time>2020-01-06T08:46:26Z</time></trkpt>
<trkpt lat="43.783660037" lon="11.208276981"><ele>39</ele><time>2020-01-06T08:46:27Z</time></trkpt>
<trkpt lat="43.783680992" lon="11.208242029"><ele>39</ele><time>2020-01-06T08:46:28Z</time></trkpt>
<trkpt lat="43.783701025" lon="11.208207998"><ele>38</ele><time>2020-01-06T08:46:29Z</time></trkpt>
<trkpt lat="43.78372198" lon="11.208174974"><ele>38</ele><time>2020-01-06T08:46:30Z</time></trkpt>
<trkpt lat="43.783744024" lon="11.208143039"><ele>38</ele><time>2020-01-06T08:46:31Z</time></trkpt>
<trkpt lat="43.783765985" lon="11.208112026"><ele>38</ele><time>2020-01-06T08:46:32Z</time></trkpt>
<trkpt lat="43.783789035" lon="11.208083024"><ele>38</ele><time>2020-01-06T08:46:33Z</time></trkpt>
<trkpt lat="43.783813007" lon="11.208054023"><ele>38</ele><time>2020-01-06T08:46:34Z</time></trkpt>
<trkpt lat="43.783836979" lon="11.208027033"><ele>38</ele><time>2020-01-06T08:46:35Z</time></trkpt>
<trkpt lat="43.783862963" lon="11.20799996"><ele>38</ele><time>2020-01-06T08:46:36Z</time></trkpt>
<trkpt lat="43.783890959" lon="11.207974982"><ele>38</ele><time>2020-01-06T08:46:37Z</time></trkpt>
<trkpt lat="43.783918032" lon="11.207948998"><ele>38</ele><time>2020-01-06T08:46:38Z</time></trkpt>
<trkpt lat="43.783944016" lon="11.207922008"><ele>37</ele><time>2020-01-06T08:46:39Z</time></trkpt>
<trkpt lat="43.783967989" lon="11.207893007"><ele>37</ele><time>2020-01-06T08:46:40Z</time></trkpt>
<trkpt lat="43.783989027" lon="11.207861993"><ele>37</ele><time>2020-01-06T08:46:41Z</time></trkpt>
<trkpt lat="43.784006964" lon="11.207828969"><ele>37</ele><time>2020-01-06T08:46:42Z</time></trkpt>
<trkpt lat="43.78402398" lon="11.207794016"><ele>37</ele><time>2020-01-06T08:46:43Z</time></trkpt>
<trkpt lat="43.784040995" lon="11.20775898"><ele>38</ele><time>2020-01-06T08:46:44Z</time></trkpt>
<trkpt lat="43.78405801" lon="11.207723022"><ele>38</ele><time>2020-01-06T08:46:45Z</time></trkpt>
<trkpt lat="43.784075025" lon="11.207686979"><ele>38</ele><time>2020-01-06T08:46:46Z</time></trkpt>
<trkpt lat="43.784093969" lon="11.207650015"><ele>38</ele><time>2020-01-06T08:46:47Z</time></trkpt>
<trkpt lat="43.78411199" lon="11.207613973"><ele>38</ele><time>2020-01-06T08:46:48Z</time></trkpt>
<trkpt lat="43.784131017" lon="11.207577009"><ele>38</ele><time>2020-01-06T08:46:49Z</time></trkpt>
<trkpt lat="43.78414996" lon="11.207539961"><ele>38</ele><time>2020-01-06T08:46:50Z</time></trkpt>
<trkpt lat="43.784168987" lon="11.207502997"><ele>38</ele><time>2020-01-06T08:46:51Z</time></trkpt>
<trkpt lat="43.784188014" lon="11.207465027"><ele>38</ele><time>2020-01-06T08:46:52Z</time></trkpt>
<trkpt lat="43.784206035" lon="11.207426973"><ele>38</ele><time>2020-01-06T08:46:53Z</time></trkpt>
<trkpt lat="43.784224978" lon="11.207389003"><ele>38</ele><time>2020-01-06T08:46:54Z</time></trkpt>
<trkpt lat="43.784242999" lon="11.207350027"><ele>38</ele><time>2020-01-06T08:46:55Z</time></trkpt>
<trkpt lat="43.78426102" lon="11.207310967"><ele>38</ele><time>2020-01-06T08:46:56Z</time></trkpt>
<trkpt lat="43.784279041" lon="11.207271991"><ele>38</ele><time>2020-01-06T08:46:57Z</time></trkpt>
<trkpt lat="43.784296978" lon="11.207233015"><ele>38</ele><time>2020-01-06T08:46:58Z</time></trkpt>
<trkpt lat="43.784313994" lon="11.20719404"><ele>38</ele><time>2020-01-06T08:46:59Z</time></trkpt>
<trkpt lat="43.784331009" lon="11.207153974"><ele>39</ele><time>2020-01-06T08:47:00Z</time></trkpt>
<trkpt lat="43.784347018" lon="11.207113992"><ele>39</ele><time>2020-01-06T08:47:01Z</time></trkpt>
<trkpt lat="43.784363028" lon="11.207075017"><ele>39</ele><time>2020-01-06T08:47:02Z</time></trkpt>
<trkpt lat="43.784378031" lon="11.207035035"><ele>39</ele><time>2020-01-06T08:47:03Z</time></trkpt>
<trkpt lat="43.784393035" lon="11.206994969"><ele>39</ele><time>2020-01-06T08:47:04Z</time></trkpt>
<trkpt lat="43.784407033" lon="11.206954988"><ele>39</ele><time>2020-01-06T08:47:05Z</time></trkpt>
<trkpt lat="43.784420025" lon="11.206915006"><ele>39</ele><time>2020-01-06T08:47:06Z</time></trkpt>
<trkpt lat="43.784433017" lon="11.206875024"><ele>39</ele><time>2020-01-06T08:47:07Z</time></trkpt>
<trkpt lat="43.784445003" lon="11.206834959"><ele>39</ele><time>2020-01-06T08:47:08Z</time></trkpt>
<trkpt lat="43.784456989" lon="11.206794977"><ele>39</ele><time>2020-01-06T08:47:09Z</time></trkpt>
<trkpt lat="43.784468975" lon="11.206756001"><ele>39</ele><time>2020-01-06T08:47:10Z</time></trkpt>
<trkpt lat="43.784481967" lon="11.206717025"><ele>39</ele><time>2020-01-06T08:47:11Z</time></trkpt>
<trkpt lat="43.784494037" lon="11.206678972"><ele>39</ele><time>2020-01-06T08:47:12Z</time></trkpt>
<trkpt lat="43.784508035" lon="11.206641002"><ele>39</ele><time>2020-01-06T08:47:13Z</time></trkpt>
<trkpt lat="43.784523038" lon="11.206603032"><ele>39</ele><time>2020-01-06T08:47:14Z</time></trkpt>
<trkpt lat="43.784538964" lon="11.206566989"><ele>39</ele><time>2020-01-06T08:47:15Z</time></trkpt>
<trkpt lat="43.784555979" lon="11.206530025"><ele>39</ele><time>2020-01-06T08:47:16Z</time></trkpt>
<trkpt lat="43.784572994" lon="11.206494989"><ele>39</ele><time>2020-01-06T08:47:17Z</time></trkpt>
<trkpt lat="43.784592021" lon="11.206459031"><ele>39</ele><time>2020-01-06T08:47:18Z</time></trkpt>
<trkpt lat="43.78461197" lon="11.206423994"><ele>39</ele><time>2020-01-06T08:47:19Z</time></trkpt>
<trkpt lat="43.784632003" lon="11.206389042"><ele>39</ele><time>2020-01-06T08:47:20Z</time></trkpt>
<trkpt lat="43.784652036" lon="11.206352999"><ele>39</ele><time>2020-01-06T08:47:21Z</time></trkpt>
<trkpt lat="43.78467299" lon="11.206317963"><ele>39</ele><time>2020-01-06T08:47:22Z</time></trkpt>
<trkpt lat="43.784694029" lon="11.206282005"><ele>39</ele><time>2020-01-06T08:47:23Z</time></trkpt>
<trkpt lat="43.784714984" lon="11.206245963"><ele>39</ele><time>2020-01-06T08:47:24Z</time></trkpt>
<trkpt lat="43.784736022" lon="11.206210004"><ele>39</ele><time>2020-01-06T08:47:25Z</time></trkpt>
<trkpt lat="43.784756977" lon="11.206173962"><ele>39</ele><time>2020-01-06T08:47:26Z</time></trkpt>
<trkpt lat="43.78477701" lon="11.206138004"><ele>39</ele><time>2020-01-06T08:47:27Z</time></trkpt>
<trkpt lat="43.784797965" lon="11.206101961"><ele>39</ele><time>2020-01-06T08:47:28Z</time></trkpt>
<trkpt lat="43.784817997" lon="11.206066003"><ele>39</ele><time>2020-01-06T08:47:29Z</time></trkpt>
<trkpt lat="43.784837024" lon="11.206029961"><ele>39</ele><time>2020-01-06T08:47:30Z</time></trkpt>
<trkpt lat="43.784855967" lon="11.205994003"><ele>40</ele><time>2020-01-06T08:47:31Z</time></trkpt>
<trkpt lat="43.784873988" lon="11.20595796"><ele>40</ele><time>2020-01-06T08:47:32Z</time></trkpt>
<trkpt lat="43.78489201" lon="11.205923008"><ele>40</ele><time>2020-01-06T08:47:33Z</time></trkpt>
<trkpt lat="43.784908019" lon="11.205887971"><ele>40</ele><time>2020-01-06T08:47:34Z</time></trkpt>
<trkpt lat="43.784924028" lon="11.205853019"><ele>40</ele><time>2020-01-06T08:47:35Z</time></trkpt>
<trkpt lat="43.784939032" lon="11.205817983"><ele>40</ele><time>2020-01-06T08:47:36Z</time></trkpt>
<trkpt lat="43.784952024" lon="11.205784036"><ele>40</ele><time>2020-01-06T08:47:37Z</time></trkpt>
<trkpt lat="43.78496401" lon="11.205750005"><ele>40</ele><time>2020-01-06T08:47:38Z</time></trkpt>
<trkpt lat="43.78497499" lon="11.205714969"><ele>40</ele><time>2020-01-06T08:47:39Z</time></trkpt>
<trkpt lat="43.784983959" lon="11.205681022"><ele>40</ele><time>2020-01-06T08:47:40Z</time></trkpt>
<trkpt lat="43.784991" lon="11.20564498"><ele>40</ele><time>2020-01-06T08:47:41Z</time></trkpt>
<trkpt lat="43.784996029" lon="11.205609022"><ele>40</ele><time>2020-01-06T08:47:42Z</time></trkpt>
<trkpt lat="43.784998041" lon="11.205571974"><ele>40</ele><time>2020-01-06T08:47:43Z</time></trkpt>
<trkpt lat="43.784998963" lon="11.205534004"><ele>40</ele><time>2020-01-06T08:47:44Z</time></trkpt>
<trkpt lat="43.784997035" lon="11.205494022"><ele>40</ele><time>2020-01-06T08:47:45Z</time></trkpt>
<trkpt lat="43.784995023" lon="11.20545404"><ele>40</ele><time>2020-01-06T08:47:46Z</time></trkpt>
<trkpt lat="43.784996029" lon="11.205327976"><ele>39</ele><time>2020-01-06T08:47:49Z</time></trkpt>
<trkpt lat="43.785000974" lon="11.205285983"><ele>39</ele><time>2020-01-06T08:47:50Z</time></trkpt>
<trkpt lat="43.785009021" lon="11.20524399"><ele>39</ele><time>2020-01-06T08:47:51Z</time></trkpt>
<trkpt lat="43.785022013" lon="11.205200991"><ele>39</ele><time>2020-01-06T08:47:52Z</time></trkpt>
<trkpt lat="43.785037016" lon="11.205158997"><ele>39</ele><time>2020-01-06T08:47:53Z</time></trkpt>
<trkpt lat="43.785054032" lon="11.20511801"><ele>39</ele><time>2020-01-06T08:47:54Z</time></trkpt>
<trkpt lat="43.785072975" lon="11.205077022"><ele>39</ele><time>2020-01-06T08:47:55Z</time></trkpt>
<trkpt lat="43.785092002" lon="11.205037963"><ele>39</ele><time>2020-01-06T08:47:56Z</time></trkpt>
<trkpt lat="43.785112035" lon="11.204998987"><ele>38</ele><time>2020-01-06T08:47:57Z</time></trkpt>
<trkpt lat="43.785131983" lon="11.204962023"><ele>38</ele><time>2020-01-06T08:47:58Z</time></trkpt>
<trkpt lat="43.78515101" lon="11.20492598"><ele>38</ele><time>2020-01-06T08:47:59Z</time></trkpt>
<trkpt lat="43.785170037" lon="11.204891028"><ele>38</ele><time>2020-01-06T08:48:00Z</time></trkpt>
<trkpt lat="43.785222005" lon="11.20478902"><ele>38</ele><time>2020-01-06T08:48:03Z</time></trkpt>
<trkpt lat="43.78523902" lon="11.204752978"><ele>38</ele><time>2020-01-06T08:48:04Z</time></trkpt>
<trkpt lat="43.785256036" lon="11.20471702"><ele>38</ele><time>2020-01-06T08:48:05Z</time></trkpt>
<trkpt lat="43.785272967" lon="11.204678966"><ele>38</ele><time>2020-01-06T08:48:06Z</time></trkpt>
<trkpt lat="43.785290988" lon="11.20463999"><ele>38</ele><time>2020-01-06T08:48:07Z</time></trkpt>
<trkpt lat="43.785308003" lon="11.204599002"><ele>38</ele><time>2020-01-06T08:48:08Z</time></trkpt>
<trkpt lat="43.785326025" lon="11.204558015"><ele>38</ele><time>2020-01-06T08:48:09Z</time></trkpt>
<trkpt lat="43.785343962" lon="11.204517027"><ele>38</ele><time>2020-01-06T08:48:10Z</time></trkpt>
<trkpt lat="43.785360977" lon="11.204476962"><ele>38</ele><time>2020-01-06T08:48:11Z</time></trkpt>
<trkpt lat="43.785378998" lon="11.204435974"><ele>38</ele><time>2020-01-06T08:48:12Z</time></trkpt>
<trkpt lat="43.785396013" lon="11.204396999"><ele>38</ele><time>2020-01-06T08:48:13Z</time></trkpt>
<trkpt lat="43.785414035" lon="11.204360034"><ele>38</ele><time>2020-01-06T08:48:14Z</time></trkpt>
<trkpt lat="43.785430966" lon="11.204322986"><ele>39</ele><time>2020-01-06T08:48:15Z</time></trkpt>
<trkpt lat="43.785447981" lon="11.204287028"><ele>39</ele><time>2020-01-06T08:48:16Z</time></trkpt>
<trkpt lat="43.785464996" lon="11.204251992"><ele>39</ele><time>2020-01-06T08:48:17Z</time></trkpt>
<trkpt lat="43.785482012" lon="11.204217039"><ele>39</ele><time>2020-01-06T08:48:18Z</time></trkpt>
<trkpt lat="43.785499027" lon="11.204182003"><ele>39</ele><time>2020-01-06T08:48:19Z</time></trkpt>
<trkpt lat="43.785515036" lon="11.204146966"><ele>39</ele><time>2020-01-06T08:48:20Z</time></trkpt>
<trkpt lat="43.785531968" lon="11.204111008"><ele>39</ele><time>2020-01-06T08:48:21Z</time></trkpt>
<trkpt lat="43.785548983" lon="11.204074966"><ele>39</ele><time>2020-01-06T08:48:22Z</time></trkpt>
<trkpt lat="43.785565998" lon="11.204038002"><ele>39</ele><time>2020-01-06T08:48:23Z</time></trkpt>
<trkpt lat="43.785583014" lon="11.204001037"><ele>39</ele><time>2020-01-06T08:48:24Z</time></trkpt>
<trkpt lat="43.785599023" lon="11.203962984"><ele>39</ele><time>2020-01-06T08:48:25Z</time></trkpt>
<trkpt lat="43.785616038" lon="11.203925014"><ele>39</ele><time>2020-01-06T08:48:26Z</time></trkpt>
<trkpt lat="43.78563297" lon="11.203886038"><ele>39</ele><time>2020-01-06T08:48:27Z</time></trkpt>
<trkpt lat="43.785649985" lon="11.203847984"><ele>39</ele><time>2020-01-06T08:48:28Z</time></trkpt>
<trkpt lat="43.785667" lon="11.203809008"><ele>39</ele><time>2020-01-06T08:48:29Z</time></trkpt>
<trkpt lat="43.785717962" lon="11.203689985"><ele>39</ele><time>2020-01-06T08:48:32Z</time></trkpt>
<trkpt lat="43.785734978" lon="11.203651009"><ele>39</ele><time>2020-01-06T08:48:33Z</time></trkpt>
<trkpt lat="43.785751993" lon="11.203611027"><ele>39</ele><time>2020-01-06T08:48:34Z</time></trkpt>
<trkpt lat="43.785769008" lon="11.203571968"><ele>39</ele><time>2020-01-06T08:48:35Z</time></trkpt>
<trkpt lat="43.785786023" lon="11.203531986"><ele>40</ele><time>2020-01-06T08:48:36Z</time></trkpt>
<trkpt lat="43.785803961" lon="11.20349301"><ele>40</ele><time>2020-01-06T08:48:37Z</time></trkpt>
<trkpt lat="43.785820976" lon="11.203454034"><ele>40</ele><time>2020-01-06T08:48:38Z</time></trkpt>
<trkpt lat="43.785838997" lon="11.203414975"><ele>40</ele><time>2020-01-06T08:48:39Z</time></trkpt>
<trkpt lat="43.785856012" lon="11.203375999"><ele>40</ele><time>2020-01-06T08:48:40Z</time></trkpt>
<trkpt lat="43.785874033" lon="11.203337023"><ele>40</ele><time>2020-01-06T08:48:41Z</time></trkpt>
<trkpt lat="43.785891971" lon="11.203297963"><ele>40</ele><time>2020-01-06T08:48:42Z</time></trkpt>
<trkpt lat="43.785908986" lon="11.203259993"><ele>40</ele><time>2020-01-06T08:48:43Z</time></trkpt>
<trkpt lat="43.785927007" lon="11.203221017"><ele>40</ele><time>2020-01-06T08:48:44Z</time></trkpt>
<trkpt lat="43.785945028" lon="11.203182964"><ele>40</ele><time>2020-01-06T08:48:45Z</time></trkpt>
<trkpt lat="43.78596196" lon="11.203144994"><ele>40</ele><time>2020-01-06T08:48:46Z</time></trkpt>
<trkpt lat="43.785979981" lon="11.203108029"><ele>40</ele><time>2020-01-06T08:48:47Z</time></trkpt>
<trkpt lat="43.785998002" lon="11.203069976"><ele>40</ele><time>2020-01-06T08:48:48Z</time></trkpt>
<trkpt lat="43.786016023" lon="11.203033011"><ele>40</ele><time>2020-01-06T08:48:49Z</time></trkpt>
<trkpt lat="43.786033038" lon="11.202995963"><ele>40</ele><time>2020-01-06T08:48:50Z</time></trkpt>
<trkpt lat="43.786050975" lon="11.202960005"><ele>40</ele><time>2020-01-06T08:48:51Z</time></trkpt>
<trkpt lat="43.786067991" lon="11.202923963"><ele>40</ele><time>2020-01-06T08:48:52Z</time></trkpt>
<trkpt lat="43.786086012" lon="11.202886999"><ele>40</ele><time>2020-01-06T08:48:53Z</time></trkpt>
<trkpt lat="43.786103027" lon="11.20285104"><ele>40</ele><time>2020-01-06T08:48:54Z</time></trkpt>
<trkpt lat="43.786120964" lon="11.202814998"><ele>40</ele><time>2020-01-06T08:48:55Z</time></trkpt>
<trkpt lat="43.786137979" lon="11.202778034"><ele>40</ele><time>2020-01-06T08:48:56Z</time></trkpt>
<trkpt lat="43.786154995" lon="11.202741992"><ele>40</ele><time>2020-01-06T08:48:57Z</time></trkpt>
<trkpt lat="43.78617201" lon="11.202705028"><ele>40</ele><time>2020-01-06T08:48:58Z</time></trkpt>
<trkpt lat="43.786189025" lon="11.202668985"><ele>40</ele><time>2020-01-06T08:48:59Z</time></trkpt>
<trkpt lat="43.786205035" lon="11.202632021"><ele>40</ele><time>2020-01-06T08:49:00Z</time></trkpt>
<trkpt lat="43.786221966" lon="11.202593967"><ele>40</ele><time>2020-01-06T08:49:01Z</time></trkpt>
<trkpt lat="43.786237976" lon="11.202555997"><ele>40</ele><time>2020-01-06T08:49:02Z</time></trkpt>
<trkpt lat="43.786253985" lon="11.202518027"><ele>40</ele><time>2020-01-06T08:49:03Z</time></trkpt>
<trkpt lat="43.786269994" lon="11.202478968"><ele>40</ele><time>2020-01-06T08:49:04Z</time></trkpt>
<trkpt lat="43.786284998" lon="11.202439992"><ele>40</ele><time>2020-01-06T08:49:05Z</time></trkpt>
<trkpt lat="43.786300002" lon="11.20240001"><ele>40</ele><time>2020-01-06T08:49:06Z</time></trkpt>
<trkpt lat="43.786315005" lon="11.202360028"><ele>40</ele><time>2020-01-06T08:49:07Z</time></trkpt>
<trkpt lat="43.786331015" lon="11.202319041"><ele>40</ele><time>2020-01-06T08:49:08Z</time></trkpt>
<trkpt lat="43.786345012" lon="11.20227797"><ele>40</ele><time>2020-01-06T08:49:09Z</time></trkpt>
<trkpt lat="43.786360016" lon="11.202236982"><ele>40</ele><time>2020-01-06T08:49:10Z</time></trkpt>
<trkpt lat="43.78637502" lon="11.202195995"><ele>40</ele><time>2020-01-06T08:49:11Z</time></trkpt>
<trkpt lat="43.786390023" lon="11.202154001"><ele>40</ele><time>2020-01-06T08:49:12Z</time></trkpt>
<trkpt lat="43.786406033" lon="11.202113014"><ele>40</ele><time>2020-01-06T08:49:13Z</time></trkpt>
<trkpt lat="43.786421036" lon="11.202072026"><ele>40</ele><time>2020-01-06T08:49:14Z</time></trkpt>
<trkpt lat="43.78643604" lon="11.202031039"><ele>40</ele><time>2020-01-06T08:49:15Z</time></trkpt>
<trkpt lat="43.786451966" lon="11.201989967"><ele>40</ele><time>2020-01-06T08:49:16Z</time></trkpt>
<trkpt lat="43.786467975" lon="11.20194898"><ele>40</ele><time>2020-01-06T08:49:17Z</time></trkpt>
<trkpt lat="43.786483984" lon="11.201908998"><ele>40</ele><time>2020-01-06T08:49:18Z</time></trkpt>
<trkpt lat="43.786501" lon="11.201869017"><ele>41</ele><time>2020-01-06T08:49:19Z</time></trkpt>
<trkpt lat="43.786518015" lon="11.201830041"><ele>41</ele><time>2020-01-06T08:49:20Z</time></trkpt>
<trkpt lat="43.786536036" lon="11.201790981"><ele>41</ele><time>2020-01-06T08:49:21Z</time></trkpt>
<trkpt lat="43.786553973" lon="11.201752005"><ele>41</ele><time>2020-01-06T08:49:22Z</time></trkpt>
<trkpt lat="43.786571994" lon="11.201714035"><ele>41</ele><time>2020-01-06T08:49:23Z</time></trkpt>
<trkpt lat="43.786590016" lon="11.201675981"><ele>41</ele><time>2020-01-06T08:49:24Z</time></trkpt>
<trkpt lat="43.786608959" lon="11.201638011"><ele>41</ele><time>2020-01-06T08:49:25Z</time></trkpt>
<trkpt lat="43.78662698" lon="11.201600041"><ele>41</ele><time>2020-01-06T08:49:26Z</time></trkpt>
<trkpt lat="43.786646007" lon="11.201562993"><ele>41</ele><time>2020-01-06T08:49:27Z</time></trkpt>
<trkpt lat="43.786665034" lon="11.201525023"><ele>41</ele><time>2020-01-06T08:49:28Z</time></trkpt>
<trkpt lat="43.786683977" lon="11.201486969"><ele>41</ele><time>2020-01-06T08:49:29Z</time></trkpt>
<trkpt lat="43.786701998" lon="11.201448999"><ele>40</ele><time>2020-01-06T08:49:30Z</time></trkpt>
<trkpt lat="43.786721025" lon="11.201411029"><ele>40</ele><time>2020-01-06T08:49:31Z</time></trkpt>
<trkpt lat="43.786738962" lon="11.201372975"><ele>40</ele><time>2020-01-06T08:49:32Z</time></trkpt>
<trkpt lat="43.786757989" lon="11.201334"><ele>40</ele><time>2020-01-06T08:49:33Z</time></trkpt>
<trkpt lat="43.78677601" lon="11.201295024"><ele>40</ele><time>2020-01-06T08:49:34Z</time></trkpt>
<trkpt lat="43.786794031" lon="11.201254958"><ele>40</ele><time>2020-01-06T08:49:35Z</time></trkpt>
<trkpt lat="43.786810962" lon="11.201214977"><ele>39</ele><time>2020-01-06T08:49:36Z</time></trkpt>
<trkpt lat="43.786827978" lon="11.201174995"><ele>39</ele><time>2020-01-06T08:49:37Z</time></trkpt>
<trkpt lat="43.786844993" lon="11.201135013"><ele>39</ele><time>2020-01-06T08:49:38Z</time></trkpt>
<trkpt lat="43.786862008" lon="11.201094026"><ele>39</ele><time>2020-01-06T08:49:39Z</time></trkpt>
<trkpt lat="43.786879024" lon="11.201053038"><ele>39</ele><time>2020-01-06T08:49:40Z</time></trkpt>
<trkpt lat="43.786896039" lon="11.201012973"><ele>39</ele><time>2020-01-06T08:49:41Z</time></trkpt>
<trkpt lat="43.78691297" lon="11.200971985"><ele>39</ele><time>2020-01-06T08:49:42Z</time></trkpt>
<trkpt lat="43.786929986" lon="11.200932004"><ele>39</ele><time>2020-01-06T08:49:43Z</time></trkpt>
<trkpt lat="43.786945995" lon="11.200892022"><ele>38</ele><time>2020-01-06T08:49:44Z</time></trkpt>
<trkpt lat="43.78696301" lon="11.20085204"><ele>38</ele><time>2020-01-06T08:49:45Z</time></trkpt>
<trkpt lat="43.786980025" lon="11.200812981"><ele>38</ele><time>2020-01-06T08:49:46Z</time></trkpt>
<trkpt lat="43.786997041" lon="11.200774005"><ele>38</ele><time>2020-01-06T08:49:47Z</time></trkpt>
<trkpt lat="43.787014978" lon="11.200736035"><ele>38</ele><time>2020-01-06T08:49:48Z</time></trkpt>
<trkpt lat="43.787031993" lon="11.200697981"><ele>38</ele><time>2020-01-06T08:49:49Z</time></trkpt>
<trkpt lat="43.787050014" lon="11.200661017"><ele>38</ele><time>2020-01-06T08:49:50Z</time></trkpt>
<trkpt lat="43.787068035" lon="11.200623969"><ele>38</ele><time>2020-01-06T08:49:51Z</time></trkpt>
<trkpt lat="43.787084967" lon="11.20058801"><ele>38</ele><time>2020-01-06T08:49:52Z</time></trkpt>
<trkpt lat="43.787102988" lon="11.200550962"><ele>39</ele><time>2020-01-06T08:49:53Z</time></trkpt>
<trkpt lat="43.787121009" lon="11.200515004"><ele>39</ele><time>2020-01-06T08:49:54Z</time></trkpt>
<trkpt lat="43.78713903" lon="11.20047804"><ele>39</ele><time>2020-01-06T08:49:55Z</time></trkpt>
<trkpt lat="43.787155962" lon="11.200440992"><ele>39</ele><time>2020-01-06T08:49:56Z</time></trkpt>
<trkpt lat="43.787173983" lon="11.200403022"><ele>39</ele><time>2020-01-06T08:49:57Z</time></trkpt>
<trkpt lat="43.787190998" lon="11.200363962"><ele>39</ele><time>2020-01-06T08:49:58Z</time></trkpt>
<trkpt lat="43.787207007" lon="11.200325992"><ele>39</ele><time>2020-01-06T08:49:59Z</time></trkpt>
<trkpt lat="43.787224023" lon="11.200287016"><ele>39</ele><time>2020-01-06T08:50:00Z</time></trkpt>
<trkpt lat="43.787241038" lon="11.200247034"><ele>39</ele><time>2020-01-06T08:50:01Z</time></trkpt>
<trkpt lat="43.787256964" lon="11.200207975"><ele>39</ele><time>2020-01-06T08:50:02Z</time></trkpt>
<trkpt lat="43.787273979" lon="11.200168999"><ele>39</ele><time>2020-01-06T08:50:03Z</time></trkpt>
<trkpt lat="43.787290994" lon="11.200130023"><ele>39</ele><time>2020-01-06T08:50:04Z</time></trkpt>
<trkpt lat="43.787307004" lon="11.200090963"><ele>39</ele><time>2020-01-06T08:50:05Z</time></trkpt>
<trkpt lat="43.787324019" lon="11.200051988"><ele>39</ele><time>2020-01-06T08:50:06Z</time></trkpt>
<trkpt lat="43.787340028" lon="11.200013012"><ele>39</ele><time>2020-01-06T08:50:07Z</time></trkpt>
<trkpt lat="43.78735696" lon="11.199974036"><ele>39</ele><time>2020-01-06T08:50:08Z</time></trkpt>
<trkpt lat="43.787372969" lon="11.199935982"><ele>39</ele><time>2020-01-06T08:50:09Z</time></trkpt>
<trkpt lat="43.787389984" lon="11.199897006"><ele>39</ele><time>2020-01-06T08:50:10Z</time></trkpt>
<trkpt lat="43.787407" lon="11.19985803"><ele>40</ele><time>2020-01-06T08:50:11Z</time></trkpt>
<trkpt lat="43.787423009" lon="11.199819976"><ele>40</ele><time>2020-01-06T08:50:12Z</time></trkpt>
<trkpt lat="43.787440024" lon="11.199782006"><ele>40</ele><time>2020-01-06T08:50:13Z</time></trkpt>
<trkpt lat="43.78745704" lon="11.199743031"><ele>40</ele><time>2020-01-06T08:50:14Z</time></trkpt>
<trkpt lat="43.787472965" lon="11.199704977"><ele>40</ele><time>2020-01-06T08:50:15Z</time></trkpt>
<trkpt lat="43.78748998" lon="11.199666001"><ele>40</ele><time>2020-01-06T08:50:16Z</time></trkpt>
<trkpt lat="43.787506996" lon="11.199628031"><ele>40</ele><time>2020-01-06T08:50:17Z</time></trkpt>
<trkpt lat="43.787524011" lon="11.199589977"><ele>40</ele><time>2020-01-06T08:50:18Z</time></trkpt>
<trkpt lat="43.787541026" lon="11.199551001"><ele>40</ele><time>2020-01-06T08:50:19Z</time></trkpt>
<trkpt lat="43.787558042" lon="11.199513031"><ele>40</ele><time>2020-01-06T08:50:20Z</time></trkpt>
<trkpt lat="43.787574973" lon="11.199474977"><ele>40</ele><time>2020-01-06T08:50:21Z</time></trkpt>
<trkpt lat="43.787591988" lon="11.199437007"><ele>40</ele><time>2020-01-06T08:50:22Z</time></trkpt>
<trkpt lat="43.787610009" lon="11.199399037"><ele>40</ele><time>2020-01-06T08:50:23Z</time></trkpt>
<trkpt lat="43.787627025" lon="11.199360983"><ele>40</ele><time>2020-01-06T08:50:24Z</time></trkpt>
<trkpt lat="43.787644962" lon="11.199325025"><ele>41</ele><time>2020-01-06T08:50:25Z</time></trkpt>
<trkpt lat="43.787661977" lon="11.199287977"><ele>41</ele><time>2020-01-06T08:50:26Z</time></trkpt>
<trkpt lat="43.787679998" lon="11.199252019"><ele>41</ele><time>2020-01-06T08:50:27Z</time></trkpt>
<trkpt lat="43.787699025" lon="11.199216982"><ele>41</ele><time>2020-01-06T08:50:28Z</time></trkpt>
<trkpt lat="43.787716962" lon="11.19918203"><ele>41</ele><time>2020-01-06T08:50:29Z</time></trkpt>
<trkpt lat="43.787734983" lon="11.199146993"><ele>41</ele><time>2020-01-06T08:50:30Z</time></trkpt>
<trkpt lat="43.787753005" lon="11.199112041"><ele>41</ele><time>2020-01-06T08:50:31Z</time></trkpt>
<trkpt lat="43.787771026" lon="11.199077005"><ele>40</ele><time>2020-01-06T08:50:32Z</time></trkpt>
<trkpt lat="43.787788963" lon="11.199041968"><ele>40</ele><time>2020-01-06T08:50:33Z</time></trkpt>
<trkpt lat="43.787805978" lon="11.19900601"><ele>40</ele><time>2020-01-06T08:50:34Z</time></trkpt>
<trkpt lat="43.787822993" lon="11.198970973"><ele>40</ele><time>2020-01-06T08:50:35Z</time></trkpt>
<trkpt lat="43.787840009" lon="11.198935015"><ele>40</ele><time>2020-01-06T08:50:36Z</time></trkpt>
<trkpt lat="43.787857024" lon="11.198897967"><ele>40</ele><time>2020-01-06T08:50:37Z</time></trkpt>
<trkpt lat="43.787873033" lon="11.198862009"><ele>40</ele><time>2020-01-06T08:50:38Z</time></trkpt>
<trkpt lat="43.787889965" lon="11.198824961"><ele>40</ele><time>2020-01-06T08:50:39Z</time></trkpt>
<trkpt lat="43.787905974" lon="11.198786991"><ele>40</ele><time>2020-01-06T08:50:40Z</time></trkpt>
<trkpt lat="43.78792299" lon="11.198750027"><ele>40</ele><time>2020-01-06T08:50:41Z</time></trkpt>
<trkpt lat="43.787938999" lon="11.198711973"><ele>39</ele><time>2020-01-06T08:50:42Z</time></trkpt>
<trkpt lat="43.787955008" lon="11.198674003"><ele>39</ele><time>2020-01-06T08:50:43Z</time></trkpt>
<trkpt lat="43.787971018" lon="11.198635027"><ele>39</ele><time>2020-01-06T08:50:44Z</time></trkpt>
<trkpt lat="43.787987027" lon="11.198595967"><ele>39</ele><time>2020-01-06T08:50:45Z</time></trkpt>
<trkpt lat="43.788003037" lon="11.198556991"><ele>39</ele><time>2020-01-06T08:50:46Z</time></trkpt>
<trkpt lat="43.788019968" lon="11.19851701"><ele>39</ele><time>2020-01-06T08:50:47Z</time></trkpt>
<trkpt lat="43.788035978" lon="11.198477028"><ele>39</ele><time>2020-01-06T08:50:48Z</time></trkpt>
<trkpt lat="43.788052993" lon="11.198437968"><ele>39</ele><time>2020-01-06T08:50:49Z</time></trkpt>
<trkpt lat="43.788070008" lon="11.198398992"><ele>39</ele><time>2020-01-06T08:50:50Z</time></trkpt>
<trkpt lat="43.788088029" lon="11.198362028"><ele>39</ele><time>2020-01-06T08:50:51Z</time></trkpt>
<trkpt lat="43.788105967" lon="11.198327998"><ele>39</ele><time>2020-01-06T08:50:52Z</time></trkpt>
<trkpt lat="43.788124993" lon="11.198294973"><ele>39</ele><time>2020-01-06T08:50:53Z</time></trkpt>
<trkpt lat="43.78814402" lon="11.198262032"><ele>39</ele><time>2020-01-06T08:50:54Z</time></trkpt>
<trkpt lat="43.788162963" lon="11.198229007"><ele>39</ele><time>2020-01-06T08:50:55Z</time></trkpt>
<trkpt lat="43.788182996" lon="11.198194977"><ele>38</ele><time>2020-01-06T08:50:56Z</time></trkpt>
<trkpt lat="43.788202023" lon="11.198160024"><ele>38</ele><time>2020-01-06T08:50:57Z</time></trkpt>
<trkpt lat="43.788220966" lon="11.198123982"><ele>38</ele><time>2020-01-06T08:50:58Z</time></trkpt>
<trkpt lat="43.788239993" lon="11.198087018"><ele>38</ele><time>2020-01-06T08:50:59Z</time></trkpt>
<trkpt lat="43.78825902" lon="11.19804997"><ele>38</ele><time>2020-01-06T08:51:00Z</time></trkpt>
<trkpt lat="43.788277963" lon="11.198012"><ele>38</ele><time>2020-01-06T08:51:01Z</time></trkpt>
<trkpt lat="43.78829699" lon="11.19797403"><ele>38</ele><time>2020-01-06T08:51:02Z</time></trkpt>
<trkpt lat="43.788316017" lon="11.197935976"><ele>38</ele><time>2020-01-06T08:51:03Z</time></trkpt>
<trkpt lat="43.78833496" lon="11.197899012"><ele>38</ele><time>2020-01-06T08:51:04Z</time></trkpt>
<trkpt lat="43.788352981" lon="11.197861964"><ele>37</ele><time>2020-01-06T08:51:05Z</time></trkpt>
<trkpt lat="43.788372008" lon="11.197823994"><ele>37</ele><time>2020-01-06T08:51:06Z</time></trkpt>
<trkpt lat="43.788390029" lon="11.19778703"><ele>37</ele><time>2020-01-06T08:51:07Z</time></trkpt>
<trkpt lat="43.788408972" lon="11.197749982"><ele>37</ele><time>2020-01-06T08:51:08Z</time></trkpt>
<trkpt lat="43.788426993" lon="11.197712012"><ele>37</ele><time>2020-01-06T08:51:09Z</time></trkpt>
<trkpt lat="43.788445015" lon="11.197674964"><ele>37</ele><time>2020-01-06T08:51:10Z</time></trkpt>
<trkpt lat="43.788463036" lon="11.197637999"><ele>37</ele><time>2020-01-06T08:51:11Z</time></trkpt>
<trkpt lat="43.788479967" lon="11.197601035"><ele>37</ele><time>2020-01-06T08:51:12Z</time></trkpt>
<trkpt lat="43.788497988" lon="11.197562981"><ele>37</ele><time>2020-01-06T08:51:13Z</time></trkpt>
<trkpt lat="43.788515003" lon="11.197526017"><ele>37</ele><time>2020-01-06T08:51:14Z</time></trkpt>
<trkpt lat="43.788533024" lon="11.197487963"><ele>37</ele><time>2020-01-06T08:51:15Z</time></trkpt>
<trkpt lat="43.78855004" lon="11.197449993"><ele>37</ele><time>2020-01-06T08:51:16Z</time></trkpt>
<trkpt lat="43.788566971" lon="11.197412023"><ele>37</ele><time>2020-01-06T08:51:17Z</time></trkpt>
<trkpt lat="43.788582981" lon="11.197373969"><ele>37</ele><time>2020-01-06T08:51:18Z</time></trkpt>
<trkpt lat="43.788599996" lon="11.197335999"><ele>37</ele><time>2020-01-06T08:51:19Z</time></trkpt>
<trkpt lat="43.788616005" lon="11.197297024"><ele>37</ele><time>2020-01-06T08:51:20Z</time></trkpt>
<trkpt lat="43.788633021" lon="11.19725897"><ele>37</ele><time>2020-01-06T08:51:21Z</time></trkpt>
<trkpt lat="43.78864903" lon="11.197219994"><ele>37</ele><time>2020-01-06T08:51:22Z</time></trkpt>
<trkpt lat="43.788665039" lon="11.197181018"><ele>37</ele><time>2020-01-06T08:51:23Z</time></trkpt>
<trkpt lat="43.788680965" lon="11.197141958"><ele>37</ele><time>2020-01-06T08:51:24Z</time></trkpt>
<trkpt lat="43.788696975" lon="11.197102983"><ele>37</ele><time>2020-01-06T08:51:25Z</time></trkpt>
<trkpt lat="43.788712984" lon="11.197064007"><ele>37</ele><time>2020-01-06T08:51:26Z</time></trkpt>
<trkpt lat="43.788728993" lon="11.197025031"><ele>37</ele><time>2020-01-06T08:51:27Z</time></trkpt>
<trkpt lat="43.788745003" lon="11.196985971"><ele>37</ele><time>2020-01-06T08:51:28Z</time></trkpt>
<trkpt lat="43.788761012" lon="11.196946995"><ele>37</ele><time>2020-01-06T08:51:29Z</time></trkpt>
<trkpt lat="43.788777022" lon="11.196908019"><ele>37</ele><time>2020-01-06T08:51:30Z</time></trkpt>
<trkpt lat="43.788793031" lon="11.196869966"><ele>37</ele><time>2020-01-06T08:51:31Z</time></trkpt>
<trkpt lat="43.788809041" lon="11.19683099"><ele>37</ele><time>2020-01-06T08:51:32Z</time></trkpt>
<trkpt lat="43.788824966" lon="11.196792014"><ele>37</ele><time>2020-01-06T08:51:33Z</time></trkpt>
<trkpt lat="43.788840976" lon="11.19675396"><ele>37</ele><time>2020-01-06T08:51:34Z</time></trkpt>
<trkpt lat="43.788856985" lon="11.19671599"><ele>37</ele><time>2020-01-06T08:51:35Z</time></trkpt>
<trkpt lat="43.788874" lon="11.196677014"><ele>37</ele><time>2020-01-06T08:51:36Z</time></trkpt>
<trkpt lat="43.788891016" lon="11.19663896"><ele>37</ele><time>2020-01-06T08:51:37Z</time></trkpt>
<trkpt lat="43.788907025" lon="11.19660099"><ele>38</ele><time>2020-01-06T08:51:38Z</time></trkpt>
<trkpt lat="43.78892404" lon="11.196564026"><ele>38</ele><time>2020-01-06T08:51:39Z</time></trkpt>
<trkpt lat="43.788941978" lon="11.196525972"><ele>38</ele><time>2020-01-06T08:51:40Z</time></trkpt>
<trkpt lat="43.788958993" lon="11.196489008"><ele>38</ele><time>2020-01-06T08:51:41Z</time></trkpt>
<trkpt lat="43.788977014" lon="11.196451038"><ele>38</ele><time>2020-01-06T08:51:42Z</time></trkpt>
<trkpt lat="43.788995035" lon="11.19641399"><ele>38</ele><time>2020-01-06T08:51:43Z</time></trkpt>
<trkpt lat="43.789012972" lon="11.196377026"><ele>38</ele><time>2020-01-06T08:51:44Z</time></trkpt>
<trkpt lat="43.789030993" lon="11.196340984"><ele>39</ele><time>2020-01-06T08:51:45Z</time></trkpt>
<trkpt lat="43.78905002" lon="11.19630402"><ele>39</ele><time>2020-01-06T08:51:46Z</time></trkpt>
<trkpt lat="43.789069969" lon="11.196267977"><ele>39</ele><time>2020-01-06T08:51:47Z</time></trkpt>
<trkpt lat="43.789088996" lon="11.196231013"><ele>39</ele><time>2020-01-06T08:51:48Z</time></trkpt>
<trkpt lat="43.789107017" lon="11.196194971"><ele>39</ele><time>2020-01-06T08:51:49Z</time></trkpt>
<trkpt lat="43.789125038" lon="11.196159013"><ele>39</ele><time>2020-01-06T08:51:50Z</time></trkpt>
<trkpt lat="43.789140964" lon="11.196121965"><ele>40</ele><time>2020-01-06T08:51:51Z</time></trkpt>
<trkpt lat="43.789155968" lon="11.196085"><ele>40</ele><time>2020-01-06T08:51:52Z</time></trkpt>
<trkpt lat="43.789168959" lon="11.196048036"><ele>40</ele><time>2020-01-06T08:51:53Z</time></trkpt>
<trkpt lat="43.789179018" lon="11.196010988"><ele>40</ele><time>2020-01-06T08:51:54Z</time></trkpt>
<trkpt lat="43.789186981" lon="11.195973018"><ele>40</ele><time>2020-01-06T08:51:55Z</time></trkpt>
<trkpt lat="43.78919201" lon="11.195934964"><ele>40</ele><time>2020-01-06T08:51:56Z</time></trkpt>
<trkpt lat="43.789196033" lon="11.195898"><ele>40</ele><time>2020-01-06T08:51:57Z</time></trkpt>
<trkpt lat="43.789198967" lon="11.195862042"><ele>40</ele><time>2020-01-06T08:51:58Z</time></trkpt>
<trkpt lat="43.78920299" lon="11.195828011"><ele>40</ele><time>2020-01-06T08:51:59Z</time></trkpt>
<trkpt lat="43.789207013" lon="11.195795992"><ele>40</ele><time>2020-01-06T08:52:00Z</time></trkpt>
<trkpt lat="43.789212964" lon="11.195766991"><ele>40</ele><time>2020-01-06T08:52:01Z</time></trkpt>
<trkpt lat="43.789222017" lon="11.195742013"><ele>40</ele><time>2020-01-06T08:52:02Z</time></trkpt>
<trkpt lat="43.789231991" lon="11.19572198"><ele>40</ele><time>2020-01-06T08:52:03Z</time></trkpt>
<trkpt lat="43.789243978" lon="11.195706977"><ele>40</ele><time>2020-01-06T08:52:04Z</time></trkpt>
<trkpt lat="43.789269961" lon="11.195698008"><ele>40</ele><time>2020-01-06T08:52:06Z</time></trkpt>
<trkpt lat="43.789283959" lon="11.195703037"><ele>39</ele><time>2020-01-06T08:52:07Z</time></trkpt>
<trkpt lat="43.789298963" lon="11.195711"><ele>39</ele><time>2020-01-06T08:52:08Z</time></trkpt>
<trkpt lat="43.789315978" lon="11.195719969"><ele>39</ele><time>2020-01-06T08:52:09Z</time></trkpt>
<trkpt lat="43.789335005" lon="11.195730027"><ele>39</ele><time>2020-01-06T08:52:10Z</time></trkpt>
<trkpt lat="43.789355038" lon="11.195738995"><ele>38</ele><time>2020-01-06T08:52:11Z</time></trkpt>
<trkpt lat="43.789374987" lon="11.195747964"><ele>38</ele><time>2020-01-06T08:52:12Z</time></trkpt>
<trkpt lat="43.789395019" lon="11.195756011"><ele>38</ele><time>2020-01-06T08:52:13Z</time></trkpt>
<trkpt lat="43.789414968" lon="11.195764979"><ele>37</ele><time>2020-01-06T08:52:14Z</time></trkpt>
<trkpt lat="43.789433995" lon="11.195774032"><ele>37</ele><time>2020-01-06T08:52:15Z</time></trkpt>
<trkpt lat="43.789451011" lon="11.195783"><ele>37</ele><time>2020-01-06T08:52:16Z</time></trkpt>
<trkpt lat="43.789466014" lon="11.195791969"><ele>36</ele><time>2020-01-06T08:52:17Z</time></trkpt>
<trkpt lat="43.789481018" lon="11.195803033"><ele>36</ele><time>2020-01-06T08:52:18Z</time></trkpt>
<trkpt lat="43.789497027" lon="11.195817031"><ele>36</ele><time>2020-01-06T08:52:19Z</time></trkpt>
<trkpt lat="43.789517982" lon="11.195835974"><ele>36</ele><time>2020-01-06T08:52:20Z</time></trkpt>
<trkpt lat="43.78954296" lon="11.195859024"><ele>35</ele><time>2020-01-06T08:52:21Z</time></trkpt>
<trkpt lat="43.789571961" lon="11.195885008"><ele>35</ele><time>2020-01-06T08:52:22Z</time></trkpt>
<trkpt lat="43.789601969" lon="11.195911998"><ele>34</ele><time>2020-01-06T08:52:23Z</time></trkpt>
<trkpt lat="43.789628958" lon="11.195936976"><ele>34</ele><time>2020-01-06T08:52:24Z</time></trkpt>
<trkpt lat="43.789653014" lon="11.19595902"><ele>33</ele><time>2020-01-06T08:52:25Z</time></trkpt>
<trkpt lat="43.789674975" lon="11.195979975"><ele>33</ele><time>2020-01-06T08:52:26Z</time></trkpt>
<trkpt lat="43.789699031" lon="11.196001014"><ele>33</ele><time>2020-01-06T08:52:27Z</time></trkpt>
<trkpt lat="43.789729038" lon="11.19602398"><ele>32</ele><time>2020-01-06T08:52:28Z</time></trkpt>
<trkpt lat="43.789766002" lon="11.196052982"><ele>32</ele><time>2020-01-06T08:52:29Z</time></trkpt>
<trkpt lat="43.78980699" lon="11.196082989"><ele>31</ele><time>2020-01-06T08:52:30Z</time></trkpt>
<trkpt lat="43.789846972" lon="11.196110984"><ele>30</ele><time>2020-01-06T08:52:31Z</time></trkpt>
<trkpt lat="43.789882008" lon="11.19613504"><ele>30</ele><time>2020-01-06T08:52:32Z</time></trkpt>
<trkpt lat="43.789913021" lon="11.196154989"><ele>30</ele><time>2020-01-06T08:52:33Z</time></trkpt>
<trkpt lat="43.789940011" lon="11.19617301"><ele>29</ele><time>2020-01-06T08:52:34Z</time></trkpt>
<trkpt lat="43.789964989" lon="11.19618902"><ele>29</ele><time>2020-01-06T08:52:35Z</time></trkpt>
<trkpt lat="43.789988961" lon="11.196205029"><ele>29</ele><time>2020-01-06T08:52:36Z</time></trkpt>
<trkpt lat="43.790015029" lon="11.196221961"><ele>29</ele><time>2020-01-06T08:52:37Z</time></trkpt>
<trkpt lat="43.790042019" lon="11.196241993"><ele>29</ele><time>2020-01-06T08:52:38Z</time></trkpt>
<trkpt lat="43.790072026" lon="11.19626496"><ele>29</ele><time>2020-01-06T08:52:39Z</time></trkpt>
<trkpt lat="43.790104967" lon="11.196291028"><ele>29</ele><time>2020-01-06T08:52:40Z</time></trkpt>
<trkpt lat="43.790140003" lon="11.196319023"><ele>29</ele><time>2020-01-06T08:52:41Z</time></trkpt>
<trkpt lat="43.790175961" lon="11.196346013"><ele>29</ele><time>2020-01-06T08:52:42Z</time></trkpt>
<trkpt lat="43.790212004" lon="11.196374008"><ele>30</ele><time>2020-01-06T08:52:43Z</time></trkpt>
<trkpt lat="43.790247962" lon="11.196398987"><ele>30</ele><time>2020-01-06T08:52:44Z</time></trkpt>
<trkpt lat="43.790282998" lon="11.196422037"><ele>30</ele><time>2020-01-06T08:52:45Z</time></trkpt>
<trkpt lat="43.790316023" lon="11.19644098"><ele>30</ele><time>2020-01-06T08:52:46Z</time></trkpt>
<trkpt lat="43.790347036" lon="11.196456989"><ele>30</ele><time>2020-01-06T08:52:47Z</time></trkpt>
<trkpt lat="43.790376037" lon="11.196469981"><ele>30</ele><time>2020-01-06T08:52:48Z</time></trkpt>
<trkpt lat="43.790404033" lon="11.196481967"><ele>30</ele><time>2020-01-06T08:52:49Z</time></trkpt>
<trkpt lat="43.790430017" lon="11.196493031"><ele>30</ele><time>2020-01-06T08:52:50Z</time></trkpt>
<trkpt lat="43.790453989" lon="11.196504012"><ele>30</ele><time>2020-01-06T08:52:51Z</time></trkpt>
<trkpt lat="43.790477961" lon="11.196514992"><ele>30</ele><time>2020-01-06T08:52:52Z</time></trkpt>
<trkpt lat="43.790500006" lon="11.196527984"><ele>30</ele><time>2020-01-06T08:52:53Z</time></trkpt>
<trkpt lat="43.79052096" lon="11.196542988"><ele>31</ele><time>2020-01-06T08:52:54Z</time></trkpt>
<trkpt lat="43.79058701" lon="11.19660099"><ele>31</ele><time>2020-01-06T08:52:57Z</time></trkpt>
<trkpt lat="43.790612994" lon="11.196624963"><ele>31</ele><time>2020-01-06T08:52:58Z</time></trkpt>
<trkpt lat="43.790643001" lon="11.19665103"><ele>31</ele><time>2020-01-06T08:52:59Z</time></trkpt>
<trkpt lat="43.790677032" lon="11.196679026"><ele>31</ele><time>2020-01-06T08:53:00Z</time></trkpt>
<trkpt lat="43.790717013" lon="11.196709033"><ele>31</ele><time>2020-01-06T08:53:01Z</time></trkpt>
<trkpt lat="43.790760012" lon="11.196739962"><ele>31</ele><time>2020-01-06T08:53:02Z</time></trkpt>
<trkpt lat="43.790877024" lon="11.196837025"><ele>32</ele><time>2020-01-06T08:53:05Z</time></trkpt>
<trkpt lat="43.790906025" lon="11.196868038"><ele>33</ele><time>2020-01-06T08:53:06Z</time></trkpt>
<trkpt lat="43.790929997" lon="11.196897039"><ele>33</ele><time>2020-01-06T08:53:07Z</time></trkpt>
<trkpt lat="43.790948018" lon="11.196925035"><ele>33</ele><time>2020-01-06T08:53:08Z</time></trkpt>
<trkpt lat="43.790962016" lon="11.196951019"><ele>33</ele><time>2020-01-06T08:53:09Z</time></trkpt>
<trkpt lat="43.790971991" lon="11.196974991"><ele>34</ele><time>2020-01-06T08:53:10Z</time></trkpt>
<trkpt lat="43.790981965" lon="11.196999969"><ele>34</ele><time>2020-01-06T08:53:11Z</time></trkpt>
<trkpt lat="43.790994035" lon="11.197026037"><ele>34</ele><time>2020-01-06T08:53:12Z</time></trkpt>
<trkpt lat="43.791009961" lon="11.197053026"><ele>34</ele><time>2020-01-06T08:53:13Z</time></trkpt>
<trkpt lat="43.791026976" lon="11.197083034"><ele>34</ele><time>2020-01-06T08:53:14Z</time></trkpt>
<trkpt lat="43.791043991" lon="11.197114969"><ele>35</ele><time>2020-01-06T08:53:15Z</time></trkpt>
<trkpt lat="43.791057989" lon="11.197150005"><ele>35</ele><time>2020-01-06T08:53:16Z</time></trkpt>
<trkpt lat="43.791069975" lon="11.197187975"><ele>35</ele><time>2020-01-06T08:53:17Z</time></trkpt>
<trkpt lat="43.791079028" lon="11.197227035"><ele>35</ele><time>2020-01-06T08:53:18Z</time></trkpt>
<trkpt lat="43.791085985" lon="11.197269028"><ele>35</ele><time>2020-01-06T08:53:19Z</time></trkpt>
<trkpt lat="43.791091014" lon="11.197313033"><ele>36</ele><time>2020-01-06T08:53:20Z</time></trkpt>
<trkpt lat="43.791095037" lon="11.19735796"><ele>36</ele><time>2020-01-06T08:53:21Z</time></trkpt>
<trkpt lat="43.791096965" lon="11.197403977"><ele>36</ele><time>2020-01-06T08:53:22Z</time></trkpt>
<trkpt lat="43.791097971" lon="11.197450999"><ele>36</ele><time>2020-01-06T08:53:23Z</time></trkpt>
<trkpt lat="43.791097971" lon="11.197499027"><ele>36</ele><time>2020-01-06T08:53:24Z</time></trkpt>
<trkpt lat="43.791097971" lon="11.197546972"><ele>37</ele><time>2020-01-06T08:53:25Z</time></trkpt>
<trkpt lat="43.791096965" lon="11.197596006"><ele>37</ele><time>2020-01-06T08:53:26Z</time></trkpt>
<trkpt lat="43.791095959" lon="11.197644034"><ele>37</ele><time>2020-01-06T08:53:27Z</time></trkpt>
<trkpt lat="43.791095037" lon="11.197691979"><ele>37</ele><time>2020-01-06T08:53:28Z</time></trkpt>
<trkpt lat="43.791094031" lon="11.197739001"><ele>37</ele><time>2020-01-06T08:53:29Z</time></trkpt>
<trkpt lat="43.791094031" lon="11.197785018"><ele>37</ele><time>2020-01-06T08:53:30Z</time></trkpt>
<trkpt lat="43.791095037" lon="11.197830029"><ele>38</ele><time>2020-01-06T08:53:31Z</time></trkpt>
<trkpt lat="43.791095959" lon="11.197874034"><ele>38</ele><time>2020-01-06T08:53:32Z</time></trkpt>
<trkpt lat="43.791097971" lon="11.197917033"><ele>38</ele><time>2020-01-06T08:53:33Z</time></trkpt>
<trkpt lat="43.791099982" lon="11.197959026"><ele>38</ele><time>2020-01-06T08:53:34Z</time></trkpt>
<trkpt lat="43.791101994" lon="11.198002025"><ele>38</ele><time>2020-01-06T08:53:35Z</time></trkpt>
<trkpt lat="43.791103" lon="11.198044019"><ele>39</ele><time>2020-01-06T08:53:36Z</time></trkpt>
<trkpt lat="43.791105011" lon="11.198086012"><ele>39</ele><time>2020-01-06T08:53:37Z</time></trkpt>
<trkpt lat="43.791105011" lon="11.198129011"><ele>39</ele><time>2020-01-06T08:53:38Z</time></trkpt>
<trkpt lat="43.791104006" lon="11.198258009"><ele>39</ele><time>2020-01-06T08:53:41Z</time></trkpt>
<trkpt lat="43.791103" lon="11.198301008"><ele>40</ele><time>2020-01-06T08:53:42Z</time></trkpt>
<trkpt lat="43.791101994" lon="11.198344007"><ele>40</ele><time>2020-01-06T08:53:43Z</time></trkpt>
<trkpt lat="43.791100988" lon="11.198388012"><ele>40</ele><time>2020-01-06T08:53:44Z</time></trkpt>
<trkpt lat="43.791099982" lon="11.198431011"><ele>40</ele><time>2020-01-06T08:53:45Z</time></trkpt>
<trkpt lat="43.791096965" lon="11.198471999"><ele>40</ele><time>2020-01-06T08:53:46Z</time></trkpt>
<trkpt lat="43.791091014" lon="11.198509969"><ele>40</ele><time>2020-01-06T08:53:47Z</time></trkpt>
<trkpt lat="43.791080033" lon="11.198542994"><ele>40</ele><time>2020-01-06T08:53:48Z</time></trkpt>
<trkpt lat="43.791063018" lon="11.198568977"><ele>40</ele><time>2020-01-06T08:53:49Z</time></trkpt>
<trkpt lat="43.791040974" lon="11.19858901"><ele>40</ele><time>2020-01-06T08:53:50Z</time></trkpt>
<trkpt lat="43.79101499" lon="11.198602002"><ele>40</ele><time>2020-01-06T08:53:51Z</time></trkpt>
<trkpt lat="43.790985988" lon="11.198608037"><ele>40</ele><time>2020-01-06T08:53:52Z</time></trkpt>
<trkpt lat="43.790955981" lon="11.198607031"><ele>40</ele><time>2020-01-06T08:53:53Z</time></trkpt>
<trkpt lat="43.790924968" lon="11.198603008"><ele>40</ele><time>2020-01-06T08:53:54Z</time></trkpt>
<trkpt lat="43.790893033" lon="11.198595967"><ele>40</ele><time>2020-01-06T08:53:55Z</time></trkpt>
<trkpt lat="43.790863026" lon="11.198590016"><ele>40</ele><time>2020-01-06T08:53:56Z</time></trkpt>
<trkpt lat="43.790833019" lon="11.198585993"><ele>40</ele><time>2020-01-06T08:53:57Z</time></trkpt>
<trkpt lat="43.790804017" lon="11.198583981"><ele>40</ele><time>2020-01-06T08:53:58Z</time></trkpt>
<trkpt lat="43.790775016" lon="11.198581969"><ele>40</ele><time>2020-01-06T08:53:59Z</time></trkpt>
<trkpt lat="43.790744003" lon="11.198580964"><ele>40</ele><time>2020-01-06T08:54:00Z</time></trkpt>
<trkpt lat="43.79071299" lon="11.198579036"><ele>41</ele><time>2020-01-06T08:54:01Z</time></trkpt>
<trkpt lat="43.790683988" lon="11.198577024"><ele>41</ele><time>2020-01-06T08:54:02Z</time></trkpt>
<trkpt lat="43.790658005" lon="11.198574007"><ele>41</ele><time>2020-01-06T08:54:03Z</time></trkpt>
<trkpt lat="43.790636966" lon="11.198571995"><ele>41</ele><time>2020-01-06T08:54:04Z</time></trkpt>
<trkpt lat="43.790618023" lon="11.198576018"><ele>41</ele><time>2020-01-06T08:54:05Z</time></trkpt>
<trkpt lat="43.790602013" lon="11.198592028"><ele>41</ele><time>2020-01-06T08:54:06Z</time></trkpt>
<trkpt lat="43.790591033" lon="11.198617006"><ele>41</ele><time>2020-01-06T08:54:07Z</time></trkpt>
<trkpt lat="43.79058701" lon="11.19865003"><ele>42</ele><time>2020-01-06T08:54:08Z</time></trkpt>
<trkpt lat="43.79058701" lon="11.198686995"><ele>42</ele><time>2020-01-06T08:54:09Z</time></trkpt>
<trkpt lat="43.79058701" lon="11.198727982"><ele>42</ele><time>2020-01-06T08:54:10Z</time></trkpt>
<trkpt lat="43.790586004" lon="11.19876897"><ele>42</ele><time>2020-01-06T08:54:11Z</time></trkpt>
<trkpt lat="43.790559014" lon="11.198890004"><ele>43</ele><time>2020-01-06T08:54:14Z</time></trkpt>
<trkpt lat="43.790549962" lon="11.198929986"><ele>43</ele><time>2020-01-06T08:54:15Z</time></trkpt>
<trkpt lat="43.790541999" lon="11.198969968"><ele>43</ele><time>2020-01-06T08:54:16Z</time></trkpt>
<trkpt lat="43.790534036" lon="11.199051021"><ele>44</ele><time>2020-01-06T08:54:18Z</time></trkpt>
<trkpt lat="43.790531019" lon="11.199092008"><ele>44</ele><time>2020-01-06T08:54:19Z</time></trkpt>
<trkpt lat="43.790530013" lon="11.19913199"><ele>44</ele><time>2020-01-06T08:54:20Z</time></trkpt>
<trkpt lat="43.790531019" lon="11.199172977"><ele>45</ele><time>2020-01-06T08:54:21Z</time></trkpt>
<trkpt lat="43.790532025" lon="11.199213965"><ele>45</ele><time>2020-01-06T08:54:22Z</time></trkpt>
<trkpt lat="43.790534036" lon="11.199255036"><ele>45</ele><time>2020-01-06T08:54:23Z</time></trkpt>
<trkpt lat="43.79053697" lon="11.199296024"><ele>45</ele><time>2020-01-06T08:54:24Z</time></trkpt>
<trkpt lat="43.790539987" lon="11.199337011"><ele>45</ele><time>2020-01-06T08:54:25Z</time></trkpt>
<trkpt lat="43.790544011" lon="11.199379005"><ele>44</ele><time>2020-01-06T08:54:26Z</time></trkpt>
<trkpt lat="43.790548034" lon="11.199419992"><ele>44</ele><time>2020-01-06T08:54:27Z</time></trkpt>
<trkpt lat="43.790551974" lon="11.199461985"><ele>44</ele><time>2020-01-06T08:54:28Z</time></trkpt>
<trkpt lat="43.790555997" lon="11.199503979"><ele>44</ele><time>2020-01-06T08:54:29Z</time></trkpt>
<trkpt lat="43.79056002" lon="11.199546978"><ele>44</ele><time>2020-01-06T08:54:30Z</time></trkpt>
<trkpt lat="43.79056396" lon="11.199588971"><ele>44</ele><time>2020-01-06T08:54:31Z</time></trkpt>
<trkpt lat="43.790566977" lon="11.19963197"><ele>44</ele><time>2020-01-06T08:54:32Z</time></trkpt>
<trkpt lat="43.790571" lon="11.19967497"><ele>44</ele><time>2020-01-06T08:54:33Z</time></trkpt>
<trkpt lat="43.790574018" lon="11.199718975"><ele>44</ele><time>2020-01-06T08:54:34Z</time></trkpt>
<trkpt lat="43.790577035" lon="11.199761974"><ele>44</ele><time>2020-01-06T08:54:35Z</time></trkpt>
<trkpt lat="43.790579969" lon="11.199805979"><ele>44</ele><time>2020-01-06T08:54:36Z</time></trkpt>
<trkpt lat="43.790589022" lon="11.199940005"><ele>44</ele><time>2020-01-06T08:54:39Z</time></trkpt>
<trkpt lat="43.790592039" lon="11.199985016"><ele>44</ele><time>2020-01-06T08:54:40Z</time></trkpt>
<trkpt lat="43.790594973" lon="11.200031033"><ele>44</ele><time>2020-01-06T08:54:41Z</time></trkpt>
<trkpt lat="43.79059799" lon="11.20007596"><ele>44</ele><time>2020-01-06T08:54:42Z</time></trkpt>
<trkpt lat="43.790601008" lon="11.200122982"><ele>44</ele><time>2020-01-06T08:54:43Z</time></trkpt>
<trkpt lat="43.790604025" lon="11.200168999"><ele>44</ele><time>2020-01-06T08:54:44Z</time></trkpt>
<trkpt lat="43.790606959" lon="11.200216021"><ele>44</ele><time>2020-01-06T08:54:45Z</time></trkpt>
<trkpt lat="43.790609976" lon="11.200262038"><ele>44</ele><time>2020-01-06T08:54:46Z</time></trkpt>
<trkpt lat="43.790612994" lon="11.200308977"><ele>44</ele><time>2020-01-06T08:54:47Z</time></trkpt>
<trkpt lat="43.790616011" lon="11.200354993"><ele>44</ele><time>2020-01-06T08:54:48Z</time></trkpt>
<trkpt lat="43.790619029" lon="11.200400004"><ele>44</ele><time>2020-01-06T08:54:49Z</time></trkpt>
<trkpt lat="43.79062104" lon="11.200445015"><ele>44</ele><time>2020-01-06T08:54:50Z</time></trkpt>
<trkpt lat="43.790623974" lon="11.200488014"><ele>44</ele><time>2020-01-06T08:54:51Z</time></trkpt>
<trkpt lat="43.790625986" lon="11.200531013"><ele>44</ele><time>2020-01-06T08:54:52Z</time></trkpt>
<trkpt lat="43.790627997" lon="11.200572001"><ele>44</ele><time>2020-01-06T08:54:53Z</time></trkpt>
<trkpt lat="43.790633027" lon="11.200694963"><ele>44</ele><time>2020-01-06T08:54:56Z</time></trkpt>
<trkpt lat="43.790635038" lon="11.20073704"><ele>44</ele><time>2020-01-06T08:54:57Z</time></trkpt>
<trkpt lat="43.79063596" lon="11.200779034"><ele>44</ele><time>2020-01-06T08:54:58Z</time></trkpt>
<trkpt lat="43.790637972" lon="11.200822033"><ele>44</ele><time>2020-01-06T08:54:59Z</time></trkpt>
<trkpt lat="43.790639983" lon="11.200865032"><ele>44</ele><time>2020-01-06T08:55:00Z</time></trkpt>
<trkpt lat="43.790640989" lon="11.200909959"><ele>44</ele><time>2020-01-06T08:55:01Z</time></trkpt>
<trkpt lat="43.790643001" lon="11.200955976"><ele>44</ele><time>2020-01-06T08:55:02Z</time></trkpt>
<trkpt lat="43.790644007" lon="11.201000987"><ele>44</ele><time>2020-01-06T08:55:03Z</time></trkpt>
<trkpt lat="43.790645013" lon="11.201048009"><ele>45</ele><time>2020-01-06T08:55:04Z</time></trkpt>
<trkpt lat="43.790646018" lon="11.201095032"><ele>45</ele><time>2020-01-06T08:55:05Z</time></trkpt>
<trkpt lat="43.790647024" lon="11.201140964"><ele>45</ele><time>2020-01-06T08:55:06Z</time></trkpt>
<trkpt lat="43.790647024" lon="11.201187987"><ele>45</ele><time>2020-01-06T08:55:07Z</time></trkpt>
<trkpt lat="43.790647024" lon="11.201235009"><ele>45</ele><time>2020-01-06T08:55:08Z</time></trkpt>
<trkpt lat="43.790647024" lon="11.201282032"><ele>45</ele><time>2020-01-06T08:55:09Z</time></trkpt>
<trkpt lat="43.790646018" lon="11.20132897"><ele>45</ele><time>2020-01-06T08:55:10Z</time></trkpt>
<trkpt lat="43.790645013" lon="11.201376999"><ele>46</ele><time>2020-01-06T08:55:11Z</time></trkpt>
<trkpt lat="43.790643001" lon="11.201424021"><ele>46</ele><time>2020-01-06T08:55:12Z</time></trkpt>
<trkpt lat="43.790640989" lon="11.20147096"><ele>46</ele><time>2020-01-06T08:55:13Z</time></trkpt>
<trkpt lat="43.790638978" lon="11.201517982"><ele>46</ele><time>2020-01-06T08:55:14Z</time></trkpt>
<trkpt lat="43.79063596" lon="11.201565005"><ele>46</ele><time>2020-01-06T08:55:15Z</time></trkpt>
<trkpt lat="43.790632021" lon="11.201612027"><ele>46</ele><time>2020-01-06T08:55:16Z</time></trkpt>
<trkpt lat="43.790620035" lon="11.201752005"><ele>47</ele><time>2020-01-06T08:55:19Z</time></trkpt>
<trkpt lat="43.790616011" lon="11.201799028"><ele>46</ele><time>2020-01-06T08:55:20Z</time></trkpt>
<trkpt lat="43.790610982" lon="11.20184496"><ele>46</ele><time>2020-01-06T08:55:21Z</time></trkpt>
<trkpt lat="43.790606037" lon="11.201891983"><ele>46</ele><time>2020-01-06T08:55:22Z</time></trkpt>
<trkpt lat="43.790600002" lon="11.201938"><ele>46</ele><time>2020-01-06T08:55:23Z</time></trkpt>
<trkpt lat="43.790594973" lon="11.201984016"><ele>46</ele><time>2020-01-06T08:55:24Z</time></trkpt>
<trkpt lat="43.790589022" lon="11.202030033"><ele>46</ele><time>2020-01-06T08:55:25Z</time></trkpt>
<trkpt lat="43.790583992" lon="11.20207496"><ele>46</ele><time>2020-01-06T08:55:26Z</time></trkpt>
<trkpt lat="43.790578041" lon="11.202119971"><ele>46</ele><time>2020-01-06T08:55:27Z</time></trkpt>
<trkpt lat="43.790572006" lon="11.202164982"><ele>46</ele><time>2020-01-06T08:55:28Z</time></trkpt>
<trkpt lat="43.790565971" lon="11.202209992"><ele>46</ele><time>2020-01-06T08:55:29Z</time></trkpt>
<trkpt lat="43.790561026" lon="11.202255003"><ele>46</ele><time>2020-01-06T08:55:30Z</time></trkpt>
<trkpt lat="43.790554991" lon="11.202299008"><ele>46</ele><time>2020-01-06T08:55:31Z</time></trkpt>
<trkpt lat="43.79054904" lon="11.202343013"><ele>46</ele><time>2020-01-06T08:55:32Z</time></trkpt>
<trkpt lat="43.790543005" lon="11.202387018"><ele>46</ele><time>2020-01-06T08:55:33Z</time></trkpt>
<trkpt lat="43.79053697" lon="11.202430017"><ele>46</ele><time>2020-01-06T08:55:34Z</time></trkpt>
<trkpt lat="43.790531019" lon="11.202474022"><ele>46</ele><time>2020-01-06T08:55:35Z</time></trkpt>
<trkpt lat="43.790524984" lon="11.202517021"><ele>46</ele><time>2020-01-06T08:55:36Z</time></trkpt>
<trkpt lat="43.790518027" lon="11.202560021"><ele>46</ele><time>2020-01-06T08:55:37Z</time></trkpt>
<trkpt lat="43.790511992" lon="11.20260302"><ele>46</ele><time>2020-01-06T08:55:38Z</time></trkpt>
<trkpt lat="43.790505035" lon="11.202646019"><ele>46</ele><time>2020-01-06T08:55:39Z</time></trkpt>
<trkpt lat="43.790497994" lon="11.202689018"><ele>46</ele><time>2020-01-06T08:55:40Z</time></trkpt>
<trkpt lat="43.790491037" lon="11.202732017"><ele>46</ele><time>2020-01-06T08:55:41Z</time></trkpt>
<trkpt lat="43.790483996" lon="11.202775016"><ele>46</ele><time>2020-01-06T08:55:42Z</time></trkpt>
<trkpt lat="43.790476033" lon="11.202819021"><ele>46</ele><time>2020-01-06T08:55:43Z</time></trkpt>
<trkpt lat="43.790467987" lon="11.202862021"><ele>46</ele><time>2020-01-06T08:55:44Z</time></trkpt>
<trkpt lat="43.790460024" lon="11.20290502"><ele>46</ele><time>2020-01-06T08:55:45Z</time></trkpt>
<trkpt lat="43.790451977" lon="11.202948019"><ele>46</ele><time>2020-01-06T08:55:46Z</time></trkpt>
<trkpt lat="43.790444015" lon="11.202992024"><ele>46</ele><time>2020-01-06T08:55:47Z</time></trkpt>
<trkpt lat="43.790435968" lon="11.203035023"><ele>46</ele><time>2020-01-06T08:55:48Z</time></trkpt>
<trkpt lat="43.79041099" lon="11.20316796"><ele>46</ele><time>2020-01-06T08:55:51Z</time></trkpt>
<trkpt lat="43.790402021" lon="11.203211965"><ele>46</ele><time>2020-01-06T08:55:52Z</time></trkpt>
<trkpt lat="43.790393975" lon="11.203256976"><ele>46</ele><time>2020-01-06T08:55:53Z</time></trkpt>
<trkpt lat="43.790386012" lon="11.203300981"><ele>46</ele><time>2020-01-06T08:55:54Z</time></trkpt>
<trkpt lat="43.790377965" lon="11.203345992"><ele>46</ele><time>2020-01-06T08:55:55Z</time></trkpt>
<trkpt lat="43.790370002" lon="11.203389997"><ele>46</ele><time>2020-01-06T08:55:56Z</time></trkpt>
<trkpt lat="43.79036204" lon="11.203432996"><ele>46</ele><time>2020-01-06T08:55:57Z</time></trkpt>
<trkpt lat="43.790353993" lon="11.203475995"><ele>46</ele><time>2020-01-06T08:55:58Z</time></trkpt>
<trkpt lat="43.790347036" lon="11.203517988"><ele>46</ele><time>2020-01-06T08:55:59Z</time></trkpt>
<trkpt lat="43.790339995" lon="11.203559982"><ele>46</ele><time>2020-01-06T08:56:00Z</time></trkpt>
<trkpt lat="43.790333038" lon="11.203600969"><ele>46</ele><time>2020-01-06T08:56:01Z</time></trkpt>
<trkpt lat="43.790325997" lon="11.20364204"><ele>46</ele><time>2020-01-06T08:56:02Z</time></trkpt>
<trkpt lat="43.79031904" lon="11.203683028"><ele>46</ele><time>2020-01-06T08:56:03Z</time></trkpt>
<trkpt lat="43.790312" lon="11.203724016"><ele>46</ele><time>2020-01-06T08:56:04Z</time></trkpt>
<trkpt lat="43.790304959" lon="11.203765003"><ele>46</ele><time>2020-01-06T08:56:05Z</time></trkpt>
<trkpt lat="43.790299008" lon="11.203805991"><ele>46</ele><time>2020-01-06T08:56:06Z</time></trkpt>
<trkpt lat="43.790291967" lon="11.203845972"><ele>46</ele><time>2020-01-06T08:56:07Z</time></trkpt>
<trkpt lat="43.790286016" lon="11.203887966"><ele>46</ele><time>2020-01-06T08:56:08Z</time></trkpt>
<trkpt lat="43.790278975" lon="11.203929037"><ele>46</ele><time>2020-01-06T08:56:09Z</time></trkpt>
<trkpt lat="43.790273024" lon="11.203970024"><ele>46</ele><time>2020-01-06T08:56:10Z</time></trkpt>
<trkpt lat="43.790266989" lon="11.204013024"><ele>46</ele><time>2020-01-06T08:56:11Z</time></trkpt>
<trkpt lat="43.790260032" lon="11.204055017"><ele>46</ele><time>2020-01-06T08:56:12Z</time></trkpt>
<trkpt lat="43.790253997" lon="11.204098016"><ele>46</ele><time>2020-01-06T08:56:13Z</time></trkpt>
<trkpt lat="43.790247962" lon="11.204142021"><ele>46</ele><time>2020-01-06T08:56:14Z</time></trkpt>
<trkpt lat="43.790242011" lon="11.204186026"><ele>46</ele><time>2020-01-06T08:56:15Z</time></trkpt>
<trkpt lat="43.79023497" lon="11.204230031"><ele>46</ele><time>2020-01-06T08:56:16Z</time></trkpt>
<trkpt lat="43.790229019" lon="11.204275042"><ele>45</ele><time>2020-01-06T08:56:17Z</time></trkpt>
<trkpt lat="43.790221978" lon="11.204319969"><ele>45</ele><time>2020-01-06T08:56:18Z</time></trkpt>
<trkpt lat="43.790214015" lon="11.20436498"><ele>45</ele><time>2020-01-06T08:56:19Z</time></trkpt>
<trkpt lat="43.790206974" lon="11.20440999"><ele>45</ele><time>2020-01-06T08:56:20Z</time></trkpt>
<trkpt lat="43.790181996" lon="11.204544017"><ele>45</ele><time>2020-01-06T08:56:23Z</time></trkpt>
<trkpt lat="43.790173028" lon="11.204589028"><ele>44</ele><time>2020-01-06T08:56:24Z</time></trkpt>
<trkpt lat="43.790162969" lon="11.204633033"><ele>44</ele><time>2020-01-06T08:56:25Z</time></trkpt>
<trkpt lat="43.790151989" lon="11.204677038"><ele>44</ele><time>2020-01-06T08:56:26Z</time></trkpt>
<trkpt lat="43.790141009" lon="11.204720037"><ele>44</ele><time>2020-01-06T08:56:27Z</time></trkpt>
<trkpt lat="43.790129023" lon="11.204763036"><ele>44</ele><time>2020-01-06T08:56:28Z</time></trkpt>
<trkpt lat="43.790116031" lon="11.20480503"><ele>44</ele><time>2020-01-06T08:56:29Z</time></trkpt>
<trkpt lat="43.790103039" lon="11.204847023"><ele>44</ele><time>2020-01-06T08:56:30Z</time></trkpt>
<trkpt lat="43.790089041" lon="11.20488801"><ele>44</ele><time>2020-01-06T08:56:31Z</time></trkpt>
<trkpt lat="43.790074959" lon="11.204930004"><ele>44</ele><time>2020-01-06T08:56:32Z</time></trkpt>
<trkpt lat="43.79006004" lon="11.204970991"><ele>44</ele><time>2020-01-06T08:56:33Z</time></trkpt>
<trkpt lat="43.790045036" lon="11.205011979"><ele>44</ele><time>2020-01-06T08:56:34Z</time></trkpt>
<trkpt lat="43.790030032" lon="11.205052966"><ele>44</ele><time>2020-01-06T08:56:35Z</time></trkpt>
<trkpt lat="43.790014023" lon="11.205094038"><ele>44</ele><time>2020-01-06T08:56:36Z</time></trkpt>
<trkpt lat="43.789999019" lon="11.205136031"><ele>44</ele><time>2020-01-06T08:56:37Z</time></trkpt>
<trkpt lat="43.78998301" lon="11.205177018"><ele>44</ele><time>2020-01-06T08:56:38Z</time></trkpt>
<trkpt lat="43.789935987" lon="11.20530501"><ele>44</ele><time>2020-01-06T08:56:41Z</time></trkpt>
<trkpt lat="43.789920984" lon="11.205348009"><ele>44</ele><time>2020-01-06T08:56:42Z</time></trkpt>
<trkpt lat="43.78990598" lon="11.205392014"><ele>44</ele><time>2020-01-06T08:56:43Z</time></trkpt>
<trkpt lat="43.789891982" lon="11.205436019"><ele>44</ele><time>2020-01-06T08:56:44Z</time></trkpt>
<trkpt lat="43.789876979" lon="11.205479018"><ele>44</ele><time>2020-01-06T08:56:45Z</time></trkpt>
<trkpt lat="43.789861975" lon="11.205523023"><ele>44</ele><time>2020-01-06T08:56:46Z</time></trkpt>
<trkpt lat="43.789816964" lon="11.205647998"><ele>44</ele><time>2020-01-06T08:56:49Z</time></trkpt>
<trkpt lat="43.789801039" lon="11.205687979"><ele>44</ele><time>2020-01-06T08:56:50Z</time></trkpt>
<trkpt lat="43.789786035" lon="11.205726033"><ele>44</ele><time>2020-01-06T08:56:51Z</time></trkpt>
<trkpt lat="43.789770026" lon="11.205764003"><ele>44</ele><time>2020-01-06T08:56:52Z</time></trkpt>
<trkpt lat="43.789754016" lon="11.205800967"><ele>44</ele><time>2020-01-06T08:56:53Z</time></trkpt>
<trkpt lat="43.789738007" lon="11.205838015"><ele>44</ele><time>2020-01-06T08:56:54Z</time></trkpt>
<trkpt lat="43.789721997" lon="11.205875985"><ele>44</ele><time>2020-01-06T08:56:55Z</time></trkpt>
<trkpt lat="43.789706994" lon="11.205913033"><ele>44</ele><time>2020-01-06T08:56:56Z</time></trkpt>
<trkpt lat="43.789690984" lon="11.205952009"><ele>44</ele><time>2020-01-06T08:56:57Z</time></trkpt>
<trkpt lat="43.789675981" lon="11.205990985"><ele>44</ele><time>2020-01-06T08:56:58Z</time></trkpt>
<trkpt lat="43.789659971" lon="11.206030967"><ele>44</ele><time>2020-01-06T08:56:59Z</time></trkpt>
<trkpt lat="43.789644968" lon="11.206071032"><ele>44</ele><time>2020-01-06T08:57:00Z</time></trkpt>
<trkpt lat="43.789629964" lon="11.20611202"><ele>44</ele><time>2020-01-06T08:57:01Z</time></trkpt>
<trkpt lat="43.789614961" lon="11.206153007"><ele>44</ele><time>2020-01-06T08:57:02Z</time></trkpt>
<trkpt lat="43.789600041" lon="11.206193995"><ele>44</ele><time>2020-01-06T08:57:03Z</time></trkpt>
<trkpt lat="43.789585959" lon="11.206235988"><ele>44</ele><time>2020-01-06T08:57:04Z</time></trkpt>
<trkpt lat="43.789571039" lon="11.206277981"><ele>44</ele><time>2020-01-06T08:57:05Z</time></trkpt>
<trkpt lat="43.789556036" lon="11.206319975"><ele>44</ele><time>2020-01-06T08:57:06Z</time></trkpt>
<trkpt lat="43.789541032" lon="11.206361968"><ele>44</ele><time>2020-01-06T08:57:07Z</time></trkpt>
<trkpt lat="43.789527034" lon="11.206403961"><ele>44</ele><time>2020-01-06T08:57:08Z</time></trkpt>
<trkpt lat="43.789512031" lon="11.206445033"><ele>44</ele><time>2020-01-06T08:57:09Z</time></trkpt>
<trkpt lat="43.789497027" lon="11.206487026"><ele>44</ele><time>2020-01-06T08:57:10Z</time></trkpt>
<trkpt lat="43.789483029" lon="11.206528014"><ele>44</ele><time>2020-01-06T08:57:11Z</time></trkpt>
<trkpt lat="43.789468026" lon="11.206569001"><ele>44</ele><time>2020-01-06T08:57:12Z</time></trkpt>
<trkpt lat="43.789453022" lon="11.206608983"><ele>44</ele><time>2020-01-06T08:57:13Z</time></trkpt>
<trkpt lat="43.789439024" lon="11.20664997"><ele>44</ele><time>2020-01-06T08:57:14Z</time></trkpt>
<trkpt lat="43.789423015" lon="11.206690036"><ele>45</ele><time>2020-01-06T08:57:15Z</time></trkpt>
<trkpt lat="43.789408011" lon="11.206730017"><ele>45</ele><time>2020-01-06T08:57:16Z</time></trkpt>
<trkpt lat="43.789393008" lon="11.206769999"><ele>45</ele><time>2020-01-06T08:57:17Z</time></trkpt>
<trkpt lat="43.789343974" lon="11.206890028"><ele>45</ele><time>2020-01-06T08:57:20Z</time></trkpt>
<trkpt lat="43.789326958" lon="11.20693001"><ele>45</ele><time>2020-01-06T08:57:21Z</time></trkpt>
<trkpt lat="43.789310027" lon="11.206970997"><ele>46</ele><time>2020-01-06T08:57:22Z</time></trkpt>
<trkpt lat="43.789293012" lon="11.207011985"><ele>46</ele><time>2020-01-06T08:57:23Z</time></trkpt>
<trkpt lat="43.789275996" lon="11.207051966"><ele>46</ele><time>2020-01-06T08:57:24Z</time></trkpt>
<trkpt lat="43.789259987" lon="11.207093038"><ele>46</ele><time>2020-01-06T08:57:25Z</time></trkpt>
<trkpt lat="43.789244983" lon="11.207134025"><ele>46</ele><time>2020-01-06T08:57:26Z</time></trkpt>
<trkpt lat="43.789230986" lon="11.207175013"><ele>46</ele><time>2020-01-06T08:57:27Z</time></trkpt>
<trkpt lat="43.789216988" lon="11.207216"><ele>46</ele><time>2020-01-06T08:57:28Z</time></trkpt>
<trkpt lat="43.789203996" lon="11.207255982"><ele>47</ele><time>2020-01-06T08:57:29Z</time></trkpt>
<trkpt lat="43.789191004" lon="11.207296969"><ele>47</ele><time>2020-01-06T08:57:30Z</time></trkpt>
<trkpt lat="43.789178012" lon="11.207338041"><ele>47</ele><time>2020-01-06T08:57:31Z</time></trkpt>
<trkpt lat="43.78916502" lon="11.207378022"><ele>47</ele><time>2020-01-06T08:57:32Z</time></trkpt>
<trkpt lat="43.789152028" lon="11.20741901"><ele>47</ele><time>2020-01-06T08:57:33Z</time></trkpt>
<trkpt lat="43.78913803" lon="11.207458992"><ele>47</ele><time>2020-01-06T08:57:34Z</time></trkpt>
<trkpt lat="43.789124032" lon="11.207498973"><ele>47</ele><time>2020-01-06T08:57:35Z</time></trkpt>
<trkpt lat="43.789110035" lon="11.207538033"><ele>47</ele><time>2020-01-06T08:57:36Z</time></trkpt>
<trkpt lat="43.789094025" lon="11.207577009"><ele>47</ele><time>2020-01-06T08:57:37Z</time></trkpt>
<trkpt lat="43.789079022" lon="11.207615985"><ele>47</ele><time>2020-01-06T08:57:38Z</time></trkpt>
<trkpt lat="43.789063012" lon="11.207653033"><ele>47</ele><time>2020-01-06T08:57:39Z</time></trkpt>
<trkpt lat="43.789045997" lon="11.207689997"><ele>46</ele><time>2020-01-06T08:57:40Z</time></trkpt>
<trkpt lat="43.789027976" lon="11.207725033"><ele>46</ele><time>2020-01-06T08:57:41Z</time></trkpt>
<trkpt lat="43.789010039" lon="11.207759986"><ele>46</ele><time>2020-01-06T08:57:42Z</time></trkpt>
<trkpt lat="43.788992018" lon="11.207794016"><ele>46</ele><time>2020-01-06T08:57:43Z</time></trkpt>
<trkpt lat="43.788972991" lon="11.207827041"><ele>46</ele><time>2020-01-06T08:57:44Z</time></trkpt>
<trkpt lat="43.788953964" lon="11.207859982"><ele>46</ele><time>2020-01-06T08:57:45Z</time></trkpt>
<trkpt lat="43.788934015" lon="11.207892001"><ele>46</ele><time>2020-01-06T08:57:46Z</time></trkpt>
<trkpt lat="43.788913982" lon="11.20792402"><ele>46</ele><time>2020-01-06T08:57:47Z</time></trkpt>
<trkpt lat="43.788894033" lon="11.207956038"><ele>46</ele><time>2020-01-06T08:57:48Z</time></trkpt>
<trkpt lat="43.788874" lon="11.207987973"><ele>46</ele><time>2020-01-06T08:57:49Z</time></trkpt>
<trkpt lat="43.788852962" lon="11.208018987"><ele>46</ele><time>2020-01-06T08:57:50Z</time></trkpt>
<trkpt lat="43.788833013" lon="11.208051005"><ele>46</ele><time>2020-01-06T08:57:51Z</time></trkpt>
<trkpt lat="43.788811974" lon="11.20808403"><ele>46</ele><time>2020-01-06T08:57:52Z</time></trkpt>
<trkpt lat="43.788792025" lon="11.208115965"><ele>46</ele><time>2020-01-06T08:57:53Z</time></trkpt>
<trkpt lat="43.788771993" lon="11.20814899"><ele>46</ele><time>2020-01-06T08:57:54Z</time></trkpt>
<trkpt lat="43.788751038" lon="11.20818302"><ele>46</ele><time>2020-01-06T08:57:55Z</time></trkpt>
<trkpt lat="43.788731005" lon="11.208217973"><ele>46</ele><time>2020-01-06T08:57:56Z</time></trkpt>
<trkpt lat="43.788710972" lon="11.208253009"><ele>46</ele><time>2020-01-06T08:57:57Z</time></trkpt>
<trkpt lat="43.788651964" lon="11.208360968"><ele>46</ele><time>2020-01-06T08:58:00Z</time></trkpt>
<trkpt lat="43.788633021" lon="11.208398016"><ele>46</ele><time>2020-01-06T08:58:01Z</time></trkpt>
<trkpt lat="43.788612988" lon="11.20843498"><ele>46</ele><time>2020-01-06T08:58:02Z</time></trkpt>
<trkpt lat="43.788593961" lon="11.208472028"><ele>46</ele><time>2020-01-06T08:58:03Z</time></trkpt>
<trkpt lat="43.788574012" lon="11.208508993"><ele>45</ele><time>2020-01-06T08:58:04Z</time></trkpt>
<trkpt lat="43.788554985" lon="11.208545035"><ele>45</ele><time>2020-01-06T08:58:05Z</time></trkpt>
<trkpt lat="43.788535958" lon="11.208580993"><ele>45</ele><time>2020-01-06T08:58:06Z</time></trkpt>
<trkpt lat="43.788516009" lon="11.208617035"><ele>45</ele><time>2020-01-06T08:58:07Z</time></trkpt>
<trkpt lat="43.788496982" lon="11.208651988"><ele>45</ele><time>2020-01-06T08:58:08Z</time></trkpt>
<trkpt lat="43.788477033" lon="11.208687024"><ele>45</ele><time>2020-01-06T08:58:09Z</time></trkpt>
<trkpt lat="43.788458006" lon="11.208719965"><ele>45</ele><time>2020-01-06T08:58:10Z</time></trkpt>
<trkpt lat="43.788437974" lon="11.20875299"><ele>45</ele><time>2020-01-06T08:58:11Z</time></trkpt>
<trkpt lat="43.788418025" lon="11.208786014"><ele>45</ele><time>2020-01-06T08:58:12Z</time></trkpt>
<trkpt lat="43.788397992" lon="11.208817028"><ele>45</ele><time>2020-01-06T08:58:13Z</time></trkpt>
<trkpt lat="43.788377959" lon="11.208848963"><ele>45</ele><time>2020-01-06T08:58:14Z</time></trkpt>
<trkpt lat="43.78835801" lon="11.208879976"><ele>45</ele><time>2020-01-06T08:58:15Z</time></trkpt>
<trkpt lat="43.788337978" lon="11.208911994"><ele>45</ele><time>2020-01-06T08:58:16Z</time></trkpt>
<trkpt lat="43.788317023" lon="11.208944013"><ele>45</ele><time>2020-01-06T08:58:17Z</time></trkpt>
<trkpt lat="43.78829699" lon="11.208977038"><ele>45</ele><time>2020-01-06T08:58:18Z</time></trkpt>
<trkpt lat="43.788276035" lon="11.209009979"><ele>45</ele><time>2020-01-06T08:58:19Z</time></trkpt>
<trkpt lat="43.788256003" lon="11.209044009"><ele>45</ele><time>2020-01-06T08:58:20Z</time></trkpt>
<trkpt lat="43.788234964" lon="11.209078962"><ele>45</ele><time>2020-01-06T08:58:21Z</time></trkpt>
<trkpt lat="43.788215015" lon="11.209113998"><ele>45</ele><time>2020-01-06T08:58:22Z</time></trkpt>
<trkpt lat="43.788193977" lon="11.209150041"><ele>45</ele><time>2020-01-06T08:58:23Z</time></trkpt>
<trkpt lat="43.788173022" lon="11.209185999"><ele>45</ele><time>2020-01-06T08:58:24Z</time></trkpt>
<trkpt lat="43.788151983" lon="11.209222963"><ele>45</ele><time>2020-01-06T08:58:25Z</time></trkpt>
<trkpt lat="43.788131028" lon="11.209261017"><ele>45</ele><time>2020-01-06T08:58:26Z</time></trkpt>
<trkpt lat="43.78810999" lon="11.209297981"><ele>44</ele><time>2020-01-06T08:58:27Z</time></trkpt>
<trkpt lat="43.788089035" lon="11.209335029"><ele>44</ele><time>2020-01-06T08:58:28Z</time></trkpt>
<trkpt lat="43.788067997" lon="11.209371993"><ele>44</ele><time>2020-01-06T08:58:29Z</time></trkpt>
<trkpt lat="43.788047964" lon="11.209408036"><ele>44</ele><time>2020-01-06T08:58:30Z</time></trkpt>
<trkpt lat="43.788028015" lon="11.209441982"><ele>44</ele><time>2020-01-06T08:58:31Z</time></trkpt>
<trkpt lat="43.788007982" lon="11.209475007"><ele>44</ele><time>2020-01-06T08:58:32Z</time></trkpt>
<trkpt lat="43.787950985" lon="11.209563017"><ele>44</ele><time>2020-01-06T08:58:35Z</time></trkpt>
<trkpt lat="43.787931036" lon="11.209590007"><ele>44</ele><time>2020-01-06T08:58:36Z</time></trkpt>
<trkpt lat="43.787912009" lon="11.209616996"><ele>44</ele><time>2020-01-06T08:58:37Z</time></trkpt>
<trkpt lat="43.787891977" lon="11.209644992"><ele>44</ele><time>2020-01-06T08:58:38Z</time></trkpt>
<trkpt lat="43.787872028" lon="11.209673993"><ele>44</ele><time>2020-01-06T08:58:39Z</time></trkpt>
<trkpt lat="43.787849983" lon="11.209704001"><ele>44</ele><time>2020-01-06T08:58:40Z</time></trkpt>
<trkpt lat="43.787782006" lon="11.209800979"><ele>44</ele><time>2020-01-06T08:58:43Z</time></trkpt>
<trkpt lat="43.78775904" lon="11.20983501"><ele>44</ele><time>2020-01-06T08:58:44Z</time></trkpt>
<trkpt lat="43.787736995" lon="11.209869962"><ele>44</ele><time>2020-01-06T08:58:45Z</time></trkpt>
<trkpt lat="43.787714029" lon="11.209904999"><ele>44</ele><time>2020-01-06T08:58:46Z</time></trkpt>
<trkpt lat="43.78769299" lon="11.209940035"><ele>44</ele><time>2020-01-06T08:58:47Z</time></trkpt>
<trkpt lat="43.78767103" lon="11.209975993"><ele>44</ele><time>2020-01-06T08:58:48Z</time></trkpt>
<trkpt lat="43.787650997" lon="11.21001103"><ele>44</ele><time>2020-01-06T08:58:49Z</time></trkpt>
<trkpt lat="43.787630964" lon="11.210046988"><ele>44</ele><time>2020-01-06T08:58:50Z</time></trkpt>
<trkpt lat="43.787611015" lon="11.210082024"><ele>44</ele><time>2020-01-06T08:58:51Z</time></trkpt>
<trkpt lat="43.787590982" lon="11.210116977"><ele>44</ele><time>2020-01-06T08:58:52Z</time></trkpt>
<trkpt lat="43.787571033" lon="11.210152013"><ele>44</ele><time>2020-01-06T08:58:53Z</time></trkpt>
<trkpt lat="43.787549995" lon="11.21018596"><ele>44</ele><time>2020-01-06T08:58:54Z</time></trkpt>
<trkpt lat="43.78752904" lon="11.210218985"><ele>44</ele><time>2020-01-06T08:58:55Z</time></trkpt>
<trkpt lat="43.787508002" lon="11.210252009"><ele>44</ele><time>2020-01-06T08:58:56Z</time></trkpt>
<trkpt lat="43.787485035" lon="11.210285034"><ele>44</ele><time>2020-01-06T08:58:57Z</time></trkpt>
<trkpt lat="43.787462991" lon="11.210317975"><ele>44</ele><time>2020-01-06T08:58:58Z</time></trkpt>
<trkpt lat="43.787439018" lon="11.210351"><ele>44</ele><time>2020-01-06T08:58:59Z</time></trkpt>
<trkpt lat="43.787415968" lon="11.21038503"><ele>44</ele><time>2020-01-06T08:59:00Z</time></trkpt>
<trkpt lat="43.787391996" lon="11.210418977"><ele>44</ele><time>2020-01-06T08:59:01Z</time></trkpt>
<trkpt lat="43.78736903" lon="11.210455019"><ele>44</ele><time>2020-01-06T08:59:02Z</time></trkpt>
<trkpt lat="43.787298035" lon="11.210568007"><ele>44</ele><time>2020-01-06T08:59:05Z</time></trkpt>
<trkpt lat="43.787274985" lon="11.210605977"><ele>44</ele><time>2020-01-06T08:59:06Z</time></trkpt>
<trkpt lat="43.787253024" lon="11.210645037"><ele>44</ele><time>2020-01-06T08:59:07Z</time></trkpt>
<trkpt lat="43.787232991" lon="11.210683007"><ele>44</ele><time>2020-01-06T08:59:08Z</time></trkpt>
<trkpt lat="43.787213964" lon="11.210719971"><ele>44</ele><time>2020-01-06T08:59:09Z</time></trkpt>
<trkpt lat="43.787197033" lon="11.210756013"><ele>44</ele><time>2020-01-06T08:59:10Z</time></trkpt>
<trkpt lat="43.787181024" lon="11.210790966"><ele>44</ele><time>2020-01-06T08:59:11Z</time></trkpt>
<trkpt lat="43.787165014" lon="11.21082399"><ele>44</ele><time>2020-01-06T08:59:12Z</time></trkpt>
<trkpt lat="43.787151016" lon="11.210853998"><ele>44</ele><time>2020-01-06T08:59:13Z</time></trkpt>
<trkpt lat="43.787135007" lon="11.210882999"><ele>44</ele><time>2020-01-06T08:59:14Z</time></trkpt>
<trkpt lat="43.787120003" lon="11.210909989"><ele>44</ele><time>2020-01-06T08:59:15Z</time></trkpt>
<trkpt lat="43.787102988" lon="11.210935973"><ele>44</ele><time>2020-01-06T08:59:16Z</time></trkpt>
<trkpt lat="43.787085973" lon="11.210962962"><ele>44</ele><time>2020-01-06T08:59:17Z</time></trkpt>
<trkpt lat="43.78706703" lon="11.210991042"><ele>44</ele><time>2020-01-06T08:59:18Z</time></trkpt>
<trkpt lat="43.787046997" lon="11.211019959"><ele>44</ele><time>2020-01-06T08:59:19Z</time></trkpt>
<trkpt lat="43.787025958" lon="11.211049967"><ele>45</ele><time>2020-01-06T08:59:20Z</time></trkpt>
<trkpt lat="43.787003998" lon="11.21108098"><ele>45</ele><time>2020-01-06T08:59:21Z</time></trkpt>
<trkpt lat="43.786981031" lon="11.211112998"><ele>45</ele><time>2020-01-06T08:59:22Z</time></trkpt>
<trkpt lat="43.786957981" lon="11.211144011"><ele>45</ele><time>2020-01-06T08:59:23Z</time></trkpt>
<trkpt lat="43.786934009" lon="11.21117603"><ele>45</ele><time>2020-01-06T08:59:24Z</time></trkpt>
<trkpt lat="43.786910037" lon="11.21120696"><ele>45</ele><time>2020-01-06T08:59:25Z</time></trkpt>
<trkpt lat="43.786885981" lon="11.211238978"><ele>46</ele><time>2020-01-06T08:59:26Z</time></trkpt>
<trkpt lat="43.786862008" lon="11.211269991"><ele>46</ele><time>2020-01-06T08:59:27Z</time></trkpt>
<trkpt lat="43.786838036" lon="11.211301005"><ele>46</ele><time>2020-01-06T08:59:28Z</time></trkpt>
<trkpt lat="43.786814986" lon="11.211333023"><ele>46</ele><time>2020-01-06T08:59:29Z</time></trkpt>
<trkpt lat="43.786792019" lon="11.211364036"><ele>46</ele><time>2020-01-06T08:59:30Z</time></trkpt>
<trkpt lat="43.786770981" lon="11.211395971"><ele>47</ele><time>2020-01-06T08:59:31Z</time></trkpt>
<trkpt lat="43.786750026" lon="11.21142799"><ele>47</ele><time>2020-01-06T08:59:32Z</time></trkpt>
<trkpt lat="43.786730999" lon="11.211460009"><ele>47</ele><time>2020-01-06T08:59:33Z</time></trkpt>
<trkpt lat="43.786711972" lon="11.211492028"><ele>47</ele><time>2020-01-06T08:59:34Z</time></trkpt>
<trkpt lat="43.786693029" lon="11.211524969"><ele>48</ele><time>2020-01-06T08:59:35Z</time></trkpt>
<trkpt lat="43.786675008" lon="11.211558999"><ele>48</ele><time>2020-01-06T08:59:36Z</time></trkpt>
<trkpt lat="43.786655981" lon="11.21159303"><ele>48</ele><time>2020-01-06T08:59:37Z</time></trkpt>
<trkpt lat="43.786637038" lon="11.211627983"><ele>48</ele><time>2020-01-06T08:59:38Z</time></trkpt>
<trkpt lat="43.786617005" lon="11.211663019"><ele>48</ele><time>2020-01-06T08:59:39Z</time></trkpt>
<trkpt lat="43.786596972" lon="11.211698977"><ele>48</ele><time>2020-01-06T08:59:40Z</time></trkpt>
<trkpt lat="43.786575012" lon="11.211736025"><ele>48</ele><time>2020-01-06T08:59:41Z</time></trkpt>
<trkpt lat="43.786552968" lon="11.211771984"><ele>49</ele><time>2020-01-06T08:59:42Z</time></trkpt>
<trkpt lat="43.786531007" lon="11.211808026"><ele>49</ele><time>2020-01-06T08:59:43Z</time></trkpt>
<trkpt lat="43.786508041" lon="11.211842978"><ele>49</ele><time>2020-01-06T08:59:44Z</time></trkpt>
<trkpt lat="43.78648499" lon="11.211877009"><ele>49</ele><time>2020-01-06T08:59:45Z</time></trkpt>
<trkpt lat="43.786461018" lon="11.211910034"><ele>49</ele><time>2020-01-06T08:59:46Z</time></trkpt>
<trkpt lat="43.786436962" lon="11.211940963"><ele>49</ele><time>2020-01-06T08:59:47Z</time></trkpt>
<trkpt lat="43.78641299" lon="11.21197097"><ele>49</ele><time>2020-01-06T08:59:48Z</time></trkpt>
<trkpt lat="43.786390023" lon="11.212000977"><ele>49</ele><time>2020-01-06T08:59:49Z</time></trkpt>
<trkpt lat="43.786365967" lon="11.212029979"><ele>49</ele><time>2020-01-06T08:59:50Z</time></trkpt>
<trkpt lat="43.786343001" lon="11.21205898"><ele>49</ele><time>2020-01-06T08:59:51Z</time></trkpt>
<trkpt lat="43.786320034" lon="11.212087981"><ele>49</ele><time>2020-01-06T08:59:52Z</time></trkpt>
<trkpt lat="43.78629799" lon="11.212117989"><ele>49</ele><time>2020-01-06T08:59:53Z</time></trkpt>
<trkpt lat="43.786277035" lon="11.212149002"><ele>49</ele><time>2020-01-06T08:59:54Z</time></trkpt>
<trkpt lat="43.786255997" lon="11.212181021"><ele>49</ele><time>2020-01-06T08:59:55Z</time></trkpt>
<trkpt lat="43.786235964" lon="11.212213961"><ele>50</ele><time>2020-01-06T08:59:56Z</time></trkpt>
<trkpt lat="43.786217021" lon="11.212247992"><ele>50</ele><time>2020-01-06T08:59:57Z</time></trkpt>
<trkpt lat="43.786196988" lon="11.212283028"><ele>50</ele><time>2020-01-06T08:59:58Z</time></trkpt>
<trkpt lat="43.786177039" lon="11.212317981"><ele>50</ele><time>2020-01-06T08:59:59Z</time></trkpt>
<trkpt lat="43.786156001" lon="11.212353017"><ele>50</ele><time>2020-01-06T09:00:00Z</time></trkpt>
<trkpt lat="43.786134962" lon="11.212388976"><ele>50</ele><time>2020-01-06T09:00:01Z</time></trkpt>
<trkpt lat="43.786113001" lon="11.212425018"><ele>50</ele><time>2020-01-06T09:00:02Z</time></trkpt>
<trkpt lat="43.786090035" lon="11.21245997"><ele>50</ele><time>2020-01-06T09:00:03Z</time></trkpt>
<trkpt lat="43.786066985" lon="11.212496012"><ele>50</ele><time>2020-01-06T09:00:04Z</time></trkpt>
<trkpt lat="43.786044018" lon="11.212531971"><ele>49</ele><time>2020-01-06T09:00:05Z</time></trkpt>
<trkpt lat="43.786020968" lon="11.212568013"><ele>49</ele><time>2020-01-06T09:00:06Z</time></trkpt>
<trkpt lat="43.785998002" lon="11.212603971"><ele>49</ele><time>2020-01-06T09:00:07Z</time></trkpt>
<trkpt lat="43.785976041" lon="11.212639008"><ele>49</ele><time>2020-01-06T09:00:08Z</time></trkpt>
<trkpt lat="43.785917033" lon="11.212744033"><ele>49</ele><time>2020-01-06T09:00:11Z</time></trkpt>
<trkpt lat="43.785898006" lon="11.21277798"><ele>49</ele><time>2020-01-06T09:00:12Z</time></trkpt>
<trkpt lat="43.785878979" lon="11.212811004"><ele>49</ele><time>2020-01-06T09:00:13Z</time></trkpt>
<trkpt lat="43.785861041" lon="11.212844029"><ele>49</ele><time>2020-01-06T09:00:14Z</time></trkpt>
<trkpt lat="43.785842014" lon="11.212874958"><ele>49</ele><time>2020-01-06T09:00:15Z</time></trkpt>
<trkpt lat="43.785822988" lon="11.212905971"><ele>49</ele><time>2020-01-06T09:00:16Z</time></trkpt>
<trkpt lat="43.785803039" lon="11.212934973"><ele>48</ele><time>2020-01-06T09:00:17Z</time></trkpt>
<trkpt lat="43.785782" lon="11.212963974"><ele>48</ele><time>2020-01-06T09:00:18Z</time></trkpt>
<trkpt lat="43.785761967" lon="11.212993981"><ele>48</ele><time>2020-01-06T09:00:19Z</time></trkpt>
<trkpt lat="43.785742018" lon="11.213023989"><ele>48</ele><time>2020-01-06T09:00:20Z</time></trkpt>
<trkpt lat="43.785721986" lon="11.213056007"><ele>48</ele><time>2020-01-06T09:00:21Z</time></trkpt>
<trkpt lat="43.785702959" lon="11.213090038"><ele>48</ele><time>2020-01-06T09:00:22Z</time></trkpt>
<trkpt lat="43.785684016" lon="11.213122979"><ele>48</ele><time>2020-01-06T09:00:23Z</time></trkpt>
<trkpt lat="43.785664989" lon="11.213157009"><ele>48</ele><time>2020-01-06T09:00:24Z</time></trkpt>
<trkpt lat="43.785645962" lon="11.213191962"><ele>48</ele><time>2020-01-06T09:00:25Z</time></trkpt>
<trkpt lat="43.785626013" lon="11.213225992"><ele>48</ele><time>2020-01-06T09:00:26Z</time></trkpt>
<trkpt lat="43.78560598" lon="11.213260023"><ele>48</ele><time>2020-01-06T09:00:27Z</time></trkpt>
<trkpt lat="43.785586031" lon="11.21329397"><ele>48</ele><time>2020-01-06T09:00:28Z</time></trkpt>
<trkpt lat="43.785564993" lon="11.213328"><ele>48</ele><time>2020-01-06T09:00:29Z</time></trkpt>
<trkpt lat="43.785544038" lon="11.213362031"><ele>48</ele><time>2020-01-06T09:00:30Z</time></trkpt>
<trkpt lat="43.785524005" lon="11.213395977"><ele>48</ele><time>2020-01-06T09:00:31Z</time></trkpt>
<trkpt lat="43.785501961" lon="11.213430008"><ele>47</ele><time>2020-01-06T09:00:32Z</time></trkpt>
<trkpt lat="43.785481006" lon="11.213463033"><ele>47</ele><time>2020-01-06T09:00:33Z</time></trkpt>
<trkpt lat="43.785459967" lon="11.213496979"><ele>47</ele><time>2020-01-06T09:00:34Z</time></trkpt>
<trkpt lat="43.785438007" lon="11.21353101"><ele>47</ele><time>2020-01-06T09:00:35Z</time></trkpt>
<trkpt lat="43.785416968" lon="11.213564035"><ele>47</ele><time>2020-01-06T09:00:36Z</time></trkpt>
<trkpt lat="43.785395008" lon="11.213597981"><ele>47</ele><time>2020-01-06T09:00:37Z</time></trkpt>
<trkpt lat="43.785373969" lon="11.213631006"><ele>47</ele><time>2020-01-06T09:00:38Z</time></trkpt>
<trkpt lat="43.785352008" lon="11.213665036"><ele>47</ele><time>2020-01-06T09:00:39Z</time></trkpt>
<trkpt lat="43.785329964" lon="11.213697977"><ele>47</ele><time>2020-01-06T09:00:40Z</time></trkpt>
<trkpt lat="43.785308003" lon="11.213731002"><ele>47</ele><time>2020-01-06T09:00:41Z</time></trkpt>
<trkpt lat="43.785285959" lon="11.213765033"><ele>47</ele><time>2020-01-06T09:00:42Z</time></trkpt>
<trkpt lat="43.785265004" lon="11.213797973"><ele>47</ele><time>2020-01-06T09:00:43Z</time></trkpt>
<trkpt lat="43.78524296" lon="11.213830998"><ele>47</ele><time>2020-01-06T09:00:44Z</time></trkpt>
<trkpt lat="43.785220999" lon="11.213865029"><ele>48</ele><time>2020-01-06T09:00:45Z</time></trkpt>
<trkpt lat="43.785199961" lon="11.21389797"><ele>48</ele><time>2020-01-06T09:00:46Z</time></trkpt>
<trkpt lat="43.785178" lon="11.213932"><ele>48</ele><time>2020-01-06T09:00:47Z</time></trkpt>
<trkpt lat="43.785114968" lon="11.214035014"><ele>48</ele><time>2020-01-06T09:00:50Z</time></trkpt>
<trkpt lat="43.785094013" lon="11.214069966"><ele>48</ele><time>2020-01-06T09:00:51Z</time></trkpt>
<trkpt lat="43.785072975" lon="11.214105003"><ele>49</ele><time>2020-01-06T09:00:52Z</time></trkpt>
<trkpt lat="43.785053026" lon="11.214140039"><ele>49</ele><time>2020-01-06T09:00:53Z</time></trkpt>
<trkpt lat="43.785032993" lon="11.214175997"><ele>49</ele><time>2020-01-06T09:00:54Z</time></trkpt>
<trkpt lat="43.78501296" lon="11.214211034"><ele>49</ele><time>2020-01-06T09:00:55Z</time></trkpt>
<trkpt lat="43.784993012" lon="11.214245986"><ele>49</ele><time>2020-01-06T09:00:56Z</time></trkpt>
<trkpt lat="43.784972979" lon="11.214281023"><ele>49</ele><time>2020-01-06T09:00:57Z</time></trkpt>
<trkpt lat="43.78495303" lon="11.214314969"><ele>49</ele><time>2020-01-06T09:00:58Z</time></trkpt>
<trkpt lat="43.784932997" lon="11.214349"><ele>49</ele><time>2020-01-06T09:00:59Z</time></trkpt>
<trkpt lat="43.784912964" lon="11.214381019"><ele>49</ele><time>2020-01-06T09:01:00Z</time></trkpt>
<trkpt lat="43.784893015" lon="11.214413038"><ele>49</ele><time>2020-01-06T09:01:01Z</time></trkpt>
<trkpt lat="43.784872983" lon="11.214442961"><ele>49</ele><time>2020-01-06T09:01:02Z</time></trkpt>
<trkpt lat="43.784853034" lon="11.214472968"><ele>49</ele><time>2020-01-06T09:01:03Z</time></trkpt>
<trkpt lat="43.784834007" lon="11.214502975"><ele>49</ele><time>2020-01-06T09:01:04Z</time></trkpt>
<trkpt lat="43.784813974" lon="11.214532983"><ele>49</ele><time>2020-01-06T09:01:05Z</time></trkpt>
<trkpt lat="43.784794025" lon="11.21456299"><ele>49</ele><time>2020-01-06T09:01:06Z</time></trkpt>
<trkpt lat="43.784773992" lon="11.214594003"><ele>49</ele><time>2020-01-06T09:01:07Z</time></trkpt>
<trkpt lat="43.784754965" lon="11.214626022"><ele>49</ele><time>2020-01-06T09:01:08Z</time></trkpt>
<trkpt lat="43.784735017" lon="11.214658041"><ele>49</ele><time>2020-01-06T09:01:09Z</time></trkpt>
<trkpt lat="43.78471599" lon="11.214690981"><ele>49</ele><time>2020-01-06T09:01:10Z</time></trkpt>
<trkpt lat="43.784696963" lon="11.214725012"><ele>49</ele><time>2020-01-06T09:01:11Z</time></trkpt>
<trkpt lat="43.78467802" lon="11.214758959"><ele>49</ele><time>2020-01-06T09:01:12Z</time></trkpt>
<trkpt lat="43.784658993" lon="11.214793995"><ele>49</ele><time>2020-01-06T09:01:13Z</time></trkpt>
<trkpt lat="43.784640972" lon="11.214829031"><ele>49</ele><time>2020-01-06T09:01:14Z</time></trkpt>
<trkpt lat="43.784623034" lon="11.214863984"><ele>49</ele><time>2020-01-06T09:01:15Z</time></trkpt>
<trkpt lat="43.784569977" lon="11.214969009"><ele>50</ele><time>2020-01-06T09:01:18Z</time></trkpt>
<trkpt lat="43.784552962" lon="11.215004968"><ele>50</ele><time>2020-01-06T09:01:19Z</time></trkpt>
<trkpt lat="43.784535024" lon="11.215040004"><ele>49</ele><time>2020-01-06T09:01:20Z</time></trkpt>
<trkpt lat="43.784518009" lon="11.215075962"><ele>49</ele><time>2020-01-06T09:01:21Z</time></trkpt>
<trkpt lat="43.784500994" lon="11.215112004"><ele>49</ele><time>2020-01-06T09:01:22Z</time></trkpt>
<trkpt lat="43.784482973" lon="11.215148969"><ele>49</ele><time>2020-01-06T09:01:23Z</time></trkpt>
<trkpt lat="43.784466041" lon="11.215185011"><ele>49</ele><time>2020-01-06T09:01:24Z</time></trkpt>
<trkpt lat="43.78444802" lon="11.215222981"><ele>49</ele><time>2020-01-06T09:01:25Z</time></trkpt>
<trkpt lat="43.784429999" lon="11.215260029"><ele>49</ele><time>2020-01-06T09:01:26Z</time></trkpt>
<trkpt lat="43.784411978" lon="11.215297999"><ele>48</ele><time>2020-01-06T09:01:27Z</time></trkpt>
<trkpt lat="43.784394041" lon="11.215335969"><ele>48</ele><time>2020-01-06T09:01:28Z</time></trkpt>
<trkpt lat="43.78437602" lon="11.215374023"><ele>48</ele><time>2020-01-06T09:01:29Z</time></trkpt>
<trkpt lat="43.784356993" lon="11.215411993"><ele>48</ele><time>2020-01-06T09:01:30Z</time></trkpt>
<trkpt lat="43.784338972" lon="11.215449963"><ele>48</ele><time>2020-01-06T09:01:31Z</time></trkpt>
<trkpt lat="43.784321034" lon="11.215488017"><ele>48</ele><time>2020-01-06T09:01:32Z</time></trkpt>
<trkpt lat="43.784303013" lon="11.215525987"><ele>48</ele><time>2020-01-06T09:01:33Z</time></trkpt>
<trkpt lat="43.784283986" lon="11.21556404"><ele>48</ele><time>2020-01-06T09:01:34Z</time></trkpt>
<trkpt lat="43.784265965" lon="11.21560201"><ele>48</ele><time>2020-01-06T09:01:35Z</time></trkpt>
<trkpt lat="43.784248028" lon="11.215638975"><ele>48</ele><time>2020-01-06T09:01:36Z</time></trkpt>
<trkpt lat="43.784230007" lon="11.215676023"><ele>47</ele><time>2020-01-06T09:01:37Z</time></trkpt>
<trkpt lat="43.784211986" lon="11.215713993"><ele>47</ele><time>2020-01-06T09:01:38Z</time></trkpt>
<trkpt lat="43.784192959" lon="11.215750035"><ele>47</ele><time>2020-01-06T09:01:39Z</time></trkpt>
<trkpt lat="43.784175022" lon="11.215786999"><ele>47</ele><time>2020-01-06T09:01:40Z</time></trkpt>
<trkpt lat="43.784157" lon="11.215823041"><ele>47</ele><time>2020-01-06T09:01:41Z</time></trkpt>
<trkpt lat="43.784138979" lon="11.215860005"><ele>47</ele><time>2020-01-06T09:01:42Z</time></trkpt>
<trkpt lat="43.784120958" lon="11.215895964"><ele>47</ele><time>2020-01-06T09:01:43Z</time></trkpt>
<trkpt lat="43.784104027" lon="11.215932006"><ele>47</ele><time>2020-01-06T09:01:44Z</time></trkpt>
<trkpt lat="43.784086006" lon="11.215966959"><ele>47</ele><time>2020-01-06T09:01:45Z</time></trkpt>
<trkpt lat="43.784067985" lon="11.216003001"><ele>46</ele><time>2020-01-06T09:01:46Z</time></trkpt>
<trkpt lat="43.784049042" lon="11.216038959"><ele>46</ele><time>2020-01-06T09:01:47Z</time></trkpt>
<trkpt lat="43.78403102" lon="11.216073995"><ele>46</ele><time>2020-01-06T09:01:48Z</time></trkpt>
<trkpt lat="43.784012999" lon="11.216109032"><ele>46</ele><time>2020-01-06T09:01:49Z</time></trkpt>
<trkpt lat="43.783994978" lon="11.21614499"><ele>46</ele><time>2020-01-06T09:01:50Z</time></trkpt>
<trkpt lat="43.783939993" lon="11.216250015"><ele>46</ele><time>2020-01-06T09:01:53Z</time></trkpt>
<trkpt lat="43.783921972" lon="11.216284968"><ele>46</ele><time>2020-01-06T09:01:54Z</time></trkpt>
<trkpt lat="43.783904035" lon="11.216320004"><ele>46</ele><time>2020-01-06T09:01:55Z</time></trkpt>
<trkpt lat="43.783885008" lon="11.216355041"><ele>46</ele><time>2020-01-06T09:01:56Z</time></trkpt>
<trkpt lat="43.783866987" lon="11.216389993"><ele>45</ele><time>2020-01-06T09:01:57Z</time></trkpt>
<trkpt lat="43.783848966" lon="11.216426035"><ele>45</ele><time>2020-01-06T09:01:58Z</time></trkpt>
<trkpt lat="43.783830022" lon="11.216460988"><ele>45</ele><time>2020-01-06T09:01:59Z</time></trkpt>
<trkpt lat="43.783812001" lon="11.21649703"><ele>45</ele><time>2020-01-06T09:02:00Z</time></trkpt>
<trkpt lat="43.78379398" lon="11.216531983"><ele>45</ele><time>2020-01-06T09:02:01Z</time></trkpt>
<trkpt lat="43.783775959" lon="11.216568025"><ele>45</ele><time>2020-01-06T09:02:02Z</time></trkpt>
<trkpt lat="43.783759028" lon="11.216604989"><ele>45</ele><time>2020-01-06T09:02:03Z</time></trkpt>
<trkpt lat="43.783741007" lon="11.216641031"><ele>45</ele><time>2020-01-06T09:02:04Z</time></trkpt>
<trkpt lat="43.783723991" lon="11.216677995"><ele>45</ele><time>2020-01-06T09:02:05Z</time></trkpt>
<trkpt lat="43.78370597" lon="11.21671496"><ele>45</ele><time>2020-01-06T09:02:06Z</time></trkpt>
<trkpt lat="43.783689039" lon="11.216752008"><ele>45</ele><time>2020-01-06T09:02:07Z</time></trkpt>
<trkpt lat="43.783672024" lon="11.216789978"><ele>45</ele><time>2020-01-06T09:02:08Z</time></trkpt>
<trkpt lat="43.783656014" lon="11.216827026"><ele>46</ele><time>2020-01-06T09:02:09Z</time></trkpt>
<trkpt lat="43.783638999" lon="11.216864996"><ele>46</ele><time>2020-01-06T09:02:10Z</time></trkpt>
<trkpt lat="43.783622989" lon="11.216903972"><ele>46</ele><time>2020-01-06T09:02:11Z</time></trkpt>
<trkpt lat="43.783605974" lon="11.216942025"><ele>46</ele><time>2020-01-06T09:02:12Z</time></trkpt>
<trkpt lat="43.783589965" lon="11.216979995"><ele>46</ele><time>2020-01-06T09:02:13Z</time></trkpt>
<trkpt lat="43.783573033" lon="11.217018971"><ele>46</ele><time>2020-01-06T09:02:14Z</time></trkpt>
<trkpt lat="43.783556018" lon="11.217057025"><ele>46</ele><time>2020-01-06T09:02:15Z</time></trkpt>
<trkpt lat="43.783540009" lon="11.217094995"><ele>46</ele><time>2020-01-06T09:02:16Z</time></trkpt>
<trkpt lat="43.783522993" lon="11.217132965"><ele>46</ele><time>2020-01-06T09:02:17Z</time></trkpt>
<trkpt lat="43.783505978" lon="11.217171019"><ele>47</ele><time>2020-01-06T09:02:18Z</time></trkpt>
<trkpt lat="43.783488041" lon="11.217208989"><ele>47</ele><time>2020-01-06T09:02:19Z</time></trkpt>
<trkpt lat="43.78347002" lon="11.217246959"><ele>47</ele><time>2020-01-06T09:02:20Z</time></trkpt>
<trkpt lat="43.783451999" lon="11.217284007"><ele>47</ele><time>2020-01-06T09:02:21Z</time></trkpt>
<trkpt lat="43.783433978" lon="11.217320971"><ele>47</ele><time>2020-01-06T09:02:22Z</time></trkpt>
<trkpt lat="43.78341604" lon="11.217358019"><ele>47</ele><time>2020-01-06T09:02:23Z</time></trkpt>
<trkpt lat="43.783397013" lon="11.217393978"><ele>47</ele><time>2020-01-06T09:02:24Z</time></trkpt>
<trkpt lat="43.783377986" lon="11.217431026"><ele>48</ele><time>2020-01-06T09:02:25Z</time></trkpt>
<trkpt lat="43.783359965" lon="11.217466984"><ele>48</ele><time>2020-01-06T09:02:26Z</time></trkpt>
<trkpt lat="43.783341022" lon="11.217504032"><ele>48</ele><time>2020-01-06T09:02:27Z</time></trkpt>
<trkpt lat="43.783323001" lon="11.217542002"><ele>48</ele><time>2020-01-06T09:02:28Z</time></trkpt>
<trkpt lat="43.783305986" lon="11.217578966"><ele>48</ele><time>2020-01-06T09:02:29Z</time></trkpt>
<trkpt lat="43.783288971" lon="11.217618026"><ele>47</ele><time>2020-01-06T09:02:30Z</time></trkpt>
<trkpt lat="43.783272961" lon="11.217655996"><ele>47</ele><time>2020-01-06T09:02:31Z</time></trkpt>
<trkpt lat="43.783257036" lon="11.217694972"><ele>47</ele><time>2020-01-06T09:02:32Z</time></trkpt>
<trkpt lat="43.783241026" lon="11.217734031"><ele>47</ele><time>2020-01-06T09:02:33Z</time></trkpt>
<trkpt lat="43.783225017" lon="11.217772001"><ele>47</ele><time>2020-01-06T09:02:34Z</time></trkpt>
<trkpt lat="43.783209007" lon="11.217809971"><ele>46</ele><time>2020-01-06T09:02:35Z</time></trkpt>
<trkpt lat="43.783191992" lon="11.217848025"><ele>46</ele><time>2020-01-06T09:02:36Z</time></trkpt>
<trkpt lat="43.783174977" lon="11.217883984"><ele>46</ele><time>2020-01-06T09:02:37Z</time></trkpt>
<trkpt lat="43.783157961" lon="11.217920026"><ele>46</ele><time>2020-01-06T09:02:38Z</time></trkpt>
<trkpt lat="43.783140024" lon="11.217954978"><ele>46</ele><time>2020-01-06T09:02:39Z</time></trkpt>
<trkpt lat="43.783123009" lon="11.217990015"><ele>46</ele><time>2020-01-06T09:02:40Z</time></trkpt>
<trkpt lat="43.783104988" lon="11.218023961"><ele>46</ele><time>2020-01-06T09:02:41Z</time></trkpt>
<trkpt lat="43.783086967" lon="11.218057992"><ele>45</ele><time>2020-01-06T09:02:42Z</time></trkpt>
<trkpt lat="43.783069029" lon="11.218092022"><ele>45</ele><time>2020-01-06T09:02:43Z</time></trkpt>
<trkpt lat="43.783052014" lon="11.218125969"><ele>45</ele><time>2020-01-06T09:02:44Z</time></trkpt>
<trkpt lat="43.783033993" lon="11.21816"><ele>45</ele><time>2020-01-06T09:02:45Z</time></trkpt>
<trkpt lat="43.782984037" lon="11.218263013"><ele>45</ele><time>2020-01-06T09:02:48Z</time></trkpt>
<trkpt lat="43.782968028" lon="11.218297966"><ele>45</ele><time>2020-01-06T09:02:49Z</time></trkpt>
<trkpt lat="43.782951012" lon="11.218333002"><ele>45</ele><time>2020-01-06T09:02:50Z</time></trkpt>
<trkpt lat="43.782935003" lon="11.218368039"><ele>45</ele><time>2020-01-06T09:02:51Z</time></trkpt>
<trkpt lat="43.782918993" lon="11.218403997"><ele>45</ele><time>2020-01-06T09:02:52Z</time></trkpt>
<trkpt lat="43.782902984" lon="11.218440039"><ele>45</ele><time>2020-01-06T09:02:53Z</time></trkpt>
<trkpt lat="43.782886975" lon="11.218475997"><ele>45</ele><time>2020-01-06T09:02:54Z</time></trkpt>
<trkpt lat="43.782870965" lon="11.218512962"><ele>45</ele><time>2020-01-06T09:02:55Z</time></trkpt>
<trkpt lat="43.782855039" lon="11.21855001"><ele>45</ele><time>2020-01-06T09:02:56Z</time></trkpt>
<trkpt lat="43.782838024" lon="11.218586974"><ele>45</ele><time>2020-01-06T09:02:57Z</time></trkpt>
<trkpt lat="43.782822015" lon="11.218624022"><ele>45</ele><time>2020-01-06T09:02:58Z</time></trkpt>
<trkpt lat="43.782805" lon="11.218660986"><ele>45</ele><time>2020-01-06T09:02:59Z</time></trkpt>
<trkpt lat="43.782787984" lon="11.21869904"><ele>45</ele><time>2020-01-06T09:03:00Z</time></trkpt>
<trkpt lat="43.782770969" lon="11.218736004"><ele>45</ele><time>2020-01-06T09:03:01Z</time></trkpt>
<trkpt lat="43.782754038" lon="11.218773974"><ele>45</ele><time>2020-01-06T09:03:02Z</time></trkpt>
<trkpt lat="43.782736016" lon="11.218812028"><ele>45</ele><time>2020-01-06T09:03:03Z</time></trkpt>
<trkpt lat="43.782717995" lon="11.218849998"><ele>45</ele><time>2020-01-06T09:03:04Z</time></trkpt>
<trkpt lat="43.782699974" lon="11.218886962"><ele>45</ele><time>2020-01-06T09:03:05Z</time></trkpt>
<trkpt lat="43.782681031" lon="11.218925016"><ele>45</ele><time>2020-01-06T09:03:06Z</time></trkpt>
<trkpt lat="43.782662004" lon="11.218962986"><ele>45</ele><time>2020-01-06T09:03:07Z</time></trkpt>
<trkpt lat="43.782642977" lon="11.21900104"><ele>45</ele><time>2020-01-06T09:03:08Z</time></trkpt>
<trkpt lat="43.782623028" lon="11.21903901"><ele>45</ele><time>2020-01-06T09:03:09Z</time></trkpt>
<trkpt lat="43.782602996" lon="11.219075974"><ele>45</ele><time>2020-01-06T09:03:10Z</time></trkpt>
<trkpt lat="43.782582963" lon="11.219113022"><ele>45</ele><time>2020-01-06T09:03:11Z</time></trkpt>
<trkpt lat="43.782562008" lon="11.219149986"><ele>45</ele><time>2020-01-06T09:03:12Z</time></trkpt>
<trkpt lat="43.782541975" lon="11.219186028"><ele>45</ele><time>2020-01-06T09:03:13Z</time></trkpt>
<trkpt lat="43.782522026" lon="11.219220981"><ele>45</ele><time>2020-01-06T09:03:14Z</time></trkpt>
<trkpt lat="43.782501994" lon="11.219256017"><ele>45</ele><time>2020-01-06T09:03:15Z</time></trkpt>
<trkpt lat="43.782481961" lon="11.219289964"><ele>45</ele><time>2020-01-06T09:03:16Z</time></trkpt>
<trkpt lat="43.782463018" lon="11.219323995"><ele>45</ele><time>2020-01-06T09:03:17Z</time></trkpt>
<trkpt lat="43.782442985" lon="11.219359031"><ele>45</ele><time>2020-01-06T09:03:18Z</time></trkpt>
<trkpt lat="43.782423958" lon="11.219394989"><ele>46</ele><time>2020-01-06T09:03:19Z</time></trkpt>
<trkpt lat="43.782404009" lon="11.219432037"><ele>46</ele><time>2020-01-06T09:03:20Z</time></trkpt>
<trkpt lat="43.782384982" lon="11.219469002"><ele>46</ele><time>2020-01-06T09:03:21Z</time></trkpt>
<trkpt lat="43.782366961" lon="11.219507977"><ele>46</ele><time>2020-01-06T09:03:22Z</time></trkpt>
<trkpt lat="43.782349024" lon="11.219547037"><ele>46</ele><time>2020-01-06T09:03:23Z</time></trkpt>
<trkpt lat="43.782331003" lon="11.219586013"><ele>46</ele><time>2020-01-06T09:03:24Z</time></trkpt>
<trkpt lat="43.782312982" lon="11.219625995"><ele>46</ele><time>2020-01-06T09:03:25Z</time></trkpt>
<trkpt lat="43.782294961" lon="11.219663965"><ele>46</ele><time>2020-01-06T09:03:26Z</time></trkpt>
<trkpt lat="43.782278029" lon="11.219702018"><ele>46</ele><time>2020-01-06T09:03:27Z</time></trkpt>
<trkpt lat="43.782260008" lon="11.219737977"><ele>46</ele><time>2020-01-06T09:03:28Z</time></trkpt>
<trkpt lat="43.782240981" lon="11.219772007"><ele>46</ele><time>2020-01-06T09:03:29Z</time></trkpt>
<trkpt lat="43.78222296" lon="11.219805032"><ele>46</ele><time>2020-01-06T09:03:30Z</time></trkpt>
<trkpt lat="43.782204017" lon="11.219836967"><ele>46</ele><time>2020-01-06T09:03:31Z</time></trkpt>
<trkpt lat="43.78218499" lon="11.219866974"><ele>46</ele><time>2020-01-06T09:03:32Z</time></trkpt>
<trkpt lat="43.782165963" lon="11.219896981"><ele>46</ele><time>2020-01-06T09:03:33Z</time></trkpt>
<trkpt lat="43.78214702" lon="11.219925983"><ele>46</ele><time>2020-01-06T09:03:34Z</time></trkpt>
<trkpt lat="43.782127993" lon="11.219954984"><ele>46</ele><time>2020-01-06T09:03:35Z</time></trkpt>
<trkpt lat="43.782108966" lon="11.219983986"><ele>46</ele><time>2020-01-06T09:03:36Z</time></trkpt>
<trkpt lat="43.782089017" lon="11.220012987"><ele>46</ele><time>2020-01-06T09:03:37Z</time></trkpt>
<trkpt lat="43.78206999" lon="11.220042994"><ele>46</ele><time>2020-01-06T09:03:38Z</time></trkpt>
<trkpt lat="43.782050963" lon="11.220074007"><ele>46</ele><time>2020-01-06T09:03:39Z</time></trkpt>
<trkpt lat="43.78203202" lon="11.22010502"><ele>46</ele><time>2020-01-06T09:03:40Z</time></trkpt>
<trkpt lat="43.782012993" lon="11.220138967"><ele>46</ele><time>2020-01-06T09:03:41Z</time></trkpt>
<trkpt lat="43.781993967" lon="11.220172998"><ele>46</ele><time>2020-01-06T09:03:42Z</time></trkpt>
<trkpt lat="43.781975023" lon="11.220209962"><ele>46</ele><time>2020-01-06T09:03:43Z</time></trkpt>
<trkpt lat="43.781957002" lon="11.220249021"><ele>46</ele><time>2020-01-06T09:03:44Z</time></trkpt>
<trkpt lat="43.781938981" lon="11.220289003"><ele>46</ele><time>2020-01-06T09:03:45Z</time></trkpt>
<trkpt lat="43.781921966" lon="11.220327979"><ele>46</ele><time>2020-01-06T09:03:46Z</time></trkpt>
<trkpt lat="43.78190604" lon="11.220367039"><ele>46</ele><time>2020-01-06T09:03:47Z</time></trkpt>
<trkpt lat="43.781891037" lon="11.220404003"><ele>46</ele><time>2020-01-06T09:03:48Z</time></trkpt>
<trkpt lat="43.781877961" lon="11.220438033"><ele>46</ele><time>2020-01-06T09:03:49Z</time></trkpt>
<trkpt lat="43.781865975" lon="11.220467035"><ele>46</ele><time>2020-01-06T09:03:50Z</time></trkpt>
<trkpt lat="43.781856" lon="11.220491007"><ele>46</ele><time>2020-01-06T09:03:51Z</time></trkpt>
<trkpt lat="43.781847032" lon="11.220511962"><ele>46</ele><time>2020-01-06T09:03:52Z</time></trkpt>
<trkpt lat="43.781839991" lon="11.220529983"><ele>46</ele><time>2020-01-06T09:03:53Z</time></trkpt>
<trkpt lat="43.781833034" lon="11.220545992"><ele>46</ele><time>2020-01-06T09:03:54Z</time></trkpt>
<trkpt lat="43.781825993" lon="11.220560996"><ele>46</ele><time>2020-01-06T09:03:55Z</time></trkpt>
<trkpt lat="43.781819036" lon="11.220578011"><ele>46</ele><time>2020-01-06T09:03:56Z</time></trkpt>
<trkpt lat="43.78181099" lon="11.220597038"><ele>46</ele><time>2020-01-06T09:03:57Z</time></trkpt>
<trkpt lat="43.781803027" lon="11.220618999"><ele>46</ele><time>2020-01-06T09:03:58Z</time></trkpt>
<trkpt lat="43.781792969" lon="11.220644983"><ele>46</ele><time>2020-01-06T09:03:59Z</time></trkpt>
<trkpt lat="43.781780982" lon="11.22067499"><ele>46</ele><time>2020-01-06T09:04:00Z</time></trkpt>
<trkpt lat="43.781754998" lon="11.220743973"><ele>47</ele><time>2020-01-06T09:04:02Z</time></trkpt>
<trkpt lat="43.781741001" lon="11.220782027"><ele>47</ele><time>2020-01-06T09:04:03Z</time></trkpt>
<trkpt lat="43.781725997" lon="11.220819997"><ele>47</ele><time>2020-01-06T09:04:04Z</time></trkpt>
<trkpt lat="43.781709988" lon="11.220858973"><ele>47</ele><time>2020-01-06T09:04:05Z</time></trkpt>
<trkpt lat="43.781694984" lon="11.220898032"><ele>47</ele><time>2020-01-06T09:04:06Z</time></trkpt>
<trkpt lat="43.781677969" lon="11.220936002"><ele>47</ele><time>2020-01-06T09:04:07Z</time></trkpt>
<trkpt lat="43.781661959" lon="11.220974978"><ele>47</ele><time>2020-01-06T09:04:08Z</time></trkpt>
<trkpt lat="43.781645028" lon="11.221013032"><ele>47</ele><time>2020-01-06T09:04:09Z</time></trkpt>
<trkpt lat="43.781628013" lon="11.221049996"><ele>47</ele><time>2020-01-06T09:04:10Z</time></trkpt>
<trkpt lat="43.781610997" lon="11.221087966"><ele>47</ele><time>2020-01-06T09:04:11Z</time></trkpt>
<trkpt lat="43.781592976" lon="11.221125014"><ele>47</ele><time>2020-01-06T09:04:12Z</time></trkpt>
<trkpt lat="43.781575961" lon="11.221161978"><ele>47</ele><time>2020-01-06T09:04:13Z</time></trkpt>
<trkpt lat="43.781558024" lon="11.221199026"><ele>47</ele><time>2020-01-06T09:04:14Z</time></trkpt>
<trkpt lat="43.781540003" lon="11.221235991"><ele>47</ele><time>2020-01-06T09:04:15Z</time></trkpt>
<trkpt lat="43.781521982" lon="11.221273039"><ele>47</ele><time>2020-01-06T09:04:16Z</time></trkpt>
<trkpt lat="43.781504966" lon="11.221310003"><ele>47</ele><time>2020-01-06T09:04:17Z</time></trkpt>
<trkpt lat="43.781487029" lon="11.221345961"><ele>47</ele><time>2020-01-06T09:04:18Z</time></trkpt>
<trkpt lat="43.781469008" lon="11.221382003"><ele>47</ele><time>2020-01-06T09:04:19Z</time></trkpt>
<trkpt lat="43.781451993" lon="11.221418967"><ele>47</ele><time>2020-01-06T09:04:20Z</time></trkpt>
<trkpt lat="43.781433972" lon="11.22145501"><ele>47</ele><time>2020-01-06T09:04:21Z</time></trkpt>
<trkpt lat="43.78141704" lon="11.221490968"><ele>47</ele><time>2020-01-06T09:04:22Z</time></trkpt>
<trkpt lat="43.781400025" lon="11.22152701"><ele>47</ele><time>2020-01-06T09:04:23Z</time></trkpt>
<trkpt lat="43.781382004" lon="11.221563974"><ele>47</ele><time>2020-01-06T09:04:24Z</time></trkpt>
<trkpt lat="43.781364989" lon="11.221600017"><ele>47</ele><time>2020-01-06T09:04:25Z</time></trkpt>
<trkpt lat="43.781347973" lon="11.221635975"><ele>47</ele><time>2020-01-06T09:04:26Z</time></trkpt>
<trkpt lat="43.781331042" lon="11.221672017"><ele>47</ele><time>2020-01-06T09:04:27Z</time></trkpt>
<trkpt lat="43.781314027" lon="11.221707975"><ele>47</ele><time>2020-01-06T09:04:28Z</time></trkpt>
<trkpt lat="43.781297011" lon="11.221745024"><ele>47</ele><time>2020-01-06T09:04:29Z</time></trkpt>
<trkpt lat="43.78127899" lon="11.221780982"><ele>47</ele><time>2020-01-06T09:04:30Z</time></trkpt>
<trkpt lat="43.781261975" lon="11.221817024"><ele>47</ele><time>2020-01-06T09:04:31Z</time></trkpt>
<trkpt lat="43.78124496" lon="11.221853988"><ele>47</ele><time>2020-01-06T09:04:32Z</time></trkpt>
<trkpt lat="43.781227022" lon="11.22189003"><ele>47</ele><time>2020-01-06T09:04:33Z</time></trkpt>
<trkpt lat="43.781210007" lon="11.221926995"><ele>47</ele><time>2020-01-06T09:04:34Z</time></trkpt>
<trkpt lat="43.781191986" lon="11.221963037"><ele>48</ele><time>2020-01-06T09:04:35Z</time></trkpt>
<trkpt lat="43.781173965" lon="11.222000001"><ele>48</ele><time>2020-01-06T09:04:36Z</time></trkpt>
<trkpt lat="43.781156028" lon="11.222036965"><ele>48</ele><time>2020-01-06T09:04:37Z</time></trkpt>
<trkpt lat="43.781138007" lon="11.222074013"><ele>48</ele><time>2020-01-06T09:04:38Z</time></trkpt>
<trkpt lat="43.781119986" lon="11.222110977"><ele>48</ele><time>2020-01-06T09:04:39Z</time></trkpt>
<trkpt lat="43.781101964" lon="11.222148025"><ele>48</ele><time>2020-01-06T09:04:40Z</time></trkpt>
<trkpt lat="43.781085033" lon="11.222183984"><ele>48</ele><time>2020-01-06T09:04:41Z</time></trkpt>
<trkpt lat="43.781067012" lon="11.222221032"><ele>48</ele><time>2020-01-06T09:04:42Z</time></trkpt>
<trkpt lat="43.781048991" lon="11.222257996"><ele>48</ele><time>2020-01-06T09:04:43Z</time></trkpt>
<trkpt lat="43.781031976" lon="11.22229496"><ele>48</ele><time>2020-01-06T09:04:44Z</time></trkpt>
<trkpt lat="43.78101496" lon="11.222332008"><ele>48</ele><time>2020-01-06T09:04:45Z</time></trkpt>
<trkpt lat="43.780997023" lon="11.222367967"><ele>49</ele><time>2020-01-06T09:04:46Z</time></trkpt>
<trkpt lat="43.780980008" lon="11.222405015"><ele>49</ele><time>2020-01-06T09:04:47Z</time></trkpt>
<trkpt lat="43.780961987" lon="11.222440973"><ele>49</ele><time>2020-01-06T09:04:48Z</time></trkpt>
<trkpt lat="43.780943966" lon="11.222478021"><ele>49</ele><time>2020-01-06T09:04:49Z</time></trkpt>
<trkpt lat="43.780925022" lon="11.222513979"><ele>49</ele><time>2020-01-06T09:04:50Z</time></trkpt>
<trkpt lat="43.780907001" lon="11.222550021"><ele>49</ele><time>2020-01-06T09:04:51Z</time></trkpt>
<trkpt lat="43.780887974" lon="11.22258598"><ele>49</ele><time>2020-01-06T09:04:52Z</time></trkpt>
<trkpt lat="43.780869031" lon="11.222623028"><ele>49</ele><time>2020-01-06T09:04:53Z</time></trkpt>
<trkpt lat="43.78085101" lon="11.222658986"><ele>49</ele><time>2020-01-06T09:04:54Z</time></trkpt>
<trkpt lat="43.780831983" lon="11.222695028"><ele>49</ele><time>2020-01-06T09:04:55Z</time></trkpt>
<trkpt lat="43.780814968" lon="11.222730987"><ele>49</ele><time>2020-01-06T09:04:56Z</time></trkpt>
<trkpt lat="43.780798037" lon="11.222768035"><ele>49</ele><time>2020-01-06T09:04:57Z</time></trkpt>
<trkpt lat="43.780781021" lon="11.222803993"><ele>49</ele><time>2020-01-06T09:04:58Z</time></trkpt>
<trkpt lat="43.780765012" lon="11.222841041"><ele>49</ele><time>2020-01-06T09:04:59Z</time></trkpt>
<trkpt lat="43.780750008" lon="11.222878005"><ele>49</ele><time>2020-01-06T09:05:00Z</time></trkpt>
<trkpt lat="43.780735005" lon="11.22291497"><ele>49</ele><time>2020-01-06T09:05:01Z</time></trkpt>
<trkpt lat="43.780720001" lon="11.222952018"><ele>49</ele><time>2020-01-06T09:05:02Z</time></trkpt>
<trkpt lat="43.780703992" lon="11.222989988"><ele>49</ele><time>2020-01-06T09:05:03Z</time></trkpt>
<trkpt lat="43.780687982" lon="11.223028963"><ele>49</ele><time>2020-01-06T09:05:04Z</time></trkpt>
<trkpt lat="43.780671973" lon="11.223068023"><ele>49</ele><time>2020-01-06T09:05:05Z</time></trkpt>
<trkpt lat="43.780655041" lon="11.223106999"><ele>49</ele><time>2020-01-06T09:05:06Z</time></trkpt>
<trkpt lat="43.780638026" lon="11.223146981"><ele>49</ele><time>2020-01-06T09:05:07Z</time></trkpt>
<trkpt lat="43.780621011" lon="11.22318604"><ele>49</ele><time>2020-01-06T09:05:08Z</time></trkpt>
<trkpt lat="43.780603996" lon="11.223225016"><ele>49</ele><time>2020-01-06T09:05:09Z</time></trkpt>
<trkpt lat="43.78058698" lon="11.223262986"><ele>48</ele><time>2020-01-06T09:05:10Z</time></trkpt>
<trkpt lat="43.780569965" lon="11.22330104"><ele>48</ele><time>2020-01-06T09:05:11Z</time></trkpt>
<trkpt lat="43.780553034" lon="11.22333901"><ele>48</ele><time>2020-01-06T09:05:12Z</time></trkpt>
<trkpt lat="43.780536018" lon="11.223377986"><ele>48</ele><time>2020-01-06T09:05:13Z</time></trkpt>
<trkpt lat="43.780519003" lon="11.22341604"><ele>48</ele><time>2020-01-06T09:05:14Z</time></trkpt>
<trkpt lat="43.780502994" lon="11.223455016"><ele>48</ele><time>2020-01-06T09:05:15Z</time></trkpt>
<trkpt lat="43.780485978" lon="11.223492986"><ele>48</ele><time>2020-01-06T09:05:16Z</time></trkpt>
<trkpt lat="43.780470975" lon="11.223532967"><ele>48</ele><time>2020-01-06T09:05:17Z</time></trkpt>
<trkpt lat="43.780454965" lon="11.223572027"><ele>48</ele><time>2020-01-06T09:05:18Z</time></trkpt>
<trkpt lat="43.780439962" lon="11.223611003"><ele>48</ele><time>2020-01-06T09:05:19Z</time></trkpt>
<trkpt lat="43.780424036" lon="11.223650984"><ele>48</ele><time>2020-01-06T09:05:20Z</time></trkpt>
<trkpt lat="43.780409032" lon="11.223690966"><ele>48</ele><time>2020-01-06T09:05:21Z</time></trkpt>
<trkpt lat="43.780393023" lon="11.223730026"><ele>47</ele><time>2020-01-06T09:05:22Z</time></trkpt>
<trkpt lat="43.780378019" lon="11.223770007"><ele>47</ele><time>2020-01-06T09:05:23Z</time></trkpt>
<trkpt lat="43.780363016" lon="11.223809989"><ele>47</ele><time>2020-01-06T09:05:24Z</time></trkpt>
<trkpt lat="43.780347006" lon="11.223848965"><ele>47</ele><time>2020-01-06T09:05:25Z</time></trkpt>
<trkpt lat="43.780332003" lon="11.223888025"><ele>47</ele><time>2020-01-06T09:05:26Z</time></trkpt>
<trkpt lat="43.780316999" lon="11.223928006"><ele>47</ele><time>2020-01-06T09:05:27Z</time></trkpt>
<trkpt lat="43.780301996" lon="11.223966982"><ele>47</ele><time>2020-01-06T09:05:28Z</time></trkpt>
<trkpt lat="43.780286992" lon="11.224006042"><ele>46</ele><time>2020-01-06T09:05:29Z</time></trkpt>
<trkpt lat="43.780270983" lon="11.224045018"><ele>46</ele><time>2020-01-06T09:05:30Z</time></trkpt>
<trkpt lat="43.780255979" lon="11.224083994"><ele>46</ele><time>2020-01-06T09:05:31Z</time></trkpt>
<trkpt lat="43.780240975" lon="11.224122969"><ele>46</ele><time>2020-01-06T09:05:32Z</time></trkpt>
<trkpt lat="43.780225972" lon="11.224161023"><ele>46</ele><time>2020-01-06T09:05:33Z</time></trkpt>
<trkpt lat="43.780210968" lon="11.224198993"><ele>46</ele><time>2020-01-06T09:05:34Z</time></trkpt>
<trkpt lat="43.78019697" lon="11.224236963"><ele>46</ele><time>2020-01-06T09:05:35Z</time></trkpt>
<trkpt lat="43.780181967" lon="11.224275017"><ele>45</ele><time>2020-01-06T09:05:36Z</time></trkpt>
<trkpt lat="43.780166963" lon="11.224312987"><ele>45</ele><time>2020-01-06T09:05:37Z</time></trkpt>
<trkpt lat="43.78015196" lon="11.224350035"><ele>45</ele><time>2020-01-06T09:05:38Z</time></trkpt>
<trkpt lat="43.78013704" lon="11.224388005"><ele>45</ele><time>2020-01-06T09:05:39Z</time></trkpt>
<trkpt lat="43.780122036" lon="11.224424969"><ele>45</ele><time>2020-01-06T09:05:40Z</time></trkpt>
<trkpt lat="43.780107033" lon="11.224463023"><ele>45</ele><time>2020-01-06T09:05:41Z</time></trkpt>
<trkpt lat="43.780092029" lon="11.224499987"><ele>45</ele><time>2020-01-06T09:05:42Z</time></trkpt>
<trkpt lat="43.780077025" lon="11.224538041"><ele>45</ele><time>2020-01-06T09:05:43Z</time></trkpt>
<trkpt lat="43.780061016" lon="11.224575005"><ele>45</ele><time>2020-01-06T09:05:44Z</time></trkpt>
<trkpt lat="43.780045006" lon="11.224612975"><ele>45</ele><time>2020-01-06T09:05:45Z</time></trkpt>
<trkpt lat="43.780028997" lon="11.224651029"><ele>45</ele><time>2020-01-06T09:05:46Z</time></trkpt>
<trkpt lat="43.780012988" lon="11.224688999"><ele>45</ele><time>2020-01-06T09:05:47Z</time></trkpt>
<trkpt lat="43.779996978" lon="11.224726969"><ele>45</ele><time>2020-01-06T09:05:48Z</time></trkpt>
<trkpt lat="43.779979963" lon="11.224766029"><ele>45</ele><time>2020-01-06T09:05:49Z</time></trkpt>
<trkpt lat="43.779964037" lon="11.224805005"><ele>45</ele><time>2020-01-06T09:05:50Z</time></trkpt>
<trkpt lat="43.779947022" lon="11.224842975"><ele>45</ele><time>2020-01-06T09:05:51Z</time></trkpt>
<trkpt lat="43.779929001" lon="11.22488304"><ele>45</ele><time>2020-01-06T09:05:52Z</time></trkpt>
<trkpt lat="43.779911986" lon="11.224922016"><ele>45</ele><time>2020-01-06T09:05:53Z</time></trkpt>
<trkpt lat="43.77989497" lon="11.224960992"><ele>45</ele><time>2020-01-06T09:05:54Z</time></trkpt>
<trkpt lat="43.779877033" lon="11.224999968"><ele>45</ele><time>2020-01-06T09:05:55Z</time></trkpt>
<trkpt lat="43.779860018" lon="11.225040033"><ele>45</ele><time>2020-01-06T09:05:56Z</time></trkpt>
<trkpt lat="43.779843003" lon="11.225079009"><ele>45</ele><time>2020-01-06T09:05:57Z</time></trkpt>
<trkpt lat="43.779825987" lon="11.225117985"><ele>45</ele><time>2020-01-06T09:05:58Z</time></trkpt>
<trkpt lat="43.779808972" lon="11.225157967"><ele>45</ele><time>2020-01-06T09:05:59Z</time></trkpt>
<trkpt lat="43.779792041" lon="11.225197027"><ele>45</ele><time>2020-01-06T09:06:00Z</time></trkpt>
<trkpt lat="43.779775025" lon="11.225236002"><ele>45</ele><time>2020-01-06T09:06:01Z</time></trkpt>
<trkpt lat="43.77975801" lon="11.225274978"><ele>45</ele><time>2020-01-06T09:06:02Z</time></trkpt>
<trkpt lat="43.779742001" lon="11.225314038"><ele>45</ele><time>2020-01-06T09:06:03Z</time></trkpt>
<trkpt lat="43.779725991" lon="11.225353014"><ele>45</ele><time>2020-01-06T09:06:04Z</time></trkpt>
<trkpt lat="43.779710988" lon="11.225390984"><ele>45</ele><time>2020-01-06T09:06:05Z</time></trkpt>
<trkpt lat="43.779695984" lon="11.22542996"><ele>45</ele><time>2020-01-06T09:06:06Z</time></trkpt>
<trkpt lat="43.77968098" lon="11.225468013"><ele>45</ele><time>2020-01-06T09:06:07Z</time></trkpt>
<trkpt lat="43.779665977" lon="11.225505983"><ele>45</ele><time>2020-01-06T09:06:08Z</time></trkpt>
<trkpt lat="43.779650973" lon="11.225544037"><ele>46</ele><time>2020-01-06T09:06:09Z</time></trkpt>
<trkpt lat="43.779636975" lon="11.225582007"><ele>46</ele><time>2020-01-06T09:06:10Z</time></trkpt>
<trkpt lat="43.779621972" lon="11.225619977"><ele>46</ele><time>2020-01-06T09:06:11Z</time></trkpt>
<trkpt lat="43.779607974" lon="11.225658031"><ele>46</ele><time>2020-01-06T09:06:12Z</time></trkpt>
<trkpt lat="43.779593976" lon="11.225696001"><ele>46</ele><time>2020-01-06T09:06:13Z</time></trkpt>
<trkpt lat="43.779578973" lon="11.225733971"><ele>46</ele><time>2020-01-06T09:06:14Z</time></trkpt>
<trkpt lat="43.779564975" lon="11.225772025"><ele>46</ele><time>2020-01-06T09:06:15Z</time></trkpt>
<trkpt lat="43.779549971" lon="11.225809995"><ele>47</ele><time>2020-01-06T09:06:16Z</time></trkpt>
<trkpt lat="43.779535973" lon="11.225846959"><ele>47</ele><time>2020-01-06T09:06:17Z</time></trkpt>
<trkpt lat="43.77952097" lon="11.225885013"><ele>47</ele><time>2020-01-06T09:06:18Z</time></trkpt>
<trkpt lat="43.779506972" lon="11.225922983"><ele>47</ele><time>2020-01-06T09:06:19Z</time></trkpt>
<trkpt lat="43.779491968" lon="11.225961037"><ele>47</ele><time>2020-01-06T09:06:20Z</time></trkpt>
<trkpt lat="43.779475959" lon="11.225999007"><ele>48</ele><time>2020-01-06T09:06:21Z</time></trkpt>
<trkpt lat="43.779461039" lon="11.226037983"><ele>48</ele><time>2020-01-06T09:06:22Z</time></trkpt>
<trkpt lat="43.779446036" lon="11.226076037"><ele>48</ele><time>2020-01-06T09:06:23Z</time></trkpt>
<trkpt lat="43.779431032" lon="11.226114007"><ele>48</ele><time>2020-01-06T09:06:24Z</time></trkpt>
<trkpt lat="43.779415023" lon="11.226151977"><ele>48</ele><time>2020-01-06T09:06:25Z</time></trkpt>
<trkpt lat="43.779400019" lon="11.226190031"><ele>49</ele><time>2020-01-06T09:06:26Z</time></trkpt>
<trkpt lat="43.77938401" lon="11.226228001"><ele>49</ele><time>2020-01-06T09:06:27Z</time></trkpt>
<trkpt lat="43.779369006" lon="11.226266976"><ele>49</ele><time>2020-01-06T09:06:28Z</time></trkpt>
<trkpt lat="43.779352996" lon="11.22630503"><ele>49</ele><time>2020-01-06T09:06:29Z</time></trkpt>
<trkpt lat="43.779337993" lon="11.226343"><ele>49</ele><time>2020-01-06T09:06:30Z</time></trkpt>
<trkpt lat="43.779321983" lon="11.22638097"><ele>49</ele><time>2020-01-06T09:06:31Z</time></trkpt>
<trkpt lat="43.77930698" lon="11.226419024"><ele>50</ele><time>2020-01-06T09:06:32Z</time></trkpt>
<trkpt lat="43.779291976" lon="11.226456994"><ele>50</ele><time>2020-01-06T09:06:33Z</time></trkpt>
<trkpt lat="43.779275967" lon="11.226494964"><ele>50</ele><time>2020-01-06T09:06:34Z</time></trkpt>
<trkpt lat="43.779260963" lon="11.226533018"><ele>50</ele><time>2020-01-06T09:06:35Z</time></trkpt>
<trkpt lat="43.77924596" lon="11.226570988"><ele>50</ele><time>2020-01-06T09:06:36Z</time></trkpt>
<trkpt lat="43.77923104" lon="11.226608958"><ele>50</ele><time>2020-01-06T09:06:37Z</time></trkpt>
<trkpt lat="43.779216036" lon="11.226647012"><ele>50</ele><time>2020-01-06T09:06:38Z</time></trkpt>
<trkpt lat="43.779201033" lon="11.226685988"><ele>50</ele><time>2020-01-06T09:06:39Z</time></trkpt>
<trkpt lat="43.779185023" lon="11.226724042"><ele>50</ele><time>2020-01-06T09:06:40Z</time></trkpt>
<trkpt lat="43.77917002" lon="11.226762012"><ele>50</ele><time>2020-01-06T09:06:41Z</time></trkpt>
<trkpt lat="43.779155016" lon="11.226800987"><ele>50</ele><time>2020-01-06T09:06:42Z</time></trkpt>
<trkpt lat="43.779139007" lon="11.226839963"><ele>49</ele><time>2020-01-06T09:06:43Z</time></trkpt>
<trkpt lat="43.779124003" lon="11.226879023"><ele>49</ele><time>2020-01-06T09:06:44Z</time></trkpt>
<trkpt lat="43.779107993" lon="11.226917999"><ele>49</ele><time>2020-01-06T09:06:45Z</time></trkpt>
<trkpt lat="43.77909299" lon="11.226956975"><ele>48</ele><time>2020-01-06T09:06:46Z</time></trkpt>
<trkpt lat="43.77907698" lon="11.226996034"><ele>48</ele><time>2020-01-06T09:06:47Z</time></trkpt>
<trkpt lat="43.779060971" lon="11.227036016"><ele>48</ele><time>2020-01-06T09:06:48Z</time></trkpt>
<trkpt lat="43.779044962" lon="11.227075998"><ele>47</ele><time>2020-01-06T09:06:49Z</time></trkpt>
<trkpt lat="43.779029036" lon="11.227115979"><ele>47</ele><time>2020-01-06T09:06:50Z</time></trkpt>
<trkpt lat="43.779013027" lon="11.227155961"><ele>47</ele><time>2020-01-06T09:06:51Z</time></trkpt>
<trkpt lat="43.778996011" lon="11.227197032"><ele>47</ele><time>2020-01-06T09:06:52Z</time></trkpt>
<trkpt lat="43.778980002" lon="11.227237014"><ele>47</ele><time>2020-01-06T09:06:53Z</time></trkpt>
<trkpt lat="43.778962987" lon="11.227276996"><ele>46</ele><time>2020-01-06T09:06:54Z</time></trkpt>
<trkpt lat="43.778946977" lon="11.227316977"><ele>46</ele><time>2020-01-06T09:06:55Z</time></trkpt>
<trkpt lat="43.778929962" lon="11.227356959"><ele>46</ele><time>2020-01-06T09:06:56Z</time></trkpt>
<trkpt lat="43.778914036" lon="11.227397025"><ele>46</ele><time>2020-01-06T09:06:57Z</time></trkpt>
<trkpt lat="43.778897021" lon="11.227436"><ele>46</ele><time>2020-01-06T09:06:58Z</time></trkpt>
<trkpt lat="43.778881012" lon="11.227475982"><ele>46</ele><time>2020-01-06T09:06:59Z</time></trkpt>
<trkpt lat="43.778865002" lon="11.227514036"><ele>46</ele><time>2020-01-06T09:07:00Z</time></trkpt>
<trkpt lat="43.778847987" lon="11.227553012"><ele>46</ele><time>2020-01-06T09:07:01Z</time></trkpt>
<trkpt lat="43.778831977" lon="11.227590982"><ele>46</ele><time>2020-01-06T09:07:02Z</time></trkpt>
<trkpt lat="43.778815968" lon="11.227629036"><ele>46</ele><time>2020-01-06T09:07:03Z</time></trkpt>
<trkpt lat="43.778799959" lon="11.227666"><ele>46</ele><time>2020-01-06T09:07:04Z</time></trkpt>
<trkpt lat="43.778784033" lon="11.227701958"><ele>46</ele><time>2020-01-06T09:07:05Z</time></trkpt>
<trkpt lat="43.778768023" lon="11.227739006"><ele>46</ele><time>2020-01-06T09:07:06Z</time></trkpt>
<trkpt lat="43.778752014" lon="11.227774965"><ele>46</ele><time>2020-01-06T09:07:07Z</time></trkpt>
<trkpt lat="43.778736005" lon="11.227811007"><ele>46</ele><time>2020-01-06T09:07:08Z</time></trkpt>
<trkpt lat="43.778719995" lon="11.227846965"><ele>46</ele><time>2020-01-06T09:07:09Z</time></trkpt>
<trkpt lat="43.778703986" lon="11.227883007"><ele>46</ele><time>2020-01-06T09:07:10Z</time></trkpt>
<trkpt lat="43.778687976" lon="11.227918966"><ele>46</ele><time>2020-01-06T09:07:11Z</time></trkpt>
<trkpt lat="43.778670961" lon="11.227955008"><ele>46</ele><time>2020-01-06T09:07:12Z</time></trkpt>
<trkpt lat="43.778655035" lon="11.227991972"><ele>46</ele><time>2020-01-06T09:07:13Z</time></trkpt>
<trkpt lat="43.77863802" lon="11.228028014"><ele>46</ele><time>2020-01-06T09:07:14Z</time></trkpt>
<trkpt lat="43.778621005" lon="11.228064978"><ele>47</ele><time>2020-01-06T09:07:15Z</time></trkpt>
<trkpt lat="43.77860399" lon="11.228102027"><ele>47</ele><time>2020-01-06T09:07:16Z</time></trkpt>
<trkpt lat="43.778585969" lon="11.228138991"><ele>47</ele><time>2020-01-06T09:07:17Z</time></trkpt>
<trkpt lat="43.778568031" lon="11.228176961"><ele>47</ele><time>2020-01-06T09:07:18Z</time></trkpt>
<trkpt lat="43.77855001" lon="11.228215015"><ele>47</ele><time>2020-01-06T09:07:19Z</time></trkpt>
<trkpt lat="43.778530983" lon="11.22825399"><ele>47</ele><time>2020-01-06T09:07:20Z</time></trkpt>
<trkpt lat="43.778512962" lon="11.228292966"><ele>47</ele><time>2020-01-06T09:07:21Z</time></trkpt>
<trkpt lat="43.778496031" lon="11.228332026"><ele>47</ele><time>2020-01-06T09:07:22Z</time></trkpt>
<trkpt lat="43.77847801" lon="11.228371002"><ele>47</ele><time>2020-01-06T09:07:23Z</time></trkpt>
<trkpt lat="43.778462" lon="11.228410983"><ele>47</ele><time>2020-01-06T09:07:24Z</time></trkpt>
<trkpt lat="43.778445991" lon="11.228449959"><ele>47</ele><time>2020-01-06T09:07:25Z</time></trkpt>
<trkpt lat="43.778429981" lon="11.228489019"><ele>47</ele><time>2020-01-06T09:07:26Z</time></trkpt>
<trkpt lat="43.778412966" lon="11.228526989"><ele>47</ele><time>2020-01-06T09:07:27Z</time></trkpt>
<trkpt lat="43.778396035" lon="11.228564037"><ele>47</ele><time>2020-01-06T09:07:28Z</time></trkpt>
<trkpt lat="43.778376002" lon="11.228599995"><ele>47</ele><time>2020-01-06T09:07:29Z</time></trkpt>
<trkpt lat="43.778354963" lon="11.228634026"><ele>47</ele><time>2020-01-06T09:07:30Z</time></trkpt>
<trkpt lat="43.778329985" lon="11.228665039"><ele>47</ele><time>2020-01-06T09:07:31Z</time></trkpt>
<trkpt lat="43.77830199" lon="11.22869404"><ele>47</ele><time>2020-01-06T09:07:32Z</time></trkpt>
<trkpt lat="43.778270977" lon="11.228718013"><ele>47</ele><time>2020-01-06T09:07:33Z</time></trkpt>
<trkpt lat="43.778238036" lon="11.228735028"><ele>48</ele><time>2020-01-06T09:07:34Z</time></trkpt>
<trkpt lat="43.778204005" lon="11.228741985"><ele>48</ele><time>2020-01-06T09:07:35Z</time></trkpt>
<trkpt lat="43.778169975" lon="11.228739973"><ele>48</ele><time>2020-01-06T09:07:36Z</time></trkpt>
<trkpt lat="43.778137034" lon="11.228728993"><ele>48</ele><time>2020-01-06T09:07:37Z</time></trkpt>
<trkpt lat="43.778103003" lon="11.228711978"><ele>48</ele><time>2020-01-06T09:07:38Z</time></trkpt>
<trkpt lat="43.778069979" lon="11.228693034"><ele>49</ele><time>2020-01-06T09:07:39Z</time></trkpt>
<trkpt lat="43.778037038" lon="11.228674008"><ele>49</ele><time>2020-01-06T09:07:40Z</time></trkpt>
<trkpt lat="43.778005019" lon="11.228654981"><ele>49</ele><time>2020-01-06T09:07:41Z</time></trkpt>
<trkpt lat="43.777973" lon="11.228636038"><ele>49</ele><time>2020-01-06T09:07:42Z</time></trkpt>
<trkpt lat="43.777941987" lon="11.228618016"><ele>49</ele><time>2020-01-06T09:07:43Z</time></trkpt>
<trkpt lat="43.77791198" lon="11.228599995"><ele>49</ele><time>2020-01-06T09:07:44Z</time></trkpt>
<trkpt lat="43.777881972" lon="11.228580968"><ele>50</ele><time>2020-01-06T09:07:45Z</time></trkpt>
<trkpt lat="43.777852971" lon="11.228562025"><ele>50</ele><time>2020-01-06T09:07:46Z</time></trkpt>
<trkpt lat="43.77782397" lon="11.228542998"><ele>50</ele><time>2020-01-06T09:07:47Z</time></trkpt>
<trkpt lat="43.77779698" lon="11.228522966"><ele>50</ele><time>2020-01-06T09:07:48Z</time></trkpt>
<trkpt lat="43.777768984" lon="11.228503017"><ele>50</ele><time>2020-01-06T09:07:49Z</time></trkpt>
<trkpt lat="43.777741995" lon="11.228482984"><ele>50</ele><time>2020-01-06T09:07:50Z</time></trkpt>
<trkpt lat="43.777715005" lon="11.228463035"><ele>50</ele><time>2020-01-06T09:07:51Z</time></trkpt>
<trkpt lat="43.777688015" lon="11.228441996"><ele>50</ele><time>2020-01-06T09:07:52Z</time></trkpt>
<trkpt lat="43.777661026" lon="11.228421964"><ele>51</ele><time>2020-01-06T09:07:53Z</time></trkpt>
<trkpt lat="43.77763303" lon="11.228401009"><ele>51</ele><time>2020-01-06T09:07:54Z</time></trkpt>
<trkpt lat="43.77760604" lon="11.22837997"><ele>51</ele><time>2020-01-06T09:07:55Z</time></trkpt>
<trkpt lat="43.777577961" lon="11.228359016"><ele>51</ele><time>2020-01-06T09:07:56Z</time></trkpt>
<trkpt lat="43.777550971" lon="11.228337977"><ele>51</ele><time>2020-01-06T09:07:57Z</time></trkpt>
<trkpt lat="43.777524987" lon="11.228316016"><ele>51</ele><time>2020-01-06T09:07:58Z</time></trkpt>
<trkpt lat="43.777500009" lon="11.228293972"><ele>51</ele><time>2020-01-06T09:07:59Z</time></trkpt>
<trkpt lat="43.777479976" lon="11.228268994"><ele>51</ele><time>2020-01-06T09:08:00Z</time></trkpt>
<trkpt lat="43.777465979" lon="11.228239993"><ele>50</ele><time>2020-01-06T09:08:01Z</time></trkpt>
<trkpt lat="43.777460027" lon="11.22820504"><ele>50</ele><time>2020-01-06T09:08:02Z</time></trkpt>
<trkpt lat="43.777461033" lon="11.22816598"><ele>50</ele><time>2020-01-06T09:08:03Z</time></trkpt>
<trkpt lat="43.777465979" lon="11.228122981"><ele>50</ele><time>2020-01-06T09:08:04Z</time></trkpt>
<trkpt lat="43.777472014" lon="11.228076965"><ele>50</ele><time>2020-01-06T09:08:05Z</time></trkpt>
<trkpt lat="43.777476959" lon="11.228030026"><ele>49</ele><time>2020-01-06T09:08:06Z</time></trkpt>
<trkpt lat="43.777480982" lon="11.227981998"><ele>49</ele><time>2020-01-06T09:08:07Z</time></trkpt>
<trkpt lat="43.777487017" lon="11.227932964"><ele>49</ele><time>2020-01-06T09:08:08Z</time></trkpt>
<trkpt lat="43.777493974" lon="11.227885019"><ele>49</ele><time>2020-01-06T09:08:09Z</time></trkpt>
<trkpt lat="43.777503027" lon="11.227837997"><ele>49</ele><time>2020-01-06T09:08:10Z</time></trkpt>
<trkpt lat="43.777514007" lon="11.22779198"><ele>48</ele><time>2020-01-06T09:08:11Z</time></trkpt>
<trkpt lat="43.777526999" lon="11.227745963"><ele>48</ele><time>2020-01-06T09:08:12Z</time></trkpt>
<trkpt lat="43.777540997" lon="11.227701958"><ele>48</ele><time>2020-01-06T09:08:13Z</time></trkpt>
<trkpt lat="43.777556" lon="11.227658037"><ele>48</ele><time>2020-01-06T09:08:14Z</time></trkpt>
<trkpt lat="43.77757201" lon="11.22761596"><ele>48</ele><time>2020-01-06T09:08:15Z</time></trkpt>
<trkpt lat="43.777587013" lon="11.227574972"><ele>48</ele><time>2020-01-06T09:08:16Z</time></trkpt>
<trkpt lat="43.777602017" lon="11.227534991"><ele>48</ele><time>2020-01-06T09:08:17Z</time></trkpt>
<trkpt lat="43.777617021" lon="11.227496015"><ele>48</ele><time>2020-01-06T09:08:18Z</time></trkpt>
<trkpt lat="43.777631018" lon="11.227457039"><ele>48</ele><time>2020-01-06T09:08:19Z</time></trkpt>
<trkpt lat="43.777645016" lon="11.227418985"><ele>48</ele><time>2020-01-06T09:08:20Z</time></trkpt>
<trkpt lat="43.777659014" lon="11.227380009"><ele>48</ele><time>2020-01-06T09:08:21Z</time></trkpt>
<trkpt lat="43.777672006" lon="11.227341034"><ele>48</ele><time>2020-01-06T09:08:22Z</time></trkpt>
<trkpt lat="43.777683992" lon="11.227300968"><ele>48</ele><time>2020-01-06T09:08:23Z</time></trkpt>
<trkpt lat="43.777695978" lon="11.227259981"><ele>48</ele><time>2020-01-06T09:08:24Z</time></trkpt>
<trkpt lat="43.777707964" lon="11.227218993"><ele>48</ele><time>2020-01-06T09:08:25Z</time></trkpt>
<trkpt lat="43.777719028" lon="11.227175994"><ele>48</ele><time>2020-01-06T09:08:26Z</time></trkpt>
<trkpt lat="43.777731014" lon="11.227134001"><ele>48</ele><time>2020-01-06T09:08:27Z</time></trkpt>
<trkpt lat="43.777741995" lon="11.227091001"><ele>48</ele><time>2020-01-06T09:08:28Z</time></trkpt>
<trkpt lat="43.777752975" lon="11.227048002"><ele>48</ele><time>2020-01-06T09:08:29Z</time></trkpt>
<trkpt lat="43.777764039" lon="11.227006009"><ele>48</ele><time>2020-01-06T09:08:30Z</time></trkpt>
<trkpt lat="43.777775019" lon="11.226964016"><ele>48</ele><time>2020-01-06T09:08:31Z</time></trkpt>
<trkpt lat="43.777787006" lon="11.226923028"><ele>49</ele><time>2020-01-06T09:08:32Z</time></trkpt>
<trkpt lat="43.777821036" lon="11.226801993"><ele>49</ele><time>2020-01-06T09:08:35Z</time></trkpt>
<trkpt lat="43.777833022" lon="11.226763017"><ele>49</ele><time>2020-01-06T09:08:36Z</time></trkpt>
<trkpt lat="43.777844002" lon="11.226723036"><ele>49</ele><time>2020-01-06T09:08:37Z</time></trkpt>
<trkpt lat="43.777855989" lon="11.226683976"><ele>49</ele><time>2020-01-06T09:08:38Z</time></trkpt>
<trkpt lat="43.777866969" lon="11.226645"><ele>49</ele><time>2020-01-06T09:08:39Z</time></trkpt>
<trkpt lat="43.777879039" lon="11.226605019"><ele>49</ele><time>2020-01-06T09:08:40Z</time></trkpt>
<trkpt lat="43.777890019" lon="11.226565959"><ele>49</ele><time>2020-01-06T09:08:41Z</time></trkpt>
<trkpt lat="43.777902005" lon="11.226525977"><ele>49</ele><time>2020-01-06T09:08:42Z</time></trkpt>
<trkpt lat="43.777912986" lon="11.226485996"><ele>49</ele><time>2020-01-06T09:08:43Z</time></trkpt>
<trkpt lat="43.777923966" lon="11.226446014"><ele>49</ele><time>2020-01-06T09:08:44Z</time></trkpt>
<trkpt lat="43.77793503" lon="11.226405026"><ele>49</ele><time>2020-01-06T09:08:45Z</time></trkpt>
<trkpt lat="43.77794601" lon="11.226364039"><ele>49</ele><time>2020-01-06T09:08:46Z</time></trkpt>
<trkpt lat="43.777956991" lon="11.226322968"><ele>49</ele><time>2020-01-06T09:08:47Z</time></trkpt>
<trkpt lat="43.777967971" lon="11.226280974"><ele>49</ele><time>2020-01-06T09:08:48Z</time></trkpt>
<trkpt lat="43.777979035" lon="11.226239987"><ele>49</ele><time>2020-01-06T09:08:49Z</time></trkpt>
<trkpt lat="43.777990015" lon="11.226197993"><ele>49</ele><time>2020-01-06T09:08:50Z</time></trkpt>
<trkpt lat="43.778002001" lon="11.226157006"><ele>49</ele><time>2020-01-06T09:08:51Z</time></trkpt>
<trkpt lat="43.778013987" lon="11.226117024"><ele>49</ele><time>2020-01-06T09:08:52Z</time></trkpt>
<trkpt lat="43.778026979" lon="11.226076959"><ele>49</ele><time>2020-01-06T09:08:53Z</time></trkpt>
<trkpt lat="43.778039971" lon="11.226036977"><ele>49</ele><time>2020-01-06T09:08:54Z</time></trkpt>
<trkpt lat="43.778052963" lon="11.225998001"><ele>49</ele><time>2020-01-06T09:08:55Z</time></trkpt>
<trkpt lat="43.778066961" lon="11.225960031"><ele>49</ele><time>2020-01-06T09:08:56Z</time></trkpt>
<trkpt lat="43.778080959" lon="11.225921977"><ele>49</ele><time>2020-01-06T09:08:57Z</time></trkpt>
<trkpt lat="43.778094035" lon="11.225884007"><ele>49</ele><time>2020-01-06T09:08:58Z</time></trkpt>
<trkpt lat="43.778107027" lon="11.225846037"><ele>49</ele><time>2020-01-06T09:08:59Z</time></trkpt>
<trkpt lat="43.778118007" lon="11.225807983"><ele>49</ele><time>2020-01-06T09:09:00Z</time></trkpt>
<trkpt lat="43.778129993" lon="11.225770013"><ele>49</ele><time>2020-01-06T09:09:01Z</time></trkpt>
<trkpt lat="43.778139967" lon="11.225731038"><ele>49</ele><time>2020-01-06T09:09:02Z</time></trkpt>
<trkpt lat="43.778150026" lon="11.225689966"><ele>49</ele><time>2020-01-06T09:09:03Z</time></trkpt>
<trkpt lat="43.77816" lon="11.225646967"><ele>49</ele><time>2020-01-06T09:09:04Z</time></trkpt>
<trkpt lat="43.778169975" lon="11.22560204"><ele>48</ele><time>2020-01-06T09:09:05Z</time></trkpt>
<trkpt lat="43.778181039" lon="11.225556023"><ele>48</ele><time>2020-01-06T09:09:06Z</time></trkpt>
<trkpt lat="43.778193025" lon="11.225509001"><ele>48</ele><time>2020-01-06T09:09:07Z</time></trkpt>
<trkpt lat="43.778206017" lon="11.225462984"><ele>48</ele><time>2020-01-06T09:09:08Z</time></trkpt>
<trkpt lat="43.778220015" lon="11.225419985"><ele>48</ele><time>2020-01-06T09:09:09Z</time></trkpt>
<trkpt lat="43.778235018" lon="11.225376986"><ele>48</ele><time>2020-01-06T09:09:10Z</time></trkpt>
<trkpt lat="43.778251028" lon="11.225337004"><ele>48</ele><time>2020-01-06T09:09:11Z</time></trkpt>
<trkpt lat="43.778266031" lon="11.225298028"><ele>48</ele><time>2020-01-06T09:09:12Z</time></trkpt>
<trkpt lat="43.778279023" lon="11.225258969"><ele>48</ele><time>2020-01-06T09:09:13Z</time></trkpt>
<trkpt lat="43.778292015" lon="11.225220999"><ele>48</ele><time>2020-01-06T09:09:14Z</time></trkpt>
<trkpt lat="43.778304001" lon="11.225184035"><ele>48</ele><time>2020-01-06T09:09:15Z</time></trkpt>
<trkpt lat="43.778315987" lon="11.225144975"><ele>47</ele><time>2020-01-06T09:09:16Z</time></trkpt>
<trkpt lat="43.778328979" lon="11.225107005"><ele>47</ele><time>2020-01-06T09:09:17Z</time></trkpt>
<trkpt lat="43.778342977" lon="11.225068029"><ele>47</ele><time>2020-01-06T09:09:18Z</time></trkpt>
<trkpt lat="43.778355969" lon="11.225027964"><ele>47</ele><time>2020-01-06T09:09:19Z</time></trkpt>
<trkpt lat="43.778369967" lon="11.224987982"><ele>47</ele><time>2020-01-06T09:09:20Z</time></trkpt>
<trkpt lat="43.778384971" lon="11.224948"><ele>47</ele><time>2020-01-06T09:09:21Z</time></trkpt>
<trkpt lat="43.778398968" lon="11.224907013"><ele>47</ele><time>2020-01-06T09:09:22Z</time></trkpt>
<trkpt lat="43.778413972" lon="11.224867031"><ele>47</ele><time>2020-01-06T09:09:23Z</time></trkpt>
<trkpt lat="43.778428975" lon="11.224825038"><ele>47</ele><time>2020-01-06T09:09:24Z</time></trkpt>
<trkpt lat="43.778443979" lon="11.224783966"><ele>47</ele><time>2020-01-06T09:09:25Z</time></trkpt>
<trkpt lat="43.778458983" lon="11.224742979"><ele>47</ele><time>2020-01-06T09:09:26Z</time></trkpt>
<trkpt lat="43.778473986" lon="11.224700985"><ele>47</ele><time>2020-01-06T09:09:27Z</time></trkpt>
<trkpt lat="43.77848899" lon="11.224658992"><ele>47</ele><time>2020-01-06T09:09:28Z</time></trkpt>
<trkpt lat="43.778504999" lon="11.224616999"><ele>47</ele><time>2020-01-06T09:09:29Z</time></trkpt>
<trkpt lat="43.778520003" lon="11.224575005"><ele>47</ele><time>2020-01-06T09:09:30Z</time></trkpt>
<trkpt lat="43.778536012" lon="11.224533012"><ele>47</ele><time>2020-01-06T09:09:31Z</time></trkpt>
<trkpt lat="43.778551016" lon="11.224491019"><ele>47</ele><time>2020-01-06T09:09:32Z</time></trkpt>
<trkpt lat="43.77856602" lon="11.224449025"><ele>47</ele><time>2020-01-06T09:09:33Z</time></trkpt>
<trkpt lat="43.778581023" lon="11.22440896"><ele>47</ele><time>2020-01-06T09:09:34Z</time></trkpt>
<trkpt lat="43.778596027" lon="11.224368978"><ele>47</ele><time>2020-01-06T09:09:35Z</time></trkpt>
<trkpt lat="43.77861103" lon="11.224330002"><ele>47</ele><time>2020-01-06T09:09:36Z</time></trkpt>
<trkpt lat="43.778626034" lon="11.224292032"><ele>47</ele><time>2020-01-06T09:09:37Z</time></trkpt>
<trkpt lat="43.778640032" lon="11.22425599"><ele>47</ele><time>2020-01-06T09:09:38Z</time></trkpt>
<trkpt lat="43.77865403" lon="11.224221038"><ele>47</ele><time>2020-01-06T09:09:39Z</time></trkpt>
<trkpt lat="43.778667022" lon="11.224186001"><ele>47</ele><time>2020-01-06T09:09:40Z</time></trkpt>
<trkpt lat="43.778681019" lon="11.224150965"><ele>47</ele><time>2020-01-06T09:09:41Z</time></trkpt>
<trkpt lat="43.778694011" lon="11.224116012"><ele>47</ele><time>2020-01-06T09:09:42Z</time></trkpt>
<trkpt lat="43.778707003" lon="11.22407997"><ele>47</ele><time>2020-01-06T09:09:43Z</time></trkpt>
<trkpt lat="43.778719995" lon="11.224042"><ele>47</ele><time>2020-01-06T09:09:44Z</time></trkpt>
<trkpt lat="43.778732987" lon="11.224003024"><ele>47</ele><time>2020-01-06T09:09:45Z</time></trkpt>
<trkpt lat="43.778745979" lon="11.223962959"><ele>47</ele><time>2020-01-06T09:09:46Z</time></trkpt>
<trkpt lat="43.778758971" lon="11.223922977"><ele>47</ele><time>2020-01-06T09:09:47Z</time></trkpt>
<trkpt lat="43.778772969" lon="11.223884001"><ele>47</ele><time>2020-01-06T09:09:48Z</time></trkpt>
<trkpt lat="43.778786967" lon="11.223846031"><ele>47</ele><time>2020-01-06T09:09:49Z</time></trkpt>
<trkpt lat="43.778800964" lon="11.223808983"><ele>47</ele><time>2020-01-06T09:09:50Z</time></trkpt>
<trkpt lat="43.778815968" lon="11.223774031"><ele>47</ele><time>2020-01-06T09:09:51Z</time></trkpt>
<trkpt lat="43.778830972" lon="11.223738994"><ele>47</ele><time>2020-01-06T09:09:52Z</time></trkpt>
<trkpt lat="43.778845975" lon="11.223704964"><ele>47</ele><time>2020-01-06T09:09:53Z</time></trkpt>
<trkpt lat="43.778861985" lon="11.223672023"><ele>47</ele><time>2020-01-06T09:09:54Z</time></trkpt>
<trkpt lat="43.778877994" lon="11.223637993"><ele>47</ele><time>2020-01-06T09:09:55Z</time></trkpt>
<trkpt lat="43.778892998" lon="11.22360304"><ele>47</ele><time>2020-01-06T09:09:56Z</time></trkpt>
<trkpt lat="43.778909007" lon="11.223566998"><ele>47</ele><time>2020-01-06T09:09:57Z</time></trkpt>
<trkpt lat="43.778924011" lon="11.223529028"><ele>47</ele><time>2020-01-06T09:09:58Z</time></trkpt>
<trkpt lat="43.778938008" lon="11.223488962"><ele>47</ele><time>2020-01-06T09:09:59Z</time></trkpt>
<trkpt lat="43.778952006" lon="11.223446969"><ele>47</ele><time>2020-01-06T09:10:00Z</time></trkpt>
<trkpt lat="43.778964998" lon="11.223402964"><ele>47</ele><time>2020-01-06T09:10:01Z</time></trkpt>
<trkpt lat="43.77897799" lon="11.223358037"><ele>47</ele><time>2020-01-06T09:10:02Z</time></trkpt>
<trkpt lat="43.778990982" lon="11.22331202"><ele>47</ele><time>2020-01-06T09:10:03Z</time></trkpt>
<trkpt lat="43.779003974" lon="11.223264998"><ele>47</ele><time>2020-01-06T09:10:04Z</time></trkpt>
<trkpt lat="43.779016966" lon="11.223218981"><ele>47</ele><time>2020-01-06T09:10:05Z</time></trkpt>
<trkpt lat="43.779030042" lon="11.223174976"><ele>47</ele><time>2020-01-06T09:10:06Z</time></trkpt>
<trkpt lat="43.77904404" lon="11.223131977"><ele>47</ele><time>2020-01-06T09:10:07Z</time></trkpt>
<trkpt lat="43.779058959" lon="11.22309099"><ele>47</ele><time>2020-01-06T09:10:08Z</time></trkpt>
<trkpt lat="43.779073963" lon="11.223051008"><ele>47</ele><time>2020-01-06T09:10:09Z</time></trkpt>
<trkpt lat="43.779088967" lon="11.223013038"><ele>47</ele><time>2020-01-06T09:10:10Z</time></trkpt>
<trkpt lat="43.779104976" lon="11.22297599"><ele>47</ele><time>2020-01-06T09:10:11Z</time></trkpt>
<trkpt lat="43.77911998" lon="11.222939026"><ele>47</ele><time>2020-01-06T09:10:12Z</time></trkpt>
<trkpt lat="43.779134983" lon="11.222900972"><ele>47</ele><time>2020-01-06T09:10:13Z</time></trkpt>
<trkpt lat="43.779149987" lon="11.222863002"><ele>47</ele><time>2020-01-06T09:10:14Z</time></trkpt>
<trkpt lat="43.779162979" lon="11.222824026"><ele>47</ele><time>2020-01-06T09:10:15Z</time></trkpt>
<trkpt lat="43.779175971" lon="11.22278396"><ele>47</ele><time>2020-01-06T09:10:16Z</time></trkpt>
<trkpt lat="43.779188963" lon="11.222742973"><ele>47</ele><time>2020-01-06T09:10:17Z</time></trkpt>
<trkpt lat="43.779201033" lon="11.22270098"><ele>48</ele><time>2020-01-06T09:10:18Z</time></trkpt>
<trkpt lat="43.779214025" lon="11.222659992"><ele>48</ele><time>2020-01-06T09:10:19Z</time></trkpt>
<trkpt lat="43.779226011" lon="11.222617999"><ele>48</ele><time>2020-01-06T09:10:20Z</time></trkpt>
<trkpt lat="43.779237997" lon="11.222577011"><ele>48</ele><time>2020-01-06T09:10:21Z</time></trkpt>
<trkpt lat="43.779250989" lon="11.22253703"><ele>48</ele><time>2020-01-06T09:10:22Z</time></trkpt>
<trkpt lat="43.779264987" lon="11.222496964"><ele>48</ele><time>2020-01-06T09:10:23Z</time></trkpt>
<trkpt lat="43.779278984" lon="11.222457988"><ele>48</ele><time>2020-01-06T09:10:24Z</time></trkpt>
<trkpt lat="43.779292982" lon="11.222420018"><ele>48</ele><time>2020-01-06T09:10:25Z</time></trkpt>
<trkpt lat="43.779307986" lon="11.222381964"><ele>48</ele><time>2020-01-06T09:10:26Z</time></trkpt>
<trkpt lat="43.779322989" lon="11.222343994"><ele>47</ele><time>2020-01-06T09:10:27Z</time></trkpt>
<trkpt lat="43.779337993" lon="11.222306024"><ele>47</ele><time>2020-01-06T09:10:28Z</time></trkpt>
<trkpt lat="43.779352996" lon="11.22226797"><ele>47</ele><time>2020-01-06T09:10:29Z</time></trkpt>
<trkpt lat="43.779368" lon="11.22223"><ele>47</ele><time>2020-01-06T09:10:30Z</time></trkpt>
<trkpt lat="43.779381998" lon="11.22219203"><ele>47</ele><time>2020-01-06T09:10:31Z</time></trkpt>
<trkpt lat="43.779397001" lon="11.222152971"><ele>47</ele><time>2020-01-06T09:10:32Z</time></trkpt>
<trkpt lat="43.779410999" lon="11.222115001"><ele>47</ele><time>2020-01-06T09:10:33Z</time></trkpt>
<trkpt lat="43.779424997" lon="11.222076025"><ele>47</ele><time>2020-01-06T09:10:34Z</time></trkpt>
<trkpt lat="43.779440001" lon="11.222036965"><ele>47</ele><time>2020-01-06T09:10:35Z</time></trkpt>
<trkpt lat="43.779453998" lon="11.221997989"><ele>47</ele><time>2020-01-06T09:10:36Z</time></trkpt>
<trkpt lat="43.779469002" lon="11.221959013"><ele>47</ele><time>2020-01-06T09:10:37Z</time></trkpt>
<trkpt lat="43.779483" lon="11.221919032"><ele>47</ele><time>2020-01-06T09:10:38Z</time></trkpt>
<trkpt lat="43.779498003" lon="11.221879972"><ele>47</ele><time>2020-01-06T09:10:39Z</time></trkpt>
<trkpt lat="43.779513007" lon="11.221840996"><ele>47</ele><time>2020-01-06T09:10:40Z</time></trkpt>
<trkpt lat="43.779528011" lon="11.221801015"><ele>47</ele><time>2020-01-06T09:10:41Z</time></trkpt>
<trkpt lat="43.779543014" lon="11.221762039"><ele>47</ele><time>2020-01-06T09:10:42Z</time></trkpt>
<trkpt lat="43.779558018" lon="11.221722979"><ele>47</ele><time>2020-01-06T09:10:43Z</time></trkpt>
<trkpt lat="43.779574027" lon="11.221684003"><ele>47</ele><time>2020-01-06T09:10:44Z</time></trkpt>
<trkpt lat="43.779590037" lon="11.221645027"><ele>47</ele><time>2020-01-06T09:10:45Z</time></trkpt>
<trkpt lat="43.779605962" lon="11.221605968"><ele>47</ele><time>2020-01-06T09:10:46Z</time></trkpt>
<trkpt lat="43.779622978" lon="11.221566992"><ele>47</ele><time>2020-01-06T09:10:47Z</time></trkpt>
<trkpt lat="43.779638987" lon="11.221528016"><ele>47</ele><time>2020-01-06T09:10:48Z</time></trkpt>
<trkpt lat="43.779656002" lon="11.22148904"><ele>47</ele><time>2020-01-06T09:10:49Z</time></trkpt>
<trkpt lat="43.779673018" lon="11.221449981"><ele>47</ele><time>2020-01-06T09:10:50Z</time></trkpt>
<trkpt lat="43.779690033" lon="11.221411005"><ele>47</ele><time>2020-01-06T09:10:51Z</time></trkpt>
<trkpt lat="43.779706964" lon="11.221372029"><ele>48</ele><time>2020-01-06T09:10:52Z</time></trkpt>
<trkpt lat="43.77972398" lon="11.221333975"><ele>48</ele><time>2020-01-06T09:10:53Z</time></trkpt>
<trkpt lat="43.779740995" lon="11.221294999"><ele>48</ele><time>2020-01-06T09:10:54Z</time></trkpt>
<trkpt lat="43.77975801" lon="11.221256023"><ele>48</ele><time>2020-01-06T09:10:55Z</time></trkpt>
<trkpt lat="43.779774019" lon="11.221216964"><ele>48</ele><time>2020-01-06T09:10:56Z</time></trkpt>
<trkpt lat="43.779791035" lon="11.221177988"><ele>48</ele><time>2020-01-06T09:10:57Z</time></trkpt>
<trkpt lat="43.77980696" lon="11.221139012"><ele>48</ele><time>2020-01-06T09:10:58Z</time></trkpt>
<trkpt lat="43.77982297" lon="11.221100036"><ele>48</ele><time>2020-01-06T09:10:59Z</time></trkpt>
<trkpt lat="43.779838979" lon="11.221059971"><ele>48</ele><time>2020-01-06T09:11:00Z</time></trkpt>
<trkpt lat="43.779854989" lon="11.221020995"><ele>48</ele><time>2020-01-06T09:11:01Z</time></trkpt>
<trkpt lat="43.779869992" lon="11.220981013"><ele>48</ele><time>2020-01-06T09:11:02Z</time></trkpt>
<trkpt lat="43.779884996" lon="11.220941031"><ele>48</ele><time>2020-01-06T09:11:03Z</time></trkpt>
<trkpt lat="43.779898994" lon="11.220900966"><ele>48</ele><time>2020-01-06T09:11:04Z</time></trkpt>
<trkpt lat="43.779912991" lon="11.220860984"><ele>48</ele><time>2020-01-06T09:11:05Z</time></trkpt>
<trkpt lat="43.779925983" lon="11.220819997"><ele>48</ele><time>2020-01-06T09:11:06Z</time></trkpt>
<trkpt lat="43.779938975" lon="11.220779009"><ele>48</ele><time>2020-01-06T09:11:07Z</time></trkpt>
<trkpt lat="43.779950961" lon="11.220737016"><ele>48</ele><time>2020-01-06T09:11:08Z</time></trkpt>
<trkpt lat="43.779963031" lon="11.220695022"><ele>48</ele><time>2020-01-06T09:11:09Z</time></trkpt>
<trkpt lat="43.779974012" lon="11.220654035"><ele>48</ele><time>2020-01-06T09:11:10Z</time></trkpt>
<trkpt lat="43.779985998" lon="11.220612042"><ele>48</ele><time>2020-01-06T09:11:11Z</time></trkpt>
<trkpt lat="43.779996978" lon="11.220571976"><ele>48</ele><time>2020-01-06T09:11:12Z</time></trkpt>
<trkpt lat="43.780008964" lon="11.220531994"><ele>48</ele><time>2020-01-06T09:11:13Z</time></trkpt>
<trkpt lat="43.780021034" lon="11.220492013"><ele>48</ele><time>2020-01-06T09:11:14Z</time></trkpt>
<trkpt lat="43.780034026" lon="11.220454965"><ele>48</ele><time>2020-01-06T09:11:15Z</time></trkpt>
<trkpt lat="43.780047018" lon="11.220418001"><ele>48</ele><time>2020-01-06T09:11:16Z</time></trkpt>
<trkpt lat="43.780061016" lon="11.220381958"><ele>48</ele><time>2020-01-06T09:11:17Z</time></trkpt>
<trkpt lat="43.780076019" lon="11.220346"><ele>48</ele><time>2020-01-06T09:11:18Z</time></trkpt>
<trkpt lat="43.780091023" lon="11.220310964"><ele>48</ele><time>2020-01-06T09:11:19Z</time></trkpt>
<trkpt lat="43.780108038" lon="11.220276011"><ele>48</ele><time>2020-01-06T09:11:20Z</time></trkpt>
<trkpt lat="43.780123964" lon="11.220239969"><ele>48</ele><time>2020-01-06T09:11:21Z</time></trkpt>
<trkpt lat="43.780141985" lon="11.220204011"><ele>48</ele><time>2020-01-06T09:11:22Z</time></trkpt>
<trkpt lat="43.780160006" lon="11.220167968"><ele>48</ele><time>2020-01-06T09:11:23Z</time></trkpt>
<trkpt lat="43.780178027" lon="11.220131004"><ele>48</ele><time>2020-01-06T09:11:24Z</time></trkpt>
<trkpt lat="43.780195965" lon="11.220093034"><ele>48</ele><time>2020-01-06T09:11:25Z</time></trkpt>
<trkpt lat="43.780213986" lon="11.22005498"><ele>48</ele><time>2020-01-06T09:11:26Z</time></trkpt>
<trkpt lat="43.780232007" lon="11.220016005"><ele>48</ele><time>2020-01-06T09:11:27Z</time></trkpt>
<trkpt lat="43.780249022" lon="11.219977029"><ele>48</ele><time>2020-01-06T09:11:28Z</time></trkpt>
<trkpt lat="43.780265031" lon="11.219936041"><ele>48</ele><time>2020-01-06T09:11:29Z</time></trkpt>
<trkpt lat="43.780280035" lon="11.219895976"><ele>48</ele><time>2020-01-06T09:11:30Z</time></trkpt>
<trkpt lat="43.780295039" lon="11.219854988"><ele>48</ele><time>2020-01-06T09:11:31Z</time></trkpt>
<trkpt lat="43.780309958" lon="11.219814001"><ele>48</ele><time>2020-01-06T09:11:32Z</time></trkpt>
<trkpt lat="43.78032404" lon="11.219773013"><ele>47</ele><time>2020-01-06T09:11:33Z</time></trkpt>
<trkpt lat="43.78033896" lon="11.219732026"><ele>47</ele><time>2020-01-06T09:11:34Z</time></trkpt>
<trkpt lat="43.780353963" lon="11.21969196"><ele>47</ele><time>2020-01-06T09:11:35Z</time></trkpt>
<trkpt lat="43.780368967" lon="11.219652984"><ele>47</ele><time>2020-01-06T09:11:36Z</time></trkpt>
<trkpt lat="43.780384976" lon="11.219614008"><ele>47</ele><time>2020-01-06T09:11:37Z</time></trkpt>
<trkpt lat="43.780400986" lon="11.219576038"><ele>47</ele><time>2020-01-06T09:11:38Z</time></trkpt>
<trkpt lat="43.780418001" lon="11.21953899"><ele>47</ele><time>2020-01-06T09:11:39Z</time></trkpt>
<trkpt lat="43.780435016" lon="11.219502026"><ele>47</ele><time>2020-01-06T09:11:40Z</time></trkpt>
<trkpt lat="43.780452032" lon="11.219464978"><ele>47</ele><time>2020-01-06T09:11:41Z</time></trkpt>
<trkpt lat="43.780468963" lon="11.219427008"><ele>47</ele><time>2020-01-06T09:11:42Z</time></trkpt>
<trkpt lat="43.780485978" lon="11.21938996"><ele>46</ele><time>2020-01-06T09:11:43Z</time></trkpt>
<trkpt lat="43.780501988" lon="11.21935199"><ele>46</ele><time>2020-01-06T09:11:44Z</time></trkpt>
<trkpt lat="43.780517997" lon="11.21931402"><ele>46</ele><time>2020-01-06T09:11:45Z</time></trkpt>
<trkpt lat="43.780534007" lon="11.21927496"><ele>46</ele><time>2020-01-06T09:11:46Z</time></trkpt>
<trkpt lat="43.780550016" lon="11.219235985"><ele>46</ele><time>2020-01-06T09:11:47Z</time></trkpt>
<trkpt lat="43.78056502" lon="11.219196003"><ele>45</ele><time>2020-01-06T09:11:48Z</time></trkpt>
<trkpt lat="43.780580023" lon="11.219156021"><ele>45</ele><time>2020-01-06T09:11:49Z</time></trkpt>
<trkpt lat="43.780595027" lon="11.21911604"><ele>45</ele><time>2020-01-06T09:11:50Z</time></trkpt>
<trkpt lat="43.780610031" lon="11.219075974"><ele>45</ele><time>2020-01-06T09:11:51Z</time></trkpt>
<trkpt lat="43.780625034" lon="11.219034987"><ele>45</ele><time>2020-01-06T09:11:52Z</time></trkpt>
<trkpt lat="43.780640038" lon="11.218995005"><ele>44</ele><time>2020-01-06T09:11:53Z</time></trkpt>
<trkpt lat="43.780655041" lon="11.218954017"><ele>44</ele><time>2020-01-06T09:11:54Z</time></trkpt>
<trkpt lat="43.780669961" lon="11.21891303"><ele>44</ele><time>2020-01-06T09:11:55Z</time></trkpt>
<trkpt lat="43.780683959" lon="11.218871959"><ele>44</ele><time>2020-01-06T09:11:56Z</time></trkpt>
<trkpt lat="43.780698963" lon="11.218830971"><ele>44</ele><time>2020-01-06T09:11:57Z</time></trkpt>
<trkpt lat="43.780713966" lon="11.218789984"><ele>44</ele><time>2020-01-06T09:11:58Z</time></trkpt>
<trkpt lat="43.780729976" lon="11.218748996"><ele>43</ele><time>2020-01-06T09:11:59Z</time></trkpt>
<trkpt lat="43.780744979" lon="11.218709014"><ele>43</ele><time>2020-01-06T09:12:00Z</time></trkpt>
<trkpt lat="43.780760989" lon="11.218668027"><ele>43</ele><time>2020-01-06T09:12:01Z</time></trkpt>
<trkpt lat="43.780775992" lon="11.218627961"><ele>43</ele><time>2020-01-06T09:12:02Z</time></trkpt>
<trkpt lat="43.780792002" lon="11.21858798"><ele>43</ele><time>2020-01-06T09:12:03Z</time></trkpt>
<trkpt lat="43.780808011" lon="11.218547998"><ele>43</ele><time>2020-01-06T09:12:04Z</time></trkpt>
<trkpt lat="43.780824021" lon="11.218508016"><ele>42</ele><time>2020-01-06T09:12:05Z</time></trkpt>
<trkpt lat="43.780839024" lon="11.218468035"><ele>42</ele><time>2020-01-06T09:12:06Z</time></trkpt>
<trkpt lat="43.780855034" lon="11.218428975"><ele>42</ele><time>2020-01-06T09:12:07Z</time></trkpt>
<trkpt lat="43.780870959" lon="11.218389999"><ele>42</ele><time>2020-01-06T09:12:08Z</time></trkpt>
<trkpt lat="43.780886969" lon="11.218351023"><ele>42</ele><time>2020-01-06T09:12:09Z</time></trkpt>
<trkpt lat="43.780902978" lon="11.218312969"><ele>42</ele><time>2020-01-06T09:12:10Z</time></trkpt>
<trkpt lat="43.780918987" lon="11.218273994"><ele>42</ele><time>2020-01-06T09:12:11Z</time></trkpt>
<trkpt lat="43.780933991" lon="11.218236024"><ele>42</ele><time>2020-01-06T09:12:12Z</time></trkpt>
<trkpt lat="43.780950001" lon="11.218198976"><ele>42</ele><time>2020-01-06T09:12:13Z</time></trkpt>
<trkpt lat="43.780965004" lon="11.218162011"><ele>42</ele><time>2020-01-06T09:12:14Z</time></trkpt>
<trkpt lat="43.780981014" lon="11.218124963"><ele>42</ele><time>2020-01-06T09:12:15Z</time></trkpt>
<trkpt lat="43.780996017" lon="11.218087999"><ele>43</ele><time>2020-01-06T09:12:16Z</time></trkpt>
<trkpt lat="43.781011021" lon="11.218052041"><ele>43</ele><time>2020-01-06T09:12:17Z</time></trkpt>
<trkpt lat="43.781026024" lon="11.218014993"><ele>43</ele><time>2020-01-06T09:12:18Z</time></trkpt>
<trkpt lat="43.781041028" lon="11.217979034"><ele>43</ele><time>2020-01-06T09:12:19Z</time></trkpt>
<trkpt lat="43.781056032" lon="11.217941986"><ele>43</ele><time>2020-01-06T09:12:20Z</time></trkpt>
<trkpt lat="43.781071035" lon="11.217906028"><ele>43</ele><time>2020-01-06T09:12:21Z</time></trkpt>
<trkpt lat="43.781086039" lon="11.21786898"><ele>43</ele><time>2020-01-06T09:12:22Z</time></trkpt>
<trkpt lat="43.781100959" lon="11.21783101"><ele>43</ele><time>2020-01-06T09:12:23Z</time></trkpt>
<trkpt lat="43.781115962" lon="11.217793962"><ele>43</ele><time>2020-01-06T09:12:24Z</time></trkpt>
<trkpt lat="43.78112996" lon="11.217755992"><ele>43</ele><time>2020-01-06T09:12:25Z</time></trkpt>
<trkpt lat="43.781144964" lon="11.217717016"><ele>43</ele><time>2020-01-06T09:12:26Z</time></trkpt>
<trkpt lat="43.781159967" lon="11.21767804"><ele>43</ele><time>2020-01-06T09:12:27Z</time></trkpt>
<trkpt lat="43.781174971" lon="11.217637975"><ele>43</ele><time>2020-01-06T09:12:28Z</time></trkpt>
<trkpt lat="43.781189974" lon="11.217596987"><ele>44</ele><time>2020-01-06T09:12:29Z</time></trkpt>
<trkpt lat="43.781204978" lon="11.217556"><ele>44</ele><time>2020-01-06T09:12:30Z</time></trkpt>
<trkpt lat="43.781219982" lon="11.217515012"><ele>44</ele><time>2020-01-06T09:12:31Z</time></trkpt>
<trkpt lat="43.781234985" lon="11.217475031"><ele>44</ele><time>2020-01-06T09:12:32Z</time></trkpt>
<trkpt lat="43.781249989" lon="11.217433959"><ele>44</ele><time>2020-01-06T09:12:33Z</time></trkpt>
<trkpt lat="43.781265998" lon="11.217393978"><ele>44</ele><time>2020-01-06T09:12:34Z</time></trkpt>
<trkpt lat="43.781282008" lon="11.217355002"><ele>44</ele><time>2020-01-06T09:12:35Z</time></trkpt>
<trkpt lat="43.781298017" lon="11.217316026"><ele>45</ele><time>2020-01-06T09:12:36Z</time></trkpt>
<trkpt lat="43.781314027" lon="11.217277972"><ele>45</ele><time>2020-01-06T09:12:37Z</time></trkpt>
<trkpt lat="43.781330036" lon="11.217241008"><ele>45</ele><time>2020-01-06T09:12:38Z</time></trkpt>
<trkpt lat="43.781345962" lon="11.21720396"><ele>45</ele><time>2020-01-06T09:12:39Z</time></trkpt>
<trkpt lat="43.781361971" lon="11.217168001"><ele>45</ele><time>2020-01-06T09:12:40Z</time></trkpt>
<trkpt lat="43.78137798" lon="11.217131959"><ele>46</ele><time>2020-01-06T09:12:41Z</time></trkpt>
<trkpt lat="43.78139399" lon="11.217096001"><ele>46</ele><time>2020-01-06T09:12:42Z</time></trkpt>
<trkpt lat="43.781408994" lon="11.217060965"><ele>46</ele><time>2020-01-06T09:12:43Z</time></trkpt>
<trkpt lat="43.781423997" lon="11.217026012"><ele>46</ele><time>2020-01-06T09:12:44Z</time></trkpt>
<trkpt lat="43.781439001" lon="11.21698997"><ele>47</ele><time>2020-01-06T09:12:45Z</time></trkpt>
<trkpt lat="43.781454004" lon="11.216955017"><ele>47</ele><time>2020-01-06T09:12:46Z</time></trkpt>
<trkpt lat="43.781468002" lon="11.216918975"><ele>47</ele><time>2020-01-06T09:12:47Z</time></trkpt>
<trkpt lat="43.781483006" lon="11.216883017"><ele>47</ele><time>2020-01-06T09:12:48Z</time></trkpt>
<trkpt lat="43.781499015" lon="11.216846975"><ele>48</ele><time>2020-01-06T09:12:49Z</time></trkpt>
<trkpt lat="43.781515025" lon="11.216811016"><ele>48</ele><time>2020-01-06T09:12:50Z</time></trkpt>
<trkpt lat="43.781531034" lon="11.216773968"><ele>48</ele><time>2020-01-06T09:12:51Z</time></trkpt>
<trkpt lat="43.781547965" lon="11.216737004"><ele>48</ele><time>2020-01-06T09:12:52Z</time></trkpt>
<trkpt lat="43.781564981" lon="11.216699034"><ele>49</ele><time>2020-01-06T09:12:53Z</time></trkpt>
<trkpt lat="43.781581996" lon="11.21666098"><ele>49</ele><time>2020-01-06T09:12:54Z</time></trkpt>
<trkpt lat="43.781599011" lon="11.21662301"><ele>49</ele><time>2020-01-06T09:12:55Z</time></trkpt>
<trkpt lat="43.781616027" lon="11.216584034"><ele>49</ele><time>2020-01-06T09:12:56Z</time></trkpt>
<trkpt lat="43.781633042" lon="11.216543969"><ele>49</ele><time>2020-01-06T09:12:57Z</time></trkpt>
<trkpt lat="43.781647962" lon="11.216503987"><ele>49</ele><time>2020-01-06T09:12:58Z</time></trkpt>
<trkpt lat="43.781663971" lon="11.216463"><ele>49</ele><time>2020-01-06T09:12:59Z</time></trkpt>
<trkpt lat="43.781678975" lon="11.216422012"><ele>48</ele><time>2020-01-06T09:13:00Z</time></trkpt>
<trkpt lat="43.781693978" lon="11.216381025"><ele>48</ele><time>2020-01-06T09:13:01Z</time></trkpt>
<trkpt lat="43.781707976" lon="11.216340037"><ele>48</ele><time>2020-01-06T09:13:02Z</time></trkpt>
<trkpt lat="43.78172298" lon="11.216299972"><ele>47</ele><time>2020-01-06T09:13:03Z</time></trkpt>
<trkpt lat="43.781737983" lon="11.216260996"><ele>47</ele><time>2020-01-06T09:13:04Z</time></trkpt>
<trkpt lat="43.781752987" lon="11.21622202"><ele>47</ele><time>2020-01-06T09:13:05Z</time></trkpt>
<trkpt lat="43.781768996" lon="11.216184972"><ele>47</ele><time>2020-01-06T09:13:06Z</time></trkpt>
<trkpt lat="43.781785006" lon="11.216148008"><ele>47</ele><time>2020-01-06T09:13:07Z</time></trkpt>
<trkpt lat="43.781801015" lon="11.216112971"><ele>46</ele><time>2020-01-06T09:13:08Z</time></trkpt>
<trkpt lat="43.78181803" lon="11.216078019"><ele>46</ele><time>2020-01-06T09:13:09Z</time></trkpt>
<trkpt lat="43.781834962" lon="11.216042982"><ele>46</ele><time>2020-01-06T09:13:10Z</time></trkpt>
<trkpt lat="43.781851977" lon="11.216009036"><ele>46</ele><time>2020-01-06T09:13:11Z</time></trkpt>
<trkpt lat="43.781869998" lon="11.215975005"><ele>46</ele><time>2020-01-06T09:13:12Z</time></trkpt>
<trkpt lat="43.781887013" lon="11.215939969"><ele>46</ele><time>2020-01-06T09:13:13Z</time></trkpt>
<trkpt lat="43.781905035" lon="11.215906022"><ele>46</ele><time>2020-01-06T09:13:14Z</time></trkpt>
<trkpt lat="43.781922972" lon="11.215870986"><ele>46</ele><time>2020-01-06T09:13:15Z</time></trkpt>
<trkpt lat="43.781941999" lon="11.215836033"><ele>46</ele><time>2020-01-06T09:13:16Z</time></trkpt>
<trkpt lat="43.78196002" lon="11.215800997"><ele>46</ele><time>2020-01-06T09:13:17Z</time></trkpt>
<trkpt lat="43.781978963" lon="11.215765961"><ele>46</ele><time>2020-01-06T09:13:18Z</time></trkpt>
<trkpt lat="43.781996984" lon="11.215731008"><ele>46</ele><time>2020-01-06T09:13:19Z</time></trkpt>
<trkpt lat="43.782016011" lon="11.215694966"><ele>45</ele><time>2020-01-06T09:13:20Z</time></trkpt>
<trkpt lat="43.782035038" lon="11.215659007"><ele>45</ele><time>2020-01-06T09:13:21Z</time></trkpt>
<trkpt lat="43.782052975" lon="11.215622965"><ele>45</ele><time>2020-01-06T09:13:22Z</time></trkpt>
<trkpt lat="43.782072002" lon="11.215587007"><ele>45</ele><time>2020-01-06T09:13:23Z</time></trkpt>
<trkpt lat="43.782091029" lon="11.215550965"><ele>45</ele><time>2020-01-06T09:13:24Z</time></trkpt>
<trkpt lat="43.782108966" lon="11.215514001"><ele>45</ele><time>2020-01-06T09:13:25Z</time></trkpt>
<trkpt lat="43.782126987" lon="11.215477036"><ele>45</ele><time>2020-01-06T09:13:26Z</time></trkpt>
<trkpt lat="43.782145008" lon="11.215439988"><ele>45</ele><time>2020-01-06T09:13:27Z</time></trkpt>
<trkpt lat="43.78216303" lon="11.215403024"><ele>45</ele><time>2020-01-06T09:13:28Z</time></trkpt>
<trkpt lat="43.782180967" lon="11.21536497"><ele>45</ele><time>2020-01-06T09:13:29Z</time></trkpt>
<trkpt lat="43.782198988" lon="11.215327"><ele>45</ele><time>2020-01-06T09:13:30Z</time></trkpt>
<trkpt lat="43.782217009" lon="11.215290036"><ele>45</ele><time>2020-01-06T09:13:31Z</time></trkpt>
<trkpt lat="43.782234024" lon="11.215251982"><ele>45</ele><time>2020-01-06T09:13:32Z</time></trkpt>
<trkpt lat="43.782251962" lon="11.215214012"><ele>45</ele><time>2020-01-06T09:13:33Z</time></trkpt>
<trkpt lat="43.782268977" lon="11.215175036"><ele>45</ele><time>2020-01-06T09:13:34Z</time></trkpt>
<trkpt lat="43.782285992" lon="11.215136983"><ele>45</ele><time>2020-01-06T09:13:35Z</time></trkpt>
<trkpt lat="43.782303007" lon="11.215099012"><ele>45</ele><time>2020-01-06T09:13:36Z</time></trkpt>
<trkpt lat="43.782320023" lon="11.215060959"><ele>45</ele><time>2020-01-06T09:13:37Z</time></trkpt>
<trkpt lat="43.78233796" lon="11.215021983"><ele>45</ele><time>2020-01-06T09:13:38Z</time></trkpt>
<trkpt lat="43.782354975" lon="11.214984013"><ele>45</ele><time>2020-01-06T09:13:39Z</time></trkpt>
<trkpt lat="43.78237199" lon="11.214945959"><ele>45</ele><time>2020-01-06T09:13:40Z</time></trkpt>
<trkpt lat="43.782389006" lon="11.214907989"><ele>45</ele><time>2020-01-06T09:13:41Z</time></trkpt>
<trkpt lat="43.782406021" lon="11.214869013"><ele>45</ele><time>2020-01-06T09:13:42Z</time></trkpt>
<trkpt lat="43.782423036" lon="11.214830959"><ele>45</ele><time>2020-01-06T09:13:43Z</time></trkpt>
<trkpt lat="43.782439968" lon="11.214792989"><ele>45</ele><time>2020-01-06T09:13:44Z</time></trkpt>
<trkpt lat="43.782456983" lon="11.214755019"><ele>45</ele><time>2020-01-06T09:13:45Z</time></trkpt>
<trkpt lat="43.782473998" lon="11.214717971"><ele>45</ele><time>2020-01-06T09:13:46Z</time></trkpt>
<trkpt lat="43.782491013" lon="11.214680001"><ele>45</ele><time>2020-01-06T09:13:47Z</time></trkpt>
<trkpt lat="43.782508029" lon="11.214642031"><ele>45</ele><time>2020-01-06T09:13:48Z</time></trkpt>
<trkpt lat="43.78252496" lon="11.214603977"><ele>44</ele><time>2020-01-06T09:13:49Z</time></trkpt>
<trkpt lat="43.782541975" lon="11.214566007"><ele>44</ele><time>2020-01-06T09:13:50Z</time></trkpt>
<trkpt lat="43.782557985" lon="11.214528959"><ele>44</ele><time>2020-01-06T09:13:51Z</time></trkpt>
<trkpt lat="43.782575" lon="11.214490989"><ele>44</ele><time>2020-01-06T09:13:52Z</time></trkpt>
<trkpt lat="43.782592015" lon="11.214454025"><ele>44</ele><time>2020-01-06T09:13:53Z</time></trkpt>
<trkpt lat="43.782608025" lon="11.214415971"><ele>44</ele><time>2020-01-06T09:13:54Z</time></trkpt>
<trkpt lat="43.78262504" lon="11.214379007"><ele>44</ele><time>2020-01-06T09:13:55Z</time></trkpt>
<trkpt lat="43.782640966" lon="11.214341037"><ele>44</ele><time>2020-01-06T09:13:56Z</time></trkpt>
<trkpt lat="43.782657981" lon="11.214303989"><ele>44</ele><time>2020-01-06T09:13:57Z</time></trkpt>
<trkpt lat="43.78267399" lon="11.214267025"><ele>44</ele><time>2020-01-06T09:13:58Z</time></trkpt>
<trkpt lat="43.78269" lon="11.214228971"><ele>44</ele><time>2020-01-06T09:13:59Z</time></trkpt>
<trkpt lat="43.782706009" lon="11.214192007"><ele>44</ele><time>2020-01-06T09:14:00Z</time></trkpt>
<trkpt lat="43.782722019" lon="11.214154959"><ele>44</ele><time>2020-01-06T09:14:01Z</time></trkpt>
<trkpt lat="43.782738028" lon="11.214117995"><ele>44</ele><time>2020-01-06T09:14:02Z</time></trkpt>
<trkpt lat="43.782754038" lon="11.21408103"><ele>44</ele><time>2020-01-06T09:14:03Z</time></trkpt>
<trkpt lat="43.782770969" lon="11.214042976"><ele>44</ele><time>2020-01-06T09:14:04Z</time></trkpt>
<trkpt lat="43.782786978" lon="11.214006012"><ele>44</ele><time>2020-01-06T09:14:05Z</time></trkpt>
<trkpt lat="43.782802988" lon="11.213968964"><ele>44</ele><time>2020-01-06T09:14:06Z</time></trkpt>
<trkpt lat="43.782820003" lon="11.213932"><ele>44</ele><time>2020-01-06T09:14:07Z</time></trkpt>
<trkpt lat="43.782836013" lon="11.213895036"><ele>44</ele><time>2020-01-06T09:14:08Z</time></trkpt>
<trkpt lat="43.782853028" lon="11.213857988"><ele>44</ele><time>2020-01-06T09:14:09Z</time></trkpt>
<trkpt lat="43.782869959" lon="11.213820018"><ele>44</ele><time>2020-01-06T09:14:10Z</time></trkpt>
<trkpt lat="43.782886975" lon="11.21378297"><ele>44</ele><time>2020-01-06T09:14:11Z</time></trkpt>
<trkpt lat="43.78290399" lon="11.213746006"><ele>44</ele><time>2020-01-06T09:14:12Z</time></trkpt>
<trkpt lat="43.782922011" lon="11.213709041"><ele>44</ele><time>2020-01-06T09:14:13Z</time></trkpt>
<trkpt lat="43.782940032" lon="11.213671993"><ele>44</ele><time>2020-01-06T09:14:14Z</time></trkpt>
<trkpt lat="43.782956963" lon="11.213635029"><ele>44</ele><time>2020-01-06T09:14:15Z</time></trkpt>
<trkpt lat="43.782974984" lon="11.213597981"><ele>44</ele><time>2020-01-06T09:14:16Z</time></trkpt>
<trkpt lat="43.782993006" lon="11.213560011"><ele>44</ele><time>2020-01-06T09:14:17Z</time></trkpt>
<trkpt lat="43.783011027" lon="11.213522963"><ele>44</ele><time>2020-01-06T09:14:18Z</time></trkpt>
<trkpt lat="43.783028964" lon="11.213485999"><ele>44</ele><time>2020-01-06T09:14:19Z</time></trkpt>
<trkpt lat="43.783046985" lon="11.213449035"><ele>44</ele><time>2020-01-06T09:14:20Z</time></trkpt>
<trkpt lat="43.783065006" lon="11.213411987"><ele>44</ele><time>2020-01-06T09:14:21Z</time></trkpt>
<trkpt lat="43.783082021" lon="11.213374017"><ele>44</ele><time>2020-01-06T09:14:22Z</time></trkpt>
<trkpt lat="43.783099959" lon="11.213336969"><ele>44</ele><time>2020-01-06T09:14:23Z</time></trkpt>
<trkpt lat="43.783116974" lon="11.213300005"><ele>44</ele><time>2020-01-06T09:14:24Z</time></trkpt>
<trkpt lat="43.783133989" lon="11.21326304"><ele>45</ele><time>2020-01-06T09:14:25Z</time></trkpt>
<trkpt lat="43.783151004" lon="11.213225992"><ele>45</ele><time>2020-01-06T09:14:26Z</time></trkpt>
<trkpt lat="43.78316802" lon="11.213188022"><ele>45</ele><time>2020-01-06T09:14:27Z</time></trkpt>
<trkpt lat="43.783184029" lon="11.213150974"><ele>45</ele><time>2020-01-06T09:14:28Z</time></trkpt>
<trkpt lat="43.783200961" lon="11.21311401"><ele>45</ele><time>2020-01-06T09:14:29Z</time></trkpt>
<trkpt lat="43.78321697" lon="11.21307604"><ele>45</ele><time>2020-01-06T09:14:30Z</time></trkpt>
<trkpt lat="43.783232979" lon="11.213038992"><ele>45</ele><time>2020-01-06T09:14:31Z</time></trkpt>
<trkpt lat="43.783248989" lon="11.213002028"><ele>45</ele><time>2020-01-06T09:14:32Z</time></trkpt>
<trkpt lat="43.783264998" lon="11.212963974"><ele>45</ele><time>2020-01-06T09:14:33Z</time></trkpt>
<trkpt lat="43.783281008" lon="11.21292701"><ele>45</ele><time>2020-01-06T09:14:34Z</time></trkpt>
<trkpt lat="43.783297017" lon="11.21288904"><ele>45</ele><time>2020-01-06T09:14:35Z</time></trkpt>
<trkpt lat="43.783313027" lon="11.212851992"><ele>45</ele><time>2020-01-06T09:14:36Z</time></trkpt>
<trkpt lat="43.783329036" lon="11.212814022"><ele>45</ele><time>2020-01-06T09:14:37Z</time></trkpt>
<trkpt lat="43.783344962" lon="11.212776974"><ele>45</ele><time>2020-01-06T09:14:38Z</time></trkpt>
<trkpt lat="43.783360971" lon="11.212739004"><ele>45</ele><time>2020-01-06T09:14:39Z</time></trkpt>
<trkpt lat="43.783376981" lon="11.212701034"><ele>44</ele><time>2020-01-06T09:14:40Z</time></trkpt>
<trkpt lat="43.783393996" lon="11.21266298"><ele>44</ele><time>2020-01-06T09:14:41Z</time></trkpt>
<trkpt lat="43.783411011" lon="11.21262501"><ele>44</ele><time>2020-01-06T09:14:42Z</time></trkpt>
<trkpt lat="43.783428026" lon="11.21258704"><ele>44</ele><time>2020-01-06T09:14:43Z</time></trkpt>
<trkpt lat="43.783445042" lon="11.212549992"><ele>44</ele><time>2020-01-06T09:14:44Z</time></trkpt>
<trkpt lat="43.783461973" lon="11.212512022"><ele>44</ele><time>2020-01-06T09:14:45Z</time></trkpt>
<trkpt lat="43.783478988" lon="11.212473968"><ele>44</ele><time>2020-01-06T09:14:46Z</time></trkpt>
<trkpt lat="43.783497009" lon="11.212435998"><ele>44</ele><time>2020-01-06T09:14:47Z</time></trkpt>
<trkpt lat="43.783515031" lon="11.212399034"><ele>43</ele><time>2020-01-06T09:14:48Z</time></trkpt>
<trkpt lat="43.783532968" lon="11.21236098"><ele>43</ele><time>2020-01-06T09:14:49Z</time></trkpt>
<trkpt lat="43.783550989" lon="11.212324016"><ele>43</ele><time>2020-01-06T09:14:50Z</time></trkpt>
<trkpt lat="43.78356901" lon="11.212286968"><ele>43</ele><time>2020-01-06T09:14:51Z</time></trkpt>
<trkpt lat="43.783587031" lon="11.212250004"><ele>43</ele><time>2020-01-06T09:14:52Z</time></trkpt>
<trkpt lat="43.783605974" lon="11.212213961"><ele>43</ele><time>2020-01-06T09:14:53Z</time></trkpt>
<trkpt lat="43.783625001" lon="11.212176997"><ele>43</ele><time>2020-01-06T09:14:54Z</time></trkpt>
<trkpt lat="43.783644028" lon="11.212141039"><ele>43</ele><time>2020-01-06T09:14:55Z</time></trkpt>
<trkpt lat="43.783662971" lon="11.212106002"><ele>43</ele><time>2020-01-06T09:14:56Z</time></trkpt>
<trkpt lat="43.783681998" lon="11.21206996"><ele>43</ele><time>2020-01-06T09:14:57Z</time></trkpt>
<trkpt lat="43.783702031" lon="11.212035008"><ele>43</ele><time>2020-01-06T09:14:58Z</time></trkpt>
<trkpt lat="43.783720974" lon="11.211999971"><ele>43</ele><time>2020-01-06T09:14:59Z</time></trkpt>
<trkpt lat="43.783740001" lon="11.211966025"><ele>43</ele><time>2020-01-06T09:15:00Z</time></trkpt>
<trkpt lat="43.783760034" lon="11.211930988"><ele>43</ele><time>2020-01-06T09:15:01Z</time></trkpt>
<trkpt lat="43.783778977" lon="11.211896036"><ele>43</ele><time>2020-01-06T09:15:02Z</time></trkpt>
<trkpt lat="43.783798004" lon="11.211860999"><ele>43</ele><time>2020-01-06T09:15:03Z</time></trkpt>
<trkpt lat="43.78381703" lon="11.211826969"><ele>44</ele><time>2020-01-06T09:15:04Z</time></trkpt>
<trkpt lat="43.783835974" lon="11.211792016"><ele>44</ele><time>2020-01-06T09:15:05Z</time></trkpt>
<trkpt lat="43.783855001" lon="11.211755974"><ele>44</ele><time>2020-01-06T09:15:06Z</time></trkpt>
<trkpt lat="43.783873022" lon="11.211721022"><ele>44</ele><time>2020-01-06T09:15:07Z</time></trkpt>
<trkpt lat="43.783891965" lon="11.211684979"><ele>44</ele><time>2020-01-06T09:15:08Z</time></trkpt>
<trkpt lat="43.78390898" lon="11.211649021"><ele>44</ele><time>2020-01-06T09:15:09Z</time></trkpt>
<trkpt lat="43.783927001" lon="11.211611973"><ele>44</ele><time>2020-01-06T09:15:10Z</time></trkpt>
<trkpt lat="43.783944016" lon="11.211575009"><ele>44</ele><time>2020-01-06T09:15:11Z</time></trkpt>
<trkpt lat="43.783960026" lon="11.211537961"><ele>44</ele><time>2020-01-06T09:15:12Z</time></trkpt>
<trkpt lat="43.783977041" lon="11.211499991"><ele>44</ele><time>2020-01-06T09:15:13Z</time></trkpt>
<trkpt lat="43.783992967" lon="11.211461015"><ele>44</ele><time>2020-01-06T09:15:14Z</time></trkpt>
<trkpt lat="43.784008976" lon="11.211422961"><ele>44</ele><time>2020-01-06T09:15:15Z</time></trkpt>
<trkpt lat="43.78402398" lon="11.211383985"><ele>44</ele><time>2020-01-06T09:15:16Z</time></trkpt>
<trkpt lat="43.784039989" lon="11.211346015"><ele>44</ele><time>2020-01-06T09:15:17Z</time></trkpt>
<trkpt lat="43.784054993" lon="11.211307039"><ele>44</ele><time>2020-01-06T09:15:18Z</time></trkpt>
<trkpt lat="43.784069996" lon="11.21126798"><ele>44</ele><time>2020-01-06T09:15:19Z</time></trkpt>
<trkpt lat="43.784086006" lon="11.211229004"><ele>44</ele><time>2020-01-06T09:15:20Z</time></trkpt>
<trkpt lat="43.784101009" lon="11.211190028"><ele>44</ele><time>2020-01-06T09:15:21Z</time></trkpt>
<trkpt lat="43.784117019" lon="11.211150968"><ele>44</ele><time>2020-01-06T09:15:22Z</time></trkpt>
<trkpt lat="43.784132022" lon="11.211112998"><ele>44</ele><time>2020-01-06T09:15:23Z</time></trkpt>
<trkpt lat="43.784148032" lon="11.211075028"><ele>44</ele><time>2020-01-06T09:15:24Z</time></trkpt>
<trkpt lat="43.784164041" lon="11.211036975"><ele>44</ele><time>2020-01-06T09:15:25Z</time></trkpt>
<trkpt lat="43.784179967" lon="11.210999005"><ele>44</ele><time>2020-01-06T09:15:26Z</time></trkpt>
<trkpt lat="43.784195976" lon="11.21096204"><ele>44</ele><time>2020-01-06T09:15:27Z</time></trkpt>
<trkpt lat="43.784212992" lon="11.210924992"><ele>44</ele><time>2020-01-06T09:15:28Z</time></trkpt>
<trkpt lat="43.784230007" lon="11.210888028"><ele>44</ele><time>2020-01-06T09:15:29Z</time></trkpt>
<trkpt lat="43.784247022" lon="11.210851986"><ele>44</ele><time>2020-01-06T09:15:30Z</time></trkpt>
<trkpt lat="43.784264037" lon="11.210815022"><ele>44</ele><time>2020-01-06T09:15:31Z</time></trkpt>
<trkpt lat="43.784280969" lon="11.21077898"><ele>44</ele><time>2020-01-06T09:15:32Z</time></trkpt>
<trkpt lat="43.784297984" lon="11.210742015"><ele>44</ele><time>2020-01-06T09:15:33Z</time></trkpt>
<trkpt lat="43.784316005" lon="11.210705973"><ele>44</ele><time>2020-01-06T09:15:34Z</time></trkpt>
<trkpt lat="43.784334026" lon="11.210670015"><ele>44</ele><time>2020-01-06T09:15:35Z</time></trkpt>
<trkpt lat="43.784351964" lon="11.210632967"><ele>44</ele><time>2020-01-06T09:15:36Z</time></trkpt>
<trkpt lat="43.784368979" lon="11.210597008"><ele>44</ele><time>2020-01-06T09:15:37Z</time></trkpt>
<trkpt lat="43.784387" lon="11.210560966"><ele>44</ele><time>2020-01-06T09:15:38Z</time></trkpt>
<trkpt lat="43.784406027" lon="11.210524002"><ele>44</ele><time>2020-01-06T09:15:39Z</time></trkpt>
<trkpt lat="43.784423964" lon="11.210487038"><ele>44</ele><time>2020-01-06T09:15:40Z</time></trkpt>
<trkpt lat="43.784441985" lon="11.210450996"><ele>44</ele><time>2020-01-06T09:15:41Z</time></trkpt>
<trkpt lat="43.784460006" lon="11.210414032"><ele>44</ele><time>2020-01-06T09:15:42Z</time></trkpt>
<trkpt lat="43.784479033" lon="11.210376984"><ele>44</ele><time>2020-01-06T09:15:43Z</time></trkpt>
<trkpt lat="43.78449697" lon="11.210340019"><ele>44</ele><time>2020-01-06T09:15:44Z</time></trkpt>
<trkpt lat="43.784515997" lon="11.210302971"><ele>44</ele><time>2020-01-06T09:15:45Z</time></trkpt>
<trkpt lat="43.784534018" lon="11.210267013"><ele>44</ele><time>2020-01-06T09:15:46Z</time></trkpt>
<trkpt lat="43.78455204" lon="11.210229965"><ele>44</ele><time>2020-01-06T09:15:47Z</time></trkpt>
<trkpt lat="43.784570983" lon="11.210194007"><ele>44</ele><time>2020-01-06T09:15:48Z</time></trkpt>
<trkpt lat="43.784589004" lon="11.210156959"><ele>44</ele><time>2020-01-06T09:15:49Z</time></trkpt>
<trkpt lat="43.784607025" lon="11.210121"><ele>44</ele><time>2020-01-06T09:15:50Z</time></trkpt>
<trkpt lat="43.784624962" lon="11.210085042"><ele>44</ele><time>2020-01-06T09:15:51Z</time></trkpt>
<trkpt lat="43.784642983" lon="11.210050005"><ele>45</ele><time>2020-01-06T09:15:52Z</time></trkpt>
<trkpt lat="43.784661004" lon="11.210014969"><ele>45</ele><time>2020-01-06T09:15:53Z</time></trkpt>
<trkpt lat="43.78467802" lon="11.209980017"><ele>45</ele><time>2020-01-06T09:15:54Z</time></trkpt>
<trkpt lat="43.784696041" lon="11.20994498"><ele>45</ele><time>2020-01-06T09:15:55Z</time></trkpt>
<trkpt lat="43.784712972" lon="11.209911034"><ele>45</ele><time>2020-01-06T09:15:56Z</time></trkpt>
<trkpt lat="43.784729987" lon="11.209875997"><ele>45</ele><time>2020-01-06T09:15:57Z</time></trkpt>
<trkpt lat="43.784747003" lon="11.209841967"><ele>45</ele><time>2020-01-06T09:15:58Z</time></trkpt>
<trkpt lat="43.784763012" lon="11.209807014"><ele>45</ele><time>2020-01-06T09:15:59Z</time></trkpt>
<trkpt lat="43.784780027" lon="11.209770972"><ele>44</ele><time>2020-01-06T09:16:00Z</time></trkpt>
<trkpt lat="43.784796037" lon="11.209735014"><ele>44</ele><time>2020-01-06T09:16:01Z</time></trkpt>
<trkpt lat="43.784812968" lon="11.209697966"><ele>44</ele><time>2020-01-06T09:16:02Z</time></trkpt>
<trkpt lat="43.784828978" lon="11.209659996"><ele>44</ele><time>2020-01-06T09:16:03Z</time></trkpt>
<trkpt lat="43.784844987" lon="11.20962102"><ele>44</ele><time>2020-01-06T09:16:04Z</time></trkpt>
<trkpt lat="43.784860997" lon="11.20958196"><ele>44</ele><time>2020-01-06T09:16:05Z</time></trkpt>
<trkpt lat="43.784877006" lon="11.209542984"><ele>44</ele><time>2020-01-06T09:16:06Z</time></trkpt>
<trkpt lat="43.784894021" lon="11.209504008"><ele>44</ele><time>2020-01-06T09:16:07Z</time></trkpt>
<trkpt lat="43.784911036" lon="11.209466038"><ele>44</ele><time>2020-01-06T09:16:08Z</time></trkpt>
<trkpt lat="43.784928974" lon="11.209427984"><ele>44</ele><time>2020-01-06T09:16:09Z</time></trkpt>
<trkpt lat="43.784946995" lon="11.20939102"><ele>44</ele><time>2020-01-06T09:16:10Z</time></trkpt>
<trkpt lat="43.784966022" lon="11.209355984"><ele>44</ele><time>2020-01-06T09:16:11Z</time></trkpt>
<trkpt lat="43.784984965" lon="11.209321031"><ele>44</ele><time>2020-01-06T09:16:12Z</time></trkpt>
<trkpt lat="43.785003992" lon="11.209287001"><ele>44</ele><time>2020-01-06T09:16:13Z</time></trkpt>
<trkpt lat="43.785023019" lon="11.20925297"><ele>44</ele><time>2020-01-06T09:16:14Z</time></trkpt>
<trkpt lat="43.78504104" lon="11.209220029"><ele>44</ele><time>2020-01-06T09:16:15Z</time></trkpt>
<trkpt lat="43.785057971" lon="11.209185999"><ele>44</ele><time>2020-01-06T09:16:16Z</time></trkpt>
<trkpt lat="43.785073981" lon="11.209151968"><ele>44</ele><time>2020-01-06T09:16:17Z</time></trkpt>
<trkpt lat="43.785088984" lon="11.209118022"><ele>44</ele><time>2020-01-06T09:16:18Z</time></trkpt>
<trkpt lat="43.785102982" lon="11.209081979"><ele>44</ele><time>2020-01-06T09:16:19Z</time></trkpt>
<trkpt lat="43.78511698" lon="11.209045015"><ele>44</ele><time>2020-01-06T09:16:20Z</time></trkpt>
<trkpt lat="43.785128966" lon="11.209006961"><ele>44</ele><time>2020-01-06T09:16:21Z</time></trkpt>
<trkpt lat="43.785141036" lon="11.208965974"><ele>44</ele><time>2020-01-06T09:16:22Z</time></trkpt>
<trkpt lat="43.785152016" lon="11.208922975"><ele>44</ele><time>2020-01-06T09:16:23Z</time></trkpt>
<trkpt lat="43.785162997" lon="11.208877964"><ele>44</ele><time>2020-01-06T09:16:24Z</time></trkpt>
<trkpt lat="43.785173977" lon="11.208832031"><ele>44</ele><time>2020-01-06T09:16:25Z</time></trkpt>
<trkpt lat="43.785185963" lon="11.20878702"><ele>44</ele><time>2020-01-06T09:16:26Z</time></trkpt>
<trkpt lat="43.785198033" lon="11.208745027"><ele>44</ele><time>2020-01-06T09:16:27Z</time></trkpt>
<trkpt lat="43.785213036" lon="11.208705967"><ele>44</ele><time>2020-01-06T09:16:28Z</time></trkpt>
<trkpt lat="43.78522804" lon="11.208670009"><ele>44</ele><time>2020-01-06T09:16:29Z</time></trkpt>
<trkpt lat="43.785244972" lon="11.208635978"><ele>44</ele><time>2020-01-06T09:16:30Z</time></trkpt>
<trkpt lat="43.785261987" lon="11.208603038"><ele>44</ele><time>2020-01-06T09:16:31Z</time></trkpt>
<trkpt lat="43.785280008" lon="11.208569007"><ele>44</ele><time>2020-01-06T09:16:32Z</time></trkpt>
<trkpt lat="43.785299035" lon="11.208533971"><ele>44</ele><time>2020-01-06T09:16:33Z</time></trkpt>
<trkpt lat="43.785317978" lon="11.208499018"><ele>44</ele><time>2020-01-06T09:16:34Z</time></trkpt>
<trkpt lat="43.785337005" lon="11.208462976"><ele>44</ele><time>2020-01-06T09:16:35Z</time></trkpt>
<trkpt lat="43.785356032" lon="11.208427018"><ele>45</ele><time>2020-01-06T09:16:36Z</time></trkpt>
<trkpt lat="43.785374975" lon="11.20838997"><ele>45</ele><time>2020-01-06T09:16:37Z</time></trkpt>
<trkpt lat="43.785394002" lon="11.208353005"><ele>45</ele><time>2020-01-06T09:16:38Z</time></trkpt>
<trkpt lat="43.785412023" lon="11.208315035"><ele>45</ele><time>2020-01-06T09:16:39Z</time></trkpt>
<trkpt lat="43.78542996" lon="11.208276981"><ele>45</ele><time>2020-01-06T09:16:40Z</time></trkpt>
<trkpt lat="43.785447981" lon="11.208239011"><ele>45</ele><time>2020-01-06T09:16:41Z</time></trkpt>
<trkpt lat="43.785466002" lon="11.208201041"><ele>45</ele><time>2020-01-06T09:16:42Z</time></trkpt>
<trkpt lat="43.785483018" lon="11.208162988"><ele>45</ele><time>2020-01-06T09:16:43Z</time></trkpt>
<trkpt lat="43.785500033" lon="11.208125018"><ele>45</ele><time>2020-01-06T09:16:44Z</time></trkpt>
<trkpt lat="43.785515958" lon="11.208086042"><ele>45</ele><time>2020-01-06T09:16:45Z</time></trkpt>
<trkpt lat="43.785532974" lon="11.208047988"><ele>45</ele><time>2020-01-06T09:16:46Z</time></trkpt>
<trkpt lat="43.785548983" lon="11.208010018"><ele>45</ele><time>2020-01-06T09:16:47Z</time></trkpt>
<trkpt lat="43.785564993" lon="11.207971964"><ele>45</ele><time>2020-01-06T09:16:48Z</time></trkpt>
<trkpt lat="43.785581002" lon="11.207933994"><ele>45</ele><time>2020-01-06T09:16:49Z</time></trkpt>
<trkpt lat="43.785597011" lon="11.207896024"><ele>45</ele><time>2020-01-06T09:16:50Z</time></trkpt>
<trkpt lat="43.785612015" lon="11.207858976"><ele>45</ele><time>2020-01-06T09:16:51Z</time></trkpt>
<trkpt lat="43.785628024" lon="11.207821006"><ele>45</ele><time>2020-01-06T09:16:52Z</time></trkpt>
<trkpt lat="43.785643028" lon="11.207784042"><ele>45</ele><time>2020-01-06T09:16:53Z</time></trkpt>
<trkpt lat="43.785658032" lon="11.207748"><ele>45</ele><time>2020-01-06T09:16:54Z</time></trkpt>
<trkpt lat="43.785673035" lon="11.207712041"><ele>45</ele><time>2020-01-06T09:16:55Z</time></trkpt>
<trkpt lat="43.785688039" lon="11.207674993"><ele>45</ele><time>2020-01-06T09:16:56Z</time></trkpt>
<trkpt lat="43.785702959" lon="11.207640041"><ele>45</ele><time>2020-01-06T09:16:57Z</time></trkpt>
<trkpt lat="43.78571704" lon="11.207603998"><ele>45</ele><time>2020-01-06T09:16:58Z</time></trkpt>
<trkpt lat="43.78573196" lon="11.20756804"><ele>44</ele><time>2020-01-06T09:16:59Z</time></trkpt>
<trkpt lat="43.785746042" lon="11.207531998"><ele>44</ele><time>2020-01-06T09:17:00Z</time></trkpt>
<trkpt lat="43.785760039" lon="11.20749604"><ele>44</ele><time>2020-01-06T09:17:01Z</time></trkpt>
<trkpt lat="43.785773031" lon="11.207459997"><ele>44</ele><time>2020-01-06T09:17:02Z</time></trkpt>
<trkpt lat="43.785787029" lon="11.207423033"><ele>44</ele><time>2020-01-06T09:17:03Z</time></trkpt>
<trkpt lat="43.785800021" lon="11.207386991"><ele>44</ele><time>2020-01-06T09:17:04Z</time></trkpt>
<trkpt lat="43.785814019" lon="11.207350027"><ele>44</ele><time>2020-01-06T09:17:05Z</time></trkpt>
<trkpt lat="43.785828017" lon="11.207312979"><ele>44</ele><time>2020-01-06T09:17:06Z</time></trkpt>
<trkpt lat="43.78584302" lon="11.20727702"><ele>44</ele><time>2020-01-06T09:17:07Z</time></trkpt>
<trkpt lat="43.785858024" lon="11.207239972"><ele>44</ele><time>2020-01-06T09:17:08Z</time></trkpt>
<trkpt lat="43.785874033" lon="11.207203008"><ele>44</ele><time>2020-01-06T09:17:09Z</time></trkpt>
<trkpt lat="43.785890965" lon="11.207166966"><ele>44</ele><time>2020-01-06T09:17:10Z</time></trkpt>
<trkpt lat="43.78590798" lon="11.207130002"><ele>44</ele><time>2020-01-06T09:17:11Z</time></trkpt>
<trkpt lat="43.785926001" lon="11.207093038"><ele>45</ele><time>2020-01-06T09:17:12Z</time></trkpt>
<trkpt lat="43.785944022" lon="11.207056995"><ele>45</ele><time>2020-01-06T09:17:13Z</time></trkpt>
<trkpt lat="43.785962965" lon="11.207021037"><ele>45</ele><time>2020-01-06T09:17:14Z</time></trkpt>
<trkpt lat="43.785981992" lon="11.206983989"><ele>45</ele><time>2020-01-06T09:17:15Z</time></trkpt>
<trkpt lat="43.786001019" lon="11.206948031"><ele>45</ele><time>2020-01-06T09:17:16Z</time></trkpt>
<trkpt lat="43.786019962" lon="11.206910983"><ele>45</ele><time>2020-01-06T09:17:17Z</time></trkpt>
<trkpt lat="43.786039995" lon="11.206875024"><ele>45</ele><time>2020-01-06T09:17:18Z</time></trkpt>
<trkpt lat="43.786060028" lon="11.206837976"><ele>45</ele><time>2020-01-06T09:17:19Z</time></trkpt>
<trkpt lat="43.786078971" lon="11.206801012"><ele>46</ele><time>2020-01-06T09:17:20Z</time></trkpt>
<trkpt lat="43.786097998" lon="11.20676497"><ele>46</ele><time>2020-01-06T09:17:21Z</time></trkpt>
<trkpt lat="43.786117025" lon="11.206728006"><ele>46</ele><time>2020-01-06T09:17:22Z</time></trkpt>
<trkpt lat="43.786135968" lon="11.206691042"><ele>46</ele><time>2020-01-06T09:17:23Z</time></trkpt>
<trkpt lat="43.786154995" lon="11.206654999"><ele>46</ele><time>2020-01-06T09:17:24Z</time></trkpt>
<trkpt lat="43.786173016" lon="11.206618035"><ele>46</ele><time>2020-01-06T09:17:25Z</time></trkpt>
<trkpt lat="43.786191037" lon="11.206580987"><ele>46</ele><time>2020-01-06T09:17:26Z</time></trkpt>
<trkpt lat="43.786208974" lon="11.206544023"><ele>46</ele><time>2020-01-06T09:17:27Z</time></trkpt>
<trkpt lat="43.786225989" lon="11.206507981"><ele>46</ele><time>2020-01-06T09:17:28Z</time></trkpt>
<trkpt lat="43.786244011" lon="11.206471017"><ele>46</ele><time>2020-01-06T09:17:29Z</time></trkpt>
<trkpt lat="43.786261026" lon="11.206433969"><ele>46</ele><time>2020-01-06T09:17:30Z</time></trkpt>
<trkpt lat="43.786278963" lon="11.20639801"><ele>46</ele><time>2020-01-06T09:17:31Z</time></trkpt>
<trkpt lat="43.786295978" lon="11.206361968"><ele>46</ele><time>2020-01-06T09:17:32Z</time></trkpt>
<trkpt lat="43.786313999" lon="11.206325004"><ele>46</ele><time>2020-01-06T09:17:33Z</time></trkpt>
<trkpt lat="43.786331015" lon="11.206288962"><ele>46</ele><time>2020-01-06T09:17:34Z</time></trkpt>
<trkpt lat="43.786349036" lon="11.206254009"><ele>46</ele><time>2020-01-06T09:17:35Z</time></trkpt>
<trkpt lat="43.786365967" lon="11.206217967"><ele>46</ele><time>2020-01-06T09:17:36Z</time></trkpt>
<trkpt lat="43.786383988" lon="11.206183014"><ele>46</ele><time>2020-01-06T09:17:37Z</time></trkpt>
<trkpt lat="43.786402009" lon="11.206147978"><ele>46</ele><time>2020-01-06T09:17:38Z</time></trkpt>
<trkpt lat="43.786420031" lon="11.206113026"><ele>46</ele><time>2020-01-06T09:17:39Z</time></trkpt>
<trkpt lat="43.786437968" lon="11.206077989"><ele>46</ele><time>2020-01-06T09:17:40Z</time></trkpt>
<trkpt lat="43.786455989" lon="11.206043959"><ele>46</ele><time>2020-01-06T09:17:41Z</time></trkpt>
<trkpt lat="43.78647401" lon="11.206009006"><ele>46</ele><time>2020-01-06T09:17:42Z</time></trkpt>
<trkpt lat="43.786492031" lon="11.205974976"><ele>45</ele><time>2020-01-06T09:17:43Z</time></trkpt>
<trkpt lat="43.786509968" lon="11.205941029"><ele>45</ele><time>2020-01-06T09:17:44Z</time></trkpt>
<trkpt lat="43.786527989" lon="11.205905993"><ele>45</ele><time>2020-01-06T09:17:45Z</time></trkpt>
<trkpt lat="43.786546011" lon="11.205871962"><ele>45</ele><time>2020-01-06T09:17:46Z</time></trkpt>
<trkpt lat="43.786563026" lon="11.205837009"><ele>45</ele><time>2020-01-06T09:17:47Z</time></trkpt>
<trkpt lat="43.786580963" lon="11.205801973"><ele>45</ele><time>2020-01-06T09:17:48Z</time></trkpt>
<trkpt lat="43.786597978" lon="11.205766015"><ele>45</ele><time>2020-01-06T09:17:49Z</time></trkpt>
<trkpt lat="43.786614994" lon="11.205730978"><ele>45</ele><time>2020-01-06T09:17:50Z</time></trkpt>
<trkpt lat="43.786631003" lon="11.20569502"><ele>45</ele><time>2020-01-06T09:17:51Z</time></trkpt>
<trkpt lat="43.786648018" lon="11.205657972"><ele>45</ele><time>2020-01-06T09:17:52Z</time></trkpt>
<trkpt lat="43.786664028" lon="11.205621008"><ele>44</ele><time>2020-01-06T09:17:53Z</time></trkpt>
<trkpt lat="43.786679031" lon="11.20558396"><ele>44</ele><time>2020-01-06T09:17:54Z</time></trkpt>
<trkpt lat="43.786695041" lon="11.20554599"><ele>44</ele><time>2020-01-06T09:17:55Z</time></trkpt>
<trkpt lat="43.786709961" lon="11.20550802"><ele>44</ele><time>2020-01-06T09:17:56Z</time></trkpt>
<trkpt lat="43.786724964" lon="11.205469966"><ele>44</ele><time>2020-01-06T09:17:57Z</time></trkpt>
<trkpt lat="43.786739968" lon="11.205431996"><ele>44</ele><time>2020-01-06T09:17:58Z</time></trkpt>
<trkpt lat="43.786754971" lon="11.205394026"><ele>44</ele><time>2020-01-06T09:17:59Z</time></trkpt>
<trkpt lat="43.786769975" lon="11.205355972"><ele>44</ele><time>2020-01-06T09:18:00Z</time></trkpt>
<trkpt lat="43.786783973" lon="11.205319008"><ele>43</ele><time>2020-01-06T09:18:01Z</time></trkpt>
<trkpt lat="43.786799982" lon="11.205281038"><ele>43</ele><time>2020-01-06T09:18:02Z</time></trkpt>
<trkpt lat="43.786814986" lon="11.20524399"><ele>43</ele><time>2020-01-06T09:18:03Z</time></trkpt>
<trkpt lat="43.786829989" lon="11.205207026"><ele>43</ele><time>2020-01-06T09:18:04Z</time></trkpt>
<trkpt lat="43.786845999" lon="11.205170983"><ele>43</ele><time>2020-01-06T09:18:05Z</time></trkpt>
<trkpt lat="43.786862008" lon="11.205136031"><ele>43</ele><time>2020-01-06T09:18:06Z</time></trkpt>
<trkpt lat="43.786879024" lon="11.205100995"><ele>43</ele><time>2020-01-06T09:18:07Z</time></trkpt>
<trkpt lat="43.786896039" lon="11.205066964"><ele>43</ele><time>2020-01-06T09:18:08Z</time></trkpt>
<trkpt lat="43.786913976" lon="11.205033017"><ele>43</ele><time>2020-01-06T09:18:09Z</time></trkpt>
<trkpt lat="43.786930991" lon="11.204999993"><ele>44</ele><time>2020-01-06T09:18:10Z</time></trkpt>
<trkpt lat="43.786949012" lon="11.204966968"><ele>44</ele><time>2020-01-06T09:18:11Z</time></trkpt>
<trkpt lat="43.786967034" lon="11.204933021"><ele>44</ele><time>2020-01-06T09:18:12Z</time></trkpt>
<trkpt lat="43.786984971" lon="11.204898991"><ele>44</ele><time>2020-01-06T09:18:13Z</time></trkpt>
<trkpt lat="43.787001986" lon="11.20486496"><ele>44</ele><time>2020-01-06T09:18:14Z</time></trkpt>
<trkpt lat="43.787020007" lon="11.204829002"><ele>44</ele><time>2020-01-06T09:18:15Z</time></trkpt>
<trkpt lat="43.787037022" lon="11.20479296"><ele>44</ele><time>2020-01-06T09:18:16Z</time></trkpt>
<trkpt lat="43.787053032" lon="11.20475499"><ele>44</ele><time>2020-01-06T09:18:17Z</time></trkpt>
<trkpt lat="43.787069963" lon="11.20471702"><ele>44</ele><time>2020-01-06T09:18:18Z</time></trkpt>
<trkpt lat="43.787086979" lon="11.204678966"><ele>44</ele><time>2020-01-06T09:18:19Z</time></trkpt>
<trkpt lat="43.787102988" lon="11.20463999"><ele>45</ele><time>2020-01-06T09:18:20Z</time></trkpt>
<trkpt lat="43.787121009" lon="11.20460202"><ele>45</ele><time>2020-01-06T09:18:21Z</time></trkpt>
<trkpt lat="43.787138024" lon="11.204564972"><ele>45</ele><time>2020-01-06T09:18:22Z</time></trkpt>
<trkpt lat="43.787155962" lon="11.204528008"><ele>45</ele><time>2020-01-06T09:18:23Z</time></trkpt>
<trkpt lat="43.787173983" lon="11.20449096"><ele>45</ele><time>2020-01-06T09:18:24Z</time></trkpt>
<trkpt lat="43.78719301" lon="11.204456007"><ele>45</ele><time>2020-01-06T09:18:25Z</time></trkpt>
<trkpt lat="43.787212037" lon="11.204419965"><ele>45</ele><time>2020-01-06T09:18:26Z</time></trkpt>
<trkpt lat="43.787231985" lon="11.204385012"><ele>46</ele><time>2020-01-06T09:18:27Z</time></trkpt>
<trkpt lat="43.787251012" lon="11.204349976"><ele>46</ele><time>2020-01-06T09:18:28Z</time></trkpt>
<trkpt lat="43.787270961" lon="11.204315023"><ele>46</ele><time>2020-01-06T09:18:29Z</time></trkpt>
<trkpt lat="43.787290994" lon="11.204278981"><ele>46</ele><time>2020-01-06T09:18:30Z</time></trkpt>
<trkpt lat="43.787310021" lon="11.204243023"><ele>46</ele><time>2020-01-06T09:18:31Z</time></trkpt>
<trkpt lat="43.78732997" lon="11.204206981"><ele>47</ele><time>2020-01-06T09:18:32Z</time></trkpt>
<trkpt lat="43.787350003" lon="11.204170017"><ele>47</ele><time>2020-01-06T09:18:33Z</time></trkpt>
<trkpt lat="43.78736903" lon="11.204132969"><ele>47</ele><time>2020-01-06T09:18:34Z</time></trkpt>
<trkpt lat="43.787387973" lon="11.204096004"><ele>47</ele><time>2020-01-06T09:18:35Z</time></trkpt>
<trkpt lat="43.787405994" lon="11.20405904"><ele>47</ele><time>2020-01-06T09:18:36Z</time></trkpt>
<trkpt lat="43.787424015" lon="11.204020986"><ele>47</ele><time>2020-01-06T09:18:37Z</time></trkpt>
<trkpt lat="43.78744103" lon="11.203983016"><ele>47</ele><time>2020-01-06T09:18:38Z</time></trkpt>
<trkpt lat="43.787457962" lon="11.203945968"><ele>47</ele><time>2020-01-06T09:18:39Z</time></trkpt>
<trkpt lat="43.787473971" lon="11.203907998"><ele>47</ele><time>2020-01-06T09:18:40Z</time></trkpt>
<trkpt lat="43.78748998" lon="11.203871034"><ele>47</ele><time>2020-01-06T09:18:41Z</time></trkpt>
<trkpt lat="43.78750599" lon="11.203833986"><ele>47</ele><time>2020-01-06T09:18:42Z</time></trkpt>
<trkpt lat="43.787523005" lon="11.203797022"><ele>47</ele><time>2020-01-06T09:18:43Z</time></trkpt>
<trkpt lat="43.787539015" lon="11.20376098"><ele>47</ele><time>2020-01-06T09:18:44Z</time></trkpt>
<trkpt lat="43.787557036" lon="11.203726027"><ele>47</ele><time>2020-01-06T09:18:45Z</time></trkpt>
<trkpt lat="43.787573967" lon="11.203691997"><ele>47</ele><time>2020-01-06T09:18:46Z</time></trkpt>
<trkpt lat="43.787592994" lon="11.203658972"><ele>47</ele><time>2020-01-06T09:18:47Z</time></trkpt>
<trkpt lat="43.787611015" lon="11.203626031"><ele>47</ele><time>2020-01-06T09:18:48Z</time></trkpt>
<trkpt lat="43.787629958" lon="11.203594012"><ele>47</ele><time>2020-01-06T09:18:49Z</time></trkpt>
<trkpt lat="43.787648985" lon="11.203560987"><ele>47</ele><time>2020-01-06T09:18:50Z</time></trkpt>
<trkpt lat="43.787668012" lon="11.203527963"><ele>47</ele><time>2020-01-06T09:18:51Z</time></trkpt>
<trkpt lat="43.787687039" lon="11.203494016"><ele>47</ele><time>2020-01-06T09:18:52Z</time></trkpt>
<trkpt lat="43.787704976" lon="11.20345898"><ele>47</ele><time>2020-01-06T09:18:53Z</time></trkpt>
<trkpt lat="43.787722997" lon="11.203424027"><ele>47</ele><time>2020-01-06T09:18:54Z</time></trkpt>
<trkpt lat="43.787741018" lon="11.203386979"><ele>47</ele><time>2020-01-06T09:18:55Z</time></trkpt>
<trkpt lat="43.787758034" lon="11.203350015"><ele>47</ele><time>2020-01-06T09:18:56Z</time></trkpt>
<trkpt lat="43.787774965" lon="11.203312967"><ele>47</ele><time>2020-01-06T09:18:57Z</time></trkpt>
<trkpt lat="43.78779198" lon="11.203274997"><ele>46</ele><time>2020-01-06T09:18:58Z</time></trkpt>
<trkpt lat="43.78780799" lon="11.203236021"><ele>46</ele><time>2020-01-06T09:18:59Z</time></trkpt>
<trkpt lat="43.787825005" lon="11.203197967"><ele>46</ele><time>2020-01-06T09:19:00Z</time></trkpt>
<trkpt lat="43.787841015" lon="11.203158991"><ele>46</ele><time>2020-01-06T09:19:01Z</time></trkpt>
<trkpt lat="43.787857024" lon="11.203120016"><ele>46</ele><time>2020-01-06T09:19:02Z</time></trkpt>
<trkpt lat="43.787874039" lon="11.20308104"><ele>46</ele><time>2020-01-06T09:19:03Z</time></trkpt>
<trkpt lat="43.787889965" lon="11.20304198"><ele>46</ele><time>2020-01-06T09:19:04Z</time></trkpt>
<trkpt lat="43.787905974" lon="11.20300401"><ele>46</ele><time>2020-01-06T09:19:05Z</time></trkpt>
<trkpt lat="43.78792299" lon="11.202965034"><ele>46</ele><time>2020-01-06T09:19:06Z</time></trkpt>
<trkpt lat="43.787938999" lon="11.20292698"><ele>46</ele><time>2020-01-06T09:19:07Z</time></trkpt>
<trkpt lat="43.787956014" lon="11.202890016"><ele>46</ele><time>2020-01-06T09:19:08Z</time></trkpt>
<trkpt lat="43.78797303" lon="11.202852968"><ele>46</ele><time>2020-01-06T09:19:09Z</time></trkpt>
<trkpt lat="43.787989961" lon="11.202816004"><ele>46</ele><time>2020-01-06T09:19:10Z</time></trkpt>
<trkpt lat="43.788007982" lon="11.202779962"><ele>46</ele><time>2020-01-06T09:19:11Z</time></trkpt>
<trkpt lat="43.788026003" lon="11.202745009"><ele>46</ele><time>2020-01-06T09:19:12Z</time></trkpt>
<trkpt lat="43.78804503" lon="11.202709973"><ele>46</ele><time>2020-01-06T09:19:13Z</time></trkpt>
<trkpt lat="43.788063973" lon="11.20267502"><ele>46</ele><time>2020-01-06T09:19:14Z</time></trkpt>
<trkpt lat="43.788083" lon="11.20264099"><ele>46</ele><time>2020-01-06T09:19:15Z</time></trkpt>
<trkpt lat="43.788103033" lon="11.202607965"><ele>46</ele><time>2020-01-06T09:19:16Z</time></trkpt>
<trkpt lat="43.788123988" lon="11.202574018"><ele>46</ele><time>2020-01-06T09:19:17Z</time></trkpt>
<trkpt lat="43.78814402" lon="11.202540994"><ele>46</ele><time>2020-01-06T09:19:18Z</time></trkpt>
<trkpt lat="43.788164975" lon="11.202507969"><ele>46</ele><time>2020-01-06T09:19:19Z</time></trkpt>
<trkpt lat="43.788185008" lon="11.202474022"><ele>46</ele><time>2020-01-06T09:19:20Z</time></trkpt>
<trkpt lat="43.788205041" lon="11.202439992"><ele>46</ele><time>2020-01-06T09:19:21Z</time></trkpt>
<trkpt lat="43.78822499" lon="11.202405961"><ele>46</ele><time>2020-01-06T09:19:22Z</time></trkpt>
<trkpt lat="43.788244016" lon="11.202371009"><ele>46</ele><time>2020-01-06T09:19:23Z</time></trkpt>
<trkpt lat="43.78826296" lon="11.202335972"><ele>46</ele><time>2020-01-06T09:19:24Z</time></trkpt>
<trkpt lat="43.788281986" lon="11.202300014"><ele>46</ele><time>2020-01-06T09:19:25Z</time></trkpt>
<trkpt lat="43.788300008" lon="11.202264978"><ele>46</ele><time>2020-01-06T09:19:26Z</time></trkpt>
<trkpt lat="43.788319035" lon="11.202230025"><ele>46</ele><time>2020-01-06T09:19:27Z</time></trkpt>
<trkpt lat="43.788336972" lon="11.202193983"><ele>46</ele><time>2020-01-06T09:19:28Z</time></trkpt>
<trkpt lat="43.788354993" lon="11.20215903"><ele>46</ele><time>2020-01-06T09:19:29Z</time></trkpt>
<trkpt lat="43.78837402" lon="11.202125"><ele>46</ele><time>2020-01-06T09:19:30Z</time></trkpt>
<trkpt lat="43.788392041" lon="11.202089963"><ele>45</ele><time>2020-01-06T09:19:31Z</time></trkpt>
<trkpt lat="43.788410984" lon="11.202056017"><ele>45</ele><time>2020-01-06T09:19:32Z</time></trkpt>
<trkpt lat="43.788430011" lon="11.202021986"><ele>45</ele><time>2020-01-06T09:19:33Z</time></trkpt>
<trkpt lat="43.788448032" lon="11.201988962"><ele>45</ele><time>2020-01-06T09:19:34Z</time></trkpt>
<trkpt lat="43.788466975" lon="11.201955015"><ele>45</ele><time>2020-01-06T09:19:35Z</time></trkpt>
<trkpt lat="43.788484996" lon="11.20192199"><ele>45</ele><time>2020-01-06T09:19:36Z</time></trkpt>
<trkpt lat="43.788503017" lon="11.201888965"><ele>45</ele><time>2020-01-06T09:19:37Z</time></trkpt>
<trkpt lat="43.788521038" lon="11.201856025"><ele>45</ele><time>2020-01-06T09:19:38Z</time></trkpt>
<trkpt lat="43.788538976" lon="11.201823"><ele>45</ele><time>2020-01-06T09:19:39Z</time></trkpt>
<trkpt lat="43.788556997" lon="11.201789975"><ele>45</ele><time>2020-01-06T09:19:40Z</time></trkpt>
<trkpt lat="43.788574012" lon="11.201757034"><ele>45</ele><time>2020-01-06T09:19:41Z</time></trkpt>
<trkpt lat="43.788592033" lon="11.201723004"><ele>45</ele><time>2020-01-06T09:19:42Z</time></trkpt>
<trkpt lat="43.788608965" lon="11.201689979"><ele>45</ele><time>2020-01-06T09:19:43Z</time></trkpt>
<trkpt lat="43.78862598" lon="11.201656032"><ele>45</ele><time>2020-01-06T09:19:44Z</time></trkpt>
<trkpt lat="43.788642995" lon="11.201620996"><ele>45</ele><time>2020-01-06T09:19:45Z</time></trkpt>
<trkpt lat="43.788661016" lon="11.201586965"><ele>44</ele><time>2020-01-06T09:19:46Z</time></trkpt>
<trkpt lat="43.788678031" lon="11.201551007"><ele>44</ele><time>2020-01-06T09:19:47Z</time></trkpt>
<trkpt lat="43.788694963" lon="11.201515971"><ele>44</ele><time>2020-01-06T09:19:48Z</time></trkpt>
<trkpt lat="43.788711978" lon="11.201479007"><ele>44</ele><time>2020-01-06T09:19:49Z</time></trkpt>
<trkpt lat="43.788728993" lon="11.201441959"><ele>44</ele><time>2020-01-06T09:19:50Z</time></trkpt>
<trkpt lat="43.788746009" lon="11.201403989"><ele>44</ele><time>2020-01-06T09:19:51Z</time></trkpt>
<trkpt lat="43.788763024" lon="11.201366019"><ele>44</ele><time>2020-01-06T09:19:52Z</time></trkpt>
<trkpt lat="43.788813986" lon="11.201251019"><ele>43</ele><time>2020-01-06T09:19:55Z</time></trkpt>
<trkpt lat="43.788829995" lon="11.201214977"><ele>43</ele><time>2020-01-06T09:19:56Z</time></trkpt>
<trkpt lat="43.788846005" lon="11.201180024"><ele>43</ele><time>2020-01-06T09:19:57Z</time></trkpt>
<trkpt lat="43.788862014" lon="11.201145994"><ele>43</ele><time>2020-01-06T09:19:58Z</time></trkpt>
<trkpt lat="43.788878024" lon="11.201111963"><ele>43</ele><time>2020-01-06T09:19:59Z</time></trkpt>
<trkpt lat="43.788894033" lon="11.201078016"><ele>43</ele><time>2020-01-06T09:20:00Z</time></trkpt>
<trkpt lat="43.788909959" lon="11.20104298"><ele>43</ele><time>2020-01-06T09:20:01Z</time></trkpt>
<trkpt lat="43.788925968" lon="11.201007022"><ele>43</ele><time>2020-01-06T09:20:02Z</time></trkpt>
<trkpt lat="43.788942983" lon="11.200971985"><ele>43</ele><time>2020-01-06T09:20:03Z</time></trkpt>
<trkpt lat="43.788959999" lon="11.200936027"><ele>43</ele><time>2020-01-06T09:20:04Z</time></trkpt>
<trkpt lat="43.788977014" lon="11.200899985"><ele>43</ele><time>2020-01-06T09:20:05Z</time></trkpt>
<trkpt lat="43.788995035" lon="11.200864026"><ele>43</ele><time>2020-01-06T09:20:06Z</time></trkpt>
<trkpt lat="43.789013978" lon="11.200827984"><ele>43</ele><time>2020-01-06T09:20:07Z</time></trkpt>
<trkpt lat="43.789033005" lon="11.200792026"><ele>44</ele><time>2020-01-06T09:20:08Z</time></trkpt>
<trkpt lat="43.789053038" lon="11.200755984"><ele>44</ele><time>2020-01-06T09:20:09Z</time></trkpt>
<trkpt lat="43.789072987" lon="11.200720025"><ele>44</ele><time>2020-01-06T09:20:10Z</time></trkpt>
<trkpt lat="43.789092014" lon="11.200683983"><ele>44</ele><time>2020-01-06T09:20:11Z</time></trkpt>
<trkpt lat="43.789111041" lon="11.200648025"><ele>44</ele><time>2020-01-06T09:20:12Z</time></trkpt>
<trkpt lat="43.789129984" lon="11.200610977"><ele>44</ele><time>2020-01-06T09:20:13Z</time></trkpt>
<trkpt lat="43.789148005" lon="11.200574012"><ele>44</ele><time>2020-01-06T09:20:14Z</time></trkpt>
<trkpt lat="43.78916502" lon="11.20053797"><ele>44</ele><time>2020-01-06T09:20:15Z</time></trkpt>
<trkpt lat="43.789181029" lon="11.200501006"><ele>44</ele><time>2020-01-06T09:20:16Z</time></trkpt>
<trkpt lat="43.789197961" lon="11.200464042"><ele>44</ele><time>2020-01-06T09:20:17Z</time></trkpt>
<trkpt lat="43.78921397" lon="11.200426994"><ele>44</ele><time>2020-01-06T09:20:18Z</time></trkpt>
<trkpt lat="43.78922998" lon="11.200391036"><ele>43</ele><time>2020-01-06T09:20:19Z</time></trkpt>
<trkpt lat="43.789246995" lon="11.200353988"><ele>43</ele><time>2020-01-06T09:20:20Z</time></trkpt>
<trkpt lat="43.78926401" lon="11.200319035"><ele>43</ele><time>2020-01-06T09:20:21Z</time></trkpt>
<trkpt lat="43.789282031" lon="11.200282993"><ele>43</ele><time>2020-01-06T09:20:22Z</time></trkpt>
<trkpt lat="43.789299969" lon="11.20024804"><ele>43</ele><time>2020-01-06T09:20:23Z</time></trkpt>
<trkpt lat="43.789318996" lon="11.200213004"><ele>43</ele><time>2020-01-06T09:20:24Z</time></trkpt>
<trkpt lat="43.789337017" lon="11.200177968"><ele>43</ele><time>2020-01-06T09:20:25Z</time></trkpt>
<trkpt lat="43.789355038" lon="11.200142009"><ele>43</ele><time>2020-01-06T09:20:26Z</time></trkpt>
<trkpt lat="43.789372975" lon="11.200106973"><ele>43</ele><time>2020-01-06T09:20:27Z</time></trkpt>
<trkpt lat="43.789390996" lon="11.200071014"><ele>43</ele><time>2020-01-06T09:20:28Z</time></trkpt>
<trkpt lat="43.789408011" lon="11.200034972"><ele>43</ele><time>2020-01-06T09:20:29Z</time></trkpt>
<trkpt lat="43.789425027" lon="11.199998008"><ele>43</ele><time>2020-01-06T09:20:30Z</time></trkpt>
<trkpt lat="43.789442042" lon="11.19996096"><ele>43</ele><time>2020-01-06T09:20:31Z</time></trkpt>
<trkpt lat="43.789457968" lon="11.199923996"><ele>43</ele><time>2020-01-06T09:20:32Z</time></trkpt>
<trkpt lat="43.789473977" lon="11.199887032"><ele>43</ele><time>2020-01-06T09:20:33Z</time></trkpt>
<trkpt lat="43.789489986" lon="11.199848978"><ele>44</ele><time>2020-01-06T09:20:34Z</time></trkpt>
<trkpt lat="43.789505996" lon="11.199811008"><ele>44</ele><time>2020-01-06T09:20:35Z</time></trkpt>
<trkpt lat="43.789522005" lon="11.199773038"><ele>44</ele><time>2020-01-06T09:20:36Z</time></trkpt>
<trkpt lat="43.789538015" lon="11.199734984"><ele>44</ele><time>2020-01-06T09:20:37Z</time></trkpt>
<trkpt lat="43.78955503" lon="11.199697014"><ele>44</ele><time>2020-01-06T09:20:38Z</time></trkpt>
<trkpt lat="43.789571039" lon="11.19965896"><ele>44</ele><time>2020-01-06T09:20:39Z</time></trkpt>
<trkpt lat="43.789587971" lon="11.199621996"><ele>44</ele><time>2020-01-06T09:20:40Z</time></trkpt>
<trkpt lat="43.789604986" lon="11.199584026"><ele>44</ele><time>2020-01-06T09:20:41Z</time></trkpt>
<trkpt lat="43.789623007" lon="11.199546978"><ele>44</ele><time>2020-01-06T09:20:42Z</time></trkpt>
<trkpt lat="43.789640022" lon="11.199509008"><ele>44</ele><time>2020-01-06T09:20:43Z</time></trkpt>
<trkpt lat="43.789658966" lon="11.199472966"><ele>44</ele><time>2020-01-06T09:20:44Z</time></trkpt>
<trkpt lat="43.789676987" lon="11.199436001"><ele>44</ele><time>2020-01-06T09:20:45Z</time></trkpt>
<trkpt lat="43.789696014" lon="11.199399959"><ele>45</ele><time>2020-01-06T09:20:46Z</time></trkpt>
<trkpt lat="43.78971504" lon="11.199364001"><ele>45</ele><time>2020-01-06T09:20:47Z</time></trkpt>
<trkpt lat="43.789732978" lon="11.199327959"><ele>45</ele><time>2020-01-06T09:20:48Z</time></trkpt>
<trkpt lat="43.789752005" lon="11.199292"><ele>45</ele><time>2020-01-06T09:20:49Z</time></trkpt>
<trkpt lat="43.789770026" lon="11.199255958"><ele>45</ele><time>2020-01-06T09:20:50Z</time></trkpt>
<trkpt lat="43.789787963" lon="11.19922"><ele>45</ele><time>2020-01-06T09:20:51Z</time></trkpt>
<trkpt lat="43.789805984" lon="11.199184041"><ele>46</ele><time>2020-01-06T09:20:52Z</time></trkpt>
<trkpt lat="43.789822999" lon="11.199147999"><ele>46</ele><time>2020-01-06T09:20:53Z</time></trkpt>
<trkpt lat="43.789840015" lon="11.199112963"><ele>46</ele><time>2020-01-06T09:20:54Z</time></trkpt>
<trkpt lat="43.78985703" lon="11.19907801"><ele>46</ele><time>2020-01-06T09:20:55Z</time></trkpt>
<trkpt lat="43.789873961" lon="11.19904398"><ele>46</ele><time>2020-01-06T09:20:56Z</time></trkpt>
<trkpt lat="43.789890977" lon="11.199010033"><ele>46</ele><time>2020-01-06T09:20:57Z</time></trkpt>
<trkpt lat="43.789907992" lon="11.198977008"><ele>46</ele><time>2020-01-06T09:20:58Z</time></trkpt>
<trkpt lat="43.789925007" lon="11.19894499"><ele>46</ele><time>2020-01-06T09:20:59Z</time></trkpt>
<trkpt lat="43.789943028" lon="11.198913977"><ele>46</ele><time>2020-01-06T09:21:00Z</time></trkpt>
<trkpt lat="43.789960966" lon="11.198882041"><ele>46</ele><time>2020-01-06T09:21:01Z</time></trkpt>
<trkpt lat="43.789978987" lon="11.198850023"><ele>46</ele><time>2020-01-06T09:21:02Z</time></trkpt>
<trkpt lat="43.789997008" lon="11.198816998"><ele>46</ele><time>2020-01-06T09:21:03Z</time></trkpt>
<trkpt lat="43.79001704" lon="11.198781962"><ele>46</ele><time>2020-01-06T09:21:04Z</time></trkpt>
<trkpt lat="43.790035984" lon="11.198744997"><ele>45</ele><time>2020-01-06T09:21:05Z</time></trkpt>
<trkpt lat="43.790057022" lon="11.198706022"><ele>45</ele><time>2020-01-06T09:21:06Z</time></trkpt>
<trkpt lat="43.790077977" lon="11.19866604"><ele>44</ele><time>2020-01-06T09:21:07Z</time></trkpt>
<trkpt lat="43.790101027" lon="11.198625974"><ele>44</ele><time>2020-01-06T09:21:08Z</time></trkpt>
<trkpt lat="43.790123994" lon="11.19858901"><ele>44</ele><time>2020-01-06T09:21:09Z</time></trkpt>
<trkpt lat="43.790148972" lon="11.198555985"><ele>43</ele><time>2020-01-06T09:21:10Z</time></trkpt>
<trkpt lat="43.790174033" lon="11.198528996"><ele>43</ele><time>2020-01-06T09:21:11Z</time></trkpt>
<trkpt lat="43.790201023" lon="11.198508963"><ele>43</ele><time>2020-01-06T09:21:12Z</time></trkpt>
<trkpt lat="43.790229019" lon="11.198497983"><ele>42</ele><time>2020-01-06T09:21:13Z</time></trkpt>
<trkpt lat="43.79025802" lon="11.198494965"><ele>42</ele><time>2020-01-06T09:21:14Z</time></trkpt>
<trkpt lat="43.790288027" lon="11.198499994"><ele>42</ele><time>2020-01-06T09:21:15Z</time></trkpt>
<trkpt lat="43.790317029" lon="11.198508963"><ele>42</ele><time>2020-01-06T09:21:16Z</time></trkpt>
<trkpt lat="43.790347036" lon="11.198523967"><ele>42</ele><time>2020-01-06T09:21:17Z</time></trkpt>
<trkpt lat="43.790376037" lon="11.198541988"><ele>42</ele><time>2020-01-06T09:21:18Z</time></trkpt>
<trkpt lat="43.790404033" lon="11.198563026"><ele>42</ele><time>2020-01-06T09:21:19Z</time></trkpt>
<trkpt lat="43.790431023" lon="11.198584987"><ele>42</ele><time>2020-01-06T09:21:20Z</time></trkpt>
<trkpt lat="43.790456001" lon="11.198607031"><ele>42</ele><time>2020-01-06T09:21:21Z</time></trkpt>
<trkpt lat="43.790480979" lon="11.198627986"><ele>42</ele><time>2020-01-06T09:21:22Z</time></trkpt>
<trkpt lat="43.790506041" lon="11.198646007"><ele>42</ele><time>2020-01-06T09:21:23Z</time></trkpt>
<trkpt lat="43.790531019" lon="11.198661011"><ele>42</ele><time>2020-01-06T09:21:24Z</time></trkpt>
<trkpt lat="43.790553985" lon="11.198669979"><ele>42</ele><time>2020-01-06T09:21:25Z</time></trkpt>
<trkpt lat="43.790575024" lon="11.198669979"><ele>42</ele><time>2020-01-06T09:21:26Z</time></trkpt>
<trkpt lat="43.790591033" lon="11.198657993"><ele>42</ele><time>2020-01-06T09:21:27Z</time></trkpt>
<trkpt lat="43.790602013" lon="11.198634021"><ele>41</ele><time>2020-01-06T09:21:28Z</time></trkpt>
<trkpt lat="43.790610982" lon="11.198602002"><ele>41</ele><time>2020-01-06T09:21:29Z</time></trkpt>
<trkpt lat="43.790619029" lon="11.198566966"><ele>41</ele><time>2020-01-06T09:21:30Z</time></trkpt>
<trkpt lat="43.790629003" lon="11.198536959"><ele>41</ele><time>2020-01-06T09:21:31Z</time></trkpt>
<trkpt lat="43.790644007" lon="11.198514998"><ele>41</ele><time>2020-01-06T09:21:32Z</time></trkpt>
<trkpt lat="43.790662028" lon="11.198501"><ele>40</ele><time>2020-01-06T09:21:33Z</time></trkpt>
<trkpt lat="43.790682983" lon="11.198493037"><ele>40</ele><time>2020-01-06T09:21:34Z</time></trkpt>
<trkpt lat="43.790706033" lon="11.198489014"><ele>40</ele><time>2020-01-06T09:21:35Z</time></trkpt>
<trkpt lat="43.790779961" lon="11.198492032"><ele>40</ele><time>2020-01-06T09:21:38Z</time></trkpt>
<trkpt lat="43.790807035" lon="11.198495971"><ele>40</ele><time>2020-01-06T09:21:39Z</time></trkpt>
<trkpt lat="43.790834025" lon="11.198499994"><ele>40</ele><time>2020-01-06T09:21:40Z</time></trkpt>
<trkpt lat="43.79086202" lon="11.198504018"><ele>40</ele><time>2020-01-06T09:21:41Z</time></trkpt>
<trkpt lat="43.790890016" lon="11.198507035"><ele>40</ele><time>2020-01-06T09:21:42Z</time></trkpt>
<trkpt lat="43.790918011" lon="11.198508963"><ele>40</ele><time>2020-01-06T09:21:43Z</time></trkpt>
<trkpt lat="43.790947013" lon="11.198509969"><ele>40</ele><time>2020-01-06T09:21:44Z</time></trkpt>
<trkpt lat="43.790976014" lon="11.198508963"><ele>40</ele><time>2020-01-06T09:21:45Z</time></trkpt>
<trkpt lat="43.791005015" lon="11.198507035"><ele>40</ele><time>2020-01-06T09:21:46Z</time></trkpt>
<trkpt lat="43.791034017" lon="11.198503012"><ele>40</ele><time>2020-01-06T09:21:47Z</time></trkpt>
<trkpt lat="43.791058995" lon="11.198494965"><ele>40</ele><time>2020-01-06T09:21:48Z</time></trkpt>
<trkpt lat="43.79109202" lon="11.19841299"><ele>40</ele><time>2020-01-06T09:21:51Z</time></trkpt>
<trkpt lat="43.791089002" lon="11.198369991"><ele>40</ele><time>2020-01-06T09:21:52Z</time></trkpt>
<trkpt lat="43.791083973" lon="11.198323974"><ele>40</ele><time>2020-01-06T09:21:53Z</time></trkpt>
<trkpt lat="43.791079028" lon="11.198278964"><ele>39</ele><time>2020-01-06T09:21:54Z</time></trkpt>
<trkpt lat="43.791073998" lon="11.198234959"><ele>39</ele><time>2020-01-06T09:21:55Z</time></trkpt>
<trkpt lat="43.791066036" lon="11.198148038"><ele>39</ele><time>2020-01-06T09:21:57Z</time></trkpt>
<trkpt lat="43.791063018" lon="11.198105039"><ele>39</ele><time>2020-01-06T09:21:58Z</time></trkpt>
<trkpt lat="43.791061006" lon="11.198061034"><ele>38</ele><time>2020-01-06T09:21:59Z</time></trkpt>
<trkpt lat="43.791060001" lon="11.198018035"><ele>38</ele><time>2020-01-06T09:22:00Z</time></trkpt>
<trkpt lat="43.791058995" lon="11.19797403"><ele>38</ele><time>2020-01-06T09:22:01Z</time></trkpt>
<trkpt lat="43.791058995" lon="11.197931031"><ele>38</ele><time>2020-01-06T09:22:02Z</time></trkpt>
<trkpt lat="43.791058995" lon="11.197888032"><ele>38</ele><time>2020-01-06T09:22:03Z</time></trkpt>
<trkpt lat="43.791060001" lon="11.197845032"><ele>38</ele><time>2020-01-06T09:22:04Z</time></trkpt>
<trkpt lat="43.791060001" lon="11.197802033"><ele>37</ele><time>2020-01-06T09:22:05Z</time></trkpt>
<trkpt lat="43.791060001" lon="11.197759034"><ele>37</ele><time>2020-01-06T09:22:06Z</time></trkpt>
<trkpt lat="43.791061006" lon="11.197716035"><ele>37</ele><time>2020-01-06T09:22:07Z</time></trkpt>
<trkpt lat="43.791061006" lon="11.197674042"><ele>37</ele><time>2020-01-06T09:22:08Z</time></trkpt>
<trkpt lat="43.791061006" lon="11.197631964"><ele>37</ele><time>2020-01-06T09:22:09Z</time></trkpt>
<trkpt lat="43.791061006" lon="11.197589971"><ele>37</ele><time>2020-01-06T09:22:10Z</time></trkpt>
<trkpt lat="43.791061006" lon="11.197548984"><ele>36</ele><time>2020-01-06T09:22:11Z</time></trkpt>
<trkpt lat="43.791060001" lon="11.197507996"><ele>36</ele><time>2020-01-06T09:22:12Z</time></trkpt>
<trkpt lat="43.791058995" lon="11.197467009"><ele>36</ele><time>2020-01-06T09:22:13Z</time></trkpt>
<trkpt lat="43.791057989" lon="11.197427027"><ele>36</ele><time>2020-01-06T09:22:14Z</time></trkpt>
<trkpt lat="43.791055977" lon="11.197387967"><ele>36</ele><time>2020-01-06T09:22:15Z</time></trkpt>
<trkpt lat="43.79105296" lon="11.197348991"><ele>36</ele><time>2020-01-06T09:22:16Z</time></trkpt>
<trkpt lat="43.791050026" lon="11.197311021"><ele>35</ele><time>2020-01-06T09:22:17Z</time></trkpt>
<trkpt lat="43.791046003" lon="11.197273973"><ele>35</ele><time>2020-01-06T09:22:18Z</time></trkpt>
<trkpt lat="43.79104198" lon="11.197237009"><ele>35</ele><time>2020-01-06T09:22:19Z</time></trkpt>
<trkpt lat="43.791023036" lon="11.19713299"><ele>35</ele><time>2020-01-06T09:22:22Z</time></trkpt>
<trkpt lat="43.79101499" lon="11.197099965"><ele>34</ele><time>2020-01-06T09:22:23Z</time></trkpt>
<trkpt lat="43.791006021" lon="11.197069036"><ele>34</ele><time>2020-01-06T09:22:24Z</time></trkpt>
<trkpt lat="43.790995963" lon="11.197039029"><ele>34</ele><time>2020-01-06T09:22:25Z</time></trkpt>
<trkpt lat="43.790983977" lon="11.197011033"><ele>34</ele><time>2020-01-06T09:22:26Z</time></trkpt>
<trkpt lat="43.790970985" lon="11.196984965"><ele>34</ele><time>2020-01-06T09:22:27Z</time></trkpt>
<trkpt lat="43.790957993" lon="11.196959987"><ele>33</ele><time>2020-01-06T09:22:28Z</time></trkpt>
<trkpt lat="43.790943995" lon="11.196937021"><ele>33</ele><time>2020-01-06T09:22:29Z</time></trkpt>
<trkpt lat="43.790929997" lon="11.196916988"><ele>33</ele><time>2020-01-06T09:22:30Z</time></trkpt>
<trkpt lat="43.790917005" lon="11.196899973"><ele>33</ele><time>2020-01-06T09:22:31Z</time></trkpt>
<trkpt lat="43.790905019" lon="11.196884969"><ele>33</ele><time>2020-01-06T09:22:32Z</time></trkpt>
<trkpt lat="43.790895967" lon="11.196872983"><ele>33</ele><time>2020-01-06T09:22:33Z</time></trkpt>
<trkpt lat="43.790888004" lon="11.196864014"><ele>32</ele><time>2020-01-06T09:22:34Z</time></trkpt>
<trkpt lat="43.790881969" lon="11.19685798"><ele>32</ele><time>2020-01-06T09:22:35Z</time></trkpt>
<trkpt lat="43.790876018" lon="11.196853034"><ele>32</ele><time>2020-01-06T09:22:36Z</time></trkpt>
<trkpt lat="43.790869983" lon="11.196848005"><ele>32</ele><time>2020-01-06T09:22:37Z</time></trkpt>
<trkpt lat="43.790863026" lon="11.196842976"><ele>32</ele><time>2020-01-06T09:22:38Z</time></trkpt>
<trkpt lat="43.790853973" lon="11.196837025"><ele>32</ele><time>2020-01-06T09:22:39Z</time></trkpt>
<trkpt lat="43.790840982" lon="11.196827972"><ele>32</ele><time>2020-01-06T09:22:40Z</time></trkpt>
<trkpt lat="43.790823966" lon="11.196815986"><ele>32</ele><time>2020-01-06T09:22:41Z</time></trkpt>
<trkpt lat="43.790802006" lon="11.196799977"><ele>32</ele><time>2020-01-06T09:22:42Z</time></trkpt>
<trkpt lat="43.790777028" lon="11.196781034"><ele>31</ele><time>2020-01-06T09:22:43Z</time></trkpt>
<trkpt lat="43.790748026" lon="11.196758989"><ele>31</ele><time>2020-01-06T09:22:44Z</time></trkpt>
<trkpt lat="43.790718019" lon="11.196736023"><ele>31</ele><time>2020-01-06T09:22:45Z</time></trkpt>
<trkpt lat="43.790686" lon="11.196710961"><ele>31</ele><time>2020-01-06T09:22:46Z</time></trkpt>
<trkpt lat="43.790653981" lon="11.196685983"><ele>31</ele><time>2020-01-06T09:22:47Z</time></trkpt>
<trkpt lat="43.790623974" lon="11.196662011"><ele>31</ele><time>2020-01-06T09:22:48Z</time></trkpt>
<trkpt lat="43.790594973" lon="11.19663896"><ele>31</ele><time>2020-01-06T09:22:49Z</time></trkpt>
<trkpt lat="43.790566977" lon="11.196617"><ele>31</ele><time>2020-01-06T09:22:50Z</time></trkpt>
<trkpt lat="43.790539987" lon="11.196595961"><ele>30</ele><time>2020-01-06T09:22:51Z</time></trkpt>
<trkpt lat="43.790512998" lon="11.196574001"><ele>30</ele><time>2020-01-06T09:22:52Z</time></trkpt>
<trkpt lat="43.790486008" lon="11.196551034"><ele>30</ele><time>2020-01-06T09:22:53Z</time></trkpt>
<trkpt lat="43.790458012" lon="11.196527984"><ele>30</ele><time>2020-01-06T09:22:54Z</time></trkpt>
<trkpt lat="43.790431023" lon="11.196506023"><ele>30</ele><time>2020-01-06T09:22:55Z</time></trkpt>
<trkpt lat="43.790405961" lon="11.196484985"><ele>30</ele><time>2020-01-06T09:22:56Z</time></trkpt>
<trkpt lat="43.790382994" lon="11.196466042"><ele>30</ele><time>2020-01-06T09:22:57Z</time></trkpt>
<trkpt lat="43.790361034" lon="11.196449026"><ele>30</ele><time>2020-01-06T09:22:58Z</time></trkpt>
<trkpt lat="43.790341001" lon="11.196433017"><ele>30</ele><time>2020-01-06T09:22:59Z</time></trkpt>
<trkpt lat="43.790319962" lon="11.196417008"><ele>30</ele><time>2020-01-06T09:23:00Z</time></trkpt>
<trkpt lat="43.790299008" lon="11.196400998"><ele>30</ele><time>2020-01-06T09:23:01Z</time></trkpt>
<trkpt lat="43.790276041" lon="11.196382977"><ele>30</ele><time>2020-01-06T09:23:02Z</time></trkpt>
<trkpt lat="43.790249974" lon="11.196363028"><ele>30</ele><time>2020-01-06T09:23:03Z</time></trkpt>
<trkpt lat="43.790220972" lon="11.196340984"><ele>30</ele><time>2020-01-06T09:23:04Z</time></trkpt>
<trkpt lat="43.790189959" lon="11.196316006"><ele>29</ele><time>2020-01-06T09:23:05Z</time></trkpt>
<trkpt lat="43.790155007" lon="11.196290022"><ele>29</ele><time>2020-01-06T09:23:06Z</time></trkpt>
<trkpt lat="43.790118964" lon="11.196263032"><ele>29</ele><time>2020-01-06T09:23:07Z</time></trkpt>
<trkpt lat="43.790082" lon="11.196235036"><ele>29</ele><time>2020-01-06T09:23:08Z</time></trkpt>
<trkpt lat="43.790043024" lon="11.196207041"><ele>29</ele><time>2020-01-06T09:23:09Z</time></trkpt>
<trkpt lat="43.790003965" lon="11.196179967"><ele>28</ele><time>2020-01-06T09:23:10Z</time></trkpt>
<trkpt lat="43.789964989" lon="11.196153983"><ele>29</ele><time>2020-01-06T09:23:11Z</time></trkpt>
<trkpt lat="43.789927019" lon="11.196128"><ele>29</ele><time>2020-01-06T09:23:12Z</time></trkpt>
<trkpt lat="43.789888965" lon="11.196104027"><ele>30</ele><time>2020-01-06T09:23:13Z</time></trkpt>
<trkpt lat="43.789852001" lon="11.196079971"><ele>30</ele><time>2020-01-06T09:23:14Z</time></trkpt>
<trkpt lat="43.789815959" lon="11.196058011"><ele>31</ele><time>2020-01-06T09:23:15Z</time></trkpt>
<trkpt lat="43.789782012" lon="11.19603496"><ele>31</ele><time>2020-01-06T09:23:16Z</time></trkpt>
<trkpt lat="43.789749993" lon="11.196014006"><ele>32</ele><time>2020-01-06T09:23:17Z</time></trkpt>
<trkpt lat="43.789719986" lon="11.195992967"><ele>32</ele><time>2020-01-06T09:23:18Z</time></trkpt>
<trkpt lat="43.78969199" lon="11.195973018"><ele>33</ele><time>2020-01-06T09:23:19Z</time></trkpt>
<trkpt lat="43.789665001" lon="11.195952985"><ele>33</ele><time>2020-01-06T09:23:20Z</time></trkpt>
<trkpt lat="43.789639017" lon="11.195933959"><ele>34</ele><time>2020-01-06T09:23:21Z</time></trkpt>
<trkpt lat="43.789614039" lon="11.195916021"><ele>34</ele><time>2020-01-06T09:23:22Z</time></trkpt>
<trkpt lat="43.789587971" lon="11.195898"><ele>34</ele><time>2020-01-06T09:23:23Z</time></trkpt>
<trkpt lat="43.789562993" lon="11.195880985"><ele>35</ele><time>2020-01-06T09:23:24Z</time></trkpt>
<trkpt lat="43.789536003" lon="11.195864975"><ele>35</ele><time>2020-01-06T09:23:25Z</time></trkpt>
<trkpt lat="43.789508007" lon="11.195848966"><ele>36</ele><time>2020-01-06T09:23:26Z</time></trkpt>
<trkpt lat="43.789480012" lon="11.195833962"><ele>36</ele><time>2020-01-06T09:23:27Z</time></trkpt>
<trkpt lat="43.789452016" lon="11.195819965"><ele>37</ele><time>2020-01-06T09:23:28Z</time></trkpt>
<trkpt lat="43.789424021" lon="11.195805967"><ele>37</ele><time>2020-01-06T09:23:29Z</time></trkpt>
<trkpt lat="43.789398037" lon="11.195791969"><ele>37</ele><time>2020-01-06T09:23:30Z</time></trkpt>
<trkpt lat="43.789373981" lon="11.195777971"><ele>38</ele><time>2020-01-06T09:23:31Z</time></trkpt>
<trkpt lat="43.78935202" lon="11.195764979"><ele>38</ele><time>2020-01-06T09:23:32Z</time></trkpt>
<trkpt lat="43.789333999" lon="11.195750982"><ele>39</ele><time>2020-01-06T09:23:33Z</time></trkpt>
<trkpt lat="43.789316984" lon="11.195736984"><ele>39</ele><time>2020-01-06T09:23:34Z</time></trkpt>
<trkpt lat="43.789298963" lon="11.195723992"><ele>39</ele><time>2020-01-06T09:23:35Z</time></trkpt>
<trkpt lat="43.78928002" lon="11.195712006"><ele>39</ele><time>2020-01-06T09:23:36Z</time></trkpt>
<trkpt lat="43.789256969" lon="11.195702031"><ele>40</ele><time>2020-01-06T09:23:37Z</time></trkpt>
<trkpt lat="43.789231991" lon="11.195697002"><ele>40</ele><time>2020-01-06T09:23:38Z</time></trkpt>
<trkpt lat="43.789208019" lon="11.195701025"><ele>40</ele><time>2020-01-06T09:23:39Z</time></trkpt>
<trkpt lat="43.789186981" lon="11.195717035"><ele>41</ele><time>2020-01-06T09:23:40Z</time></trkpt>
<trkpt lat="43.789170971" lon="11.195746958"><ele>41</ele><time>2020-01-06T09:23:41Z</time></trkpt>
<trkpt lat="43.789159991" lon="11.195789035"><ele>41</ele><time>2020-01-06T09:23:42Z</time></trkpt>
<trkpt lat="43.789153034" lon="11.195835974"><ele>41</ele><time>2020-01-06T09:23:43Z</time></trkpt>
<trkpt lat="43.789151022" lon="11.195885008"><ele>41</ele><time>2020-01-06T09:23:44Z</time></trkpt>
<trkpt lat="43.789152028" lon="11.195930019"><ele>41</ele><time>2020-01-06T09:23:45Z</time></trkpt>
<trkpt lat="43.789154962" lon="11.195972012"><ele>40</ele><time>2020-01-06T09:23:46Z</time></trkpt>
<trkpt lat="43.789156973" lon="11.196011994"><ele>40</ele><time>2020-01-06T09:23:47Z</time></trkpt>
<trkpt lat="43.789155968" lon="11.19605097"><ele>40</ele><time>2020-01-06T09:23:48Z</time></trkpt>
<trkpt lat="43.789153034" lon="11.196088018"><ele>40</ele><time>2020-01-06T09:23:49Z</time></trkpt>
<trkpt lat="43.789146999" lon="11.196124982"><ele>40</ele><time>2020-01-06T09:23:50Z</time></trkpt>
<trkpt lat="43.78913803" lon="11.19616203"><ele>39</ele><time>2020-01-06T09:23:51Z</time></trkpt>
<trkpt lat="43.789126966" lon="11.196197988"><ele>39</ele><time>2020-01-06T09:23:52Z</time></trkpt>
<trkpt lat="43.789113974" lon="11.196234031"><ele>39</ele><time>2020-01-06T09:23:53Z</time></trkpt>
<trkpt lat="43.789098971" lon="11.196269989"><ele>39</ele><time>2020-01-06T09:23:54Z</time></trkpt>
<trkpt lat="43.789082039" lon="11.196307037"><ele>39</ele><time>2020-01-06T09:23:55Z</time></trkpt>
<trkpt lat="43.789064018" lon="11.196344001"><ele>39</ele><time>2020-01-06T09:23:56Z</time></trkpt>
<trkpt lat="43.789043985" lon="11.196381971"><ele>38</ele><time>2020-01-06T09:23:57Z</time></trkpt>
<trkpt lat="43.789024036" lon="11.196420025"><ele>38</ele><time>2020-01-06T09:23:58Z</time></trkpt>
<trkpt lat="43.789004004" lon="11.196459001"><ele>38</ele><time>2020-01-06T09:23:59Z</time></trkpt>
<trkpt lat="43.788982965" lon="11.196496971"><ele>38</ele><time>2020-01-06T09:24:00Z</time></trkpt>
<trkpt lat="43.788963016" lon="11.196536031"><ele>38</ele><time>2020-01-06T09:24:01Z</time></trkpt>
<trkpt lat="43.788942983" lon="11.196575006"><ele>38</ele><time>2020-01-06T09:24:02Z</time></trkpt>
<trkpt lat="43.788924962" lon="11.196613982"><ele>38</ele><time>2020-01-06T09:24:03Z</time></trkpt>
<trkpt lat="43.788908031" lon="11.196652036"><ele>37</ele><time>2020-01-06T09:24:04Z</time></trkpt>
<trkpt lat="43.788891016" lon="11.196690006"><ele>37</ele><time>2020-01-06T09:24:05Z</time></trkpt>
<trkpt lat="43.788848016" lon="11.196798971"><ele>37</ele><time>2020-01-06T09:24:08Z</time></trkpt>
<trkpt lat="43.788835024" lon="11.196833001"><ele>37</ele><time>2020-01-06T09:24:09Z</time></trkpt>
<trkpt lat="43.788822033" lon="11.196866026"><ele>37</ele><time>2020-01-06T09:24:10Z</time></trkpt>
<trkpt lat="43.788809963" lon="11.196897961"><ele>37</ele><time>2020-01-06T09:24:11Z</time></trkpt>
<trkpt lat="43.788798982" lon="11.196928974"><ele>37</ele><time>2020-01-06T09:24:12Z</time></trkpt>
<trkpt lat="43.788786996" lon="11.196959987"><ele>37</ele><time>2020-01-06T09:24:13Z</time></trkpt>
<trkpt lat="43.78877501" lon="11.196992006"><ele>37</ele><time>2020-01-06T09:24:14Z</time></trkpt>
<trkpt lat="43.788762018" lon="11.197023019"><ele>37</ele><time>2020-01-06T09:24:15Z</time></trkpt>
<trkpt lat="43.78874802" lon="11.19705596"><ele>37</ele><time>2020-01-06T09:24:16Z</time></trkpt>
<trkpt lat="43.788734023" lon="11.197089991"><ele>37</ele><time>2020-01-06T09:24:17Z</time></trkpt>
<trkpt lat="43.788719019" lon="11.197125027"><ele>37</ele><time>2020-01-06T09:24:18Z</time></trkpt>
<trkpt lat="43.788703009" lon="11.197159979"><ele>37</ele><time>2020-01-06T09:24:19Z</time></trkpt>
<trkpt lat="43.788685994" lon="11.197197028"><ele>37</ele><time>2020-01-06T09:24:20Z</time></trkpt>
<trkpt lat="43.788667973" lon="11.197233992"><ele>37</ele><time>2020-01-06T09:24:21Z</time></trkpt>
<trkpt lat="43.788650036" lon="11.197271962"><ele>37</ele><time>2020-01-06T09:24:22Z</time></trkpt>
<trkpt lat="43.788632015" lon="11.197310016"><ele>37</ele><time>2020-01-06T09:24:23Z</time></trkpt>
<trkpt lat="43.788613994" lon="11.197347986"><ele>37</ele><time>2020-01-06T09:24:24Z</time></trkpt>
<trkpt lat="43.788594967" lon="11.197386961"><ele>37</ele><time>2020-01-06T09:24:25Z</time></trkpt>
<trkpt lat="43.788577029" lon="11.197426021"><ele>37</ele><time>2020-01-06T09:24:26Z</time></trkpt>
<trkpt lat="43.788558003" lon="11.197463991"><ele>37</ele><time>2020-01-06T09:24:27Z</time></trkpt>
<trkpt lat="43.788539981" lon="11.197502967"><ele>37</ele><time>2020-01-06T09:24:28Z</time></trkpt>
<trkpt lat="43.78852196" lon="11.197541021"><ele>37</ele><time>2020-01-06T09:24:29Z</time></trkpt>
<trkpt lat="43.788505029" lon="11.197578991"><ele>37</ele><time>2020-01-06T09:24:30Z</time></trkpt>
<trkpt lat="43.788488014" lon="11.197616039"><ele>37</ele><time>2020-01-06T09:24:31Z</time></trkpt>
<trkpt lat="43.788472004" lon="11.197651997"><ele>37</ele><time>2020-01-06T09:24:32Z</time></trkpt>
<trkpt lat="43.788455995" lon="11.197688039"><ele>37</ele><time>2020-01-06T09:24:33Z</time></trkpt>
<trkpt lat="43.788439985" lon="11.197723998"><ele>37</ele><time>2020-01-06T09:24:34Z</time></trkpt>
<trkpt lat="43.788424982" lon="11.19776004"><ele>37</ele><time>2020-01-06T09:24:35Z</time></trkpt>
<trkpt lat="43.788409978" lon="11.197794992"><ele>37</ele><time>2020-01-06T09:24:36Z</time></trkpt>
<trkpt lat="43.788393969" lon="11.197831035"><ele>37</ele><time>2020-01-06T09:24:37Z</time></trkpt>
<trkpt lat="43.788377959" lon="11.197866993"><ele>37</ele><time>2020-01-06T09:24:38Z</time></trkpt>
<trkpt lat="43.788361028" lon="11.197903035"><ele>37</ele><time>2020-01-06T09:24:39Z</time></trkpt>
<trkpt lat="43.788343007" lon="11.197941005"><ele>38</ele><time>2020-01-06T09:24:40Z</time></trkpt>
<trkpt lat="43.78832398" lon="11.197977969"><ele>38</ele><time>2020-01-06T09:24:41Z</time></trkpt>
<trkpt lat="43.788305959" lon="11.198017029"><ele>38</ele><time>2020-01-06T09:24:42Z</time></trkpt>
<trkpt lat="43.78828601" lon="11.198054999"><ele>38</ele><time>2020-01-06T09:24:43Z</time></trkpt>
<trkpt lat="43.788266983" lon="11.198093975"><ele>38</ele><time>2020-01-06T09:24:44Z</time></trkpt>
<trkpt lat="43.788247034" lon="11.198132029"><ele>38</ele><time>2020-01-06T09:24:45Z</time></trkpt>
<trkpt lat="43.788228007" lon="11.198171005"><ele>38</ele><time>2020-01-06T09:24:46Z</time></trkpt>
<trkpt lat="43.78820898" lon="11.198208975"><ele>38</ele><time>2020-01-06T09:24:47Z</time></trkpt>
<trkpt lat="43.788190959" lon="11.198247029"><ele>38</ele><time>2020-01-06T09:24:48Z</time></trkpt>
<trkpt lat="43.788173022" lon="11.198283993"><ele>39</ele><time>2020-01-06T09:24:49Z</time></trkpt>
<trkpt lat="43.788155001" lon="11.198321041"><ele>39</ele><time>2020-01-06T09:24:50Z</time></trkpt>
<trkpt lat="43.78813698" lon="11.198358005"><ele>39</ele><time>2020-01-06T09:24:51Z</time></trkpt>
<trkpt lat="43.788119964" lon="11.198394969"><ele>39</ele><time>2020-01-06T09:24:52Z</time></trkpt>
<trkpt lat="43.788103033" lon="11.198432017"><ele>39</ele><time>2020-01-06T09:24:53Z</time></trkpt>
<trkpt lat="43.788086018" lon="11.198467975"><ele>39</ele><time>2020-01-06T09:24:54Z</time></trkpt>
<trkpt lat="43.788069002" lon="11.198505023"><ele>39</ele><time>2020-01-06T09:24:55Z</time></trkpt>
<trkpt lat="43.788051987" lon="11.198540982"><ele>39</ele><time>2020-01-06T09:24:56Z</time></trkpt>
<trkpt lat="43.788034972" lon="11.198577024"><ele>39</ele><time>2020-01-06T09:24:57Z</time></trkpt>
<trkpt lat="43.78801804" lon="11.198612982"><ele>39</ele><time>2020-01-06T09:24:58Z</time></trkpt>
<trkpt lat="43.788002031" lon="11.198649025"><ele>39</ele><time>2020-01-06T09:24:59Z</time></trkpt>
<trkpt lat="43.787985016" lon="11.198684983"><ele>39</ele><time>2020-01-06T09:25:00Z</time></trkpt>
<trkpt lat="43.787968" lon="11.198721025"><ele>39</ele><time>2020-01-06T09:25:01Z</time></trkpt>
<trkpt lat="43.787950985" lon="11.198756984"><ele>39</ele><time>2020-01-06T09:25:02Z</time></trkpt>
<trkpt lat="43.78793397" lon="11.198793026"><ele>39</ele><time>2020-01-06T09:25:03Z</time></trkpt>
<trkpt lat="43.787916033" lon="11.198828984"><ele>40</ele><time>2020-01-06T09:25:04Z</time></trkpt>
<trkpt lat="43.787899017" lon="11.19886402"><ele>40</ele><time>2020-01-06T09:25:05Z</time></trkpt>
<trkpt lat="43.787882002" lon="11.198899979"><ele>40</ele><time>2020-01-06T09:25:06Z</time></trkpt>
<trkpt lat="43.787863981" lon="11.198936021"><ele>40</ele><time>2020-01-06T09:25:07Z</time></trkpt>
<trkpt lat="43.787846966" lon="11.198972985"><ele>40</ele><time>2020-01-06T09:25:08Z</time></trkpt>
<trkpt lat="43.787830034" lon="11.199009027"><ele>40</ele><time>2020-01-06T09:25:09Z</time></trkpt>
<trkpt lat="43.787812013" lon="11.199044986"><ele>40</ele><time>2020-01-06T09:25:10Z</time></trkpt>
<trkpt lat="43.787794998" lon="11.199081028"><ele>40</ele><time>2020-01-06T09:25:11Z</time></trkpt>
<trkpt lat="43.787777983" lon="11.199117992"><ele>40</ele><time>2020-01-06T09:25:12Z</time></trkpt>
<trkpt lat="43.787759962" lon="11.199154034"><ele>40</ele><time>2020-01-06T09:25:13Z</time></trkpt>
<trkpt lat="43.78774303" lon="11.199190998"><ele>40</ele><time>2020-01-06T09:25:14Z</time></trkpt>
<trkpt lat="43.787726015" lon="11.199227963"><ele>40</ele><time>2020-01-06T09:25:15Z</time></trkpt>
<trkpt lat="43.787710005" lon="11.199264005"><ele>40</ele><time>2020-01-06T09:25:16Z</time></trkpt>
<trkpt lat="43.78769299" lon="11.199300969"><ele>40</ele><time>2020-01-06T09:25:17Z</time></trkpt>
<trkpt lat="43.787675975" lon="11.199338017"><ele>40</ele><time>2020-01-06T09:25:18Z</time></trkpt>
<trkpt lat="43.787659965" lon="11.199374981"><ele>40</ele><time>2020-01-06T09:25:19Z</time></trkpt>
<trkpt lat="43.78764404" lon="11.199413035"><ele>40</ele><time>2020-01-06T09:25:20Z</time></trkpt>
<trkpt lat="43.787627025" lon="11.199449999"><ele>40</ele><time>2020-01-06T09:25:21Z</time></trkpt>
<trkpt lat="43.787611015" lon="11.199486963"><ele>40</ele><time>2020-01-06T09:25:22Z</time></trkpt>
<trkpt lat="43.787595006" lon="11.199524011"><ele>40</ele><time>2020-01-06T09:25:23Z</time></trkpt>
<trkpt lat="43.787580002" lon="11.199560976"><ele>40</ele><time>2020-01-06T09:25:24Z</time></trkpt>
<trkpt lat="43.787563993" lon="11.199598024"><ele>40</ele><time>2020-01-06T09:25:25Z</time></trkpt>
<trkpt lat="43.787547983" lon="11.199634988"><ele>40</ele><time>2020-01-06T09:25:26Z</time></trkpt>
<trkpt lat="43.78753298" lon="11.199672036"><ele>40</ele><time>2020-01-06T09:25:27Z</time></trkpt>
<trkpt lat="43.78751697" lon="11.199709"><ele>40</ele><time>2020-01-06T09:25:28Z</time></trkpt>
<trkpt lat="43.787501967" lon="11.199745964"><ele>40</ele><time>2020-01-06T09:25:29Z</time></trkpt>
<trkpt lat="43.787486041" lon="11.199783012"><ele>40</ele><time>2020-01-06T09:25:30Z</time></trkpt>
<trkpt lat="43.787470032" lon="11.199819976"><ele>40</ele><time>2020-01-06T09:25:31Z</time></trkpt>
<trkpt lat="43.787454022" lon="11.199857024"><ele>40</ele><time>2020-01-06T09:25:32Z</time></trkpt>
<trkpt lat="43.787438013" lon="11.199894994"><ele>39</ele><time>2020-01-06T09:25:33Z</time></trkpt>
<trkpt lat="43.787422003" lon="11.199931959"><ele>39</ele><time>2020-01-06T09:25:34Z</time></trkpt>
<trkpt lat="43.787405994" lon="11.199969007"><ele>39</ele><time>2020-01-06T09:25:35Z</time></trkpt>
<trkpt lat="43.787389984" lon="11.200005971"><ele>39</ele><time>2020-01-06T09:25:36Z</time></trkpt>
<trkpt lat="43.787373975" lon="11.200043019"><ele>39</ele><time>2020-01-06T09:25:37Z</time></trkpt>
<trkpt lat="43.78735696" lon="11.200079983"><ele>39</ele><time>2020-01-06T09:25:38Z</time></trkpt>
<trkpt lat="43.787341034" lon="11.200117031"><ele>39</ele><time>2020-01-06T09:25:39Z</time></trkpt>
<trkpt lat="43.787324019" lon="11.200153995"><ele>39</ele><time>2020-01-06T09:25:40Z</time></trkpt>
<trkpt lat="43.787308009" lon="11.200190037"><ele>39</ele><time>2020-01-06T09:25:41Z</time></trkpt>
<trkpt lat="43.787290994" lon="11.200227002"><ele>39</ele><time>2020-01-06T09:25:42Z</time></trkpt>
<trkpt lat="43.787273979" lon="11.20026296"><ele>39</ele><time>2020-01-06T09:25:43Z</time></trkpt>
<trkpt lat="43.787256964" lon="11.200299002"><ele>39</ele><time>2020-01-06T09:25:44Z</time></trkpt>
<trkpt lat="43.787241038" lon="11.200334961"><ele>39</ele><time>2020-01-06T09:25:45Z</time></trkpt>
<trkpt lat="43.787224023" lon="11.200371003"><ele>39</ele><time>2020-01-06T09:25:46Z</time></trkpt>
<trkpt lat="43.787207007" lon="11.200406961"><ele>39</ele><time>2020-01-06T09:25:47Z</time></trkpt>
<trkpt lat="43.787189992" lon="11.200441997"><ele>39</ele><time>2020-01-06T09:25:48Z</time></trkpt>
<trkpt lat="43.787172977" lon="11.200477034"><ele>39</ele><time>2020-01-06T09:25:49Z</time></trkpt>
<trkpt lat="43.787155962" lon="11.200512992"><ele>38</ele><time>2020-01-06T09:25:50Z</time></trkpt>
<trkpt lat="43.787138024" lon="11.200548029"><ele>38</ele><time>2020-01-06T09:25:51Z</time></trkpt>
<trkpt lat="43.787121009" lon="11.200583987"><ele>38</ele><time>2020-01-06T09:25:52Z</time></trkpt>
<trkpt lat="43.787103994" lon="11.200619023"><ele>38</ele><time>2020-01-06T09:25:53Z</time></trkpt>
<trkpt lat="43.787086979" lon="11.200654982"><ele>38</ele><time>2020-01-06T09:25:54Z</time></trkpt>
<trkpt lat="43.787069963" lon="11.200691024"><ele>38</ele><time>2020-01-06T09:25:55Z</time></trkpt>
<trkpt lat="43.787052026" lon="11.200726982"><ele>38</ele><time>2020-01-06T09:25:56Z</time></trkpt>
<trkpt lat="43.787035011" lon="11.200763024"><ele>38</ele><time>2020-01-06T09:25:57Z</time></trkpt>
<trkpt lat="43.787017995" lon="11.200799989"><ele>38</ele><time>2020-01-06T09:25:58Z</time></trkpt>
<trkpt lat="43.78700098" lon="11.200837959"><ele>38</ele><time>2020-01-06T09:25:59Z</time></trkpt>
<trkpt lat="43.786982959" lon="11.200875007"><ele>38</ele><time>2020-01-06T09:26:00Z</time></trkpt>
<trkpt lat="43.786966028" lon="11.200913982"><ele>38</ele><time>2020-01-06T09:26:01Z</time></trkpt>
<trkpt lat="43.786948007" lon="11.200952036"><ele>39</ele><time>2020-01-06T09:26:02Z</time></trkpt>
<trkpt lat="43.786930991" lon="11.200991012"><ele>39</ele><time>2020-01-06T09:26:03Z</time></trkpt>
<trkpt lat="43.786913976" lon="11.201028982"><ele>39</ele><time>2020-01-06T09:26:04Z</time></trkpt>
<trkpt lat="43.786896961" lon="11.201068042"><ele>39</ele><time>2020-01-06T09:26:05Z</time></trkpt>
<trkpt lat="43.786881035" lon="11.201106012"><ele>39</ele><time>2020-01-06T09:26:06Z</time></trkpt>
<trkpt lat="43.78686402" lon="11.201143982"><ele>39</ele><time>2020-01-06T09:26:07Z</time></trkpt>
<trkpt lat="43.78684801" lon="11.20118103"><ele>39</ele><time>2020-01-06T09:26:08Z</time></trkpt>
<trkpt lat="43.786833007" lon="11.201216988"><ele>39</ele><time>2020-01-06T09:26:09Z</time></trkpt>
<trkpt lat="43.786816997" lon="11.20125303"><ele>39</ele><time>2020-01-06T09:26:10Z</time></trkpt>
<trkpt lat="43.786801994" lon="11.201288989"><ele>40</ele><time>2020-01-06T09:26:11Z</time></trkpt>
<trkpt lat="43.78678699" lon="11.201324025"><ele>40</ele><time>2020-01-06T09:26:12Z</time></trkpt>
<trkpt lat="43.786771987" lon="11.201358978"><ele>40</ele><time>2020-01-06T09:26:13Z</time></trkpt>
<trkpt lat="43.786756983" lon="11.201393008"><ele>40</ele><time>2020-01-06T09:26:14Z</time></trkpt>
<trkpt lat="43.786740974" lon="11.201427039"><ele>40</ele><time>2020-01-06T09:26:15Z</time></trkpt>
<trkpt lat="43.786724964" lon="11.201461991"><ele>40</ele><time>2020-01-06T09:26:16Z</time></trkpt>
<trkpt lat="43.786709039" lon="11.201497028"><ele>40</ele><time>2020-01-06T09:26:17Z</time></trkpt>
<trkpt lat="43.786692023" lon="11.20153198"><ele>41</ele><time>2020-01-06T09:26:18Z</time></trkpt>
<trkpt lat="43.786674002" lon="11.201568022"><ele>41</ele><time>2020-01-06T09:26:19Z</time></trkpt>
<trkpt lat="43.786618011" lon="11.20168101"><ele>41</ele><time>2020-01-06T09:26:22Z</time></trkpt>
<trkpt lat="43.78659999" lon="11.20171898"><ele>41</ele><time>2020-01-06T09:26:23Z</time></trkpt>
<trkpt lat="43.786581969" lon="11.201757034"><ele>41</ele><time>2020-01-06T09:26:24Z</time></trkpt>
<trkpt lat="43.786565037" lon="11.201792993"><ele>41</ele><time>2020-01-06T09:26:25Z</time></trkpt>
<trkpt lat="43.786549028" lon="11.201828029"><ele>41</ele><time>2020-01-06T09:26:26Z</time></trkpt>
<trkpt lat="43.786534024" lon="11.20186097"><ele>40</ele><time>2020-01-06T09:26:27Z</time></trkpt>
<trkpt lat="43.786520027" lon="11.201891983"><ele>40</ele><time>2020-01-06T09:26:28Z</time></trkpt>
<trkpt lat="43.786507035" lon="11.201922996"><ele>40</ele><time>2020-01-06T09:26:29Z</time></trkpt>
<trkpt lat="43.786494965" lon="11.201953003"><ele>40</ele><time>2020-01-06T09:26:30Z</time></trkpt>
<trkpt lat="43.786482979" lon="11.201985022"><ele>40</ele><time>2020-01-06T09:26:31Z</time></trkpt>
<trkpt lat="43.786469987" lon="11.202016035"><ele>40</ele><time>2020-01-06T09:26:32Z</time></trkpt>
<trkpt lat="43.786458001" lon="11.20204797"><ele>40</ele><time>2020-01-06T09:26:33Z</time></trkpt>
<trkpt lat="43.786445009" lon="11.202079989"><ele>40</ele><time>2020-01-06T09:26:34Z</time></trkpt>
<trkpt lat="43.786432017" lon="11.202112008"><ele>40</ele><time>2020-01-06T09:26:35Z</time></trkpt>
<trkpt lat="43.786417013" lon="11.202144027"><ele>40</ele><time>2020-01-06T09:26:36Z</time></trkpt>
<trkpt lat="43.786402009" lon="11.202175962"><ele>40</ele><time>2020-01-06T09:26:37Z</time></trkpt>
<trkpt lat="43.786384994" lon="11.202207981"><ele>40</ele><time>2020-01-06T09:26:38Z</time></trkpt>
<trkpt lat="43.786366973" lon="11.20224"><ele>40</ele><time>2020-01-06T09:26:39Z</time></trkpt>
<trkpt lat="43.786349036" lon="11.202273024"><ele>40</ele><time>2020-01-06T09:26:40Z</time></trkpt>
<trkpt lat="43.786330009" lon="11.202305965"><ele>40</ele><time>2020-01-06T09:26:41Z</time></trkpt>
<trkpt lat="43.786309976" lon="11.20233899"><ele>40</ele><time>2020-01-06T09:26:42Z</time></trkpt>
<trkpt lat="43.786292039" lon="11.20237302"><ele>40</ele><time>2020-01-06T09:26:43Z</time></trkpt>
<trkpt lat="43.786273012" lon="11.202406967"><ele>40</ele><time>2020-01-06T09:26:44Z</time></trkpt>
<trkpt lat="43.786254991" lon="11.202443009"><ele>40</ele><time>2020-01-06T09:26:45Z</time></trkpt>
<trkpt lat="43.786237976" lon="11.202478968"><ele>40</ele><time>2020-01-06T09:26:46Z</time></trkpt>
<trkpt lat="43.786221966" lon="11.202516016"><ele>40</ele><time>2020-01-06T09:26:47Z</time></trkpt>
<trkpt lat="43.786205035" lon="11.20255298"><ele>40</ele><time>2020-01-06T09:26:48Z</time></trkpt>
<trkpt lat="43.786189025" lon="11.202591034"><ele>40</ele><time>2020-01-06T09:26:49Z</time></trkpt>
<trkpt lat="43.786173016" lon="11.202629004"><ele>40</ele><time>2020-01-06T09:26:50Z</time></trkpt>
<trkpt lat="43.786157006" lon="11.202666974"><ele>40</ele><time>2020-01-06T09:26:51Z</time></trkpt>
<trkpt lat="43.786139991" lon="11.202705028"><ele>40</ele><time>2020-01-06T09:26:52Z</time></trkpt>
<trkpt lat="43.786122976" lon="11.202742998"><ele>40</ele><time>2020-01-06T09:26:53Z</time></trkpt>
<trkpt lat="43.786105961" lon="11.202780968"><ele>40</ele><time>2020-01-06T09:26:54Z</time></trkpt>
<trkpt lat="43.786089029" lon="11.202818016"><ele>40</ele><time>2020-01-06T09:26:55Z</time></trkpt>
<trkpt lat="43.786071008" lon="11.202855986"><ele>40</ele><time>2020-01-06T09:26:56Z</time></trkpt>
<trkpt lat="43.786053993" lon="11.202894039"><ele>40</ele><time>2020-01-06T09:26:57Z</time></trkpt>
<trkpt lat="43.786035972" lon="11.202931004"><ele>40</ele><time>2020-01-06T09:26:58Z</time></trkpt>
<trkpt lat="43.78601904" lon="11.202967968"><ele>40</ele><time>2020-01-06T09:26:59Z</time></trkpt>
<trkpt lat="43.786002025" lon="11.203005016"><ele>40</ele><time>2020-01-06T09:27:00Z</time></trkpt>
<trkpt lat="43.78598501" lon="11.20304198"><ele>40</ele><time>2020-01-06T09:27:01Z</time></trkpt>
<trkpt lat="43.785969" lon="11.203079028"><ele>40</ele><time>2020-01-06T09:27:02Z</time></trkpt>
<trkpt lat="43.785952991" lon="11.203115992"><ele>40</ele><time>2020-01-06T09:27:03Z</time></trkpt>
<trkpt lat="43.785936981" lon="11.20315304"><ele>40</ele><time>2020-01-06T09:27:04Z</time></trkpt>
<trkpt lat="43.785920972" lon="11.203190004"><ele>40</ele><time>2020-01-06T09:27:05Z</time></trkpt>
<trkpt lat="43.785904963" lon="11.203226969"><ele>40</ele><time>2020-01-06T09:27:06Z</time></trkpt>
<trkpt lat="43.785889959" lon="11.203263011"><ele>40</ele><time>2020-01-06T09:27:07Z</time></trkpt>
<trkpt lat="43.785874033" lon="11.203299975"><ele>40</ele><time>2020-01-06T09:27:08Z</time></trkpt>
<trkpt lat="43.78585903" lon="11.203337023"><ele>40</ele><time>2020-01-06T09:27:09Z</time></trkpt>
<trkpt lat="43.78584302" lon="11.203372981"><ele>40</ele><time>2020-01-06T09:27:10Z</time></trkpt>
<trkpt lat="43.785828017" lon="11.203410029"><ele>40</ele><time>2020-01-06T09:27:11Z</time></trkpt>
<trkpt lat="43.785812007" lon="11.203445988"><ele>40</ele><time>2020-01-06T09:27:12Z</time></trkpt>
<trkpt lat="43.785797004" lon="11.203483036"><ele>40</ele><time>2020-01-06T09:27:13Z</time></trkpt>
<trkpt lat="43.785780994" lon="11.203518994"><ele>40</ele><time>2020-01-06T09:27:14Z</time></trkpt>
<trkpt lat="43.785764985" lon="11.203555958"><ele>39</ele><time>2020-01-06T09:27:15Z</time></trkpt>
<trkpt lat="43.785748975" lon="11.203592001"><ele>39</ele><time>2020-01-06T09:27:16Z</time></trkpt>
<trkpt lat="43.785732966" lon="11.203628965"><ele>39</ele><time>2020-01-06T09:27:17Z</time></trkpt>
<trkpt lat="43.78571704" lon="11.203665007"><ele>39</ele><time>2020-01-06T09:27:18Z</time></trkpt>
<trkpt lat="43.785701031" lon="11.203700965"><ele>39</ele><time>2020-01-06T09:27:19Z</time></trkpt>
<trkpt lat="43.785685021" lon="11.203738013"><ele>39</ele><time>2020-01-06T09:27:20Z</time></trkpt>
<trkpt lat="43.785668006" lon="11.203773972"><ele>39</ele><time>2020-01-06T09:27:21Z</time></trkpt>
<trkpt lat="43.785651997" lon="11.203810014"><ele>39</ele><time>2020-01-06T09:27:22Z</time></trkpt>
<trkpt lat="43.785634981" lon="11.203846978"><ele>39</ele><time>2020-01-06T09:27:23Z</time></trkpt>
<trkpt lat="43.785618972" lon="11.20388302"><ele>39</ele><time>2020-01-06T09:27:24Z</time></trkpt>
<trkpt lat="43.785602041" lon="11.203918979"><ele>39</ele><time>2020-01-06T09:27:25Z</time></trkpt>
<trkpt lat="43.785586031" lon="11.203955021"><ele>39</ele><time>2020-01-06T09:27:26Z</time></trkpt>
<trkpt lat="43.785569016" lon="11.203990979"><ele>39</ele><time>2020-01-06T09:27:27Z</time></trkpt>
<trkpt lat="43.785552001" lon="11.204027021"><ele>39</ele><time>2020-01-06T09:27:28Z</time></trkpt>
<trkpt lat="43.785535991" lon="11.20406298"><ele>39</ele><time>2020-01-06T09:27:29Z</time></trkpt>
<trkpt lat="43.785518976" lon="11.204099022"><ele>39</ele><time>2020-01-06T09:27:30Z</time></trkpt>
<trkpt lat="43.785501961" lon="11.20413498"><ele>39</ele><time>2020-01-06T09:27:31Z</time></trkpt>
<trkpt lat="43.785486035" lon="11.204171022"><ele>39</ele><time>2020-01-06T09:27:32Z</time></trkpt>
<trkpt lat="43.78546902" lon="11.204206981"><ele>39</ele><time>2020-01-06T09:27:33Z</time></trkpt>
<trkpt lat="43.785452005" lon="11.204242017"><ele>39</ele><time>2020-01-06T09:27:34Z</time></trkpt>
<trkpt lat="43.785435995" lon="11.204277975"><ele>39</ele><time>2020-01-06T09:27:35Z</time></trkpt>
<trkpt lat="43.78541898" lon="11.204313012"><ele>39</ele><time>2020-01-06T09:27:36Z</time></trkpt>
<trkpt lat="43.78540297" lon="11.20434897"><ele>39</ele><time>2020-01-06T09:27:37Z</time></trkpt>
<trkpt lat="43.785386039" lon="11.204384007"><ele>39</ele><time>2020-01-06T09:27:38Z</time></trkpt>
<trkpt lat="43.78537003" lon="11.204419965"><ele>38</ele><time>2020-01-06T09:27:39Z</time></trkpt>
<trkpt lat="43.785353014" lon="11.204455001"><ele>38</ele><time>2020-01-06T09:27:40Z</time></trkpt>
<trkpt lat="43.785337005" lon="11.204490038"><ele>38</ele><time>2020-01-06T09:27:41Z</time></trkpt>
<trkpt lat="43.78531999" lon="11.20452499"><ele>38</ele><time>2020-01-06T09:27:42Z</time></trkpt>
<trkpt lat="43.78530398" lon="11.204560027"><ele>38</ele><time>2020-01-06T09:27:43Z</time></trkpt>
<trkpt lat="43.785287971" lon="11.204594979"><ele>38</ele><time>2020-01-06T09:27:44Z</time></trkpt>
<trkpt lat="43.785271961" lon="11.204630015"><ele>38</ele><time>2020-01-06T09:27:45Z</time></trkpt>
<trkpt lat="43.785256036" lon="11.204663962"><ele>38</ele><time>2020-01-06T09:27:46Z</time></trkpt>
<trkpt lat="43.785240026" lon="11.204698998"><ele>38</ele><time>2020-01-06T09:27:47Z</time></trkpt>
<trkpt lat="43.785224017" lon="11.204734035"><ele>38</ele><time>2020-01-06T09:27:48Z</time></trkpt>
<trkpt lat="43.785208007" lon="11.204768987"><ele>38</ele><time>2020-01-06T09:27:49Z</time></trkpt>
<trkpt lat="43.785190992" lon="11.20480503"><ele>38</ele><time>2020-01-06T09:27:50Z</time></trkpt>
<trkpt lat="43.785170959" lon="11.204840988"><ele>38</ele><time>2020-01-06T09:27:51Z</time></trkpt>
<trkpt lat="43.785148999" lon="11.204878036"><ele>38</ele><time>2020-01-06T09:27:52Z</time></trkpt>
<trkpt lat="43.785124021" lon="11.204909971"><ele>38</ele><time>2020-01-06T09:27:53Z</time></trkpt>
<trkpt lat="43.785097031" lon="11.204935033"><ele>39</ele><time>2020-01-06T09:27:54Z</time></trkpt>
<trkpt lat="43.785069035" lon="11.204946013"><ele>39</ele><time>2020-01-06T09:27:55Z</time></trkpt>
<trkpt lat="43.785038022" lon="11.20494199"><ele>39</ele><time>2020-01-06T09:27:56Z</time></trkpt>
<trkpt lat="43.785006003" lon="11.204927992"><ele>39</ele><time>2020-01-06T09:27:57Z</time></trkpt>
<trkpt lat="43.784941966" lon="11.204891028"><ele>39</ele><time>2020-01-06T09:27:59Z</time></trkpt>
<trkpt lat="43.784910031" lon="11.204876024"><ele>39</ele><time>2020-01-06T09:28:00Z</time></trkpt>
<trkpt lat="43.784879018" lon="11.204862026"><ele>39</ele><time>2020-01-06T09:28:01Z</time></trkpt>
<trkpt lat="43.784846999" lon="11.20485004"><ele>39</ele><time>2020-01-06T09:28:02Z</time></trkpt>
<trkpt lat="43.784815986" lon="11.20483797"><ele>39</ele><time>2020-01-06T09:28:03Z</time></trkpt>
<trkpt lat="43.784783967" lon="11.20482699"><ele>39</ele><time>2020-01-06T09:28:04Z</time></trkpt>
<trkpt lat="43.784753038" lon="11.20481601"><ele>40</ele><time>2020-01-06T09:28:05Z</time></trkpt>
<trkpt lat="43.784721019" lon="11.20480503"><ele>40</ele><time>2020-01-06T09:28:06Z</time></trkpt>
<trkpt lat="43.784689" lon="11.204793965"><ele>40</ele><time>2020-01-06T09:28:07Z</time></trkpt>
<trkpt lat="43.784657987" lon="11.204782985"><ele>40</ele><time>2020-01-06T09:28:08Z</time></trkpt>
<trkpt lat="43.784626974" lon="11.204773011"><ele>40</ele><time>2020-01-06T09:28:09Z</time></trkpt>
<trkpt lat="43.784595961" lon="11.20476203"><ele>40</ele><time>2020-01-06T09:28:10Z</time></trkpt>
<trkpt lat="43.784566037" lon="11.204752978"><ele>40</ele><time>2020-01-06T09:28:11Z</time></trkpt>
<trkpt lat="43.78453603" lon="11.204743003"><ele>40</ele><time>2020-01-06T09:28:12Z</time></trkpt>
<trkpt lat="43.784506023" lon="11.204732023"><ele>40</ele><time>2020-01-06T09:28:13Z</time></trkpt>
<trkpt lat="43.78447501" lon="11.204720959"><ele>40</ele><time>2020-01-06T09:28:14Z</time></trkpt>
<trkpt lat="43.784445003" lon="11.204709979"><ele>40</ele><time>2020-01-06T09:28:15Z</time></trkpt>
<trkpt lat="43.784414995" lon="11.204698998"><ele>40</ele><time>2020-01-06T09:28:16Z</time></trkpt>
<trkpt lat="43.784384988" lon="11.204688018"><ele>40</ele><time>2020-01-06T09:28:17Z</time></trkpt>
<trkpt lat="43.784353975" lon="11.204676032"><ele>40</ele><time>2020-01-06T09:28:18Z</time></trkpt>
<trkpt lat="43.784323968" lon="11.204663962"><ele>40</ele><time>2020-01-06T09:28:19Z</time></trkpt>
<trkpt lat="43.784293039" lon="11.204652982"><ele>40</ele><time>2020-01-06T09:28:20Z</time></trkpt>
<trkpt lat="43.784263032" lon="11.204640996"><ele>40</ele><time>2020-01-06T09:28:21Z</time></trkpt>
<trkpt lat="43.784169992" lon="11.204605959"><ele>40</ele><time>2020-01-06T09:28:24Z</time></trkpt>
<trkpt lat="43.784138979" lon="11.204594979"><ele>40</ele><time>2020-01-06T09:28:25Z</time></trkpt>
<trkpt lat="43.784107966" lon="11.204583999"><ele>40</ele><time>2020-01-06T09:28:26Z</time></trkpt>
<trkpt lat="43.784077037" lon="11.204573018"><ele>40</ele><time>2020-01-06T09:28:27Z</time></trkpt>
<trkpt lat="43.784046024" lon="11.20456296"><ele>40</ele><time>2020-01-06T09:28:28Z</time></trkpt>
<trkpt lat="43.784014005" lon="11.204552986"><ele>40</ele><time>2020-01-06T09:28:29Z</time></trkpt>
<trkpt lat="43.783982992" lon="11.204543011"><ele>40</ele><time>2020-01-06T09:28:30Z</time></trkpt>
<trkpt lat="43.783950973" lon="11.204533037"><ele>40</ele><time>2020-01-06T09:28:31Z</time></trkpt>
<trkpt lat="43.783919038" lon="11.204522979"><ele>40</ele><time>2020-01-06T09:28:32Z</time></trkpt>
<trkpt lat="43.783888025" lon="11.204511998"><ele>40</ele><time>2020-01-06T09:28:33Z</time></trkpt>
<trkpt lat="43.783856006" lon="11.204502024"><ele>40</ele><time>2020-01-06T09:28:34Z</time></trkpt>
<trkpt lat="43.783824993" lon="11.204490038"><ele>40</ele><time>2020-01-06T09:28:35Z</time></trkpt>
<trkpt lat="43.783792974" lon="11.204477968"><ele>40</ele><time>2020-01-06T09:28:36Z</time></trkpt>
<trkpt lat="43.783761961" lon="11.204465982"><ele>40</ele><time>2020-01-06T09:28:37Z</time></trkpt>
<trkpt lat="43.783731032" lon="11.20445299"><ele>40</ele><time>2020-01-06T09:28:38Z</time></trkpt>
<trkpt lat="43.783700019" lon="11.204438992"><ele>40</ele><time>2020-01-06T09:28:39Z</time></trkpt>
<trkpt lat="43.783669006" lon="11.204426"><ele>40</ele><time>2020-01-06T09:28:40Z</time></trkpt>
<trkpt lat="43.783637993" lon="11.204412002"><ele>40</ele><time>2020-01-06T09:28:41Z</time></trkpt>
<trkpt lat="43.783607986" lon="11.20439901"><ele>40</ele><time>2020-01-06T09:28:42Z</time></trkpt>
<trkpt lat="43.783577979" lon="11.204385012"><ele>40</ele><time>2020-01-06T09:28:43Z</time></trkpt>
<trkpt lat="43.783547971" lon="11.20437202"><ele>40</ele><time>2020-01-06T09:28:44Z</time></trkpt>
<trkpt lat="43.783517964" lon="11.204359028"><ele>40</ele><time>2020-01-06T09:28:45Z</time></trkpt>
<trkpt lat="43.783488963" lon="11.204346037"><ele>40</ele><time>2020-01-06T09:28:46Z</time></trkpt>
<trkpt lat="43.783459961" lon="11.204332961"><ele>40</ele><time>2020-01-06T09:28:47Z</time></trkpt>
<trkpt lat="43.78343096" lon="11.204319969"><ele>40</ele><time>2020-01-06T09:28:48Z</time></trkpt>
<trkpt lat="43.783401959" lon="11.204307983"><ele>40</ele><time>2020-01-06T09:28:49Z</time></trkpt>
<trkpt lat="43.783373041" lon="11.204294991"><ele>40</ele><time>2020-01-06T09:28:50Z</time></trkpt>
<trkpt lat="43.78334404" lon="11.204283005"><ele>40</ele><time>2020-01-06T09:28:51Z</time></trkpt>
<trkpt lat="43.783315038" lon="11.204272024"><ele>40</ele><time>2020-01-06T09:28:52Z</time></trkpt>
<trkpt lat="43.783286037" lon="11.204260038"><ele>40</ele><time>2020-01-06T09:28:53Z</time></trkpt>
<trkpt lat="43.783257036" lon="11.204248974"><ele>40</ele><time>2020-01-06T09:28:54Z</time></trkpt>
<trkpt lat="43.783228034" lon="11.204237994"><ele>40</ele><time>2020-01-06T09:28:55Z</time></trkpt>
<trkpt lat="43.783199033" lon="11.204227014"><ele>40</ele><time>2020-01-06T09:28:56Z</time></trkpt>
<trkpt lat="43.783170031" lon="11.204217039"><ele>40</ele><time>2020-01-06T09:28:57Z</time></trkpt>
<trkpt lat="43.783140024" lon="11.204206981"><ele>40</ele><time>2020-01-06T09:28:58Z</time></trkpt>
<trkpt lat="43.783111023" lon="11.204197006"><ele>40</ele><time>2020-01-06T09:28:59Z</time></trkpt>
<trkpt lat="43.783081016" lon="11.204188038"><ele>40</ele><time>2020-01-06T09:29:00Z</time></trkpt>
<trkpt lat="43.783051008" lon="11.204177979"><ele>40</ele><time>2020-01-06T09:29:01Z</time></trkpt>
<trkpt lat="43.783021001" lon="11.204169011"><ele>40</ele><time>2020-01-06T09:29:02Z</time></trkpt>
<trkpt lat="43.782990994" lon="11.204159958"><ele>40</ele><time>2020-01-06T09:29:03Z</time></trkpt>
<trkpt lat="43.782960987" lon="11.20415099"><ele>40</ele><time>2020-01-06T09:29:04Z</time></trkpt>
<trkpt lat="43.78293098" lon="11.204142021"><ele>40</ele><time>2020-01-06T09:29:05Z</time></trkpt>
<trkpt lat="43.782900972" lon="11.204132969"><ele>39</ele><time>2020-01-06T09:29:06Z</time></trkpt>
<trkpt lat="43.782870965" lon="11.204124"><ele>39</ele><time>2020-01-06T09:29:07Z</time></trkpt>
<trkpt lat="43.782841042" lon="11.204115031"><ele>39</ele><time>2020-01-06T09:29:08Z</time></trkpt>
<trkpt lat="43.782811034" lon="11.204105979"><ele>39</ele><time>2020-01-06T09:29:09Z</time></trkpt>
<trkpt lat="43.782781027" lon="11.204096004"><ele>39</ele><time>2020-01-06T09:29:10Z</time></trkpt>
<trkpt lat="43.78275102" lon="11.204087036"><ele>39</ele><time>2020-01-06T09:29:11Z</time></trkpt>
<trkpt lat="43.782721013" lon="11.204076977"><ele>39</ele><time>2020-01-06T09:29:12Z</time></trkpt>
<trkpt lat="43.78269" lon="11.204067003"><ele>39</ele><time>2020-01-06T09:29:13Z</time></trkpt>
<trkpt lat="43.782659993" lon="11.204057029"><ele>39</ele><time>2020-01-06T09:29:14Z</time></trkpt>
<trkpt lat="43.782629985" lon="11.204047976"><ele>39</ele><time>2020-01-06T09:29:15Z</time></trkpt>
<trkpt lat="43.782598972" lon="11.204038002"><ele>39</ele><time>2020-01-06T09:29:16Z</time></trkpt>
<trkpt lat="43.782567959" lon="11.204029033"><ele>39</ele><time>2020-01-06T09:29:17Z</time></trkpt>
<trkpt lat="43.78253703" lon="11.204018975"><ele>39</ele><time>2020-01-06T09:29:18Z</time></trkpt>
<trkpt lat="43.782506017" lon="11.204007994"><ele>39</ele><time>2020-01-06T09:29:19Z</time></trkpt>
<trkpt lat="43.782473998" lon="11.203997014"><ele>39</ele><time>2020-01-06T09:29:20Z</time></trkpt>
<trkpt lat="43.782381965" lon="11.203968013"><ele>39</ele><time>2020-01-06T09:29:23Z</time></trkpt>
<trkpt lat="43.782353969" lon="11.203963989"><ele>39</ele><time>2020-01-06T09:29:24Z</time></trkpt>
<trkpt lat="43.782327985" lon="11.203964995"><ele>39</ele><time>2020-01-06T09:29:25Z</time></trkpt>
<trkpt lat="43.782304013" lon="11.203973042"><ele>39</ele><time>2020-01-06T09:29:26Z</time></trkpt>
<trkpt lat="43.782281969" lon="11.20398704"><ele>39</ele><time>2020-01-06T09:29:27Z</time></trkpt>
<trkpt lat="43.782264031" lon="11.204007994"><ele>39</ele><time>2020-01-06T09:29:28Z</time></trkpt>
<trkpt lat="43.782249028" lon="11.204033978"><ele>39</ele><time>2020-01-06T09:29:29Z</time></trkpt>
<trkpt lat="43.782237964" lon="11.204064991"><ele>39</ele><time>2020-01-06T09:29:30Z</time></trkpt>
<trkpt lat="43.782230001" lon="11.204101034"><ele>39</ele><time>2020-01-06T09:29:31Z</time></trkpt>
<trkpt lat="43.782225978" lon="11.204140009"><ele>39</ele><time>2020-01-06T09:29:32Z</time></trkpt>
<trkpt lat="43.782222038" lon="11.204182003"><ele>39</ele><time>2020-01-06T09:29:33Z</time></trkpt>
<trkpt lat="43.782218015" lon="11.204223996"><ele>39</ele><time>2020-01-06T09:29:34Z</time></trkpt>
<trkpt lat="43.782212986" lon="11.204268001"><ele>39</ele><time>2020-01-06T09:29:35Z</time></trkpt>
<trkpt lat="43.782206029" lon="11.204312006"><ele>39</ele><time>2020-01-06T09:29:36Z</time></trkpt>
<trkpt lat="43.782197982" lon="11.204356011"><ele>39</ele><time>2020-01-06T09:29:37Z</time></trkpt>
<trkpt lat="43.782190019" lon="11.20439901"><ele>39</ele><time>2020-01-06T09:29:38Z</time></trkpt>
<trkpt lat="43.782181973" lon="11.204442009"><ele>39</ele><time>2020-01-06T09:29:39Z</time></trkpt>
<trkpt lat="43.782162024" lon="11.204562038"><ele>39</ele><time>2020-01-06T09:29:42Z</time></trkpt>
<trkpt lat="43.782156995" lon="11.204599002"><ele>39</ele><time>2020-01-06T09:29:43Z</time></trkpt>
<trkpt lat="43.782152971" lon="11.204635967"><ele>39</ele><time>2020-01-06T09:29:44Z</time></trkpt>
<trkpt lat="43.782149032" lon="11.204671003"><ele>39</ele><time>2020-01-06T09:29:45Z</time></trkpt>
<trkpt lat="43.782144003" lon="11.204706961"><ele>39</ele><time>2020-01-06T09:29:46Z</time></trkpt>
<trkpt lat="43.782138973" lon="11.204741998"><ele>39</ele><time>2020-01-06T09:29:47Z</time></trkpt>
<trkpt lat="43.782132016" lon="11.20477804"><ele>39</ele><time>2020-01-06T09:29:48Z</time></trkpt>
<trkpt lat="43.782122964" lon="11.204815004"><ele>39</ele><time>2020-01-06T09:29:49Z</time></trkpt>
<trkpt lat="43.78211299" lon="11.204851968"><ele>39</ele><time>2020-01-06T09:29:50Z</time></trkpt>
<trkpt lat="43.782099998" lon="11.204890022"><ele>39</ele><time>2020-01-06T09:29:51Z</time></trkpt>
<trkpt lat="43.782087006" lon="11.204928998"><ele>39</ele><time>2020-01-06T09:29:52Z</time></trkpt>
<trkpt lat="43.782072002" lon="11.20496898"><ele>39</ele><time>2020-01-06T09:29:53Z</time></trkpt>
<trkpt lat="43.782058004" lon="11.205008961"><ele>39</ele><time>2020-01-06T09:29:54Z</time></trkpt>
<trkpt lat="43.782017017" lon="11.205129996"><ele>39</ele><time>2020-01-06T09:29:57Z</time></trkpt>
<trkpt lat="43.782005031" lon="11.205169978"><ele>39</ele><time>2020-01-06T09:29:58Z</time></trkpt>
<trkpt lat="43.781994972" lon="11.205209959"><ele>39</ele><time>2020-01-06T09:29:59Z</time></trkpt>
<trkpt lat="43.781984998" lon="11.205250025"><ele>39</ele><time>2020-01-06T09:30:00Z</time></trkpt>
<trkpt lat="43.781976029" lon="11.205290006"><ele>39</ele><time>2020-01-06T09:30:01Z</time></trkpt>
<trkpt lat="43.781967983" lon="11.205330994"><ele>39</ele><time>2020-01-06T09:30:02Z</time></trkpt>
<trkpt lat="43.781961026" lon="11.205370976"><ele>39</ele><time>2020-01-06T09:30:03Z</time></trkpt>
<trkpt lat="43.781953985" lon="11.205411041"><ele>39</ele><time>2020-01-06T09:30:04Z</time></trkpt>
<trkpt lat="43.781948034" lon="11.205452029"><ele>39</ele><time>2020-01-06T09:30:05Z</time></trkpt>
<trkpt lat="43.781941999" lon="11.20549201"><ele>39</ele><time>2020-01-06T09:30:06Z</time></trkpt>
<trkpt lat="43.781935964" lon="11.205532998"><ele>39</ele><time>2020-01-06T09:30:07Z</time></trkpt>
<trkpt lat="43.781931018" lon="11.205573985"><ele>39</ele><time>2020-01-06T09:30:08Z</time></trkpt>
<trkpt lat="43.781925989" lon="11.205615979"><ele>39</ele><time>2020-01-06T09:30:09Z</time></trkpt>
<trkpt lat="43.78192096" lon="11.205656966"><ele>39</ele><time>2020-01-06T09:30:10Z</time></trkpt>
<trkpt lat="43.781916015" lon="11.20569896"><ele>39</ele><time>2020-01-06T09:30:11Z</time></trkpt>
<trkpt lat="43.781910986" lon="11.205741037"><ele>39</ele><time>2020-01-06T09:30:12Z</time></trkpt>
<trkpt lat="43.78190604" lon="11.205784036"><ele>39</ele><time>2020-01-06T09:30:13Z</time></trkpt>
<trkpt lat="43.781902017" lon="11.205826029"><ele>39</ele><time>2020-01-06T09:30:14Z</time></trkpt>
<trkpt lat="43.781896988" lon="11.205869028"><ele>39</ele><time>2020-01-06T09:30:15Z</time></trkpt>
<trkpt lat="43.781891959" lon="11.205912028"><ele>39</ele><time>2020-01-06T09:30:16Z</time></trkpt>
<trkpt lat="43.781887013" lon="11.205956032"><ele>39</ele><time>2020-01-06T09:30:17Z</time></trkpt>
<trkpt lat="43.781881984" lon="11.205999032"><ele>39</ele><time>2020-01-06T09:30:18Z</time></trkpt>
<trkpt lat="43.781877961" lon="11.206043037"><ele>39</ele><time>2020-01-06T09:30:19Z</time></trkpt>
<trkpt lat="43.781873016" lon="11.206087042"><ele>39</ele><time>2020-01-06T09:30:20Z</time></trkpt>
<trkpt lat="43.781867987" lon="11.206130963"><ele>39</ele><time>2020-01-06T09:30:21Z</time></trkpt>
<trkpt lat="43.781863041" lon="11.206174968"><ele>40</ele><time>2020-01-06T09:30:22Z</time></trkpt>
<trkpt lat="43.781858012" lon="11.206218973"><ele>40</ele><time>2020-01-06T09:30:23Z</time></trkpt>
<trkpt lat="43.781852983" lon="11.206263984"><ele>40</ele><time>2020-01-06T09:30:24Z</time></trkpt>
<trkpt lat="43.781848038" lon="11.206307989"><ele>40</ele><time>2020-01-06T09:30:25Z</time></trkpt>
<trkpt lat="43.781844014" lon="11.206352999"><ele>40</ele><time>2020-01-06T09:30:26Z</time></trkpt>
<trkpt lat="43.781838985" lon="11.206397004"><ele>40</ele><time>2020-01-06T09:30:27Z</time></trkpt>
<trkpt lat="43.78183404" lon="11.206442015"><ele>40</ele><time>2020-01-06T09:30:28Z</time></trkpt>
<trkpt lat="43.781829011" lon="11.206487026"><ele>40</ele><time>2020-01-06T09:30:29Z</time></trkpt>
<trkpt lat="43.781823982" lon="11.206531031"><ele>40</ele><time>2020-01-06T09:30:30Z</time></trkpt>
<trkpt lat="43.78181803" lon="11.206576042"><ele>40</ele><time>2020-01-06T09:30:31Z</time></trkpt>
<trkpt lat="43.781813001" lon="11.206619963"><ele>40</ele><time>2020-01-06T09:30:32Z</time></trkpt>
<trkpt lat="43.781807972" lon="11.206664974"><ele>40</ele><time>2020-01-06T09:30:33Z</time></trkpt>
<trkpt lat="43.781803027" lon="11.206708979"><ele>40</ele><time>2020-01-06T09:30:34Z</time></trkpt>
<trkpt lat="43.781797998" lon="11.20675399"><ele>40</ele><time>2020-01-06T09:30:35Z</time></trkpt>
<trkpt lat="43.781791963" lon="11.206797995"><ele>40</ele><time>2020-01-06T09:30:36Z</time></trkpt>
<trkpt lat="43.781787017" lon="11.206842"><ele>40</ele><time>2020-01-06T09:30:37Z</time></trkpt>
<trkpt lat="43.781780982" lon="11.206886005"><ele>40</ele><time>2020-01-06T09:30:38Z</time></trkpt>
<trkpt lat="43.781776037" lon="11.20693001"><ele>40</ele><time>2020-01-06T09:30:39Z</time></trkpt>
<trkpt lat="43.781770002" lon="11.206974015"><ele>40</ele><time>2020-01-06T09:30:40Z</time></trkpt>
<trkpt lat="43.781763967" lon="11.20701802"><ele>40</ele><time>2020-01-06T09:30:41Z</time></trkpt>
<trkpt lat="43.781759022" lon="11.207061019"><ele>39</ele><time>2020-01-06T09:30:42Z</time></trkpt>
<trkpt lat="43.781753993" lon="11.207104018"><ele>39</ele><time>2020-01-06T09:30:43Z</time></trkpt>
<trkpt lat="43.781748042" lon="11.207146011"><ele>39</ele><time>2020-01-06T09:30:44Z</time></trkpt>
<trkpt lat="43.781744018" lon="11.207188005"><ele>39</ele><time>2020-01-06T09:30:45Z</time></trkpt>
<trkpt lat="43.781738989" lon="11.207228992"><ele>39</ele><time>2020-01-06T09:30:46Z</time></trkpt>
<trkpt lat="43.781732032" lon="11.207267968"><ele>39</ele><time>2020-01-06T09:30:47Z</time></trkpt>
<trkpt lat="43.781723985" lon="11.20730401"><ele>39</ele><time>2020-01-06T09:30:48Z</time></trkpt>
<trkpt lat="43.781710993" lon="11.207336029"><ele>39</ele><time>2020-01-06T09:30:49Z</time></trkpt>
<trkpt lat="43.781690961" lon="11.20735799"><ele>39</ele><time>2020-01-06T09:30:50Z</time></trkpt>
<trkpt lat="43.781584008" lon="11.207355978"><ele>39</ele><time>2020-01-06T09:30:53Z</time></trkpt>
<trkpt lat="43.781544026" lon="11.207348015"><ele>40</ele><time>2020-01-06T09:30:54Z</time></trkpt>
<trkpt lat="43.781504966" lon="11.207338041"><ele>40</ele><time>2020-01-06T09:30:55Z</time></trkpt>
<trkpt lat="43.781469008" lon="11.207328988"><ele>40</ele><time>2020-01-06T09:30:56Z</time></trkpt>
<trkpt lat="43.781434977" lon="11.207319014"><ele>40</ele><time>2020-01-06T09:30:57Z</time></trkpt>
<trkpt lat="43.781402959" lon="11.207308033"><ele>40</ele><time>2020-01-06T09:30:58Z</time></trkpt>
<trkpt lat="43.781372029" lon="11.207296969"><ele>40</ele><time>2020-01-06T09:30:59Z</time></trkpt>
<trkpt lat="43.781343028" lon="11.207284983"><ele>40</ele><time>2020-01-06T09:31:00Z</time></trkpt>
<trkpt lat="43.781314027" lon="11.207271991"><ele>40</ele><time>2020-01-06T09:31:01Z</time></trkpt>
<trkpt lat="43.781285025" lon="11.207256988"><ele>40</ele><time>2020-01-06T09:31:02Z</time></trkpt>
<trkpt lat="43.78125703" lon="11.207240978"><ele>40</ele><time>2020-01-06T09:31:03Z</time></trkpt>
<trkpt lat="43.781228028" lon="11.207222035"><ele>40</ele><time>2020-01-06T09:31:04Z</time></trkpt>
<trkpt lat="43.781200033" lon="11.207203008"><ele>40</ele><time>2020-01-06T09:31:05Z</time></trkpt>
<trkpt lat="43.781171031" lon="11.207183981"><ele>41</ele><time>2020-01-06T09:31:06Z</time></trkpt>
<trkpt lat="43.781143036" lon="11.207164032"><ele>41</ele><time>2020-01-06T09:31:07Z</time></trkpt>
<trkpt lat="43.78111504" lon="11.207144"><ele>41</ele><time>2020-01-06T09:31:08Z</time></trkpt>
<trkpt lat="43.781086961" lon="11.207124973"><ele>41</ele><time>2020-01-06T09:31:09Z</time></trkpt>
<trkpt lat="43.781059971" lon="11.20710603"><ele>41</ele><time>2020-01-06T09:31:10Z</time></trkpt>
<trkpt lat="43.781032981" lon="11.207089014"><ele>41</ele><time>2020-01-06T09:31:11Z</time></trkpt>
<trkpt lat="43.781005992" lon="11.207071999"><ele>41</ele><time>2020-01-06T09:31:12Z</time></trkpt>
<trkpt lat="43.780979002" lon="11.207056995"><ele>41</ele><time>2020-01-06T09:31:13Z</time></trkpt>
<trkpt lat="43.780952012" lon="11.207042998"><ele>41</ele><time>2020-01-06T09:31:14Z</time></trkpt>
<trkpt lat="43.780924017" lon="11.207029"><ele>41</ele><time>2020-01-06T09:31:15Z</time></trkpt>
<trkpt lat="43.780895015" lon="11.207017014"><ele>41</ele><time>2020-01-06T09:31:16Z</time></trkpt>
<trkpt lat="43.780865008" lon="11.207006034"><ele>41</ele><time>2020-01-06T09:31:17Z</time></trkpt>
<trkpt lat="43.780833995" lon="11.206994969"><ele>41</ele><time>2020-01-06T09:31:18Z</time></trkpt>
<trkpt lat="43.780801976" lon="11.206986001"><ele>41</ele><time>2020-01-06T09:31:19Z</time></trkpt>
<trkpt lat="43.780769035" lon="11.206977032"><ele>41</ele><time>2020-01-06T09:31:20Z</time></trkpt>
<trkpt lat="43.780736011" lon="11.206968985"><ele>41</ele><time>2020-01-06T09:31:21Z</time></trkpt>
<trkpt lat="43.780632997" lon="11.206946019"><ele>41</ele><time>2020-01-06T09:31:24Z</time></trkpt>
<trkpt lat="43.780597961" lon="11.206937972"><ele>41</ele><time>2020-01-06T09:31:25Z</time></trkpt>
<trkpt lat="43.780564014" lon="11.20693001"><ele>41</ele><time>2020-01-06T09:31:26Z</time></trkpt>
<trkpt lat="43.780529983" lon="11.206921041"><ele>42</ele><time>2020-01-06T09:31:27Z</time></trkpt>
<trkpt lat="43.780496037" lon="11.206911989"><ele>42</ele><time>2020-01-06T09:31:28Z</time></trkpt>
<trkpt lat="43.780462006" lon="11.20690302"><ele>42</ele><time>2020-01-06T09:31:29Z</time></trkpt>
<trkpt lat="43.780427976" lon="11.20689204"><ele>42</ele><time>2020-01-06T09:31:30Z</time></trkpt>
<trkpt lat="43.780394029" lon="11.20687997"><ele>42</ele><time>2020-01-06T09:31:31Z</time></trkpt>
<trkpt lat="43.780359998" lon="11.206867984"><ele>42</ele><time>2020-01-06T09:31:32Z</time></trkpt>
<trkpt lat="43.780326974" lon="11.206853986"><ele>42</ele><time>2020-01-06T09:31:33Z</time></trkpt>
<trkpt lat="43.780293027" lon="11.206838982"><ele>42</ele><time>2020-01-06T09:31:34Z</time></trkpt>
<trkpt lat="43.780261008" lon="11.206823979"><ele>42</ele><time>2020-01-06T09:31:35Z</time></trkpt>
<trkpt lat="43.780227983" lon="11.206807969"><ele>42</ele><time>2020-01-06T09:31:36Z</time></trkpt>
<trkpt lat="43.78019697" lon="11.206792966"><ele>42</ele><time>2020-01-06T09:31:37Z</time></trkpt>
<trkpt lat="43.780166963" lon="11.206778968"><ele>43</ele><time>2020-01-06T09:31:38Z</time></trkpt>
<trkpt lat="43.780137962" lon="11.206766982"><ele>43</ele><time>2020-01-06T09:31:39Z</time></trkpt>
<trkpt lat="43.780109966" lon="11.206754996"><ele>43</ele><time>2020-01-06T09:31:40Z</time></trkpt>
<trkpt lat="43.780080965" lon="11.206743009"><ele>43</ele><time>2020-01-06T09:31:41Z</time></trkpt>
<trkpt lat="43.779988009" lon="11.206707973"><ele>43</ele><time>2020-01-06T09:31:44Z</time></trkpt>
<trkpt lat="43.779960014" lon="11.206699004"><ele>43</ele><time>2020-01-06T09:31:45Z</time></trkpt>
<trkpt lat="43.779933024" lon="11.20668903"><ele>43</ele><time>2020-01-06T09:31:46Z</time></trkpt>
<trkpt lat="43.779906034" lon="11.206678972"><ele>43</ele><time>2020-01-06T09:31:47Z</time></trkpt>
<trkpt lat="43.779879967" lon="11.206666986"><ele>43</ele><time>2020-01-06T09:31:48Z</time></trkpt>
<trkpt lat="43.779853983" lon="11.206652988"><ele>43</ele><time>2020-01-06T09:31:49Z</time></trkpt>
<trkpt lat="43.779829005" lon="11.206636978"><ele>43</ele><time>2020-01-06T09:31:50Z</time></trkpt>
<trkpt lat="43.779804027" lon="11.206620969"><ele>42</ele><time>2020-01-06T09:31:51Z</time></trkpt>
<trkpt lat="43.779778965" lon="11.206604037"><ele>42</ele><time>2020-01-06T09:31:52Z</time></trkpt>
<trkpt lat="43.779753987" lon="11.206586016"><ele>42</ele><time>2020-01-06T09:31:53Z</time></trkpt>
<trkpt lat="43.779730015" lon="11.206567995"><ele>42</ele><time>2020-01-06T09:31:54Z</time></trkpt>
<trkpt lat="43.779705958" lon="11.206549974"><ele>42</ele><time>2020-01-06T09:31:55Z</time></trkpt>
<trkpt lat="43.77968098" lon="11.206532959"><ele>42</ele><time>2020-01-06T09:31:56Z</time></trkpt>
<trkpt lat="43.779654996" lon="11.206516027"><ele>42</ele><time>2020-01-06T09:31:57Z</time></trkpt>
<trkpt lat="43.779627001" lon="11.206501024"><ele>42</ele><time>2020-01-06T09:31:58Z</time></trkpt>
<trkpt lat="43.779594982" lon="11.206487026"><ele>42</ele><time>2020-01-06T09:31:59Z</time></trkpt>
<trkpt lat="43.779561035" lon="11.206473028"><ele>41</ele><time>2020-01-06T09:32:00Z</time></trkpt>
<trkpt lat="43.779450981" lon="11.206429023"><ele>41</ele><time>2020-01-06T09:32:03Z</time></trkpt>
<trkpt lat="43.779416028" lon="11.206412008"><ele>41</ele><time>2020-01-06T09:32:04Z</time></trkpt>
<trkpt lat="43.779381998" lon="11.206392981"><ele>41</ele><time>2020-01-06T09:32:05Z</time></trkpt>
<trkpt lat="43.779351991" lon="11.206373032"><ele>41</ele><time>2020-01-06T09:32:06Z</time></trkpt>
<trkpt lat="43.779327013" lon="11.206350988"><ele>41</ele><time>2020-01-06T09:32:07Z</time></trkpt>
<trkpt lat="43.77930698" lon="11.206327016"><ele>41</ele><time>2020-01-06T09:32:08Z</time></trkpt>
<trkpt lat="43.779292982" lon="11.206301032"><ele>41</ele><time>2020-01-06T09:32:09Z</time></trkpt>
<trkpt lat="43.779285019" lon="11.206274042"><ele>41</ele><time>2020-01-06T09:32:10Z</time></trkpt>
<trkpt lat="43.779283008" lon="11.206243029"><ele>41</ele><time>2020-01-06T09:32:11Z</time></trkpt>
<trkpt lat="43.779285019" lon="11.20621101"><ele>41</ele><time>2020-01-06T09:32:12Z</time></trkpt>
<trkpt lat="43.779289965" lon="11.206175974"><ele>40</ele><time>2020-01-06T09:32:13Z</time></trkpt>
<trkpt lat="43.779298011" lon="11.206138004"><ele>40</ele><time>2020-01-06T09:32:14Z</time></trkpt>
<trkpt lat="43.779307986" lon="11.206097016"><ele>40</ele><time>2020-01-06T09:32:15Z</time></trkpt>
<trkpt lat="43.779318966" lon="11.206052005"><ele>40</ele><time>2020-01-06T09:32:16Z</time></trkpt>
<trkpt lat="43.779331036" lon="11.206004983"><ele>40</ele><time>2020-01-06T09:32:17Z</time></trkpt>
<trkpt lat="43.779343022" lon="11.205955027"><ele>40</ele><time>2020-01-06T09:32:18Z</time></trkpt>
<trkpt lat="43.779354002" lon="11.205902975"><ele>40</ele><time>2020-01-06T09:32:19Z</time></trkpt>
<trkpt lat="43.779365988" lon="11.205851007"><ele>40</ele><time>2020-01-06T09:32:20Z</time></trkpt>
<trkpt lat="43.779377975" lon="11.205799039"><ele>40</ele><time>2020-01-06T09:32:21Z</time></trkpt>
<trkpt lat="43.779389961" lon="11.205747994"><ele>40</ele><time>2020-01-06T09:32:22Z</time></trkpt>
<trkpt lat="43.779402031" lon="11.205699965"><ele>40</ele><time>2020-01-06T09:32:23Z</time></trkpt>
<trkpt lat="43.779414017" lon="11.205654033"><ele>40</ele><time>2020-01-06T09:32:24Z</time></trkpt>
<trkpt lat="43.779424997" lon="11.205610028"><ele>40</ele><time>2020-01-06T09:32:25Z</time></trkpt>
<trkpt lat="43.779435977" lon="11.205568034"><ele>40</ele><time>2020-01-06T09:32:26Z</time></trkpt>
<trkpt lat="43.779447041" lon="11.205526963"><ele>40</ele><time>2020-01-06T09:32:27Z</time></trkpt>
<trkpt lat="43.779457016" lon="11.205485975"><ele>40</ele><time>2020-01-06T09:32:28Z</time></trkpt>
<trkpt lat="43.77946699" lon="11.205444988"><ele>40</ele><time>2020-01-06T09:32:29Z</time></trkpt>
<trkpt lat="43.779475959" lon="11.205404"><ele>40</ele><time>2020-01-06T09:32:30Z</time></trkpt>
<trkpt lat="43.779484006" lon="11.205361001"><ele>40</ele><time>2020-01-06T09:32:31Z</time></trkpt>
<trkpt lat="43.779491968" lon="11.20531599"><ele>40</ele><time>2020-01-06T09:32:32Z</time></trkpt>
<trkpt lat="43.779500015" lon="11.20527098"><ele>40</ele><time>2020-01-06T09:32:33Z</time></trkpt>
<trkpt lat="43.779507978" lon="11.205224963"><ele>39</ele><time>2020-01-06T09:32:34Z</time></trkpt>
<trkpt lat="43.779518036" lon="11.205181964"><ele>39</ele><time>2020-01-06T09:32:35Z</time></trkpt>
<trkpt lat="43.779530022" lon="11.205140976"><ele>39</ele><time>2020-01-06T09:32:36Z</time></trkpt>
<trkpt lat="43.77954402" lon="11.205104012"><ele>39</ele><time>2020-01-06T09:32:37Z</time></trkpt>
<trkpt lat="43.779562041" lon="11.205070987"><ele>39</ele><time>2020-01-06T09:32:38Z</time></trkpt>
<trkpt lat="43.779584002" lon="11.205045003"><ele>39</ele><time>2020-01-06T09:32:39Z</time></trkpt>
<trkpt lat="43.779636975" lon="11.205011979"><ele>39</ele><time>2020-01-06T09:32:41Z</time></trkpt>
<trkpt lat="43.779666983" lon="11.205004016"><ele>39</ele><time>2020-01-06T09:32:42Z</time></trkpt>
<trkpt lat="43.779697996" lon="11.205000998"><ele>39</ele><time>2020-01-06T09:32:43Z</time></trkpt>
<trkpt lat="43.779789023" lon="11.204991024"><ele>38</ele><time>2020-01-06T09:32:46Z</time></trkpt>
<trkpt lat="43.77981903" lon="11.204978032"><ele>38</ele><time>2020-01-06T09:32:47Z</time></trkpt>
<trkpt lat="43.77984996" lon="11.204962023"><ele>38</ele><time>2020-01-06T09:32:48Z</time></trkpt>
<trkpt lat="43.779880973" lon="11.204942996"><ele>38</ele><time>2020-01-06T09:32:49Z</time></trkpt>
<trkpt lat="43.779911986" lon="11.204924975"><ele>38</ele><time>2020-01-06T09:32:50Z</time></trkpt>
<trkpt lat="43.779941993" lon="11.204908965"><ele>37</ele><time>2020-01-06T09:32:51Z</time></trkpt>
<trkpt lat="43.779973006" lon="11.204897985"><ele>37</ele><time>2020-01-06T09:32:52Z</time></trkpt>
<trkpt lat="43.780002007" lon="11.204893962"><ele>37</ele><time>2020-01-06T09:32:53Z</time></trkpt>
<trkpt lat="43.780031009" lon="11.204897985"><ele>37</ele><time>2020-01-06T09:32:54Z</time></trkpt>
<trkpt lat="43.780059004" lon="11.204909971"><ele>37</ele><time>2020-01-06T09:32:55Z</time></trkpt>
<trkpt lat="43.780109966" lon="11.204955988"><ele>37</ele><time>2020-01-06T09:32:57Z</time></trkpt>
<trkpt lat="43.780132011" lon="11.204987001"><ele>37</ele><time>2020-01-06T09:32:58Z</time></trkpt>
<trkpt lat="43.78015196" lon="11.205022959"><ele>37</ele><time>2020-01-06T09:32:59Z</time></trkpt>
<trkpt lat="43.780169981" lon="11.205063025"><ele>37</ele><time>2020-01-06T09:33:00Z</time></trkpt>
<trkpt lat="43.780183978" lon="11.205106024"><ele>37</ele><time>2020-01-06T09:33:01Z</time></trkpt>
<trkpt lat="43.780195965" lon="11.20515204"><ele>37</ele><time>2020-01-06T09:33:02Z</time></trkpt>
<trkpt lat="43.780204011" lon="11.205197973"><ele>38</ele><time>2020-01-06T09:33:03Z</time></trkpt>
<trkpt lat="43.780208034" lon="11.205244996"><ele>38</ele><time>2020-01-06T09:33:04Z</time></trkpt>
<trkpt lat="43.780208034" lon="11.205292018"><ele>38</ele><time>2020-01-06T09:33:05Z</time></trkpt>
<trkpt lat="43.780203005" lon="11.205338035"><ele>38</ele><time>2020-01-06T09:33:06Z</time></trkpt></trkseg></trk><wpt lat="43.780203005" lon="11.205338035"><name>Finish km:13.319, Lat:43.7802, Lon:11.2053</name><sym>Finish</sym><ele>38</ele></wpt><wpt lat="43.776651006" lon="11.21594701"><name>km:1, Lat:43.7767, Lon:11.2159</name><ele>43</ele></wpt><wpt lat="43.776976978" lon="11.223336998"><name>km:2, Lat:43.777, Lon:11.2233</name><ele>49</ele></wpt><wpt lat="43.781220987" lon="11.213723961"><name>km:3, Lat:43.7812, Lon:11.2137</name><ele>38</ele></wpt><wpt lat="43.785927007" lon="11.203221017"><name>km:4, Lat:43.7859, Lon:11.2032</name><ele>40</ele></wpt><wpt lat="43.791097971" lon="11.197546972"><name>km:5, Lat:43.7911, Lon:11.1975</name><ele>37</ele></wpt><wpt lat="43.788458006" lon="11.208719965"><name>km:6, Lat:43.7885, Lon:11.2087</name><ele>45</ele></wpt><wpt lat="43.782886975" lon="11.218475997"><name>km:7, Lat:43.7829, Lon:11.2185</name><ele>45</ele></wpt><wpt lat="43.778103003" lon="11.228711978"><name>km:8, Lat:43.7781, Lon:11.2287</name><ele>48</ele></wpt><wpt lat="43.781056032" lon="11.217941986"><name>km:9, Lat:43.7811, Lon:11.2179</name><ele>43</ele></wpt><wpt lat="43.785787029" lon="11.207423033"><name>km:10, Lat:43.7858, Lon:11.2074</name><ele>44</ele></wpt><wpt lat="43.791083973" lon="11.198323974"><name>km:11, Lat:43.7911, Lon:11.1983</name><ele>40</ele></wpt><wpt lat="43.786105961" lon="11.202780968"><name>km:12, Lat:43.7861, Lon:11.2028</name><ele>40</ele></wpt><wpt lat="43.779960014" lon="11.206699004"><name>km:13, Lat:43.78, Lon:11.2067</name><ele>43</ele></wpt></gpx>
